<?xml version="1.0" encoding="UTF-8"?>
<gpx xmlns="http://www.topografix.com/GPX/1/1" version="1.1" xmlns:xsi="http://www.w3.org/2001/XMLSchema-instance" xsi:schemaLocation="http://www.topografix.com/GPX/1/1 http://www.topografix.com/GPX/1/1/gpx.xsd" creator="MotionXGPSFull 24.4 Build 5112 R64">
<trk>
<name><![CDATA[Bangkok One Day Trip]]></name>
<desc><![CDATA[Apr 2, 2018  9:16 am]]></desc>
<trkseg>
<trkpt lat="13.7545021" lon="100.5267346">
<ele>8.217</ele>
<time>2018-04-02T02:16:58.419Z</time>
</trkpt>
<trkpt lat="13.7544132" lon="100.5267602">
<ele>8.213</ele>
<time>2018-04-02T02:17:00.798Z</time>
</trkpt>
<trkpt lat="13.7545359" lon="100.5267694">
<ele>7.839</ele>
<time>2018-04-02T02:17:06.129Z</time>
</trkpt>
<trkpt lat="13.7544760" lon="100.5266155">
<ele>6.808</ele>
<time>2018-04-02T02:17:12.911Z</time>
</trkpt>
<trkpt lat="13.7543653" lon="100.5266126">
<ele>5.295</ele>
<time>2018-04-02T02:17:16.100Z</time>
</trkpt>
<trkpt lat="13.7543151" lon="100.5265192">
<ele>3.726</ele>
<time>2018-04-02T02:17:19.431Z</time>
</trkpt>
<trkpt lat="13.7543151" lon="100.5265192">
<ele>2.788</ele>
<time>2018-04-02T02:17:20.419Z</time>
</trkpt>
<trkpt lat="13.7543151" lon="100.5265192">
<ele>2.848</ele>
<time>2018-04-02T02:17:23.430Z</time>
</trkpt>
<trkpt lat="13.7545419" lon="100.5268505">
<ele>5.023</ele>
<time>2018-04-02T02:17:37.236Z</time>
</trkpt>
<trkpt lat="13.7543949" lon="100.5267583">
<ele>5.020</ele>
<time>2018-04-02T02:17:40.439Z</time>
</trkpt>
<trkpt lat="13.7543949" lon="100.5267583">
<ele>5.019</ele>
<time>2018-04-02T02:17:45.428Z</time>
</trkpt>
<trkpt lat="13.7543949" lon="100.5267583">
<ele>5.017</ele>
<time>2018-04-02T02:18:00.429Z</time>
</trkpt>
<trkpt lat="13.7544967" lon="100.5266128">
<ele>4.885</ele>
<time>2018-04-02T02:18:09.047Z</time>
</trkpt>
<trkpt lat="13.7544967" lon="100.5266128">
<ele>4.883</ele>
<time>2018-04-02T02:19:21.080Z</time>
</trkpt>
<trkpt lat="13.7544967" lon="100.5266128">
<ele>4.882</ele>
<time>2018-04-02T02:19:23.160Z</time>
</trkpt>
<trkpt lat="13.7546575" lon="100.5265900">
<ele>4.880</ele>
<time>2018-04-02T02:19:31.305Z</time>
</trkpt>
<trkpt lat="13.7547914" lon="100.5266099">
<ele>4.781</ele>
<time>2018-04-02T02:19:34.517Z</time>
</trkpt>
<trkpt lat="13.7549127" lon="100.5266031">
<ele>4.467</ele>
<time>2018-04-02T02:19:37.505Z</time>
</trkpt>
<trkpt lat="13.7549903" lon="100.5264706">
<ele>4.111</ele>
<time>2018-04-02T02:19:41.261Z</time>
</trkpt>
<trkpt lat="13.7550885" lon="100.5262202">
<ele>3.989</ele>
<time>2018-04-02T02:19:46.412Z</time>
</trkpt>
<trkpt lat="13.7551807" lon="100.5260765">
<ele>4.093</ele>
<time>2018-04-02T02:19:48.589Z</time>
</trkpt>
<trkpt lat="13.7552850" lon="100.5258420">
<ele>4.447</ele>
<time>2018-04-02T02:19:51.728Z</time>
</trkpt>
<trkpt lat="13.7553924" lon="100.5255602">
<ele>5.257</ele>
<time>2018-04-02T02:19:55.393Z</time>
</trkpt>
<trkpt lat="13.7554868" lon="100.5253241">
<ele>6.509</ele>
<time>2018-04-02T02:19:58.646Z</time>
</trkpt>
<trkpt lat="13.7555616" lon="100.5251888">
<ele>8.231</ele>
<time>2018-04-02T02:20:01.200Z</time>
</trkpt>
<trkpt lat="13.7556084" lon="100.5250932">
<ele>10.213</ele>
<time>2018-04-02T02:20:03.035Z</time>
</trkpt>
<trkpt lat="13.7556084" lon="100.5250932">
<ele>11.439</ele>
<time>2018-04-02T02:20:11.202Z</time>
</trkpt>
<trkpt lat="13.7556084" lon="100.5250932">
<ele>11.363</ele>
<time>2018-04-02T02:20:13.908Z</time>
</trkpt>
<trkpt lat="13.7555930" lon="100.5249160">
<ele>10.722</ele>
<time>2018-04-02T02:20:26.259Z</time>
</trkpt>
<trkpt lat="13.7556538" lon="100.5248222">
<ele>9.586</ele>
<time>2018-04-02T02:20:30.079Z</time>
</trkpt>
<trkpt lat="13.7557233" lon="100.5247264">
<ele>7.378</ele>
<time>2018-04-02T02:20:33.469Z</time>
</trkpt>
<trkpt lat="13.7557283" lon="100.5246302">
<ele>4.796</ele>
<time>2018-04-02T02:20:36.170Z</time>
</trkpt>
<trkpt lat="13.7558190" lon="100.5243540">
<ele>3.162</ele>
<time>2018-04-02T02:20:44.521Z</time>
</trkpt>
<trkpt lat="13.7558915" lon="100.5241648">
<ele>2.653</ele>
<time>2018-04-02T02:20:50.557Z</time>
</trkpt>
<trkpt lat="13.7559606" lon="100.5239441">
<ele>2.679</ele>
<time>2018-04-02T02:20:56.967Z</time>
</trkpt>
<trkpt lat="13.7560339" lon="100.5237178">
<ele>2.678</ele>
<time>2018-04-02T02:21:03.560Z</time>
</trkpt>
<trkpt lat="13.7561142" lon="100.5234711">
<ele>2.348</ele>
<time>2018-04-02T02:21:16.387Z</time>
</trkpt>
<trkpt lat="13.7561895" lon="100.5232482">
<ele>1.744</ele>
<time>2018-04-02T02:21:28.388Z</time>
</trkpt>
<trkpt lat="13.7562347" lon="100.5231527">
<ele>0.893</ele>
<time>2018-04-02T02:21:33.787Z</time>
</trkpt>
<trkpt lat="13.7563025" lon="100.5228684">
<ele>0.000</ele>
<time>2018-04-02T02:21:48.671Z</time>
</trkpt>
<trkpt lat="13.7568495" lon="100.5214158">
<ele>0.000</ele>
<time>2018-04-02T02:23:07.891Z</time>
</trkpt>
<trkpt lat="13.7570166" lon="100.5209731">
<ele>0.000</ele>
<time>2018-04-02T02:23:32.044Z</time>
</trkpt>
<trkpt lat="13.7570166" lon="100.5209731">
<ele>0.000</ele>
<time>2018-04-02T02:23:32.045Z</time>
</trkpt>
<trkpt lat="13.7570166" lon="100.5209731">
<ele>4.289</ele>
<time>2018-04-02T02:23:32.145Z</time>
</trkpt>
<trkpt lat="13.7570367" lon="100.5208667">
<ele>8.748</ele>
<time>2018-04-02T02:23:35.725Z</time>
</trkpt>
<trkpt lat="13.7571396" lon="100.5206981">
<ele>10.145</ele>
<time>2018-04-02T02:23:38.958Z</time>
</trkpt>
<trkpt lat="13.7572059" lon="100.5205774">
<ele>9.825</ele>
<time>2018-04-02T02:23:40.893Z</time>
</trkpt>
<trkpt lat="13.7574908" lon="100.5202072">
<ele>9.509</ele>
<time>2018-04-02T02:23:46.897Z</time>
</trkpt>
<trkpt lat="13.7576902" lon="100.5200216">
<ele>9.660</ele>
<time>2018-04-02T02:23:49.643Z</time>
</trkpt>
<trkpt lat="13.7578363" lon="100.5198330">
<ele>9.461</ele>
<time>2018-04-02T02:23:51.782Z</time>
</trkpt>
<trkpt lat="13.7579730" lon="100.5196726">
<ele>8.286</ele>
<time>2018-04-02T02:23:53.492Z</time>
</trkpt>
<trkpt lat="13.7581805" lon="100.5194251">
<ele>6.410</ele>
<time>2018-04-02T02:23:55.933Z</time>
</trkpt>
<trkpt lat="13.7583439" lon="100.5192406">
<ele>5.034</ele>
<time>2018-04-02T02:23:57.758Z</time>
</trkpt>
<trkpt lat="13.7585268" lon="100.5190455">
<ele>4.740</ele>
<time>2018-04-02T02:23:59.686Z</time>
</trkpt>
<trkpt lat="13.7587177" lon="100.5188316">
<ele>5.119</ele>
<time>2018-04-02T02:24:01.671Z</time>
</trkpt>
<trkpt lat="13.7589180" lon="100.5186057">
<ele>5.137</ele>
<time>2018-04-02T02:24:03.692Z</time>
</trkpt>
<trkpt lat="13.7591041" lon="100.5183924">
<ele>4.182</ele>
<time>2018-04-02T02:24:05.537Z</time>
</trkpt>
<trkpt lat="13.7593212" lon="100.5181544">
<ele>2.885</ele>
<time>2018-04-02T02:24:07.578Z</time>
</trkpt>
<trkpt lat="13.7594777" lon="100.5178859">
<ele>1.924</ele>
<time>2018-04-02T02:24:09.511Z</time>
</trkpt>
<trkpt lat="13.7596778" lon="100.5176383">
<ele>1.337</ele>
<time>2018-04-02T02:24:11.525Z</time>
</trkpt>
<trkpt lat="13.7598674" lon="100.5174287">
<ele>0.982</ele>
<time>2018-04-02T02:24:13.347Z</time>
</trkpt>
<trkpt lat="13.7600440" lon="100.5171962">
<ele>0.600</ele>
<time>2018-04-02T02:24:15.244Z</time>
</trkpt>
<trkpt lat="13.7602703" lon="100.5169967">
<ele>0.157</ele>
<time>2018-04-02T02:24:17.233Z</time>
</trkpt>
<trkpt lat="13.7604986" lon="100.5167732">
<ele>0.000</ele>
<time>2018-04-02T02:24:19.429Z</time>
</trkpt>
<trkpt lat="13.7606685" lon="100.5165881">
<ele>0.040</ele>
<time>2018-04-02T02:24:21.176Z</time>
</trkpt>
<trkpt lat="13.7608355" lon="100.5163209">
<ele>0.005</ele>
<time>2018-04-02T02:24:23.293Z</time>
</trkpt>
<trkpt lat="13.7610141" lon="100.5160869">
<ele>0.000</ele>
<time>2018-04-02T02:24:25.333Z</time>
</trkpt>
<trkpt lat="13.7612171" lon="100.5159104">
<ele>0.000</ele>
<time>2018-04-02T02:24:27.329Z</time>
</trkpt>
<trkpt lat="13.7614044" lon="100.5157319">
<ele>0.000</ele>
<time>2018-04-02T02:24:29.325Z</time>
</trkpt>
<trkpt lat="13.7615771" lon="100.5155256">
<ele>0.000</ele>
<time>2018-04-02T02:24:31.417Z</time>
</trkpt>
<trkpt lat="13.7617204" lon="100.5153324">
<ele>0.000</ele>
<time>2018-04-02T02:24:33.323Z</time>
</trkpt>
<trkpt lat="13.7618850" lon="100.5151142">
<ele>0.000</ele>
<time>2018-04-02T02:24:36.316Z</time>
</trkpt>
<trkpt lat="13.7619561" lon="100.5150173">
<ele>0.000</ele>
<time>2018-04-02T02:24:38.289Z</time>
</trkpt>
<trkpt lat="13.7620265" lon="100.5149410">
<ele>0.000</ele>
<time>2018-04-02T02:24:39.999Z</time>
</trkpt>
<trkpt lat="13.7620265" lon="100.5149410">
<ele>0.000</ele>
<time>2018-04-02T02:24:42.999Z</time>
</trkpt>
<trkpt lat="13.7620265" lon="100.5149410">
<ele>0.000</ele>
<time>2018-04-02T02:24:51.231Z</time>
</trkpt>
<trkpt lat="13.7620878" lon="100.5148209">
<ele>0.000</ele>
<time>2018-04-02T02:24:57.441Z</time>
</trkpt>
<trkpt lat="13.7622011" lon="100.5146290">
<ele>0.000</ele>
<time>2018-04-02T02:25:01.025Z</time>
</trkpt>
<trkpt lat="13.7623808" lon="100.5144489">
<ele>0.905</ele>
<time>2018-04-02T02:25:03.898Z</time>
</trkpt>
<trkpt lat="13.7625999" lon="100.5142381">
<ele>1.103</ele>
<time>2018-04-02T02:25:06.898Z</time>
</trkpt>
<trkpt lat="13.7628069" lon="100.5140141">
<ele>0.693</ele>
<time>2018-04-02T02:25:09.656Z</time>
</trkpt>
<trkpt lat="13.7630570" lon="100.5137081">
<ele>0.183</ele>
<time>2018-04-02T02:25:12.931Z</time>
</trkpt>
<trkpt lat="13.7632876" lon="100.5134154">
<ele>0.000</ele>
<time>2018-04-02T02:25:16.057Z</time>
</trkpt>
<trkpt lat="13.7634816" lon="100.5131899">
<ele>0.000</ele>
<time>2018-04-02T02:25:18.921Z</time>
</trkpt>
<trkpt lat="13.7636706" lon="100.5129988">
<ele>0.000</ele>
<time>2018-04-02T02:25:21.907Z</time>
</trkpt>
<trkpt lat="13.7638320" lon="100.5128149">
<ele>0.000</ele>
<time>2018-04-02T02:25:24.507Z</time>
</trkpt>
<trkpt lat="13.7640737" lon="100.5125071">
<ele>0.000</ele>
<time>2018-04-02T02:25:28.134Z</time>
</trkpt>
<trkpt lat="13.7642713" lon="100.5122573">
<ele>0.000</ele>
<time>2018-04-02T02:25:31.236Z</time>
</trkpt>
<trkpt lat="13.7644388" lon="100.5120669">
<ele>0.000</ele>
<time>2018-04-02T02:25:34.152Z</time>
</trkpt>
<trkpt lat="13.7645845" lon="100.5118866">
<ele>1.476</ele>
<time>2018-04-02T02:25:37.161Z</time>
</trkpt>
<trkpt lat="13.7647199" lon="100.5117155">
<ele>4.242</ele>
<time>2018-04-02T02:25:40.697Z</time>
</trkpt>
<trkpt lat="13.7648108" lon="100.5116224">
<ele>6.638</ele>
<time>2018-04-02T02:25:43.624Z</time>
</trkpt>
<trkpt lat="13.7648916" lon="100.5115317">
<ele>8.471</ele>
<time>2018-04-02T02:25:47.587Z</time>
</trkpt>
<trkpt lat="13.7649487" lon="100.5114445">
<ele>9.277</ele>
<time>2018-04-02T02:25:51.120Z</time>
</trkpt>
<trkpt lat="13.7650136" lon="100.5113574">
<ele>9.263</ele>
<time>2018-04-02T02:25:56.998Z</time>
</trkpt>
<trkpt lat="13.7650136" lon="100.5113574">
<ele>9.043</ele>
<time>2018-04-02T02:26:00.998Z</time>
</trkpt>
<trkpt lat="13.7650136" lon="100.5113574">
<ele>9.018</ele>
<time>2018-04-02T02:26:07.476Z</time>
</trkpt>
<trkpt lat="13.7651376" lon="100.5112266">
<ele>9.106</ele>
<time>2018-04-02T02:26:17.920Z</time>
</trkpt>
<trkpt lat="13.7652953" lon="100.5110462">
<ele>8.448</ele>
<time>2018-04-02T02:26:21.590Z</time>
</trkpt>
<trkpt lat="13.7655080" lon="100.5108030">
<ele>6.651</ele>
<time>2018-04-02T02:26:26.323Z</time>
</trkpt>
<trkpt lat="13.7655996" lon="100.5107004">
<ele>5.292</ele>
<time>2018-04-02T02:26:28.966Z</time>
</trkpt>
<trkpt lat="13.7656766" lon="100.5105843">
<ele>5.711</ele>
<time>2018-04-02T02:26:32.237Z</time>
</trkpt>
<trkpt lat="13.7656694" lon="100.5104594">
<ele>6.928</ele>
<time>2018-04-02T02:26:34.834Z</time>
</trkpt>
<trkpt lat="13.7655035" lon="100.5103571">
<ele>7.392</ele>
<time>2018-04-02T02:26:37.695Z</time>
</trkpt>
<trkpt lat="13.7652688" lon="100.5102042">
<ele>6.804</ele>
<time>2018-04-02T02:26:40.793Z</time>
</trkpt>
<trkpt lat="13.7650291" lon="100.5100294">
<ele>6.191</ele>
<time>2018-04-02T02:26:43.590Z</time>
</trkpt>
<trkpt lat="13.7646738" lon="100.5099037">
<ele>6.402</ele>
<time>2018-04-02T02:26:47.074Z</time>
</trkpt>
<trkpt lat="13.7641713" lon="100.5096288">
<ele>7.486</ele>
<time>2018-04-02T02:26:52.793Z</time>
</trkpt>
<trkpt lat="13.7639566" lon="100.5095465">
<ele>7.645</ele>
<time>2018-04-02T02:26:55.847Z</time>
</trkpt>
<trkpt lat="13.7638269" lon="100.5095047">
<ele>7.767</ele>
<time>2018-04-02T02:26:58.184Z</time>
</trkpt>
<trkpt lat="13.7636906" lon="100.5094479">
<ele>8.006</ele>
<time>2018-04-02T02:27:01.871Z</time>
</trkpt>
<trkpt lat="13.7636132" lon="100.5093863">
<ele>8.267</ele>
<time>2018-04-02T02:27:04.996Z</time>
</trkpt>
<trkpt lat="13.7636132" lon="100.5093863">
<ele>8.422</ele>
<time>2018-04-02T02:27:09.996Z</time>
</trkpt>
<trkpt lat="13.7636132" lon="100.5093863">
<ele>8.452</ele>
<time>2018-04-02T02:27:28.605Z</time>
</trkpt>
<trkpt lat="13.7634463" lon="100.5093196">
<ele>8.396</ele>
<time>2018-04-02T02:27:41.700Z</time>
</trkpt>
<trkpt lat="13.7633838" lon="100.5092424">
<ele>8.349</ele>
<time>2018-04-02T02:27:47.243Z</time>
</trkpt>
<trkpt lat="13.7633029" lon="100.5092017">
<ele>8.211</ele>
<time>2018-04-02T02:27:51.094Z</time>
</trkpt>
<trkpt lat="13.7631387" lon="100.5091077">
<ele>7.950</ele>
<time>2018-04-02T02:27:54.913Z</time>
</trkpt>
<trkpt lat="13.7629667" lon="100.5090272">
<ele>7.710</ele>
<time>2018-04-02T02:27:57.679Z</time>
</trkpt>
<trkpt lat="13.7627558" lon="100.5090067">
<ele>7.518</ele>
<time>2018-04-02T02:28:00.643Z</time>
</trkpt>
<trkpt lat="13.7625868" lon="100.5089133">
<ele>6.998</ele>
<time>2018-04-02T02:28:03.604Z</time>
</trkpt>
<trkpt lat="13.7624563" lon="100.5088170">
<ele>5.733</ele>
<time>2018-04-02T02:28:06.481Z</time>
</trkpt>
<trkpt lat="13.7623627" lon="100.5087767">
<ele>3.797</ele>
<time>2018-04-02T02:28:08.562Z</time>
</trkpt>
<trkpt lat="13.7622598" lon="100.5086943">
<ele>1.856</ele>
<time>2018-04-02T02:28:11.671Z</time>
</trkpt>
<trkpt lat="13.7621357" lon="100.5086343">
<ele>0.563</ele>
<time>2018-04-02T02:28:14.833Z</time>
</trkpt>
<trkpt lat="13.7619942" lon="100.5085871">
<ele>0.245</ele>
<time>2018-04-02T02:28:17.854Z</time>
</trkpt>
<trkpt lat="13.7618333" lon="100.5085524">
<ele>0.700</ele>
<time>2018-04-02T02:28:20.995Z</time>
</trkpt>
<trkpt lat="13.7618333" lon="100.5085524">
<ele>1.310</ele>
<time>2018-04-02T02:28:24.995Z</time>
</trkpt>
<trkpt lat="13.7618333" lon="100.5085524">
<ele>1.596</ele>
<time>2018-04-02T02:28:47.770Z</time>
</trkpt>
<trkpt lat="13.7616825" lon="100.5085158">
<ele>1.563</ele>
<time>2018-04-02T02:28:53.274Z</time>
</trkpt>
<trkpt lat="13.7615744" lon="100.5083760">
<ele>1.970</ele>
<time>2018-04-02T02:28:57.261Z</time>
</trkpt>
<trkpt lat="13.7615311" lon="100.5082927">
<ele>3.353</ele>
<time>2018-04-02T02:29:00.159Z</time>
</trkpt>
<trkpt lat="13.7614409" lon="100.5082729">
<ele>5.094</ele>
<time>2018-04-02T02:29:04.748Z</time>
</trkpt>
<trkpt lat="13.7613368" lon="100.5082887">
<ele>7.112</ele>
<time>2018-04-02T02:29:09.877Z</time>
</trkpt>
<trkpt lat="13.7612359" lon="100.5082555">
<ele>10.303</ele>
<time>2018-04-02T02:29:13.792Z</time>
</trkpt>
<trkpt lat="13.7611324" lon="100.5082257">
<ele>14.052</ele>
<time>2018-04-02T02:29:17.042Z</time>
</trkpt>
<trkpt lat="13.7610500" lon="100.5081793">
<ele>16.537</ele>
<time>2018-04-02T02:29:19.994Z</time>
</trkpt>
<trkpt lat="13.7610500" lon="100.5081793">
<ele>17.199</ele>
<time>2018-04-02T02:29:24.994Z</time>
</trkpt>
<trkpt lat="13.7610500" lon="100.5081793">
<ele>16.943</ele>
<time>2018-04-02T02:30:06.179Z</time>
</trkpt>
<trkpt lat="13.7608278" lon="100.5080919">
<ele>16.615</ele>
<time>2018-04-02T02:30:16.805Z</time>
</trkpt>
<trkpt lat="13.7606569" lon="100.5080033">
<ele>15.890</ele>
<time>2018-04-02T02:30:20.227Z</time>
</trkpt>
<trkpt lat="13.7604674" lon="100.5079269">
<ele>14.364</ele>
<time>2018-04-02T02:30:23.578Z</time>
</trkpt>
<trkpt lat="13.7602906" lon="100.5078541">
<ele>12.841</ele>
<time>2018-04-02T02:30:27.678Z</time>
</trkpt>
<trkpt lat="13.7601845" lon="100.5078061">
<ele>12.175</ele>
<time>2018-04-02T02:30:31.254Z</time>
</trkpt>
<trkpt lat="13.7601009" lon="100.5077500">
<ele>12.194</ele>
<time>2018-04-02T02:30:34.331Z</time>
</trkpt>
<trkpt lat="13.7600481" lon="100.5076638">
<ele>12.138</ele>
<time>2018-04-02T02:30:38.875Z</time>
</trkpt>
<trkpt lat="13.7600418" lon="100.5075420">
<ele>11.434</ele>
<time>2018-04-02T02:30:42.892Z</time>
</trkpt>
<trkpt lat="13.7600741" lon="100.5074200">
<ele>10.449</ele>
<time>2018-04-02T02:30:46.051Z</time>
</trkpt>
<trkpt lat="13.7601873" lon="100.5071786">
<ele>9.482</ele>
<time>2018-04-02T02:30:50.645Z</time>
</trkpt>
<trkpt lat="13.7602563" lon="100.5069213">
<ele>8.415</ele>
<time>2018-04-02T02:30:53.925Z</time>
</trkpt>
<trkpt lat="13.7603768" lon="100.5066466">
<ele>7.556</ele>
<time>2018-04-02T02:30:57.296Z</time>
</trkpt>
<trkpt lat="13.7604431" lon="100.5065028">
<ele>7.471</ele>
<time>2018-04-02T02:30:58.989Z</time>
</trkpt>
<trkpt lat="13.7605320" lon="100.5063228">
<ele>8.159</ele>
<time>2018-04-02T02:31:01.000Z</time>
</trkpt>
<trkpt lat="13.7606343" lon="100.5061333">
<ele>9.019</ele>
<time>2018-04-02T02:31:03.039Z</time>
</trkpt>
<trkpt lat="13.7607463" lon="100.5059403">
<ele>9.468</ele>
<time>2018-04-02T02:31:05.042Z</time>
</trkpt>
<trkpt lat="13.7608583" lon="100.5057295">
<ele>9.329</ele>
<time>2018-04-02T02:31:07.047Z</time>
</trkpt>
<trkpt lat="13.7609879" lon="100.5054889">
<ele>8.573</ele>
<time>2018-04-02T02:31:09.186Z</time>
</trkpt>
<trkpt lat="13.7611401" lon="100.5052776">
<ele>7.543</ele>
<time>2018-04-02T02:31:11.074Z</time>
</trkpt>
<trkpt lat="13.7615160" lon="100.5050215">
<ele>6.797</ele>
<time>2018-04-02T02:31:14.140Z</time>
</trkpt>
<trkpt lat="13.7617268" lon="100.5047621">
<ele>6.535</ele>
<time>2018-04-02T02:31:16.270Z</time>
</trkpt>
<trkpt lat="13.7619327" lon="100.5045342">
<ele>7.310</ele>
<time>2018-04-02T02:31:18.175Z</time>
</trkpt>
<trkpt lat="13.7623059" lon="100.5042819">
<ele>10.098</ele>
<time>2018-04-02T02:31:20.895Z</time>
</trkpt>
<trkpt lat="13.7627362" lon="100.5040711">
<ele>14.905</ele>
<time>2018-04-02T02:31:23.652Z</time>
</trkpt>
<trkpt lat="13.7631389" lon="100.5038114">
<ele>20.119</ele>
<time>2018-04-02T02:31:26.254Z</time>
</trkpt>
<trkpt lat="13.7636447" lon="100.5035618">
<ele>24.283</ele>
<time>2018-04-02T02:31:29.136Z</time>
</trkpt>
<trkpt lat="13.7641624" lon="100.5033213">
<ele>26.612</ele>
<time>2018-04-02T02:31:31.925Z</time>
</trkpt>
<trkpt lat="13.7647179" lon="100.5030725">
<ele>26.882</ele>
<time>2018-04-02T02:31:34.909Z</time>
</trkpt>
<trkpt lat="13.7651902" lon="100.5027973">
<ele>25.806</ele>
<time>2018-04-02T02:31:37.733Z</time>
</trkpt>
<trkpt lat="13.7656404" lon="100.5025248">
<ele>24.046</ele>
<time>2018-04-02T02:31:40.657Z</time>
</trkpt>
<trkpt lat="13.7660821" lon="100.5022612">
<ele>20.382</ele>
<time>2018-04-02T02:31:43.657Z</time>
</trkpt>
<trkpt lat="13.7664574" lon="100.5018778">
<ele>14.896</ele>
<time>2018-04-02T02:31:46.861Z</time>
</trkpt>
<trkpt lat="13.7667031" lon="100.5014693">
<ele>10.415</ele>
<time>2018-04-02T02:31:49.937Z</time>
</trkpt>
<trkpt lat="13.7669324" lon="100.5010746">
<ele>8.692</ele>
<time>2018-04-02T02:31:53.703Z</time>
</trkpt>
<trkpt lat="13.7672399" lon="100.5004792">
<ele>8.642</ele>
<time>2018-04-02T02:31:59.775Z</time>
</trkpt>
<trkpt lat="13.7674462" lon="100.5000466">
<ele>8.344</ele>
<time>2018-04-02T02:32:03.488Z</time>
</trkpt>
<trkpt lat="13.7680639" lon="100.4989297">
<ele>7.318</ele>
<time>2018-04-02T02:32:11.481Z</time>
</trkpt>
<trkpt lat="13.7683377" lon="100.4984782">
<ele>4.612</ele>
<time>2018-04-02T02:32:14.601Z</time>
</trkpt>
<trkpt lat="13.7685663" lon="100.4979488">
<ele>0.235</ele>
<time>2018-04-02T02:32:17.961Z</time>
</trkpt>
<trkpt lat="13.7687727" lon="100.4974865">
<ele>0.000</ele>
<time>2018-04-02T02:32:20.811Z</time>
</trkpt>
<trkpt lat="13.7689849" lon="100.4970305">
<ele>0.000</ele>
<time>2018-04-02T02:32:23.502Z</time>
</trkpt>
<trkpt lat="13.7691938" lon="100.4965770">
<ele>0.000</ele>
<time>2018-04-02T02:32:26.038Z</time>
</trkpt>
<trkpt lat="13.7694476" lon="100.4961158">
<ele>0.000</ele>
<time>2018-04-02T02:32:28.629Z</time>
</trkpt>
<trkpt lat="13.7697221" lon="100.4955952">
<ele>0.000</ele>
<time>2018-04-02T02:32:31.426Z</time>
</trkpt>
<trkpt lat="13.7700022" lon="100.4950881">
<ele>0.000</ele>
<time>2018-04-02T02:32:34.078Z</time>
</trkpt>
<trkpt lat="13.7702686" lon="100.4944694">
<ele>0.000</ele>
<time>2018-04-02T02:32:37.143Z</time>
</trkpt>
<trkpt lat="13.7705615" lon="100.4938919">
<ele>0.000</ele>
<time>2018-04-02T02:32:40.158Z</time>
</trkpt>
<trkpt lat="13.7709027" lon="100.4933711">
<ele>0.070</ele>
<time>2018-04-02T02:32:43.142Z</time>
</trkpt>
<trkpt lat="13.7712445" lon="100.4928712">
<ele>3.678</ele>
<time>2018-04-02T02:32:46.098Z</time>
</trkpt>
<trkpt lat="13.7716126" lon="100.4924096">
<ele>5.249</ele>
<time>2018-04-02T02:32:49.119Z</time>
</trkpt>
<trkpt lat="13.7719883" lon="100.4919513">
<ele>5.541</ele>
<time>2018-04-02T02:32:52.475Z</time>
</trkpt>
<trkpt lat="13.7724616" lon="100.4917516">
<ele>5.375</ele>
<time>2018-04-02T02:32:55.969Z</time>
</trkpt>
<trkpt lat="13.7727489" lon="100.4913813">
<ele>5.161</ele>
<time>2018-04-02T02:32:59.216Z</time>
</trkpt>
<trkpt lat="13.7729743" lon="100.4906407">
<ele>4.841</ele>
<time>2018-04-02T02:33:05.002Z</time>
</trkpt>
<trkpt lat="13.7725486" lon="100.4899244">
<ele>3.652</ele>
<time>2018-04-02T02:33:10.364Z</time>
</trkpt>
<trkpt lat="13.7720914" lon="100.4895470">
<ele>3.273</ele>
<time>2018-04-02T02:33:13.785Z</time>
</trkpt>
<trkpt lat="13.7717777" lon="100.4891115">
<ele>3.318</ele>
<time>2018-04-02T02:33:16.708Z</time>
</trkpt>
<trkpt lat="13.7714272" lon="100.4887631">
<ele>3.529</ele>
<time>2018-04-02T02:33:19.260Z</time>
</trkpt>
<trkpt lat="13.7710381" lon="100.4883664">
<ele>3.744</ele>
<time>2018-04-02T02:33:22.037Z</time>
</trkpt>
<trkpt lat="13.7705940" lon="100.4879378">
<ele>5.274</ele>
<time>2018-04-02T02:33:25.067Z</time>
</trkpt>
<trkpt lat="13.7701678" lon="100.4874934">
<ele>8.765</ele>
<time>2018-04-02T02:33:28.233Z</time>
</trkpt>
<trkpt lat="13.7697197" lon="100.4870472">
<ele>12.053</ele>
<time>2018-04-02T02:33:31.940Z</time>
</trkpt>
<trkpt lat="13.7693786" lon="100.4867921">
<ele>13.020</ele>
<time>2018-04-02T02:33:34.687Z</time>
</trkpt>
<trkpt lat="13.7690084" lon="100.4866108">
<ele>12.316</ele>
<time>2018-04-02T02:33:37.564Z</time>
</trkpt>
<trkpt lat="13.7685643" lon="100.4864405">
<ele>11.307</ele>
<time>2018-04-02T02:33:41.700Z</time>
</trkpt>
<trkpt lat="13.7682191" lon="100.4863603">
<ele>10.798</ele>
<time>2018-04-02T02:33:45.194Z</time>
</trkpt>
<trkpt lat="13.7679542" lon="100.4862600">
<ele>10.859</ele>
<time>2018-04-02T02:33:47.733Z</time>
</trkpt>
<trkpt lat="13.7678600" lon="100.4859091">
<ele>11.026</ele>
<time>2018-04-02T02:33:50.777Z</time>
</trkpt>
<trkpt lat="13.7680124" lon="100.4855444">
<ele>10.934</ele>
<time>2018-04-02T02:33:53.978Z</time>
</trkpt>
<trkpt lat="13.7683156" lon="100.4852988">
<ele>10.709</ele>
<time>2018-04-02T02:33:56.791Z</time>
</trkpt>
<trkpt lat="13.7686697" lon="100.4851922">
<ele>10.435</ele>
<time>2018-04-02T02:33:59.257Z</time>
</trkpt>
<trkpt lat="13.7691643" lon="100.4850549">
<ele>10.013</ele>
<time>2018-04-02T02:34:02.454Z</time>
</trkpt>
<trkpt lat="13.7695575" lon="100.4848388">
<ele>9.575</ele>
<time>2018-04-02T02:34:05.019Z</time>
</trkpt>
<trkpt lat="13.7699890" lon="100.4845378">
<ele>9.461</ele>
<time>2018-04-02T02:34:07.891Z</time>
</trkpt>
<trkpt lat="13.7705058" lon="100.4842747">
<ele>9.805</ele>
<time>2018-04-02T02:34:11.161Z</time>
</trkpt>
<trkpt lat="13.7709308" lon="100.4839434">
<ele>10.385</ele>
<time>2018-04-02T02:34:14.077Z</time>
</trkpt>
<trkpt lat="13.7713198" lon="100.4836123">
<ele>11.040</ele>
<time>2018-04-02T02:34:16.653Z</time>
</trkpt>
<trkpt lat="13.7718002" lon="100.4832196">
<ele>12.288</ele>
<time>2018-04-02T02:34:19.710Z</time>
</trkpt>
<trkpt lat="13.7722782" lon="100.4828550">
<ele>14.228</ele>
<time>2018-04-02T02:34:22.603Z</time>
</trkpt>
<trkpt lat="13.7727964" lon="100.4825280">
<ele>15.709</ele>
<time>2018-04-02T02:34:25.555Z</time>
</trkpt>
<trkpt lat="13.7732520" lon="100.4820726">
<ele>15.583</ele>
<time>2018-04-02T02:34:28.613Z</time>
</trkpt>
<trkpt lat="13.7736483" lon="100.4816432">
<ele>14.131</ele>
<time>2018-04-02T02:34:31.282Z</time>
</trkpt>
<trkpt lat="13.7741198" lon="100.4811892">
<ele>12.276</ele>
<time>2018-04-02T02:34:34.199Z</time>
</trkpt>
<trkpt lat="13.7746143" lon="100.4807081">
<ele>10.487</ele>
<time>2018-04-02T02:34:37.257Z</time>
</trkpt>
<trkpt lat="13.7751256" lon="100.4802409">
<ele>9.016</ele>
<time>2018-04-02T02:34:40.336Z</time>
</trkpt>
<trkpt lat="13.7756038" lon="100.4797847">
<ele>8.261</ele>
<time>2018-04-02T02:34:43.246Z</time>
</trkpt>
<trkpt lat="13.7760830" lon="100.4793137">
<ele>8.354</ele>
<time>2018-04-02T02:34:46.163Z</time>
</trkpt>
<trkpt lat="13.7765617" lon="100.4788160">
<ele>9.001</ele>
<time>2018-04-02T02:34:49.134Z</time>
</trkpt>
<trkpt lat="13.7770750" lon="100.4783272">
<ele>9.457</ele>
<time>2018-04-02T02:34:52.183Z</time>
</trkpt>
<trkpt lat="13.7775995" lon="100.4778578">
<ele>9.285</ele>
<time>2018-04-02T02:34:55.222Z</time>
</trkpt>
<trkpt lat="13.7781308" lon="100.4773886">
<ele>9.336</ele>
<time>2018-04-02T02:34:58.260Z</time>
</trkpt>
<trkpt lat="13.7786167" lon="100.4769304">
<ele>10.460</ele>
<time>2018-04-02T02:35:01.067Z</time>
</trkpt>
<trkpt lat="13.7791643" lon="100.4764264">
<ele>12.020</ele>
<time>2018-04-02T02:35:04.185Z</time>
</trkpt>
<trkpt lat="13.7796811" lon="100.4759151">
<ele>12.922</ele>
<time>2018-04-02T02:35:07.238Z</time>
</trkpt>
<trkpt lat="13.7801904" lon="100.4754552">
<ele>12.919</ele>
<time>2018-04-02T02:35:10.155Z</time>
</trkpt>
<trkpt lat="13.7807127" lon="100.4749534">
<ele>12.416</ele>
<time>2018-04-02T02:35:13.251Z</time>
</trkpt>
<trkpt lat="13.7811866" lon="100.4745049">
<ele>12.001</ele>
<time>2018-04-02T02:35:16.038Z</time>
</trkpt>
<trkpt lat="13.7817037" lon="100.4740044">
<ele>11.923</ele>
<time>2018-04-02T02:35:19.144Z</time>
</trkpt>
<trkpt lat="13.7822173" lon="100.4735359">
<ele>11.930</ele>
<time>2018-04-02T02:35:22.160Z</time>
</trkpt>
<trkpt lat="13.7827070" lon="100.4730689">
<ele>11.770</ele>
<time>2018-04-02T02:35:25.089Z</time>
</trkpt>
<trkpt lat="13.7832221" lon="100.4725750">
<ele>11.560</ele>
<time>2018-04-02T02:35:28.186Z</time>
</trkpt>
<trkpt lat="13.7837268" lon="100.4721227">
<ele>11.682</ele>
<time>2018-04-02T02:35:31.160Z</time>
</trkpt>
<trkpt lat="13.7842117" lon="100.4716457">
<ele>12.321</ele>
<time>2018-04-02T02:35:34.239Z</time>
</trkpt>
<trkpt lat="13.7847209" lon="100.4712119">
<ele>13.207</ele>
<time>2018-04-02T02:35:37.403Z</time>
</trkpt>
<trkpt lat="13.7852067" lon="100.4707811">
<ele>13.941</ele>
<time>2018-04-02T02:35:40.598Z</time>
</trkpt>
<trkpt lat="13.7856544" lon="100.4703752">
<ele>14.361</ele>
<time>2018-04-02T02:35:43.729Z</time>
</trkpt>
<trkpt lat="13.7860785" lon="100.4700008">
<ele>14.565</ele>
<time>2018-04-02T02:35:46.918Z</time>
</trkpt>
<trkpt lat="13.7864265" lon="100.4695707">
<ele>14.733</ele>
<time>2018-04-02T02:35:50.151Z</time>
</trkpt>
<trkpt lat="13.7867736" lon="100.4692614">
<ele>14.864</ele>
<time>2018-04-02T02:35:52.860Z</time>
</trkpt>
<trkpt lat="13.7870688" lon="100.4688153">
<ele>14.896</ele>
<time>2018-04-02T02:35:55.985Z</time>
</trkpt>
<trkpt lat="13.7872019" lon="100.4683272">
<ele>15.236</ele>
<time>2018-04-02T02:35:58.880Z</time>
</trkpt>
<trkpt lat="13.7872068" lon="100.4678105">
<ele>16.230</ele>
<time>2018-04-02T02:36:01.819Z</time>
</trkpt>
<trkpt lat="13.7871107" lon="100.4672908">
<ele>17.405</ele>
<time>2018-04-02T02:36:04.779Z</time>
</trkpt>
<trkpt lat="13.7869751" lon="100.4667959">
<ele>18.212</ele>
<time>2018-04-02T02:36:07.492Z</time>
</trkpt>
<trkpt lat="13.7868265" lon="100.4662643">
<ele>18.676</ele>
<time>2018-04-02T02:36:10.229Z</time>
</trkpt>
<trkpt lat="13.7866597" lon="100.4656779">
<ele>18.913</ele>
<time>2018-04-02T02:36:13.118Z</time>
</trkpt>
<trkpt lat="13.7865009" lon="100.4650633">
<ele>19.037</ele>
<time>2018-04-02T02:36:16.034Z</time>
</trkpt>
<trkpt lat="13.7863329" lon="100.4644332">
<ele>19.142</ele>
<time>2018-04-02T02:36:18.961Z</time>
</trkpt>
<trkpt lat="13.7861392" lon="100.4637969">
<ele>19.085</ele>
<time>2018-04-02T02:36:21.888Z</time>
</trkpt>
<trkpt lat="13.7859993" lon="100.4631110">
<ele>18.772</ele>
<time>2018-04-02T02:36:24.943Z</time>
</trkpt>
<trkpt lat="13.7855761" lon="100.4613335">
<ele>18.359</ele>
<time>2018-04-02T02:36:32.821Z</time>
</trkpt>
<trkpt lat="13.7853679" lon="100.4606530">
<ele>17.908</ele>
<time>2018-04-02T02:36:35.834Z</time>
</trkpt>
<trkpt lat="13.7851453" lon="100.4599971">
<ele>17.414</ele>
<time>2018-04-02T02:36:38.747Z</time>
</trkpt>
<trkpt lat="13.7849397" lon="100.4592678">
<ele>17.023</ele>
<time>2018-04-02T02:36:41.914Z</time>
</trkpt>
<trkpt lat="13.7847479" lon="100.4586357">
<ele>16.804</ele>
<time>2018-04-02T02:36:44.633Z</time>
</trkpt>
<trkpt lat="13.7845469" lon="100.4578882">
<ele>16.617</ele>
<time>2018-04-02T02:36:47.803Z</time>
</trkpt>
<trkpt lat="13.7843022" lon="100.4572033">
<ele>16.113</ele>
<time>2018-04-02T02:36:50.788Z</time>
</trkpt>
<trkpt lat="13.7841592" lon="100.4565117">
<ele>15.235</ele>
<time>2018-04-02T02:36:53.693Z</time>
</trkpt>
<trkpt lat="13.7839171" lon="100.4557987">
<ele>14.443</ele>
<time>2018-04-02T02:36:56.820Z</time>
</trkpt>
<trkpt lat="13.7837479" lon="100.4551281">
<ele>14.136</ele>
<time>2018-04-02T02:36:59.664Z</time>
</trkpt>
<trkpt lat="13.7835389" lon="100.4544215">
<ele>14.236</ele>
<time>2018-04-02T02:37:02.648Z</time>
</trkpt>
<trkpt lat="13.7833040" lon="100.4536944">
<ele>14.420</ele>
<time>2018-04-02T02:37:05.704Z</time>
</trkpt>
<trkpt lat="13.7831456" lon="100.4529584">
<ele>14.361</ele>
<time>2018-04-02T02:37:08.698Z</time>
</trkpt>
<trkpt lat="13.7829109" lon="100.4522210">
<ele>13.919</ele>
<time>2018-04-02T02:37:11.822Z</time>
</trkpt>
<trkpt lat="13.7826714" lon="100.4515588">
<ele>13.272</ele>
<time>2018-04-02T02:37:14.678Z</time>
</trkpt>
<trkpt lat="13.7824669" lon="100.4508648">
<ele>12.688</ele>
<time>2018-04-02T02:37:17.562Z</time>
</trkpt>
<trkpt lat="13.7822248" lon="100.4501430">
<ele>12.230</ele>
<time>2018-04-02T02:37:20.557Z</time>
</trkpt>
<trkpt lat="13.7819912" lon="100.4494171">
<ele>12.001</ele>
<time>2018-04-02T02:37:23.550Z</time>
</trkpt>
<trkpt lat="13.7817684" lon="100.4487049">
<ele>12.059</ele>
<time>2018-04-02T02:37:26.489Z</time>
</trkpt>
<trkpt lat="13.7815446" lon="100.4479890">
<ele>12.223</ele>
<time>2018-04-02T02:37:29.440Z</time>
</trkpt>
<trkpt lat="13.7812884" lon="100.4472941">
<ele>12.273</ele>
<time>2018-04-02T02:37:32.322Z</time>
</trkpt>
<trkpt lat="13.7810901" lon="100.4465270">
<ele>12.151</ele>
<time>2018-04-02T02:37:35.372Z</time>
</trkpt>
<trkpt lat="13.7808658" lon="100.4457706">
<ele>11.971</ele>
<time>2018-04-02T02:37:38.404Z</time>
</trkpt>
<trkpt lat="13.7806655" lon="100.4450400">
<ele>11.870</ele>
<time>2018-04-02T02:37:41.305Z</time>
</trkpt>
<trkpt lat="13.7804388" lon="100.4442844">
<ele>11.929</ele>
<time>2018-04-02T02:37:44.318Z</time>
</trkpt>
<trkpt lat="13.7802356" lon="100.4435182">
<ele>12.275</ele>
<time>2018-04-02T02:37:47.345Z</time>
</trkpt>
<trkpt lat="13.7800428" lon="100.4427535">
<ele>13.163</ele>
<time>2018-04-02T02:37:50.363Z</time>
</trkpt>
<trkpt lat="13.7799250" lon="100.4419815">
<ele>14.902</ele>
<time>2018-04-02T02:37:53.361Z</time>
</trkpt>
<trkpt lat="13.7798614" lon="100.4412108">
<ele>17.320</ele>
<time>2018-04-02T02:37:56.328Z</time>
</trkpt>
<trkpt lat="13.7798539" lon="100.4404398">
<ele>19.527</ele>
<time>2018-04-02T02:37:59.267Z</time>
</trkpt>
<trkpt lat="13.7799315" lon="100.4396440">
<ele>21.031</ele>
<time>2018-04-02T02:38:02.305Z</time>
</trkpt>
<trkpt lat="13.7799858" lon="100.4388582">
<ele>22.147</ele>
<time>2018-04-02T02:38:05.305Z</time>
</trkpt>
<trkpt lat="13.7801091" lon="100.4380729">
<ele>23.012</ele>
<time>2018-04-02T02:38:08.294Z</time>
</trkpt>
<trkpt lat="13.7801474" lon="100.4375295">
<ele>23.633</ele>
<time>2018-04-02T02:38:10.312Z</time>
</trkpt>
<trkpt lat="13.7801876" lon="100.4370042">
<ele>24.203</ele>
<time>2018-04-02T02:38:12.251Z</time>
</trkpt>
<trkpt lat="13.7802429" lon="100.4364735">
<ele>24.664</ele>
<time>2018-04-02T02:38:14.213Z</time>
</trkpt>
<trkpt lat="13.7803008" lon="100.4359245">
<ele>24.912</ele>
<time>2018-04-02T02:38:16.253Z</time>
</trkpt>
<trkpt lat="13.7803392" lon="100.4353658">
<ele>25.010</ele>
<time>2018-04-02T02:38:18.321Z</time>
</trkpt>
<trkpt lat="13.7803959" lon="100.4348469">
<ele>24.985</ele>
<time>2018-04-02T02:38:20.245Z</time>
</trkpt>
<trkpt lat="13.7804504" lon="100.4343044">
<ele>24.666</ele>
<time>2018-04-02T02:38:22.264Z</time>
</trkpt>
<trkpt lat="13.7804974" lon="100.4337659">
<ele>23.804</ele>
<time>2018-04-02T02:38:24.276Z</time>
</trkpt>
<trkpt lat="13.7805481" lon="100.4332415">
<ele>22.662</ele>
<time>2018-04-02T02:38:26.235Z</time>
</trkpt>
<trkpt lat="13.7806008" lon="100.4327108">
<ele>21.857</ele>
<time>2018-04-02T02:38:28.212Z</time>
</trkpt>
<trkpt lat="13.7806598" lon="100.4321727">
<ele>21.566</ele>
<time>2018-04-02T02:38:30.218Z</time>
</trkpt>
<trkpt lat="13.7807291" lon="100.4316303">
<ele>21.551</ele>
<time>2018-04-02T02:38:32.251Z</time>
</trkpt>
<trkpt lat="13.7807903" lon="100.4311027">
<ele>21.606</ele>
<time>2018-04-02T02:38:34.219Z</time>
</trkpt>
<trkpt lat="13.7808498" lon="100.4305815">
<ele>21.626</ele>
<time>2018-04-02T02:38:36.142Z</time>
</trkpt>
<trkpt lat="13.7808927" lon="100.4300299">
<ele>21.602</ele>
<time>2018-04-02T02:38:38.172Z</time>
</trkpt>
<trkpt lat="13.7809619" lon="100.4294633">
<ele>21.595</ele>
<time>2018-04-02T02:38:40.303Z</time>
</trkpt>
<trkpt lat="13.7809914" lon="100.4289527">
<ele>21.649</ele>
<time>2018-04-02T02:38:42.231Z</time>
</trkpt>
<trkpt lat="13.7810386" lon="100.4284465">
<ele>21.748</ele>
<time>2018-04-02T02:38:44.156Z</time>
</trkpt>
<trkpt lat="13.7810943" lon="100.4279377">
<ele>21.837</ele>
<time>2018-04-02T02:38:46.084Z</time>
</trkpt>
<trkpt lat="13.7811787" lon="100.4271735">
<ele>22.039</ele>
<time>2018-04-02T02:38:48.946Z</time>
</trkpt>
<trkpt lat="13.7812747" lon="100.4263451">
<ele>22.548</ele>
<time>2018-04-02T02:38:51.987Z</time>
</trkpt>
<trkpt lat="13.7813755" lon="100.4254989">
<ele>23.452</ele>
<time>2018-04-02T02:38:55.077Z</time>
</trkpt>
<trkpt lat="13.7814470" lon="100.4246968">
<ele>24.566</ele>
<time>2018-04-02T02:38:58.007Z</time>
</trkpt>
<trkpt lat="13.7815194" lon="100.4238824">
<ele>25.410</ele>
<time>2018-04-02T02:39:00.981Z</time>
</trkpt>
<trkpt lat="13.7816086" lon="100.4230591">
<ele>25.399</ele>
<time>2018-04-02T02:39:03.997Z</time>
</trkpt>
<trkpt lat="13.7816790" lon="100.4222572">
<ele>24.524</ele>
<time>2018-04-02T02:39:06.931Z</time>
</trkpt>
<trkpt lat="13.7817223" lon="100.4214521">
<ele>23.483</ele>
<time>2018-04-02T02:39:09.876Z</time>
</trkpt>
<trkpt lat="13.7817872" lon="100.4206135">
<ele>23.011</ele>
<time>2018-04-02T02:39:13.035Z</time>
</trkpt>
<trkpt lat="13.7818723" lon="100.4198800">
<ele>23.141</ele>
<time>2018-04-02T02:39:15.895Z</time>
</trkpt>
<trkpt lat="13.7819543" lon="100.4190879">
<ele>23.401</ele>
<time>2018-04-02T02:39:19.037Z</time>
</trkpt>
<trkpt lat="13.7820522" lon="100.4183349">
<ele>23.074</ele>
<time>2018-04-02T02:39:22.087Z</time>
</trkpt>
<trkpt lat="13.7821361" lon="100.4176302">
<ele>22.028</ele>
<time>2018-04-02T02:39:24.961Z</time>
</trkpt>
<trkpt lat="13.7821944" lon="100.4169063">
<ele>20.980</ele>
<time>2018-04-02T02:39:27.928Z</time>
</trkpt>
<trkpt lat="13.7822983" lon="100.4161833">
<ele>20.500</ele>
<time>2018-04-02T02:39:30.970Z</time>
</trkpt>
<trkpt lat="13.7823657" lon="100.4154779">
<ele>20.536</ele>
<time>2018-04-02T02:39:33.960Z</time>
</trkpt>
<trkpt lat="13.7824155" lon="100.4147855">
<ele>20.903</ele>
<time>2018-04-02T02:39:36.896Z</time>
</trkpt>
<trkpt lat="13.7824644" lon="100.4140648">
<ele>21.635</ele>
<time>2018-04-02T02:39:39.943Z</time>
</trkpt>
<trkpt lat="13.7825723" lon="100.4133598">
<ele>22.676</ele>
<time>2018-04-02T02:39:42.956Z</time>
</trkpt>
<trkpt lat="13.7826497" lon="100.4126849">
<ele>23.396</ele>
<time>2018-04-02T02:39:45.831Z</time>
</trkpt>
<trkpt lat="13.7826837" lon="100.4119532">
<ele>23.193</ele>
<time>2018-04-02T02:39:49.007Z</time>
</trkpt>
<trkpt lat="13.7827447" lon="100.4113241">
<ele>22.099</ele>
<time>2018-04-02T02:39:51.800Z</time>
</trkpt>
<trkpt lat="13.7828416" lon="100.4106484">
<ele>20.654</ele>
<time>2018-04-02T02:39:54.777Z</time>
</trkpt>
<trkpt lat="13.7828962" lon="100.4099511">
<ele>19.975</ele>
<time>2018-04-02T02:39:57.777Z</time>
</trkpt>
<trkpt lat="13.7829663" lon="100.4092345">
<ele>20.659</ele>
<time>2018-04-02T02:40:00.851Z</time>
</trkpt>
<trkpt lat="13.7830355" lon="100.4085338">
<ele>22.064</ele>
<time>2018-04-02T02:40:03.882Z</time>
</trkpt>
<trkpt lat="13.7831197" lon="100.4078790">
<ele>23.309</ele>
<time>2018-04-02T02:40:06.746Z</time>
</trkpt>
<trkpt lat="13.7831860" lon="100.4072299">
<ele>24.082</ele>
<time>2018-04-02T02:40:09.544Z</time>
</trkpt>
<trkpt lat="13.7832606" lon="100.4065205">
<ele>24.448</ele>
<time>2018-04-02T02:40:12.526Z</time>
</trkpt>
<trkpt lat="13.7833533" lon="100.4057834">
<ele>24.418</ele>
<time>2018-04-02T02:40:15.544Z</time>
</trkpt>
<trkpt lat="13.7834225" lon="100.4050292">
<ele>23.996</ele>
<time>2018-04-02T02:40:18.543Z</time>
</trkpt>
<trkpt lat="13.7835275" lon="100.4042463">
<ele>23.582</ele>
<time>2018-04-02T02:40:21.674Z</time>
</trkpt>
<trkpt lat="13.7835581" lon="100.4035383">
<ele>23.493</ele>
<time>2018-04-02T02:40:24.500Z</time>
</trkpt>
<trkpt lat="13.7836484" lon="100.4027562">
<ele>23.415</ele>
<time>2018-04-02T02:40:27.650Z</time>
</trkpt>
<trkpt lat="13.7837048" lon="100.4020141">
<ele>23.044</ele>
<time>2018-04-02T02:40:30.668Z</time>
</trkpt>
<trkpt lat="13.7837693" lon="100.4013229">
<ele>22.605</ele>
<time>2018-04-02T02:40:33.506Z</time>
</trkpt>
<trkpt lat="13.7838491" lon="100.4005869">
<ele>22.384</ele>
<time>2018-04-02T02:40:36.543Z</time>
</trkpt>
<trkpt lat="13.7839265" lon="100.3998605">
<ele>22.326</ele>
<time>2018-04-02T02:40:39.568Z</time>
</trkpt>
<trkpt lat="13.7839996" lon="100.3991575">
<ele>22.397</ele>
<time>2018-04-02T02:40:42.528Z</time>
</trkpt>
<trkpt lat="13.7840846" lon="100.3984411">
<ele>22.437</ele>
<time>2018-04-02T02:40:45.570Z</time>
</trkpt>
<trkpt lat="13.7841660" lon="100.3977339">
<ele>22.284</ele>
<time>2018-04-02T02:40:48.590Z</time>
</trkpt>
<trkpt lat="13.7842244" lon="100.3970418">
<ele>22.108</ele>
<time>2018-04-02T02:40:51.541Z</time>
</trkpt>
<trkpt lat="13.7842890" lon="100.3963317">
<ele>22.259</ele>
<time>2018-04-02T02:40:54.576Z</time>
</trkpt>
<trkpt lat="13.7843537" lon="100.3956523">
<ele>22.835</ele>
<time>2018-04-02T02:40:57.493Z</time>
</trkpt>
<trkpt lat="13.7844295" lon="100.3949740">
<ele>23.601</ele>
<time>2018-04-02T02:41:00.394Z</time>
</trkpt>
<trkpt lat="13.7844934" lon="100.3942553">
<ele>24.156</ele>
<time>2018-04-02T02:41:03.436Z</time>
</trkpt>
<trkpt lat="13.7845677" lon="100.3935609">
<ele>24.152</ele>
<time>2018-04-02T02:41:06.360Z</time>
</trkpt>
<trkpt lat="13.7846545" lon="100.3928454">
<ele>23.512</ele>
<time>2018-04-02T02:41:09.349Z</time>
</trkpt>
<trkpt lat="13.7847340" lon="100.3921255">
<ele>22.682</ele>
<time>2018-04-02T02:41:12.324Z</time>
</trkpt>
<trkpt lat="13.7848188" lon="100.3914082">
<ele>22.123</ele>
<time>2018-04-02T02:41:15.276Z</time>
</trkpt>
<trkpt lat="13.7849025" lon="100.3906813">
<ele>21.465</ele>
<time>2018-04-02T02:41:18.251Z</time>
</trkpt>
<trkpt lat="13.7849650" lon="100.3899353">
<ele>20.332</ele>
<time>2018-04-02T02:41:21.273Z</time>
</trkpt>
<trkpt lat="13.7850220" lon="100.3891780">
<ele>19.228</ele>
<time>2018-04-02T02:41:24.352Z</time>
</trkpt>
<trkpt lat="13.7851003" lon="100.3884570">
<ele>18.814</ele>
<time>2018-04-02T02:41:27.311Z</time>
</trkpt>
<trkpt lat="13.7851695" lon="100.3877250">
<ele>19.121</ele>
<time>2018-04-02T02:41:30.315Z</time>
</trkpt>
<trkpt lat="13.7852282" lon="100.3870132">
<ele>19.834</ele>
<time>2018-04-02T02:41:33.225Z</time>
</trkpt>
<trkpt lat="13.7853097" lon="100.3862894">
<ele>20.532</ele>
<time>2018-04-02T02:41:36.187Z</time>
</trkpt>
<trkpt lat="13.7853841" lon="100.3855765">
<ele>21.123</ele>
<time>2018-04-02T02:41:39.113Z</time>
</trkpt>
<trkpt lat="13.7854812" lon="100.3848560">
<ele>21.735</ele>
<time>2018-04-02T02:41:42.069Z</time>
</trkpt>
<trkpt lat="13.7855374" lon="100.3841199">
<ele>22.277</ele>
<time>2018-04-02T02:41:45.031Z</time>
</trkpt>
<trkpt lat="13.7856252" lon="100.3833547">
<ele>22.301</ele>
<time>2018-04-02T02:41:48.089Z</time>
</trkpt>
<trkpt lat="13.7856925" lon="100.3826065">
<ele>21.680</ele>
<time>2018-04-02T02:41:51.056Z</time>
</trkpt>
<trkpt lat="13.7857661" lon="100.3818541">
<ele>21.090</ele>
<time>2018-04-02T02:41:54.041Z</time>
</trkpt>
<trkpt lat="13.7858340" lon="100.3811036">
<ele>21.091</ele>
<time>2018-04-02T02:41:57.043Z</time>
</trkpt>
<trkpt lat="13.7858780" lon="100.3803578">
<ele>21.412</ele>
<time>2018-04-02T02:42:00.059Z</time>
</trkpt>
<trkpt lat="13.7859191" lon="100.3796155">
<ele>21.732</ele>
<time>2018-04-02T02:42:03.110Z</time>
</trkpt>
<trkpt lat="13.7859621" lon="100.3789059">
<ele>22.081</ele>
<time>2018-04-02T02:42:06.061Z</time>
</trkpt>
<trkpt lat="13.7860284" lon="100.3781858">
<ele>22.495</ele>
<time>2018-04-02T02:42:09.057Z</time>
</trkpt>
<trkpt lat="13.7861225" lon="100.3774738">
<ele>22.859</ele>
<time>2018-04-02T02:42:12.025Z</time>
</trkpt>
<trkpt lat="13.7862123" lon="100.3767592">
<ele>22.510</ele>
<time>2018-04-02T02:42:15.038Z</time>
</trkpt>
<trkpt lat="13.7862945" lon="100.3760716">
<ele>20.773</ele>
<time>2018-04-02T02:42:18.049Z</time>
</trkpt>
<trkpt lat="13.7863524" lon="100.3754135">
<ele>18.182</ele>
<time>2018-04-02T02:42:21.172Z</time>
</trkpt>
<trkpt lat="13.7864139" lon="100.3748271">
<ele>15.738</ele>
<time>2018-04-02T02:42:24.315Z</time>
</trkpt>
<trkpt lat="13.7864644" lon="100.3742844">
<ele>13.680</ele>
<time>2018-04-02T02:42:27.525Z</time>
</trkpt>
<trkpt lat="13.7864939" lon="100.3737932">
<ele>11.845</ele>
<time>2018-04-02T02:42:30.552Z</time>
</trkpt>
<trkpt lat="13.7865605" lon="100.3733505">
<ele>10.258</ele>
<time>2018-04-02T02:42:33.320Z</time>
</trkpt>
<trkpt lat="13.7866237" lon="100.3728949">
<ele>9.181</ele>
<time>2018-04-02T02:42:36.077Z</time>
</trkpt>
<trkpt lat="13.7866747" lon="100.3723713">
<ele>8.583</ele>
<time>2018-04-02T02:42:39.100Z</time>
</trkpt>
<trkpt lat="13.7867534" lon="100.3718464">
<ele>8.149</ele>
<time>2018-04-02T02:42:42.195Z</time>
</trkpt>
<trkpt lat="13.7867837" lon="100.3713963">
<ele>7.824</ele>
<time>2018-04-02T02:42:44.880Z</time>
</trkpt>
<trkpt lat="13.7868569" lon="100.3708808">
<ele>7.663</ele>
<time>2018-04-02T02:42:47.946Z</time>
</trkpt>
<trkpt lat="13.7868685" lon="100.3703295">
<ele>7.612</ele>
<time>2018-04-02T02:42:51.282Z</time>
</trkpt>
<trkpt lat="13.7869202" lon="100.3698546">
<ele>7.521</ele>
<time>2018-04-02T02:42:54.362Z</time>
</trkpt>
<trkpt lat="13.7869839" lon="100.3694700">
<ele>6.976</ele>
<time>2018-04-02T02:42:56.922Z</time>
</trkpt>
<trkpt lat="13.7870698" lon="100.3690098">
<ele>5.737</ele>
<time>2018-04-02T02:42:59.924Z</time>
</trkpt>
<trkpt lat="13.7871167" lon="100.3685468">
<ele>4.311</ele>
<time>2018-04-02T02:43:02.882Z</time>
</trkpt>
<trkpt lat="13.7871629" lon="100.3680887">
<ele>3.457</ele>
<time>2018-04-02T02:43:05.762Z</time>
</trkpt>
<trkpt lat="13.7872222" lon="100.3675935">
<ele>3.312</ele>
<time>2018-04-02T02:43:08.770Z</time>
</trkpt>
<trkpt lat="13.7872857" lon="100.3670599">
<ele>3.407</ele>
<time>2018-04-02T02:43:11.884Z</time>
</trkpt>
<trkpt lat="13.7873440" lon="100.3665394">
<ele>3.203</ele>
<time>2018-04-02T02:43:14.820Z</time>
</trkpt>
<trkpt lat="13.7874261" lon="100.3660002">
<ele>2.651</ele>
<time>2018-04-02T02:43:17.811Z</time>
</trkpt>
<trkpt lat="13.7874989" lon="100.3654314">
<ele>2.144</ele>
<time>2018-04-02T02:43:20.934Z</time>
</trkpt>
<trkpt lat="13.7875676" lon="100.3648809">
<ele>1.924</ele>
<time>2018-04-02T02:43:23.894Z</time>
</trkpt>
<trkpt lat="13.7876170" lon="100.3643104">
<ele>1.963</ele>
<time>2018-04-02T02:43:26.904Z</time>
</trkpt>
<trkpt lat="13.7876739" lon="100.3637672">
<ele>2.221</ele>
<time>2018-04-02T02:43:29.667Z</time>
</trkpt>
<trkpt lat="13.7877654" lon="100.3630890">
<ele>2.575</ele>
<time>2018-04-02T02:43:33.009Z</time>
</trkpt>
<trkpt lat="13.7878121" lon="100.3624779">
<ele>2.829</ele>
<time>2018-04-02T02:43:36.016Z</time>
</trkpt>
<trkpt lat="13.7878682" lon="100.3618923">
<ele>2.929</ele>
<time>2018-04-02T02:43:38.875Z</time>
</trkpt>
<trkpt lat="13.7879195" lon="100.3612731">
<ele>3.044</ele>
<time>2018-04-02T02:43:41.841Z</time>
</trkpt>
<trkpt lat="13.7879715" lon="100.3606219">
<ele>3.372</ele>
<time>2018-04-02T02:43:44.904Z</time>
</trkpt>
<trkpt lat="13.7880405" lon="100.3599536">
<ele>3.916</ele>
<time>2018-04-02T02:43:48.043Z</time>
</trkpt>
<trkpt lat="13.7880968" lon="100.3593207">
<ele>4.626</ele>
<time>2018-04-02T02:43:51.126Z</time>
</trkpt>
<trkpt lat="13.7881418" lon="100.3587202">
<ele>5.394</ele>
<time>2018-04-02T02:43:54.129Z</time>
</trkpt>
<trkpt lat="13.7882017" lon="100.3581225">
<ele>5.810</ele>
<time>2018-04-02T02:43:57.064Z</time>
</trkpt>
<trkpt lat="13.7882858" lon="100.3574806">
<ele>5.653</ele>
<time>2018-04-02T02:44:00.184Z</time>
</trkpt>
<trkpt lat="13.7883611" lon="100.3568651">
<ele>5.265</ele>
<time>2018-04-02T02:44:03.392Z</time>
</trkpt>
<trkpt lat="13.7883935" lon="100.3563985">
<ele>4.907</ele>
<time>2018-04-02T02:44:06.006Z</time>
</trkpt>
<trkpt lat="13.7884457" lon="100.3558649">
<ele>4.380</ele>
<time>2018-04-02T02:44:09.153Z</time>
</trkpt>
<trkpt lat="13.7884768" lon="100.3553854">
<ele>3.643</ele>
<time>2018-04-02T02:44:12.063Z</time>
</trkpt>
<trkpt lat="13.7885196" lon="100.3548995">
<ele>3.259</ele>
<time>2018-04-02T02:44:14.997Z</time>
</trkpt>
<trkpt lat="13.7885601" lon="100.3543712">
<ele>3.562</ele>
<time>2018-04-02T02:44:18.212Z</time>
</trkpt>
<trkpt lat="13.7885711" lon="100.3538831">
<ele>3.642</ele>
<time>2018-04-02T02:44:21.385Z</time>
</trkpt>
<trkpt lat="13.7885889" lon="100.3534716">
<ele>2.514</ele>
<time>2018-04-02T02:44:24.289Z</time>
</trkpt>
<trkpt lat="13.7886025" lon="100.3530587">
<ele>0.397</ele>
<time>2018-04-02T02:44:27.438Z</time>
</trkpt>
<trkpt lat="13.7885898" lon="100.3526995">
<ele>0.000</ele>
<time>2018-04-02T02:44:30.256Z</time>
</trkpt>
<trkpt lat="13.7885626" lon="100.3523231">
<ele>0.000</ele>
<time>2018-04-02T02:44:33.200Z</time>
</trkpt>
<trkpt lat="13.7885206" lon="100.3519568">
<ele>0.000</ele>
<time>2018-04-02T02:44:36.187Z</time>
</trkpt>
<trkpt lat="13.7885042" lon="100.3516029">
<ele>0.000</ele>
<time>2018-04-02T02:44:39.257Z</time>
</trkpt>
<trkpt lat="13.7884885" lon="100.3512954">
<ele>0.000</ele>
<time>2018-04-02T02:44:42.019Z</time>
</trkpt>
<trkpt lat="13.7884707" lon="100.3509526">
<ele>0.000</ele>
<time>2018-04-02T02:44:45.101Z</time>
</trkpt>
<trkpt lat="13.7884623" lon="100.3506334">
<ele>0.000</ele>
<time>2018-04-02T02:44:48.059Z</time>
</trkpt>
<trkpt lat="13.7884466" lon="100.3503202">
<ele>0.000</ele>
<time>2018-04-02T02:44:51.077Z</time>
</trkpt>
<trkpt lat="13.7884337" lon="100.3500035">
<ele>0.000</ele>
<time>2018-04-02T02:44:54.108Z</time>
</trkpt>
<trkpt lat="13.7884223" lon="100.3496722">
<ele>0.000</ele>
<time>2018-04-02T02:44:57.196Z</time>
</trkpt>
<trkpt lat="13.7884106" lon="100.3493522">
<ele>0.000</ele>
<time>2018-04-02T02:45:00.028Z</time>
</trkpt>
<trkpt lat="13.7883936" lon="100.3489820">
<ele>0.000</ele>
<time>2018-04-02T02:45:03.032Z</time>
</trkpt>
<trkpt lat="13.7883742" lon="100.3485784">
<ele>0.252</ele>
<time>2018-04-02T02:45:06.101Z</time>
</trkpt>
<trkpt lat="13.7883525" lon="100.3482224">
<ele>0.646</ele>
<time>2018-04-02T02:45:08.728Z</time>
</trkpt>
<trkpt lat="13.7883206" lon="100.3478372">
<ele>0.548</ele>
<time>2018-04-02T02:45:11.477Z</time>
</trkpt>
<trkpt lat="13.7882952" lon="100.3473948">
<ele>0.084</ele>
<time>2018-04-02T02:45:14.562Z</time>
</trkpt>
<trkpt lat="13.7882717" lon="100.3469682">
<ele>0.022</ele>
<time>2018-04-02T02:45:17.588Z</time>
</trkpt>
<trkpt lat="13.7882529" lon="100.3466767">
<ele>0.698</ele>
<time>2018-04-02T02:45:19.750Z</time>
</trkpt>
<trkpt lat="13.7882254" lon="100.3464174">
<ele>1.536</ele>
<time>2018-04-02T02:45:21.749Z</time>
</trkpt>
<trkpt lat="13.7882004" lon="100.3461824">
<ele>1.871</ele>
<time>2018-04-02T02:45:23.583Z</time>
</trkpt>
<trkpt lat="13.7882098" lon="100.3459033">
<ele>1.632</ele>
<time>2018-04-02T02:45:25.783Z</time>
</trkpt>
<trkpt lat="13.7882016" lon="100.3456720">
<ele>1.124</ele>
<time>2018-04-02T02:45:27.659Z</time>
</trkpt>
<trkpt lat="13.7881884" lon="100.3454297">
<ele>0.750</ele>
<time>2018-04-02T02:45:29.684Z</time>
</trkpt>
<trkpt lat="13.7881846" lon="100.3451797">
<ele>0.779</ele>
<time>2018-04-02T02:45:31.839Z</time>
</trkpt>
<trkpt lat="13.7881710" lon="100.3449626">
<ele>1.395</ele>
<time>2018-04-02T02:45:33.787Z</time>
</trkpt>
<trkpt lat="13.7881783" lon="100.3447435">
<ele>2.488</ele>
<time>2018-04-02T02:45:35.827Z</time>
</trkpt>
<trkpt lat="13.7881740" lon="100.3445194">
<ele>3.547</ele>
<time>2018-04-02T02:45:37.957Z</time>
</trkpt>
<trkpt lat="13.7881539" lon="100.3443361">
<ele>4.208</ele>
<time>2018-04-02T02:45:39.658Z</time>
</trkpt>
<trkpt lat="13.7881524" lon="100.3441403">
<ele>4.504</ele>
<time>2018-04-02T02:45:41.345Z</time>
</trkpt>
<trkpt lat="13.7881523" lon="100.3438457">
<ele>4.566</ele>
<time>2018-04-02T02:45:43.760Z</time>
</trkpt>
<trkpt lat="13.7881425" lon="100.3436232">
<ele>4.386</ele>
<time>2018-04-02T02:45:45.607Z</time>
</trkpt>
<trkpt lat="13.7881343" lon="100.3434395">
<ele>4.006</ele>
<time>2018-04-02T02:45:47.083Z</time>
</trkpt>
<trkpt lat="13.7881194" lon="100.3431057">
<ele>3.721</ele>
<time>2018-04-02T02:45:49.496Z</time>
</trkpt>
<trkpt lat="13.7881157" lon="100.3428171">
<ele>4.045</ele>
<time>2018-04-02T02:45:51.492Z</time>
</trkpt>
<trkpt lat="13.7881093" lon="100.3425212">
<ele>5.010</ele>
<time>2018-04-02T02:45:53.496Z</time>
</trkpt>
<trkpt lat="13.7881122" lon="100.3422261">
<ele>5.740</ele>
<time>2018-04-02T02:45:55.461Z</time>
</trkpt>
<trkpt lat="13.7881490" lon="100.3417212">
<ele>5.413</ele>
<time>2018-04-02T02:45:58.901Z</time>
</trkpt>
<trkpt lat="13.7881108" lon="100.3413343">
<ele>4.419</ele>
<time>2018-04-02T02:46:01.651Z</time>
</trkpt>
<trkpt lat="13.7880645" lon="100.3409101">
<ele>3.503</ele>
<time>2018-04-02T02:46:04.558Z</time>
</trkpt>
<trkpt lat="13.7880371" lon="100.3404583">
<ele>2.924</ele>
<time>2018-04-02T02:46:07.754Z</time>
</trkpt>
<trkpt lat="13.7880034" lon="100.3400979">
<ele>2.705</ele>
<time>2018-04-02T02:46:10.687Z</time>
</trkpt>
<trkpt lat="13.7879746" lon="100.3397676">
<ele>2.942</ele>
<time>2018-04-02T02:46:13.511Z</time>
</trkpt>
<trkpt lat="13.7879593" lon="100.3393986">
<ele>3.514</ele>
<time>2018-04-02T02:46:16.570Z</time>
</trkpt>
<trkpt lat="13.7879110" lon="100.3390264">
<ele>4.056</ele>
<time>2018-04-02T02:46:19.525Z</time>
</trkpt>
<trkpt lat="13.7879254" lon="100.3386230">
<ele>4.343</ele>
<time>2018-04-02T02:46:22.506Z</time>
</trkpt>
<trkpt lat="13.7879334" lon="100.3381926">
<ele>4.562</ele>
<time>2018-04-02T02:46:25.459Z</time>
</trkpt>
<trkpt lat="13.7879031" lon="100.3377475">
<ele>4.866</ele>
<time>2018-04-02T02:46:28.346Z</time>
</trkpt>
<trkpt lat="13.7878536" lon="100.3372806">
<ele>5.142</ele>
<time>2018-04-02T02:46:31.381Z</time>
</trkpt>
<trkpt lat="13.7878013" lon="100.3368632">
<ele>5.268</ele>
<time>2018-04-02T02:46:34.045Z</time>
</trkpt>
<trkpt lat="13.7878035" lon="100.3362595">
<ele>5.254</ele>
<time>2018-04-02T02:46:37.758Z</time>
</trkpt>
<trkpt lat="13.7878141" lon="100.3358182">
<ele>5.132</ele>
<time>2018-04-02T02:46:40.823Z</time>
</trkpt>
<trkpt lat="13.7878363" lon="100.3355307">
<ele>4.816</ele>
<time>2018-04-02T02:46:43.490Z</time>
</trkpt>
<trkpt lat="13.7878175" lon="100.3353591">
<ele>4.306</ele>
<time>2018-04-02T02:46:45.557Z</time>
</trkpt>
<trkpt lat="13.7877956" lon="100.3352082">
<ele>4.084</ele>
<time>2018-04-02T02:46:47.666Z</time>
</trkpt>
<trkpt lat="13.7877932" lon="100.3350308">
<ele>4.503</ele>
<time>2018-04-02T02:46:50.524Z</time>
</trkpt>
<trkpt lat="13.7877858" lon="100.3349309">
<ele>5.070</ele>
<time>2018-04-02T02:46:52.384Z</time>
</trkpt>
<trkpt lat="13.7877656" lon="100.3347869">
<ele>5.277</ele>
<time>2018-04-02T02:46:55.490Z</time>
</trkpt>
<trkpt lat="13.7877647" lon="100.3345329">
<ele>5.207</ele>
<time>2018-04-02T02:47:00.214Z</time>
</trkpt>
<trkpt lat="13.7877754" lon="100.3343615">
<ele>5.037</ele>
<time>2018-04-02T02:47:02.956Z</time>
</trkpt>
<trkpt lat="13.7877302" lon="100.3339602">
<ele>4.810</ele>
<time>2018-04-02T02:47:07.354Z</time>
</trkpt>
<trkpt lat="13.7877646" lon="100.3336125">
<ele>4.590</ele>
<time>2018-04-02T02:47:10.297Z</time>
</trkpt>
<trkpt lat="13.7877690" lon="100.3331882">
<ele>4.464</ele>
<time>2018-04-02T02:47:13.477Z</time>
</trkpt>
<trkpt lat="13.7877804" lon="100.3327364">
<ele>4.691</ele>
<time>2018-04-02T02:47:16.706Z</time>
</trkpt>
<trkpt lat="13.7877545" lon="100.3323743">
<ele>5.408</ele>
<time>2018-04-02T02:47:19.141Z</time>
</trkpt>
<trkpt lat="13.7878027" lon="100.3318213">
<ele>6.166</ele>
<time>2018-04-02T02:47:22.563Z</time>
</trkpt>
<trkpt lat="13.7878331" lon="100.3313098">
<ele>6.444</ele>
<time>2018-04-02T02:47:25.450Z</time>
</trkpt>
<trkpt lat="13.7877915" lon="100.3306785">
<ele>6.094</ele>
<time>2018-04-02T02:47:28.804Z</time>
</trkpt>
<trkpt lat="13.7877532" lon="100.3301284">
<ele>5.325</ele>
<time>2018-04-02T02:47:31.627Z</time>
</trkpt>
<trkpt lat="13.7877134" lon="100.3295217">
<ele>4.471</ele>
<time>2018-04-02T02:47:34.704Z</time>
</trkpt>
<trkpt lat="13.7877055" lon="100.3289101">
<ele>3.662</ele>
<time>2018-04-02T02:47:37.788Z</time>
</trkpt>
<trkpt lat="13.7876851" lon="100.3283320">
<ele>3.023</ele>
<time>2018-04-02T02:47:40.669Z</time>
</trkpt>
<trkpt lat="13.7876646" lon="100.3277140">
<ele>2.663</ele>
<time>2018-04-02T02:47:43.752Z</time>
</trkpt>
<trkpt lat="13.7876359" lon="100.3271297">
<ele>2.415</ele>
<time>2018-04-02T02:47:46.718Z</time>
</trkpt>
<trkpt lat="13.7875714" lon="100.3265661">
<ele>1.935</ele>
<time>2018-04-02T02:47:49.926Z</time>
</trkpt>
<trkpt lat="13.7875252" lon="100.3261994">
<ele>1.140</ele>
<time>2018-04-02T02:47:52.340Z</time>
</trkpt>
<trkpt lat="13.7874970" lon="100.3257782">
<ele>0.353</ele>
<time>2018-04-02T02:47:55.145Z</time>
</trkpt>
<trkpt lat="13.7874334" lon="100.3253444">
<ele>0.000</ele>
<time>2018-04-02T02:47:58.054Z</time>
</trkpt>
<trkpt lat="13.7873951" lon="100.3249020">
<ele>0.000</ele>
<time>2018-04-02T02:48:00.934Z</time>
</trkpt>
<trkpt lat="13.7873896" lon="100.3244159">
<ele>0.253</ele>
<time>2018-04-02T02:48:03.938Z</time>
</trkpt>
<trkpt lat="13.7873724" lon="100.3238977">
<ele>1.142</ele>
<time>2018-04-02T02:48:06.953Z</time>
</trkpt>
<trkpt lat="13.7873640" lon="100.3233648">
<ele>2.099</ele>
<time>2018-04-02T02:48:09.901Z</time>
</trkpt>
<trkpt lat="13.7873574" lon="100.3227782">
<ele>2.993</ele>
<time>2018-04-02T02:48:13.000Z</time>
</trkpt>
<trkpt lat="13.7873456" lon="100.3221719">
<ele>3.781</ele>
<time>2018-04-02T02:48:16.044Z</time>
</trkpt>
<trkpt lat="13.7872693" lon="100.3215683">
<ele>4.317</ele>
<time>2018-04-02T02:48:18.959Z</time>
</trkpt>
<trkpt lat="13.7872390" lon="100.3209266">
<ele>4.617</ele>
<time>2018-04-02T02:48:21.941Z</time>
</trkpt>
<trkpt lat="13.7872013" lon="100.3202789">
<ele>4.951</ele>
<time>2018-04-02T02:48:24.866Z</time>
</trkpt>
<trkpt lat="13.7872088" lon="100.3195600">
<ele>5.360</ele>
<time>2018-04-02T02:48:27.997Z</time>
</trkpt>
<trkpt lat="13.7872564" lon="100.3188405">
<ele>5.580</ele>
<time>2018-04-02T02:48:31.101Z</time>
</trkpt>
<trkpt lat="13.7872548" lon="100.3182234">
<ele>5.416</ele>
<time>2018-04-02T02:48:33.788Z</time>
</trkpt>
<trkpt lat="13.7872224" lon="100.3175416">
<ele>5.012</ele>
<time>2018-04-02T02:48:36.858Z</time>
</trkpt>
<trkpt lat="13.7871857" lon="100.3169493">
<ele>4.846</ele>
<time>2018-04-02T02:48:39.688Z</time>
</trkpt>
<trkpt lat="13.7871543" lon="100.3163511">
<ele>5.151</ele>
<time>2018-04-02T02:48:42.635Z</time>
</trkpt>
<trkpt lat="13.7871415" lon="100.3156998">
<ele>5.442</ele>
<time>2018-04-02T02:48:45.813Z</time>
</trkpt>
<trkpt lat="13.7870829" lon="100.3150974">
<ele>5.069</ele>
<time>2018-04-02T02:48:48.858Z</time>
</trkpt>
<trkpt lat="13.7870552" lon="100.3145732">
<ele>4.144</ele>
<time>2018-04-02T02:48:51.875Z</time>
</trkpt>
<trkpt lat="13.7870432" lon="100.3141308">
<ele>3.409</ele>
<time>2018-04-02T02:48:54.852Z</time>
</trkpt>
<trkpt lat="13.7870192" lon="100.3137625">
<ele>3.260</ele>
<time>2018-04-02T02:48:57.489Z</time>
</trkpt>
<trkpt lat="13.7869683" lon="100.3133347">
<ele>3.311</ele>
<time>2018-04-02T02:49:00.460Z</time>
</trkpt>
<trkpt lat="13.7869563" lon="100.3128070">
<ele>3.168</ele>
<time>2018-04-02T02:49:03.738Z</time>
</trkpt>
<trkpt lat="13.7869720" lon="100.3122194">
<ele>3.240</ele>
<time>2018-04-02T02:49:07.031Z</time>
</trkpt>
<trkpt lat="13.7869290" lon="100.3116932">
<ele>3.922</ele>
<time>2018-04-02T02:49:09.791Z</time>
</trkpt>
<trkpt lat="13.7868931" lon="100.3110787">
<ele>4.730</ele>
<time>2018-04-02T02:49:12.798Z</time>
</trkpt>
<trkpt lat="13.7868623" lon="100.3104078">
<ele>5.074</ele>
<time>2018-04-02T02:49:15.883Z</time>
</trkpt>
<trkpt lat="13.7868640" lon="100.3097013">
<ele>4.975</ele>
<time>2018-04-02T02:49:19.056Z</time>
</trkpt>
<trkpt lat="13.7868289" lon="100.3090682">
<ele>4.577</ele>
<time>2018-04-02T02:49:22.034Z</time>
</trkpt>
<trkpt lat="13.7868119" lon="100.3084915">
<ele>4.018</ele>
<time>2018-04-02T02:49:25.043Z</time>
</trkpt>
<trkpt lat="13.7868058" lon="100.3080226">
<ele>3.898</ele>
<time>2018-04-02T02:49:27.842Z</time>
</trkpt>
<trkpt lat="13.7867899" lon="100.3076256">
<ele>4.601</ele>
<time>2018-04-02T02:49:30.466Z</time>
</trkpt>
<trkpt lat="13.7867331" lon="100.3071989">
<ele>5.467</ele>
<time>2018-04-02T02:49:33.405Z</time>
</trkpt>
<trkpt lat="13.7867060" lon="100.3067388">
<ele>5.591</ele>
<time>2018-04-02T02:49:36.566Z</time>
</trkpt>
<trkpt lat="13.7866965" lon="100.3063683">
<ele>4.857</ele>
<time>2018-04-02T02:49:39.277Z</time>
</trkpt>
<trkpt lat="13.7866794" lon="100.3060259">
<ele>3.886</ele>
<time>2018-04-02T02:49:42.001Z</time>
</trkpt>
<trkpt lat="13.7866817" lon="100.3056025">
<ele>3.448</ele>
<time>2018-04-02T02:49:45.530Z</time>
</trkpt>
<trkpt lat="13.7866522" lon="100.3052774">
<ele>3.767</ele>
<time>2018-04-02T02:49:48.470Z</time>
</trkpt>
<trkpt lat="13.7866508" lon="100.3050521">
<ele>4.781</ele>
<time>2018-04-02T02:49:50.732Z</time>
</trkpt>
<trkpt lat="13.7866648" lon="100.3047699">
<ele>6.152</ele>
<time>2018-04-02T02:49:54.013Z</time>
</trkpt>
<trkpt lat="13.7866482" lon="100.3046296">
<ele>7.095</ele>
<time>2018-04-02T02:49:55.854Z</time>
</trkpt>
<trkpt lat="13.7866293" lon="100.3044665">
<ele>7.178</ele>
<time>2018-04-02T02:49:58.538Z</time>
</trkpt>
<trkpt lat="13.7866070" lon="100.3042785">
<ele>6.888</ele>
<time>2018-04-02T02:50:01.772Z</time>
</trkpt>
<trkpt lat="13.7865824" lon="100.3039816">
<ele>6.729</ele>
<time>2018-04-02T02:50:05.570Z</time>
</trkpt>
<trkpt lat="13.7865840" lon="100.3036885">
<ele>6.748</ele>
<time>2018-04-02T02:50:08.536Z</time>
</trkpt>
<trkpt lat="13.7865703" lon="100.3032964">
<ele>6.761</ele>
<time>2018-04-02T02:50:11.992Z</time>
</trkpt>
<trkpt lat="13.7865490" lon="100.3029433">
<ele>6.654</ele>
<time>2018-04-02T02:50:14.834Z</time>
</trkpt>
<trkpt lat="13.7865443" lon="100.3025030">
<ele>6.504</ele>
<time>2018-04-02T02:50:18.169Z</time>
</trkpt>
<trkpt lat="13.7865423" lon="100.3021161">
<ele>6.493</ele>
<time>2018-04-02T02:50:21.112Z</time>
</trkpt>
<trkpt lat="13.7865268" lon="100.3017209">
<ele>6.676</ele>
<time>2018-04-02T02:50:24.285Z</time>
</trkpt>
<trkpt lat="13.7865094" lon="100.3013746">
<ele>7.152</ele>
<time>2018-04-02T02:50:27.235Z</time>
</trkpt>
<trkpt lat="13.7864970" lon="100.3010757">
<ele>7.937</ele>
<time>2018-04-02T02:50:29.912Z</time>
</trkpt>
<trkpt lat="13.7864803" lon="100.3007366">
<ele>8.812</ele>
<time>2018-04-02T02:50:33.052Z</time>
</trkpt>
<trkpt lat="13.7864697" lon="100.3004171">
<ele>9.556</ele>
<time>2018-04-02T02:50:36.079Z</time>
</trkpt>
<trkpt lat="13.7864608" lon="100.3001282">
<ele>10.106</ele>
<time>2018-04-02T02:50:38.972Z</time>
</trkpt>
<trkpt lat="13.7864445" lon="100.2998621">
<ele>10.412</ele>
<time>2018-04-02T02:50:42.113Z</time>
</trkpt>
<trkpt lat="13.7864285" lon="100.2997145">
<ele>10.520</ele>
<time>2018-04-02T02:50:44.532Z</time>
</trkpt>
<trkpt lat="13.7864201" lon="100.2996146">
<ele>10.378</ele>
<time>2018-04-02T02:50:47.510Z</time>
</trkpt>
<trkpt lat="13.7864185" lon="100.2997379">
<ele>9.856</ele>
<time>2018-04-02T02:50:52.992Z</time>
</trkpt>
<trkpt lat="13.7864185" lon="100.2997379">
<ele>9.124</ele>
<time>2018-04-02T02:50:55.992Z</time>
</trkpt>
<trkpt lat="13.7864185" lon="100.2997379">
<ele>8.672</ele>
<time>2018-04-02T02:50:56.092Z</time>
</trkpt>
<trkpt lat="13.7863257" lon="100.2997718">
<ele>8.925</ele>
<time>2018-04-02T02:51:32.517Z</time>
</trkpt>
<trkpt lat="13.7863257" lon="100.2997718">
<ele>8.925</ele>
<time>2018-04-02T02:51:32.517Z</time>
</trkpt>
<trkpt lat="13.7860520" lon="100.2996887">
<ele>2.285</ele>
<time>2018-04-02T02:52:43.998Z</time>
</trkpt>
<trkpt lat="13.7860520" lon="100.2996887">
<ele>2.284</ele>
<time>2018-04-02T02:52:47.998Z</time>
</trkpt>
<trkpt lat="13.7860520" lon="100.2996887">
<ele>2.283</ele>
<time>2018-04-02T03:02:44.556Z</time>
</trkpt>
<trkpt lat="13.7860578" lon="100.2995343">
<ele>2.283</ele>
<time>2018-04-02T03:02:55.278Z</time>
</trkpt>
<trkpt lat="13.7861157" lon="100.2994530">
<ele>2.614</ele>
<time>2018-04-02T03:02:59.107Z</time>
</trkpt>
<trkpt lat="13.7862150" lon="100.2994003">
<ele>3.489</ele>
<time>2018-04-02T03:03:04.368Z</time>
</trkpt>
<trkpt lat="13.7863024" lon="100.2993502">
<ele>4.424</ele>
<time>2018-04-02T03:03:09.977Z</time>
</trkpt>
<trkpt lat="13.7863768" lon="100.2992872">
<ele>4.907</ele>
<time>2018-04-02T03:03:13.797Z</time>
</trkpt>
<trkpt lat="13.7864174" lon="100.2991682">
<ele>4.982</ele>
<time>2018-04-02T03:03:16.817Z</time>
</trkpt>
<trkpt lat="13.7864183" lon="100.2990128">
<ele>4.851</ele>
<time>2018-04-02T03:03:19.360Z</time>
</trkpt>
<trkpt lat="13.7864178" lon="100.2987570">
<ele>4.691</ele>
<time>2018-04-02T03:03:22.395Z</time>
</trkpt>
<trkpt lat="13.7864496" lon="100.2984733">
<ele>4.375</ele>
<time>2018-04-02T03:03:25.290Z</time>
</trkpt>
<trkpt lat="13.7864631" lon="100.2981506">
<ele>3.774</ele>
<time>2018-04-02T03:03:28.299Z</time>
</trkpt>
<trkpt lat="13.7864859" lon="100.2978139">
<ele>3.138</ele>
<time>2018-04-02T03:03:31.248Z</time>
</trkpt>
<trkpt lat="13.7864699" lon="100.2974712">
<ele>2.789</ele>
<time>2018-04-02T03:03:34.036Z</time>
</trkpt>
<trkpt lat="13.7864641" lon="100.2970754">
<ele>2.757</ele>
<time>2018-04-02T03:03:36.984Z</time>
</trkpt>
<trkpt lat="13.7864686" lon="100.2966504">
<ele>2.919</ele>
<time>2018-04-02T03:03:39.890Z</time>
</trkpt>
<trkpt lat="13.7864613" lon="100.2961968">
<ele>3.100</ele>
<time>2018-04-02T03:03:42.770Z</time>
</trkpt>
<trkpt lat="13.7864426" lon="100.2956947">
<ele>3.049</ele>
<time>2018-04-02T03:03:45.785Z</time>
</trkpt>
<trkpt lat="13.7864239" lon="100.2951846">
<ele>2.675</ele>
<time>2018-04-02T03:03:48.719Z</time>
</trkpt>
<trkpt lat="13.7863906" lon="100.2946569">
<ele>2.318</ele>
<time>2018-04-02T03:03:51.714Z</time>
</trkpt>
<trkpt lat="13.7863738" lon="100.2941422">
<ele>2.312</ele>
<time>2018-04-02T03:03:54.631Z</time>
</trkpt>
<trkpt lat="13.7863629" lon="100.2936202">
<ele>2.652</ele>
<time>2018-04-02T03:03:57.530Z</time>
</trkpt>
<trkpt lat="13.7863380" lon="100.2930493">
<ele>3.143</ele>
<time>2018-04-02T03:04:00.591Z</time>
</trkpt>
<trkpt lat="13.7863398" lon="100.2924896">
<ele>3.486</ele>
<time>2018-04-02T03:04:03.503Z</time>
</trkpt>
<trkpt lat="13.7863172" lon="100.2919255">
<ele>3.371</ele>
<time>2018-04-02T03:04:06.388Z</time>
</trkpt>
<trkpt lat="13.7863064" lon="100.2913303">
<ele>2.841</ele>
<time>2018-04-02T03:04:09.393Z</time>
</trkpt>
<trkpt lat="13.7862763" lon="100.2907354">
<ele>2.285</ele>
<time>2018-04-02T03:04:12.330Z</time>
</trkpt>
<trkpt lat="13.7862735" lon="100.2901045">
<ele>1.720</ele>
<time>2018-04-02T03:04:15.334Z</time>
</trkpt>
<trkpt lat="13.7862562" lon="100.2894633">
<ele>0.934</ele>
<time>2018-04-02T03:04:18.309Z</time>
</trkpt>
<trkpt lat="13.7862196" lon="100.2887844">
<ele>0.177</ele>
<time>2018-04-02T03:04:21.414Z</time>
</trkpt>
<trkpt lat="13.7861793" lon="100.2881159">
<ele>0.000</ele>
<time>2018-04-02T03:04:24.491Z</time>
</trkpt>
<trkpt lat="13.7861586" lon="100.2874789">
<ele>0.000</ele>
<time>2018-04-02T03:04:27.462Z</time>
</trkpt>
<trkpt lat="13.7861642" lon="100.2868304">
<ele>0.000</ele>
<time>2018-04-02T03:04:30.479Z</time>
</trkpt>
<trkpt lat="13.7861514" lon="100.2864246">
<ele>0.000</ele>
<time>2018-04-02T03:04:32.363Z</time>
</trkpt>
<trkpt lat="13.7861240" lon="100.2860080">
<ele>0.000</ele>
<time>2018-04-02T03:04:34.305Z</time>
</trkpt>
<trkpt lat="13.7860837" lon="100.2855877">
<ele>0.000</ele>
<time>2018-04-02T03:04:36.270Z</time>
</trkpt>
<trkpt lat="13.7861010" lon="100.2851645">
<ele>0.000</ele>
<time>2018-04-02T03:04:38.194Z</time>
</trkpt>
<trkpt lat="13.7860485" lon="100.2846513">
<ele>0.373</ele>
<time>2018-04-02T03:04:40.447Z</time>
</trkpt>
<trkpt lat="13.7860389" lon="100.2841838">
<ele>0.540</ele>
<time>2018-04-02T03:04:42.462Z</time>
</trkpt>
<trkpt lat="13.7860261" lon="100.2837182">
<ele>0.061</ele>
<time>2018-04-02T03:04:44.470Z</time>
</trkpt>
<trkpt lat="13.7860171" lon="100.2832609">
<ele>0.000</ele>
<time>2018-04-02T03:04:46.458Z</time>
</trkpt>
<trkpt lat="13.7860042" lon="100.2828228">
<ele>0.000</ele>
<time>2018-04-02T03:04:48.374Z</time>
</trkpt>
<trkpt lat="13.7859974" lon="100.2823734">
<ele>0.127</ele>
<time>2018-04-02T03:04:50.338Z</time>
</trkpt>
<trkpt lat="13.7859759" lon="100.2819102">
<ele>1.432</ele>
<time>2018-04-02T03:04:52.353Z</time>
</trkpt>
<trkpt lat="13.7859496" lon="100.2814550">
<ele>2.374</ele>
<time>2018-04-02T03:04:54.312Z</time>
</trkpt>
<trkpt lat="13.7859446" lon="100.2809578">
<ele>2.529</ele>
<time>2018-04-02T03:04:56.444Z</time>
</trkpt>
<trkpt lat="13.7859278" lon="100.2802973">
<ele>1.983</ele>
<time>2018-04-02T03:04:59.345Z</time>
</trkpt>
<trkpt lat="13.7859029" lon="100.2798717">
<ele>1.105</ele>
<time>2018-04-02T03:05:01.279Z</time>
</trkpt>
<trkpt lat="13.7858772" lon="100.2794663">
<ele>0.419</ele>
<time>2018-04-02T03:05:03.118Z</time>
</trkpt>
<trkpt lat="13.7858624" lon="100.2790055">
<ele>0.360</ele>
<time>2018-04-02T03:05:05.171Z</time>
</trkpt>
<trkpt lat="13.7858642" lon="100.2785643">
<ele>1.060</ele>
<time>2018-04-02T03:05:07.126Z</time>
</trkpt>
<trkpt lat="13.7858617" lon="100.2780906">
<ele>2.136</ele>
<time>2018-04-02T03:05:09.190Z</time>
</trkpt>
<trkpt lat="13.7858578" lon="100.2775614">
<ele>2.794</ele>
<time>2018-04-02T03:05:11.471Z</time>
</trkpt>
<trkpt lat="13.7858149" lon="100.2771096">
<ele>2.182</ele>
<time>2018-04-02T03:05:13.468Z</time>
</trkpt>
<trkpt lat="13.7858758" lon="100.2767083">
<ele>0.428</ele>
<time>2018-04-02T03:05:15.290Z</time>
</trkpt>
<trkpt lat="13.7858562" lon="100.2762667">
<ele>0.000</ele>
<time>2018-04-02T03:05:17.300Z</time>
</trkpt>
<trkpt lat="13.7858223" lon="100.2758506">
<ele>0.000</ele>
<time>2018-04-02T03:05:19.227Z</time>
</trkpt>
<trkpt lat="13.7857936" lon="100.2754520">
<ele>0.000</ele>
<time>2018-04-02T03:05:21.068Z</time>
</trkpt>
<trkpt lat="13.7858528" lon="100.2749804">
<ele>0.000</ele>
<time>2018-04-02T03:05:23.299Z</time>
</trkpt>
<trkpt lat="13.7858135" lon="100.2746220">
<ele>0.000</ele>
<time>2018-04-02T03:05:25.032Z</time>
</trkpt>
<trkpt lat="13.7858004" lon="100.2742141">
<ele>0.000</ele>
<time>2018-04-02T03:05:27.094Z</time>
</trkpt>
<trkpt lat="13.7857690" lon="100.2738938">
<ele>0.000</ele>
<time>2018-04-02T03:05:28.809Z</time>
</trkpt>
<trkpt lat="13.7857439" lon="100.2735478">
<ele>0.000</ele>
<time>2018-04-02T03:05:30.647Z</time>
</trkpt>
<trkpt lat="13.7857143" lon="100.2731578">
<ele>0.000</ele>
<time>2018-04-02T03:05:32.701Z</time>
</trkpt>
<trkpt lat="13.7856579" lon="100.2727791">
<ele>0.619</ele>
<time>2018-04-02T03:05:34.669Z</time>
</trkpt>
<trkpt lat="13.7856513" lon="100.2723874">
<ele>1.087</ele>
<time>2018-04-02T03:05:36.616Z</time>
</trkpt>
<trkpt lat="13.7856237" lon="100.2719702">
<ele>1.093</ele>
<time>2018-04-02T03:05:38.645Z</time>
</trkpt>
<trkpt lat="13.7856039" lon="100.2715592">
<ele>0.942</ele>
<time>2018-04-02T03:05:40.590Z</time>
</trkpt>
<trkpt lat="13.7855943" lon="100.2711184">
<ele>0.167</ele>
<time>2018-04-02T03:05:42.620Z</time>
</trkpt>
<trkpt lat="13.7855824" lon="100.2706646">
<ele>0.000</ele>
<time>2018-04-02T03:05:44.674Z</time>
</trkpt>
<trkpt lat="13.7855708" lon="100.2702284">
<ele>0.000</ele>
<time>2018-04-02T03:05:46.625Z</time>
</trkpt>
<trkpt lat="13.7855314" lon="100.2697573">
<ele>0.000</ele>
<time>2018-04-02T03:05:48.719Z</time>
</trkpt>
<trkpt lat="13.7855281" lon="100.2693328">
<ele>0.000</ele>
<time>2018-04-02T03:05:50.616Z</time>
</trkpt>
<trkpt lat="13.7854927" lon="100.2688869">
<ele>0.000</ele>
<time>2018-04-02T03:05:52.615Z</time>
</trkpt>
<trkpt lat="13.7854774" lon="100.2684385">
<ele>0.000</ele>
<time>2018-04-02T03:05:54.593Z</time>
</trkpt>
<trkpt lat="13.7854725" lon="100.2679679">
<ele>0.000</ele>
<time>2018-04-02T03:05:56.663Z</time>
</trkpt>
<trkpt lat="13.7854701" lon="100.2675344">
<ele>0.000</ele>
<time>2018-04-02T03:05:58.578Z</time>
</trkpt>
<trkpt lat="13.7854673" lon="100.2670886">
<ele>0.000</ele>
<time>2018-04-02T03:06:00.582Z</time>
</trkpt>
<trkpt lat="13.7854557" lon="100.2666657">
<ele>0.000</ele>
<time>2018-04-02T03:06:02.528Z</time>
</trkpt>
<trkpt lat="13.7854380" lon="100.2662366">
<ele>0.000</ele>
<time>2018-04-02T03:06:04.508Z</time>
</trkpt>
<trkpt lat="13.7854144" lon="100.2657901">
<ele>0.000</ele>
<time>2018-04-02T03:06:06.551Z</time>
</trkpt>
<trkpt lat="13.7853886" lon="100.2653600">
<ele>0.000</ele>
<time>2018-04-02T03:06:08.501Z</time>
</trkpt>
<trkpt lat="13.7853874" lon="100.2649024">
<ele>0.000</ele>
<time>2018-04-02T03:06:10.581Z</time>
</trkpt>
<trkpt lat="13.7853705" lon="100.2644914">
<ele>0.000</ele>
<time>2018-04-02T03:06:12.496Z</time>
</trkpt>
<trkpt lat="13.7853113" lon="100.2640907">
<ele>0.000</ele>
<time>2018-04-02T03:06:14.419Z</time>
</trkpt>
<trkpt lat="13.7853254" lon="100.2636681">
<ele>0.000</ele>
<time>2018-04-02T03:06:16.403Z</time>
</trkpt>
<trkpt lat="13.7853414" lon="100.2631942">
<ele>0.000</ele>
<time>2018-04-02T03:06:18.560Z</time>
</trkpt>
<trkpt lat="13.7852251" lon="100.2627329">
<ele>0.338</ele>
<time>2018-04-02T03:06:20.688Z</time>
</trkpt>
<trkpt lat="13.7852188" lon="100.2622948">
<ele>0.660</ele>
<time>2018-04-02T03:06:22.691Z</time>
</trkpt>
<trkpt lat="13.7851961" lon="100.2619360">
<ele>1.151</ele>
<time>2018-04-02T03:06:24.382Z</time>
</trkpt>
<trkpt lat="13.7851991" lon="100.2614717">
<ele>2.179</ele>
<time>2018-04-02T03:06:26.556Z</time>
</trkpt>
<trkpt lat="13.7851970" lon="100.2610403">
<ele>3.359</ele>
<time>2018-04-02T03:06:28.550Z</time>
</trkpt>
<trkpt lat="13.7851857" lon="100.2606064">
<ele>4.151</ele>
<time>2018-04-02T03:06:30.529Z</time>
</trkpt>
<trkpt lat="13.7851720" lon="100.2601612">
<ele>4.292</ele>
<time>2018-04-02T03:06:32.524Z</time>
</trkpt>
<trkpt lat="13.7851360" lon="100.2596988">
<ele>3.550</ele>
<time>2018-04-02T03:06:34.589Z</time>
</trkpt>
<trkpt lat="13.7851502" lon="100.2592547">
<ele>2.250</ele>
<time>2018-04-02T03:06:36.571Z</time>
</trkpt>
<trkpt lat="13.7851396" lon="100.2587907">
<ele>1.202</ele>
<time>2018-04-02T03:06:38.630Z</time>
</trkpt>
<trkpt lat="13.7851387" lon="100.2583464">
<ele>0.780</ele>
<time>2018-04-02T03:06:40.588Z</time>
</trkpt>
<trkpt lat="13.7850973" lon="100.2578815">
<ele>1.530</ele>
<time>2018-04-02T03:06:42.680Z</time>
</trkpt>
<trkpt lat="13.7851047" lon="100.2574791">
<ele>3.758</ele>
<time>2018-04-02T03:06:44.541Z</time>
</trkpt>
<trkpt lat="13.7850981" lon="100.2570419">
<ele>6.248</ele>
<time>2018-04-02T03:06:46.573Z</time>
</trkpt>
<trkpt lat="13.7850481" lon="100.2565959">
<ele>7.677</ele>
<time>2018-04-02T03:06:48.645Z</time>
</trkpt>
<trkpt lat="13.7850246" lon="100.2561780">
<ele>8.014</ele>
<time>2018-04-02T03:06:50.556Z</time>
</trkpt>
<trkpt lat="13.7850160" lon="100.2557372">
<ele>7.581</ele>
<time>2018-04-02T03:06:52.530Z</time>
</trkpt>
<trkpt lat="13.7849938" lon="100.2552745">
<ele>6.811</ele>
<time>2018-04-02T03:06:54.562Z</time>
</trkpt>
<trkpt lat="13.7849725" lon="100.2548243">
<ele>6.353</ele>
<time>2018-04-02T03:06:56.507Z</time>
</trkpt>
<trkpt lat="13.7849348" lon="100.2543749">
<ele>6.500</ele>
<time>2018-04-02T03:06:58.427Z</time>
</trkpt>
<trkpt lat="13.7848972" lon="100.2539083">
<ele>6.822</ele>
<time>2018-04-02T03:07:00.394Z</time>
</trkpt>
<trkpt lat="13.7848446" lon="100.2534332">
<ele>6.892</ele>
<time>2018-04-02T03:07:02.375Z</time>
</trkpt>
<trkpt lat="13.7847805" lon="100.2529481">
<ele>6.530</ele>
<time>2018-04-02T03:07:04.378Z</time>
</trkpt>
<trkpt lat="13.7847002" lon="100.2524613">
<ele>5.751</ele>
<time>2018-04-02T03:07:06.390Z</time>
</trkpt>
<trkpt lat="13.7846082" lon="100.2519936">
<ele>4.923</ele>
<time>2018-04-02T03:07:08.336Z</time>
</trkpt>
<trkpt lat="13.7844912" lon="100.2515216">
<ele>4.410</ele>
<time>2018-04-02T03:07:10.326Z</time>
</trkpt>
<trkpt lat="13.7843793" lon="100.2510441">
<ele>4.126</ele>
<time>2018-04-02T03:07:12.341Z</time>
</trkpt>
<trkpt lat="13.7842641" lon="100.2505787">
<ele>3.893</ele>
<time>2018-04-02T03:07:14.310Z</time>
</trkpt>
<trkpt lat="13.7841434" lon="100.2501035">
<ele>3.595</ele>
<time>2018-04-02T03:07:16.308Z</time>
</trkpt>
<trkpt lat="13.7840264" lon="100.2496236">
<ele>3.084</ele>
<time>2018-04-02T03:07:18.303Z</time>
</trkpt>
<trkpt lat="13.7838956" lon="100.2491568">
<ele>2.410</ele>
<time>2018-04-02T03:07:20.266Z</time>
</trkpt>
<trkpt lat="13.7837801" lon="100.2486824">
<ele>1.967</ele>
<time>2018-04-02T03:07:22.269Z</time>
</trkpt>
<trkpt lat="13.7836666" lon="100.2482308">
<ele>1.935</ele>
<time>2018-04-02T03:07:24.221Z</time>
</trkpt>
<trkpt lat="13.7835576" lon="100.2477858">
<ele>2.095</ele>
<time>2018-04-02T03:07:26.172Z</time>
</trkpt>
<trkpt lat="13.7834416" lon="100.2473329">
<ele>2.278</ele>
<time>2018-04-02T03:07:28.169Z</time>
</trkpt>
<trkpt lat="13.7833267" lon="100.2468818">
<ele>2.470</ele>
<time>2018-04-02T03:07:30.147Z</time>
</trkpt>
<trkpt lat="13.7831942" lon="100.2464282">
<ele>2.624</ele>
<time>2018-04-02T03:07:32.144Z</time>
</trkpt>
<trkpt lat="13.7830801" lon="100.2459656">
<ele>2.700</ele>
<time>2018-04-02T03:07:34.152Z</time>
</trkpt>
<trkpt lat="13.7829790" lon="100.2455166">
<ele>2.720</ele>
<time>2018-04-02T03:07:36.096Z</time>
</trkpt>
<trkpt lat="13.7828718" lon="100.2450624">
<ele>2.556</ele>
<time>2018-04-02T03:07:38.093Z</time>
</trkpt>
<trkpt lat="13.7827636" lon="100.2446259">
<ele>2.141</ele>
<time>2018-04-02T03:07:40.072Z</time>
</trkpt>
<trkpt lat="13.7826718" lon="100.2442165">
<ele>1.792</ele>
<time>2018-04-02T03:07:41.970Z</time>
</trkpt>
<trkpt lat="13.7825616" lon="100.2437943">
<ele>1.883</ele>
<time>2018-04-02T03:07:43.958Z</time>
</trkpt>
<trkpt lat="13.7824741" lon="100.2433525">
<ele>2.660</ele>
<time>2018-04-02T03:07:45.987Z</time>
</trkpt>
<trkpt lat="13.7823586" lon="100.2428948">
<ele>4.102</ele>
<time>2018-04-02T03:07:48.091Z</time>
</trkpt>
<trkpt lat="13.7822519" lon="100.2424557">
<ele>5.647</ele>
<time>2018-04-02T03:07:50.103Z</time>
</trkpt>
<trkpt lat="13.7821470" lon="100.2420472">
<ele>6.676</ele>
<time>2018-04-02T03:07:51.991Z</time>
</trkpt>
<trkpt lat="13.7820355" lon="100.2416192">
<ele>6.800</ele>
<time>2018-04-02T03:07:53.991Z</time>
</trkpt>
<trkpt lat="13.7819322" lon="100.2412169">
<ele>6.058</ele>
<time>2018-04-02T03:07:55.892Z</time>
</trkpt>
<trkpt lat="13.7818320" lon="100.2407905">
<ele>5.149</ele>
<time>2018-04-02T03:07:57.905Z</time>
</trkpt>
<trkpt lat="13.7817121" lon="100.2403904">
<ele>4.736</ele>
<time>2018-04-02T03:07:59.807Z</time>
</trkpt>
<trkpt lat="13.7816031" lon="100.2399360">
<ele>4.823</ele>
<time>2018-04-02T03:08:01.899Z</time>
</trkpt>
<trkpt lat="13.7814971" lon="100.2394997">
<ele>5.083</ele>
<time>2018-04-02T03:08:03.874Z</time>
</trkpt>
<trkpt lat="13.7813745" lon="100.2390470">
<ele>5.643</ele>
<time>2018-04-02T03:08:05.904Z</time>
</trkpt>
<trkpt lat="13.7812599" lon="100.2385982">
<ele>6.712</ele>
<time>2018-04-02T03:08:07.898Z</time>
</trkpt>
<trkpt lat="13.7811587" lon="100.2381617">
<ele>7.673</ele>
<time>2018-04-02T03:08:09.856Z</time>
</trkpt>
<trkpt lat="13.7810397" lon="100.2377365">
<ele>7.958</ele>
<time>2018-04-02T03:08:11.842Z</time>
</trkpt>
<trkpt lat="13.7809340" lon="100.2373137">
<ele>7.963</ele>
<time>2018-04-02T03:08:13.856Z</time>
</trkpt>
<trkpt lat="13.7808309" lon="100.2369126">
<ele>8.139</ele>
<time>2018-04-02T03:08:15.791Z</time>
</trkpt>
<trkpt lat="13.7807464" lon="100.2364976">
<ele>8.296</ele>
<time>2018-04-02T03:08:17.761Z</time>
</trkpt>
<trkpt lat="13.7806242" lon="100.2360764">
<ele>7.841</ele>
<time>2018-04-02T03:08:19.797Z</time>
</trkpt>
<trkpt lat="13.7805368" lon="100.2356656">
<ele>6.747</ele>
<time>2018-04-02T03:08:21.745Z</time>
</trkpt>
<trkpt lat="13.7804363" lon="100.2352347">
<ele>5.554</ele>
<time>2018-04-02T03:08:23.787Z</time>
</trkpt>
<trkpt lat="13.7803389" lon="100.2348157">
<ele>4.656</ele>
<time>2018-04-02T03:08:25.753Z</time>
</trkpt>
<trkpt lat="13.7802299" lon="100.2343899">
<ele>4.157</ele>
<time>2018-04-02T03:08:27.737Z</time>
</trkpt>
<trkpt lat="13.7801263" lon="100.2339321">
<ele>4.126</ele>
<time>2018-04-02T03:08:29.825Z</time>
</trkpt>
<trkpt lat="13.7800176" lon="100.2334909">
<ele>4.414</ele>
<time>2018-04-02T03:08:31.823Z</time>
</trkpt>
<trkpt lat="13.7798981" lon="100.2330494">
<ele>4.670</ele>
<time>2018-04-02T03:08:33.808Z</time>
</trkpt>
<trkpt lat="13.7798037" lon="100.2325840">
<ele>4.617</ele>
<time>2018-04-02T03:08:35.821Z</time>
</trkpt>
<trkpt lat="13.7796783" lon="100.2321169">
<ele>4.066</ele>
<time>2018-04-02T03:08:37.822Z</time>
</trkpt>
<trkpt lat="13.7795632" lon="100.2316440">
<ele>3.088</ele>
<time>2018-04-02T03:08:39.810Z</time>
</trkpt>
<trkpt lat="13.7794464" lon="100.2311667">
<ele>2.388</ele>
<time>2018-04-02T03:08:41.820Z</time>
</trkpt>
<trkpt lat="13.7793271" lon="100.2307032">
<ele>2.905</ele>
<time>2018-04-02T03:08:43.784Z</time>
</trkpt>
<trkpt lat="13.7792091" lon="100.2302474">
<ele>4.511</ele>
<time>2018-04-02T03:08:45.719Z</time>
</trkpt>
<trkpt lat="13.7790982" lon="100.2297725">
<ele>5.890</ele>
<time>2018-04-02T03:08:47.712Z</time>
</trkpt>
<trkpt lat="13.7789842" lon="100.2292851">
<ele>6.207</ele>
<time>2018-04-02T03:08:49.731Z</time>
</trkpt>
<trkpt lat="13.7788572" lon="100.2288037">
<ele>5.910</ele>
<time>2018-04-02T03:08:51.720Z</time>
</trkpt>
<trkpt lat="13.7787435" lon="100.2283038">
<ele>5.579</ele>
<time>2018-04-02T03:08:53.755Z</time>
</trkpt>
<trkpt lat="13.7786249" lon="100.2278079">
<ele>5.381</ele>
<time>2018-04-02T03:08:55.762Z</time>
</trkpt>
<trkpt lat="13.7784917" lon="100.2273172">
<ele>5.439</ele>
<time>2018-04-02T03:08:57.754Z</time>
</trkpt>
<trkpt lat="13.7783785" lon="100.2268197">
<ele>5.781</ele>
<time>2018-04-02T03:08:59.763Z</time>
</trkpt>
<trkpt lat="13.7782702" lon="100.2263364">
<ele>6.127</ele>
<time>2018-04-02T03:09:01.739Z</time>
</trkpt>
<trkpt lat="13.7781494" lon="100.2258634">
<ele>6.245</ele>
<time>2018-04-02T03:09:03.695Z</time>
</trkpt>
<trkpt lat="13.7780017" lon="100.2253788">
<ele>6.235</ele>
<time>2018-04-02T03:09:05.711Z</time>
</trkpt>
<trkpt lat="13.7778430" lon="100.2248858">
<ele>6.241</ele>
<time>2018-04-02T03:09:07.751Z</time>
</trkpt>
<trkpt lat="13.7776762" lon="100.2244017">
<ele>6.274</ele>
<time>2018-04-02T03:09:09.761Z</time>
</trkpt>
<trkpt lat="13.7775287" lon="100.2239406">
<ele>6.351</ele>
<time>2018-04-02T03:09:11.664Z</time>
</trkpt>
<trkpt lat="13.7773685" lon="100.2234539">
<ele>6.501</ele>
<time>2018-04-02T03:09:13.670Z</time>
</trkpt>
<trkpt lat="13.7772000" lon="100.2229802">
<ele>6.410</ele>
<time>2018-04-02T03:09:15.626Z</time>
</trkpt>
<trkpt lat="13.7770229" lon="100.2224905">
<ele>5.836</ele>
<time>2018-04-02T03:09:17.643Z</time>
</trkpt>
<trkpt lat="13.7768529" lon="100.2219851">
<ele>5.149</ele>
<time>2018-04-02T03:09:19.703Z</time>
</trkpt>
<trkpt lat="13.7766919" lon="100.2215130">
<ele>4.750</ele>
<time>2018-04-02T03:09:21.635Z</time>
</trkpt>
<trkpt lat="13.7765278" lon="100.2210157">
<ele>4.439</ele>
<time>2018-04-02T03:09:23.661Z</time>
</trkpt>
<trkpt lat="13.7763594" lon="100.2205327">
<ele>3.797</ele>
<time>2018-04-02T03:09:25.625Z</time>
</trkpt>
<trkpt lat="13.7761876" lon="100.2200218">
<ele>2.884</ele>
<time>2018-04-02T03:09:27.679Z</time>
</trkpt>
<trkpt lat="13.7760208" lon="100.2195309">
<ele>2.301</ele>
<time>2018-04-02T03:09:29.649Z</time>
</trkpt>
<trkpt lat="13.7758424" lon="100.2190273">
<ele>2.318</ele>
<time>2018-04-02T03:09:31.674Z</time>
</trkpt>
<trkpt lat="13.7756691" lon="100.2185243">
<ele>2.433</ele>
<time>2018-04-02T03:09:33.679Z</time>
</trkpt>
<trkpt lat="13.7754934" lon="100.2180216">
<ele>2.198</ele>
<time>2018-04-02T03:09:35.682Z</time>
</trkpt>
<trkpt lat="13.7753228" lon="100.2175263">
<ele>1.897</ele>
<time>2018-04-02T03:09:37.667Z</time>
</trkpt>
<trkpt lat="13.7751510" lon="100.2170382">
<ele>1.887</ele>
<time>2018-04-02T03:09:39.657Z</time>
</trkpt>
<trkpt lat="13.7749884" lon="100.2165636">
<ele>1.883</ele>
<time>2018-04-02T03:09:41.612Z</time>
</trkpt>
<trkpt lat="13.7748330" lon="100.2160929">
<ele>1.449</ele>
<time>2018-04-02T03:09:43.567Z</time>
</trkpt>
<trkpt lat="13.7746742" lon="100.2156182">
<ele>0.709</ele>
<time>2018-04-02T03:09:45.560Z</time>
</trkpt>
<trkpt lat="13.7745120" lon="100.2151265">
<ele>0.316</ele>
<time>2018-04-02T03:09:47.611Z</time>
</trkpt>
<trkpt lat="13.7743380" lon="100.2146498">
<ele>0.698</ele>
<time>2018-04-02T03:09:49.604Z</time>
</trkpt>
<trkpt lat="13.7741547" lon="100.2141752">
<ele>1.756</ele>
<time>2018-04-02T03:09:51.589Z</time>
</trkpt>
<trkpt lat="13.7739852" lon="100.2136939">
<ele>3.112</ele>
<time>2018-04-02T03:09:53.574Z</time>
</trkpt>
<trkpt lat="13.7738247" lon="100.2132040">
<ele>4.390</ele>
<time>2018-04-02T03:09:55.583Z</time>
</trkpt>
<trkpt lat="13.7736703" lon="100.2127174">
<ele>5.308</ele>
<time>2018-04-02T03:09:57.566Z</time>
</trkpt>
<trkpt lat="13.7734880" lon="100.2122374">
<ele>5.489</ele>
<time>2018-04-02T03:09:59.557Z</time>
</trkpt>
<trkpt lat="13.7733055" lon="100.2117589">
<ele>4.840</ele>
<time>2018-04-02T03:10:01.547Z</time>
</trkpt>
<trkpt lat="13.7731585" lon="100.2112866">
<ele>4.009</ele>
<time>2018-04-02T03:10:03.479Z</time>
</trkpt>
<trkpt lat="13.7729993" lon="100.2108038">
<ele>3.614</ele>
<time>2018-04-02T03:10:05.476Z</time>
</trkpt>
<trkpt lat="13.7728343" lon="100.2103321">
<ele>3.657</ele>
<time>2018-04-02T03:10:07.449Z</time>
</trkpt>
<trkpt lat="13.7726780" lon="100.2098636">
<ele>4.032</ele>
<time>2018-04-02T03:10:09.406Z</time>
</trkpt>
<trkpt lat="13.7725370" lon="100.2093555">
<ele>4.600</ele>
<time>2018-04-02T03:10:11.474Z</time>
</trkpt>
<trkpt lat="13.7722845" lon="100.2089223">
<ele>5.200</ele>
<time>2018-04-02T03:10:13.434Z</time>
</trkpt>
<trkpt lat="13.7721674" lon="100.2084169">
<ele>5.910</ele>
<time>2018-04-02T03:10:15.443Z</time>
</trkpt>
<trkpt lat="13.7720179" lon="100.2078998">
<ele>6.792</ele>
<time>2018-04-02T03:10:17.494Z</time>
</trkpt>
<trkpt lat="13.7718443" lon="100.2073899">
<ele>7.647</ele>
<time>2018-04-02T03:10:19.512Z</time>
</trkpt>
<trkpt lat="13.7716503" lon="100.2068690">
<ele>8.272</ele>
<time>2018-04-02T03:10:21.576Z</time>
</trkpt>
<trkpt lat="13.7714790" lon="100.2063446">
<ele>8.285</ele>
<time>2018-04-02T03:10:23.611Z</time>
</trkpt>
<trkpt lat="13.7713015" lon="100.2058242">
<ele>7.564</ele>
<time>2018-04-02T03:10:25.625Z</time>
</trkpt>
<trkpt lat="13.7711015" lon="100.2053036">
<ele>6.752</ele>
<time>2018-04-02T03:10:27.662Z</time>
</trkpt>
<trkpt lat="13.7709290" lon="100.2048082">
<ele>6.417</ele>
<time>2018-04-02T03:10:29.595Z</time>
</trkpt>
<trkpt lat="13.7707955" lon="100.2042839">
<ele>6.483</ele>
<time>2018-04-02T03:10:31.600Z</time>
</trkpt>
<trkpt lat="13.7706209" lon="100.2037860">
<ele>6.738</ele>
<time>2018-04-02T03:10:33.561Z</time>
</trkpt>
<trkpt lat="13.7704599" lon="100.2032935">
<ele>7.010</ele>
<time>2018-04-02T03:10:35.489Z</time>
</trkpt>
<trkpt lat="13.7702771" lon="100.2027909">
<ele>7.494</ele>
<time>2018-04-02T03:10:37.480Z</time>
</trkpt>
<trkpt lat="13.7700885" lon="100.2023164">
<ele>8.410</ele>
<time>2018-04-02T03:10:39.404Z</time>
</trkpt>
<trkpt lat="13.7700000" lon="100.2017494">
<ele>9.369</ele>
<time>2018-04-02T03:10:41.562Z</time>
</trkpt>
<trkpt lat="13.7697685" lon="100.2012995">
<ele>9.995</ele>
<time>2018-04-02T03:10:43.460Z</time>
</trkpt>
<trkpt lat="13.7695851" lon="100.2007924">
<ele>10.461</ele>
<time>2018-04-02T03:10:45.488Z</time>
</trkpt>
<trkpt lat="13.7693976" lon="100.2002908">
<ele>11.019</ele>
<time>2018-04-02T03:10:47.530Z</time>
</trkpt>
<trkpt lat="13.7692407" lon="100.1998240">
<ele>11.667</ele>
<time>2018-04-02T03:10:49.458Z</time>
</trkpt>
<trkpt lat="13.7690883" lon="100.1993537">
<ele>12.152</ele>
<time>2018-04-02T03:10:51.442Z</time>
</trkpt>
<trkpt lat="13.7689117" lon="100.1988857">
<ele>12.139</ele>
<time>2018-04-02T03:10:53.446Z</time>
</trkpt>
<trkpt lat="13.7687419" lon="100.1984061">
<ele>11.315</ele>
<time>2018-04-02T03:10:55.452Z</time>
</trkpt>
<trkpt lat="13.7685827" lon="100.1979173">
<ele>9.817</ele>
<time>2018-04-02T03:10:57.459Z</time>
</trkpt>
<trkpt lat="13.7684104" lon="100.1974220">
<ele>8.434</ele>
<time>2018-04-02T03:10:59.496Z</time>
</trkpt>
<trkpt lat="13.7682591" lon="100.1969376">
<ele>7.732</ele>
<time>2018-04-02T03:11:01.469Z</time>
</trkpt>
<trkpt lat="13.7680833" lon="100.1964683">
<ele>7.571</ele>
<time>2018-04-02T03:11:03.441Z</time>
</trkpt>
<trkpt lat="13.7679151" lon="100.1959941">
<ele>7.135</ele>
<time>2018-04-02T03:11:05.461Z</time>
</trkpt>
<trkpt lat="13.7677626" lon="100.1955505">
<ele>5.684</ele>
<time>2018-04-02T03:11:07.390Z</time>
</trkpt>
<trkpt lat="13.7676057" lon="100.1951062">
<ele>3.729</ele>
<time>2018-04-02T03:11:09.376Z</time>
</trkpt>
<trkpt lat="13.7674509" lon="100.1946849">
<ele>2.370</ele>
<time>2018-04-02T03:11:11.316Z</time>
</trkpt>
<trkpt lat="13.7673039" lon="100.1942763">
<ele>1.743</ele>
<time>2018-04-02T03:11:13.234Z</time>
</trkpt>
<trkpt lat="13.7671693" lon="100.1938457">
<ele>1.403</ele>
<time>2018-04-02T03:11:15.233Z</time>
</trkpt>
<trkpt lat="13.7669841" lon="100.1934147">
<ele>1.233</ele>
<time>2018-04-02T03:11:17.291Z</time>
</trkpt>
<trkpt lat="13.7668450" lon="100.1929759">
<ele>1.268</ele>
<time>2018-04-02T03:11:19.283Z</time>
</trkpt>
<trkpt lat="13.7667015" lon="100.1925265">
<ele>1.248</ele>
<time>2018-04-02T03:11:21.314Z</time>
</trkpt>
<trkpt lat="13.7665499" lon="100.1920892">
<ele>0.962</ele>
<time>2018-04-02T03:11:23.303Z</time>
</trkpt>
<trkpt lat="13.7663957" lon="100.1916493">
<ele>0.551</ele>
<time>2018-04-02T03:11:25.301Z</time>
</trkpt>
<trkpt lat="13.7662428" lon="100.1912096">
<ele>0.274</ele>
<time>2018-04-02T03:11:27.284Z</time>
</trkpt>
<trkpt lat="13.7661016" lon="100.1907567">
<ele>0.440</ele>
<time>2018-04-02T03:11:29.298Z</time>
</trkpt>
<trkpt lat="13.7659807" lon="100.1903181">
<ele>1.145</ele>
<time>2018-04-02T03:11:31.263Z</time>
</trkpt>
<trkpt lat="13.7658374" lon="100.1899283">
<ele>2.022</ele>
<time>2018-04-02T03:11:33.148Z</time>
</trkpt>
<trkpt lat="13.7656604" lon="100.1893246">
<ele>2.730</ele>
<time>2018-04-02T03:11:36.108Z</time>
</trkpt>
<trkpt lat="13.7654772" lon="100.1889529">
<ele>3.253</ele>
<time>2018-04-02T03:11:38.099Z</time>
</trkpt>
<trkpt lat="13.7653449" lon="100.1885771">
<ele>3.687</ele>
<time>2018-04-02T03:11:40.057Z</time>
</trkpt>
<trkpt lat="13.7651662" lon="100.1880108">
<ele>4.067</ele>
<time>2018-04-02T03:11:43.028Z</time>
</trkpt>
<trkpt lat="13.7649491" lon="100.1874364">
<ele>4.303</ele>
<time>2018-04-02T03:11:46.093Z</time>
</trkpt>
<trkpt lat="13.7647383" lon="100.1868112">
<ele>4.376</ele>
<time>2018-04-02T03:11:49.305Z</time>
</trkpt>
<trkpt lat="13.7645398" lon="100.1862479">
<ele>4.800</ele>
<time>2018-04-02T03:11:52.244Z</time>
</trkpt>
<trkpt lat="13.7643394" lon="100.1857743">
<ele>5.981</ele>
<time>2018-04-02T03:11:54.961Z</time>
</trkpt>
<trkpt lat="13.7642128" lon="100.1853126">
<ele>7.485</ele>
<time>2018-04-02T03:11:57.800Z</time>
</trkpt>
<trkpt lat="13.7641780" lon="100.1848886">
<ele>8.647</ele>
<time>2018-04-02T03:12:00.577Z</time>
</trkpt>
<trkpt lat="13.7641773" lon="100.1844375">
<ele>9.195</ele>
<time>2018-04-02T03:12:03.636Z</time>
</trkpt>
<trkpt lat="13.7642993" lon="100.1839652">
<ele>9.184</ele>
<time>2018-04-02T03:12:06.877Z</time>
</trkpt>
<trkpt lat="13.7645450" lon="100.1835974">
<ele>8.969</ele>
<time>2018-04-02T03:12:09.799Z</time>
</trkpt>
<trkpt lat="13.7649156" lon="100.1833157">
<ele>8.785</ele>
<time>2018-04-02T03:12:12.942Z</time>
</trkpt>
<trkpt lat="13.7653389" lon="100.1831795">
<ele>8.475</ele>
<time>2018-04-02T03:12:16.003Z</time>
</trkpt>
<trkpt lat="13.7657505" lon="100.1831755">
<ele>7.925</ele>
<time>2018-04-02T03:12:18.903Z</time>
</trkpt>
<trkpt lat="13.7662450" lon="100.1832352">
<ele>7.569</ele>
<time>2018-04-02T03:12:22.235Z</time>
</trkpt>
<trkpt lat="13.7667396" lon="100.1832379">
<ele>7.748</ele>
<time>2018-04-02T03:12:25.240Z</time>
</trkpt>
<trkpt lat="13.7672484" lon="100.1830817">
<ele>7.890</ele>
<time>2018-04-02T03:12:28.268Z</time>
</trkpt>
<trkpt lat="13.7677640" lon="100.1828828">
<ele>7.480</ele>
<time>2018-04-02T03:12:31.315Z</time>
</trkpt>
<trkpt lat="13.7682726" lon="100.1825634">
<ele>6.857</ele>
<time>2018-04-02T03:12:34.461Z</time>
</trkpt>
<trkpt lat="13.7688901" lon="100.1823147">
<ele>6.379</ele>
<time>2018-04-02T03:12:37.735Z</time>
</trkpt>
<trkpt lat="13.7694589" lon="100.1820720">
<ele>5.483</ele>
<time>2018-04-02T03:12:40.662Z</time>
</trkpt>
<trkpt lat="13.7700087" lon="100.1818055">
<ele>3.883</ele>
<time>2018-04-02T03:12:43.496Z</time>
</trkpt>
<trkpt lat="13.7706140" lon="100.1814549">
<ele>2.479</ele>
<time>2018-04-02T03:12:46.637Z</time>
</trkpt>
<trkpt lat="13.7712125" lon="100.1811219">
<ele>2.037</ele>
<time>2018-04-02T03:12:49.649Z</time>
</trkpt>
<trkpt lat="13.7718138" lon="100.1808353">
<ele>2.295</ele>
<time>2018-04-02T03:12:52.600Z</time>
</trkpt>
<trkpt lat="13.7723908" lon="100.1804989">
<ele>2.774</ele>
<time>2018-04-02T03:12:55.562Z</time>
</trkpt>
<trkpt lat="13.7730472" lon="100.1801467">
<ele>3.163</ele>
<time>2018-04-02T03:12:58.766Z</time>
</trkpt>
<trkpt lat="13.7736824" lon="100.1798629">
<ele>3.439</ele>
<time>2018-04-02T03:13:01.703Z</time>
</trkpt>
<trkpt lat="13.7743178" lon="100.1794807">
<ele>3.685</ele>
<time>2018-04-02T03:13:04.821Z</time>
</trkpt>
<trkpt lat="13.7749111" lon="100.1791726">
<ele>3.850</ele>
<time>2018-04-02T03:13:07.634Z</time>
</trkpt>
<trkpt lat="13.7755701" lon="100.1788623">
<ele>3.827</ele>
<time>2018-04-02T03:13:10.730Z</time>
</trkpt>
<trkpt lat="13.7762197" lon="100.1785554">
<ele>3.432</ele>
<time>2018-04-02T03:13:13.783Z</time>
</trkpt>
<trkpt lat="13.7768745" lon="100.1782001">
<ele>2.692</ele>
<time>2018-04-02T03:13:16.897Z</time>
</trkpt>
<trkpt lat="13.7775146" lon="100.1778703">
<ele>1.666</ele>
<time>2018-04-02T03:13:19.892Z</time>
</trkpt>
<trkpt lat="13.7781572" lon="100.1775341">
<ele>0.417</ele>
<time>2018-04-02T03:13:22.907Z</time>
</trkpt>
<trkpt lat="13.7788183" lon="100.1771979">
<ele>0.000</ele>
<time>2018-04-02T03:13:25.954Z</time>
</trkpt>
<trkpt lat="13.7794824" lon="100.1768611">
<ele>0.056</ele>
<time>2018-04-02T03:13:28.978Z</time>
</trkpt>
<trkpt lat="13.7801267" lon="100.1765189">
<ele>0.896</ele>
<time>2018-04-02T03:13:31.931Z</time>
</trkpt>
<trkpt lat="13.7807559" lon="100.1761528">
<ele>1.549</ele>
<time>2018-04-02T03:13:34.884Z</time>
</trkpt>
<trkpt lat="13.7813856" lon="100.1758067">
<ele>1.910</ele>
<time>2018-04-02T03:13:37.817Z</time>
</trkpt>
<trkpt lat="13.7820341" lon="100.1754597">
<ele>2.276</ele>
<time>2018-04-02T03:13:40.809Z</time>
</trkpt>
<trkpt lat="13.7826852" lon="100.1751309">
<ele>2.673</ele>
<time>2018-04-02T03:13:43.768Z</time>
</trkpt>
<trkpt lat="13.7833522" lon="100.1747902">
<ele>2.939</ele>
<time>2018-04-02T03:13:46.819Z</time>
</trkpt>
<trkpt lat="13.7840082" lon="100.1744294">
<ele>3.458</ele>
<time>2018-04-02T03:13:49.857Z</time>
</trkpt>
<trkpt lat="13.7846780" lon="100.1740730">
<ele>4.568</ele>
<time>2018-04-02T03:13:52.911Z</time>
</trkpt>
<trkpt lat="13.7853257" lon="100.1737100">
<ele>5.809</ele>
<time>2018-04-02T03:13:55.906Z</time>
</trkpt>
<trkpt lat="13.7859655" lon="100.1733793">
<ele>6.610</ele>
<time>2018-04-02T03:13:58.900Z</time>
</trkpt>
<trkpt lat="13.7865388" lon="100.1730704">
<ele>6.908</ele>
<time>2018-04-02T03:14:01.802Z</time>
</trkpt>
<trkpt lat="13.7870187" lon="100.1728311">
<ele>6.996</ele>
<time>2018-04-02T03:14:04.488Z</time>
</trkpt>
<trkpt lat="13.7874108" lon="100.1725862">
<ele>6.985</ele>
<time>2018-04-02T03:14:07.174Z</time>
</trkpt>
<trkpt lat="13.7878309" lon="100.1723510">
<ele>6.876</ele>
<time>2018-04-02T03:14:10.254Z</time>
</trkpt>
<trkpt lat="13.7882575" lon="100.1721410">
<ele>6.880</ele>
<time>2018-04-02T03:14:13.304Z</time>
</trkpt>
<trkpt lat="13.7886513" lon="100.1719106">
<ele>7.362</ele>
<time>2018-04-02T03:14:16.276Z</time>
</trkpt>
<trkpt lat="13.7890271" lon="100.1717100">
<ele>8.310</ele>
<time>2018-04-02T03:14:19.157Z</time>
</trkpt>
<trkpt lat="13.7894079" lon="100.1715209">
<ele>9.324</ele>
<time>2018-04-02T03:14:22.170Z</time>
</trkpt>
<trkpt lat="13.7897504" lon="100.1713075">
<ele>10.086</ele>
<time>2018-04-02T03:14:25.101Z</time>
</trkpt>
<trkpt lat="13.7901783" lon="100.1711453">
<ele>10.557</ele>
<time>2018-04-02T03:14:28.276Z</time>
</trkpt>
<trkpt lat="13.7905822" lon="100.1709667">
<ele>10.756</ele>
<time>2018-04-02T03:14:31.224Z</time>
</trkpt>
<trkpt lat="13.7909947" lon="100.1707475">
<ele>10.781</ele>
<time>2018-04-02T03:14:34.320Z</time>
</trkpt>
<trkpt lat="13.7913741" lon="100.1705177">
<ele>10.869</ele>
<time>2018-04-02T03:14:37.265Z</time>
</trkpt>
<trkpt lat="13.7917818" lon="100.1703251">
<ele>11.181</ele>
<time>2018-04-02T03:14:40.314Z</time>
</trkpt>
<trkpt lat="13.7921741" lon="100.1701273">
<ele>11.623</ele>
<time>2018-04-02T03:14:43.316Z</time>
</trkpt>
<trkpt lat="13.7925104" lon="100.1699212">
<ele>12.426</ele>
<time>2018-04-02T03:14:46.076Z</time>
</trkpt>
<trkpt lat="13.7930065" lon="100.1697060">
<ele>13.703</ele>
<time>2018-04-02T03:14:49.673Z</time>
</trkpt>
<trkpt lat="13.7933586" lon="100.1695161">
<ele>15.174</ele>
<time>2018-04-02T03:14:52.297Z</time>
</trkpt>
<trkpt lat="13.7936713" lon="100.1693592">
<ele>16.916</ele>
<time>2018-04-02T03:14:54.868Z</time>
</trkpt>
<trkpt lat="13.7939478" lon="100.1692474">
<ele>19.526</ele>
<time>2018-04-02T03:14:57.444Z</time>
</trkpt>
<trkpt lat="13.7941731" lon="100.1692103">
<ele>23.161</ele>
<time>2018-04-02T03:14:59.551Z</time>
</trkpt>
<trkpt lat="13.7943909" lon="100.1692592">
<ele>26.806</ele>
<time>2018-04-02T03:15:01.629Z</time>
</trkpt>
<trkpt lat="13.7945867" lon="100.1693624">
<ele>29.022</ele>
<time>2018-04-02T03:15:03.664Z</time>
</trkpt>
<trkpt lat="13.7947266" lon="100.1695021">
<ele>29.517</ele>
<time>2018-04-02T03:15:05.512Z</time>
</trkpt>
<trkpt lat="13.7948490" lon="100.1698443">
<ele>28.996</ele>
<time>2018-04-02T03:15:08.491Z</time>
</trkpt>
<trkpt lat="13.7949630" lon="100.1701359">
<ele>28.079</ele>
<time>2018-04-02T03:15:10.636Z</time>
</trkpt>
<trkpt lat="13.7951023" lon="100.1704171">
<ele>26.902</ele>
<time>2018-04-02T03:15:12.662Z</time>
</trkpt>
<trkpt lat="13.7952408" lon="100.1707149">
<ele>25.510</ele>
<time>2018-04-02T03:15:14.708Z</time>
</trkpt>
<trkpt lat="13.7953914" lon="100.1710207">
<ele>24.271</ele>
<time>2018-04-02T03:15:16.791Z</time>
</trkpt>
<trkpt lat="13.7956110" lon="100.1714612">
<ele>23.408</ele>
<time>2018-04-02T03:15:19.799Z</time>
</trkpt>
<trkpt lat="13.7958250" lon="100.1718839">
<ele>22.614</ele>
<time>2018-04-02T03:15:22.747Z</time>
</trkpt>
<trkpt lat="13.7960374" lon="100.1722987">
<ele>21.343</ele>
<time>2018-04-02T03:15:25.702Z</time>
</trkpt>
<trkpt lat="13.7962647" lon="100.1727328">
<ele>19.677</ele>
<time>2018-04-02T03:15:28.795Z</time>
</trkpt>
<trkpt lat="13.7965110" lon="100.1731421">
<ele>17.986</ele>
<time>2018-04-02T03:15:31.822Z</time>
</trkpt>
<trkpt lat="13.7966973" lon="100.1735649">
<ele>16.116</ele>
<time>2018-04-02T03:15:34.811Z</time>
</trkpt>
<trkpt lat="13.7969012" lon="100.1739736">
<ele>14.198</ele>
<time>2018-04-02T03:15:37.791Z</time>
</trkpt>
<trkpt lat="13.7971243" lon="100.1743197">
<ele>13.073</ele>
<time>2018-04-02T03:15:40.490Z</time>
</trkpt>
<trkpt lat="13.7973628" lon="100.1747695">
<ele>13.153</ele>
<time>2018-04-02T03:15:43.726Z</time>
</trkpt>
<trkpt lat="13.7975707" lon="100.1752522">
<ele>14.095</ele>
<time>2018-04-02T03:15:46.996Z</time>
</trkpt>
<trkpt lat="13.7977911" lon="100.1756871">
<ele>15.175</ele>
<time>2018-04-02T03:15:50.124Z</time>
</trkpt>
<trkpt lat="13.7979958" lon="100.1760626">
<ele>15.817</ele>
<time>2018-04-02T03:15:52.947Z</time>
</trkpt>
<trkpt lat="13.7981786" lon="100.1764544">
<ele>15.827</ele>
<time>2018-04-02T03:15:55.866Z</time>
</trkpt>
<trkpt lat="13.7983822" lon="100.1768452">
<ele>15.385</ele>
<time>2018-04-02T03:15:58.843Z</time>
</trkpt>
<trkpt lat="13.7986041" lon="100.1772302">
<ele>14.811</ele>
<time>2018-04-02T03:16:01.801Z</time>
</trkpt>
<trkpt lat="13.7987895" lon="100.1776373">
<ele>14.313</ele>
<time>2018-04-02T03:16:04.824Z</time>
</trkpt>
<trkpt lat="13.7989445" lon="100.1780255">
<ele>14.021</ele>
<time>2018-04-02T03:16:07.735Z</time>
</trkpt>
<trkpt lat="13.7991812" lon="100.1784391">
<ele>14.077</ele>
<time>2018-04-02T03:16:11.068Z</time>
</trkpt>
<trkpt lat="13.7993719" lon="100.1787985">
<ele>14.396</ele>
<time>2018-04-02T03:16:13.828Z</time>
</trkpt>
<trkpt lat="13.7995723" lon="100.1792317">
<ele>14.450</ele>
<time>2018-04-02T03:16:16.911Z</time>
</trkpt>
<trkpt lat="13.7997999" lon="100.1796718">
<ele>13.865</ele>
<time>2018-04-02T03:16:19.943Z</time>
</trkpt>
<trkpt lat="13.8000202" lon="100.1801322">
<ele>13.055</ele>
<time>2018-04-02T03:16:22.940Z</time>
</trkpt>
<trkpt lat="13.8002689" lon="100.1806184">
<ele>12.722</ele>
<time>2018-04-02T03:16:25.994Z</time>
</trkpt>
<trkpt lat="13.8005425" lon="100.1811354">
<ele>12.997</ele>
<time>2018-04-02T03:16:29.073Z</time>
</trkpt>
<trkpt lat="13.8008048" lon="100.1816702">
<ele>13.388</ele>
<time>2018-04-02T03:16:32.094Z</time>
</trkpt>
<trkpt lat="13.8010567" lon="100.1822120">
<ele>13.472</ele>
<time>2018-04-02T03:16:35.119Z</time>
</trkpt>
<trkpt lat="13.8012955" lon="100.1827367">
<ele>13.595</ele>
<time>2018-04-02T03:16:38.142Z</time>
</trkpt>
<trkpt lat="13.8014455" lon="100.1832302">
<ele>14.110</ele>
<time>2018-04-02T03:16:41.132Z</time>
</trkpt>
<trkpt lat="13.8015097" lon="100.1836027">
<ele>14.320</ele>
<time>2018-04-02T03:16:43.711Z</time>
</trkpt>
<trkpt lat="13.8015833" lon="100.1839326">
<ele>13.434</ele>
<time>2018-04-02T03:16:46.624Z</time>
</trkpt>
<trkpt lat="13.8016406" lon="100.1841360">
<ele>11.820</ele>
<time>2018-04-02T03:16:48.997Z</time>
</trkpt>
<trkpt lat="13.8016406" lon="100.1841360">
<ele>10.380</ele>
<time>2018-04-02T03:16:53.997Z</time>
</trkpt>
<trkpt lat="13.8016406" lon="100.1841360">
<ele>9.696</ele>
<time>2018-04-02T03:18:31.198Z</time>
</trkpt>
<trkpt lat="13.8016835" lon="100.1843435">
<ele>9.789</ele>
<time>2018-04-02T03:18:42.077Z</time>
</trkpt>
<trkpt lat="13.8016987" lon="100.1844504">
<ele>10.195</ele>
<time>2018-04-02T03:18:45.890Z</time>
</trkpt>
<trkpt lat="13.8017202" lon="100.1845494">
<ele>10.565</ele>
<time>2018-04-02T03:18:49.675Z</time>
</trkpt>
<trkpt lat="13.8017351" lon="100.1846810">
<ele>10.928</ele>
<time>2018-04-02T03:18:54.221Z</time>
</trkpt>
<trkpt lat="13.8017239" lon="100.1847856">
<ele>11.453</ele>
<time>2018-04-02T03:18:57.208Z</time>
</trkpt>
<trkpt lat="13.8016875" lon="100.1848848">
<ele>12.094</ele>
<time>2018-04-02T03:18:59.575Z</time>
</trkpt>
<trkpt lat="13.8015096" lon="100.1850217">
<ele>12.574</ele>
<time>2018-04-02T03:19:03.813Z</time>
</trkpt>
<trkpt lat="13.8014138" lon="100.1851268">
<ele>12.893</ele>
<time>2018-04-02T03:19:06.838Z</time>
</trkpt>
<trkpt lat="13.8013416" lon="100.1852104">
<ele>13.251</ele>
<time>2018-04-02T03:19:09.406Z</time>
</trkpt>
<trkpt lat="13.8012777" lon="100.1853318">
<ele>13.548</ele>
<time>2018-04-02T03:19:12.101Z</time>
</trkpt>
<trkpt lat="13.8011304" lon="100.1854311">
<ele>13.560</ele>
<time>2018-04-02T03:19:15.285Z</time>
</trkpt>
<trkpt lat="13.8010267" lon="100.1855459">
<ele>13.320</ele>
<time>2018-04-02T03:19:18.365Z</time>
</trkpt>
<trkpt lat="13.8009616" lon="100.1856479">
<ele>13.056</ele>
<time>2018-04-02T03:19:21.214Z</time>
</trkpt>
<trkpt lat="13.8009626" lon="100.1857690">
<ele>13.068</ele>
<time>2018-04-02T03:19:23.698Z</time>
</trkpt>
<trkpt lat="13.8010043" lon="100.1859516">
<ele>13.215</ele>
<time>2018-04-02T03:19:26.652Z</time>
</trkpt>
<trkpt lat="13.8010672" lon="100.1861993">
<ele>12.920</ele>
<time>2018-04-02T03:19:29.835Z</time>
</trkpt>
<trkpt lat="13.8011201" lon="100.1864802">
<ele>12.113</ele>
<time>2018-04-02T03:19:33.048Z</time>
</trkpt>
<trkpt lat="13.8011989" lon="100.1867145">
<ele>11.328</ele>
<time>2018-04-02T03:19:35.881Z</time>
</trkpt>
<trkpt lat="13.8012731" lon="100.1869306">
<ele>10.784</ele>
<time>2018-04-02T03:19:38.716Z</time>
</trkpt>
<trkpt lat="13.8013587" lon="100.1871275">
<ele>10.175</ele>
<time>2018-04-02T03:19:41.839Z</time>
</trkpt>
<trkpt lat="13.8014081" lon="100.1872665">
<ele>9.247</ele>
<time>2018-04-02T03:19:44.643Z</time>
</trkpt>
<trkpt lat="13.8015138" lon="100.1873438">
<ele>8.089</ele>
<time>2018-04-02T03:19:47.694Z</time>
</trkpt>
<trkpt lat="13.8015937" lon="100.1872846">
<ele>6.985</ele>
<time>2018-04-02T03:19:50.390Z</time>
</trkpt>
<trkpt lat="13.8016801" lon="100.1872446">
<ele>5.944</ele>
<time>2018-04-02T03:19:53.251Z</time>
</trkpt>
<trkpt lat="13.8017701" lon="100.1872451">
<ele>4.845</ele>
<time>2018-04-02T03:19:56.993Z</time>
</trkpt>
<trkpt lat="13.8017701" lon="100.1872451">
<ele>3.969</ele>
<time>2018-04-02T03:20:02.993Z</time>
</trkpt>
<trkpt lat="13.8017701" lon="100.1872451">
<ele>3.665</ele>
<time>2018-04-02T03:20:50.992Z</time>
</trkpt>
<trkpt lat="13.8017701" lon="100.1872451">
<ele>3.737</ele>
<time>2018-04-02T03:22:13.196Z</time>
</trkpt>
<trkpt lat="13.8018294" lon="100.1871513">
<ele>3.878</ele>
<time>2018-04-02T03:22:25.998Z</time>
</trkpt>
<trkpt lat="13.8018294" lon="100.1871513">
<ele>3.952</ele>
<time>2018-04-02T03:22:32.999Z</time>
</trkpt>
<trkpt lat="13.8018294" lon="100.1871513">
<ele>3.954</ele>
<time>2018-04-02T03:24:35.012Z</time>
</trkpt>
<trkpt lat="13.8016994" lon="100.1869501">
<ele>3.941</ele>
<time>2018-04-02T03:25:03.996Z</time>
</trkpt>
<trkpt lat="13.8016994" lon="100.1869501">
<ele>3.941</ele>
<time>2018-04-02T03:25:14.996Z</time>
</trkpt>
<trkpt lat="13.8016994" lon="100.1869501">
<ele>3.943</ele>
<time>2018-04-02T03:25:41.263Z</time>
</trkpt>
<trkpt lat="13.8016869" lon="100.1868242">
<ele>3.941</ele>
<time>2018-04-02T03:25:57.995Z</time>
</trkpt>
<trkpt lat="13.8016869" lon="100.1868242">
<ele>3.938</ele>
<time>2018-04-02T03:25:59.995Z</time>
</trkpt>
<trkpt lat="13.8016869" lon="100.1868242">
<ele>3.936</ele>
<time>2018-04-02T03:26:00.095Z</time>
</trkpt>
<trkpt lat="13.8016869" lon="100.1868242">
<ele>3.933</ele>
<time>2018-04-02T03:26:46.993Z</time>
</trkpt>
<trkpt lat="13.8016869" lon="100.1868242">
<ele>3.933</ele>
<time>2018-04-02T03:28:41.452Z</time>
</trkpt>
<trkpt lat="13.8017745" lon="100.1867387">
<ele>3.932</ele>
<time>2018-04-02T03:29:27.997Z</time>
</trkpt>
<trkpt lat="13.8017745" lon="100.1867387">
<ele>3.930</ele>
<time>2018-04-02T03:29:47.999Z</time>
</trkpt>
<trkpt lat="13.8017745" lon="100.1867387">
<ele>3.929</ele>
<time>2018-04-02T03:29:48.099Z</time>
</trkpt>
<trkpt lat="13.8019255" lon="100.1867055">
<ele>3.928</ele>
<time>2018-04-02T03:30:11.080Z</time>
</trkpt>
<trkpt lat="13.8019120" lon="100.1868086">
<ele>4.219</ele>
<time>2018-04-02T03:30:19.668Z</time>
</trkpt>
<trkpt lat="13.8018220" lon="100.1867591">
<ele>4.994</ele>
<time>2018-04-02T03:30:30.830Z</time>
</trkpt>
<trkpt lat="13.8017497" lon="100.1868193">
<ele>5.799</ele>
<time>2018-04-02T03:30:40.998Z</time>
</trkpt>
<trkpt lat="13.8017497" lon="100.1868193">
<ele>6.137</ele>
<time>2018-04-02T03:30:43.998Z</time>
</trkpt>
<trkpt lat="13.8017497" lon="100.1868193">
<ele>6.083</ele>
<time>2018-04-02T03:30:46.243Z</time>
</trkpt>
<trkpt lat="13.8017038" lon="100.1869076">
<ele>5.913</ele>
<time>2018-04-02T03:31:03.997Z</time>
</trkpt>
<trkpt lat="13.8017038" lon="100.1869076">
<ele>5.816</ele>
<time>2018-04-02T03:31:15.997Z</time>
</trkpt>
<trkpt lat="13.8017038" lon="100.1869076">
<ele>5.807</ele>
<time>2018-04-02T03:31:48.996Z</time>
</trkpt>
<trkpt lat="13.8017038" lon="100.1869076">
<ele>5.819</ele>
<time>2018-04-02T03:32:07.996Z</time>
</trkpt>
<trkpt lat="13.8017038" lon="100.1869076">
<ele>5.817</ele>
<time>2018-04-02T03:32:08.702Z</time>
</trkpt>
<trkpt lat="13.8017038" lon="100.1869076">
<ele>5.811</ele>
<time>2018-04-02T03:32:23.996Z</time>
</trkpt>
<trkpt lat="13.8017038" lon="100.1869076">
<ele>5.810</ele>
<time>2018-04-02T03:32:50.162Z</time>
</trkpt>
<trkpt lat="13.8018301" lon="100.1870133">
<ele>5.809</ele>
<time>2018-04-02T03:33:11.999Z</time>
</trkpt>
<trkpt lat="13.8018301" lon="100.1870133">
<ele>5.806</ele>
<time>2018-04-02T03:33:19.999Z</time>
</trkpt>
<trkpt lat="13.8018301" lon="100.1870133">
<ele>5.803</ele>
<time>2018-04-02T03:33:20.099Z</time>
</trkpt>
<trkpt lat="13.8016924" lon="100.1870227">
<ele>5.800</ele>
<time>2018-04-02T03:33:43.612Z</time>
</trkpt>
<trkpt lat="13.8017519" lon="100.1869490">
<ele>5.283</ele>
<time>2018-04-02T03:33:54.998Z</time>
</trkpt>
<trkpt lat="13.8017519" lon="100.1869490">
<ele>3.938</ele>
<time>2018-04-02T03:33:58.998Z</time>
</trkpt>
<trkpt lat="13.8017519" lon="100.1869490">
<ele>2.816</ele>
<time>2018-04-02T03:34:13.517Z</time>
</trkpt>
<trkpt lat="13.8017065" lon="100.1868485">
<ele>2.834</ele>
<time>2018-04-02T03:34:21.997Z</time>
</trkpt>
<trkpt lat="13.8017065" lon="100.1868485">
<ele>3.321</ele>
<time>2018-04-02T03:34:36.997Z</time>
</trkpt>
<trkpt lat="13.8017065" lon="100.1868485">
<ele>3.491</ele>
<time>2018-04-02T03:35:18.744Z</time>
</trkpt>
<trkpt lat="13.8017065" lon="100.1868485">
<ele>3.307</ele>
<time>2018-04-02T03:35:26.996Z</time>
</trkpt>
<trkpt lat="13.8017065" lon="100.1868485">
<ele>3.288</ele>
<time>2018-04-02T03:35:27.096Z</time>
</trkpt>
<trkpt lat="13.8017065" lon="100.1868485">
<ele>3.304</ele>
<time>2018-04-02T03:35:30.996Z</time>
</trkpt>
<trkpt lat="13.8017065" lon="100.1868485">
<ele>3.306</ele>
<time>2018-04-02T03:35:37.455Z</time>
</trkpt>
<trkpt lat="13.8018018" lon="100.1868773">
<ele>3.304</ele>
<time>2018-04-02T03:35:49.964Z</time>
</trkpt>
<trkpt lat="13.8018119" lon="100.1869715">
<ele>3.344</ele>
<time>2018-04-02T03:35:55.995Z</time>
</trkpt>
<trkpt lat="13.8018119" lon="100.1869715">
<ele>3.454</ele>
<time>2018-04-02T03:35:59.995Z</time>
</trkpt>
<trkpt lat="13.8018119" lon="100.1869715">
<ele>3.545</ele>
<time>2018-04-02T03:36:00.095Z</time>
</trkpt>
<trkpt lat="13.8018119" lon="100.1869715">
<ele>3.492</ele>
<time>2018-04-02T03:37:20.993Z</time>
</trkpt>
<trkpt lat="13.8018119" lon="100.1869715">
<ele>3.461</ele>
<time>2018-04-02T03:37:21.093Z</time>
</trkpt>
<trkpt lat="13.8018147" lon="100.1871173">
<ele>3.468</ele>
<time>2018-04-02T03:37:29.993Z</time>
</trkpt>
<trkpt lat="13.8018147" lon="100.1871173">
<ele>3.494</ele>
<time>2018-04-02T03:37:30.993Z</time>
</trkpt>
<trkpt lat="13.8018147" lon="100.1871173">
<ele>3.505</ele>
<time>2018-04-02T03:37:41.993Z</time>
</trkpt>
<trkpt lat="13.8018147" lon="100.1871173">
<ele>3.500</ele>
<time>2018-04-02T03:37:42.093Z</time>
</trkpt>
<trkpt lat="13.8018270" lon="100.1872713">
<ele>3.495</ele>
<time>2018-04-02T03:37:55.992Z</time>
</trkpt>
<trkpt lat="13.8018270" lon="100.1872713">
<ele>3.495</ele>
<time>2018-04-02T03:38:04.992Z</time>
</trkpt>
<trkpt lat="13.8018270" lon="100.1872713">
<ele>3.497</ele>
<time>2018-04-02T03:44:08.743Z</time>
</trkpt>
<trkpt lat="13.8018192" lon="100.1873665">
<ele>3.496</ele>
<time>2018-04-02T03:44:53.993Z</time>
</trkpt>
<trkpt lat="13.8018192" lon="100.1873665">
<ele>3.493</ele>
<time>2018-04-02T03:45:00.993Z</time>
</trkpt>
<trkpt lat="13.8018192" lon="100.1873665">
<ele>3.491</ele>
<time>2018-04-02T03:45:01.093Z</time>
</trkpt>
<trkpt lat="13.8018051" lon="100.1872727">
<ele>3.490</ele>
<time>2018-04-02T03:45:26.268Z</time>
</trkpt>
<trkpt lat="13.8018016" lon="100.1871774">
<ele>3.583</ele>
<time>2018-04-02T03:45:36.992Z</time>
</trkpt>
<trkpt lat="13.8018016" lon="100.1871774">
<ele>3.824</ele>
<time>2018-04-02T03:46:02.991Z</time>
</trkpt>
<trkpt lat="13.8018016" lon="100.1871774">
<ele>4.025</ele>
<time>2018-04-02T03:46:54.038Z</time>
</trkpt>
<trkpt lat="13.8018841" lon="100.1871367">
<ele>4.020</ele>
<time>2018-04-02T03:47:09.989Z</time>
</trkpt>
<trkpt lat="13.8018841" lon="100.1871367">
<ele>3.926</ele>
<time>2018-04-02T03:47:13.989Z</time>
</trkpt>
<trkpt lat="13.8018841" lon="100.1871367">
<ele>3.884</ele>
<time>2018-04-02T03:48:37.105Z</time>
</trkpt>
<trkpt lat="13.8018110" lon="100.1872034">
<ele>3.911</ele>
<time>2018-04-02T03:49:42.996Z</time>
</trkpt>
<trkpt lat="13.8018110" lon="100.1872034">
<ele>3.922</ele>
<time>2018-04-02T03:49:51.996Z</time>
</trkpt>
<trkpt lat="13.8018110" lon="100.1872034">
<ele>3.924</ele>
<time>2018-04-02T03:56:21.224Z</time>
</trkpt>
<trkpt lat="13.8019551" lon="100.1871797">
<ele>3.920</ele>
<time>2018-04-02T03:56:28.630Z</time>
</trkpt>
<trkpt lat="13.8020671" lon="100.1871173">
<ele>3.896</ele>
<time>2018-04-02T03:56:31.779Z</time>
</trkpt>
<trkpt lat="13.8021744" lon="100.1870779">
<ele>3.846</ele>
<time>2018-04-02T03:56:34.663Z</time>
</trkpt>
<trkpt lat="13.8022459" lon="100.1870180">
<ele>3.812</ele>
<time>2018-04-02T03:56:37.562Z</time>
</trkpt>
<trkpt lat="13.8022831" lon="100.1869305">
<ele>3.892</ele>
<time>2018-04-02T03:56:40.976Z</time>
</trkpt>
<trkpt lat="13.8022449" lon="100.1868233">
<ele>4.099</ele>
<time>2018-04-02T03:56:44.807Z</time>
</trkpt>
<trkpt lat="13.8021847" lon="100.1866955">
<ele>4.304</ele>
<time>2018-04-02T03:56:48.200Z</time>
</trkpt>
<trkpt lat="13.8021126" lon="100.1865478">
<ele>4.440</ele>
<time>2018-04-02T03:56:51.575Z</time>
</trkpt>
<trkpt lat="13.8020604" lon="100.1864159">
<ele>4.597</ele>
<time>2018-04-02T03:56:54.602Z</time>
</trkpt>
<trkpt lat="13.8020250" lon="100.1862952">
<ele>4.814</ele>
<time>2018-04-02T03:56:57.443Z</time>
</trkpt>
<trkpt lat="13.8020032" lon="100.1861593">
<ele>4.992</ele>
<time>2018-04-02T03:57:00.456Z</time>
</trkpt>
<trkpt lat="13.8019826" lon="100.1860224">
<ele>5.014</ele>
<time>2018-04-02T03:57:03.589Z</time>
</trkpt>
<trkpt lat="13.8019691" lon="100.1859193">
<ele>4.885</ele>
<time>2018-04-02T03:57:06.600Z</time>
</trkpt>
<trkpt lat="13.8019661" lon="100.1858220">
<ele>4.678</ele>
<time>2018-04-02T03:57:09.991Z</time>
</trkpt>
<trkpt lat="13.8019661" lon="100.1858220">
<ele>4.457</ele>
<time>2018-04-02T03:57:17.990Z</time>
</trkpt>
<trkpt lat="13.8019661" lon="100.1858220">
<ele>4.322</ele>
<time>2018-04-02T03:57:29.425Z</time>
</trkpt>
<trkpt lat="13.8018897" lon="100.1856248">
<ele>4.359</ele>
<time>2018-04-02T03:57:42.836Z</time>
</trkpt>
<trkpt lat="13.8018730" lon="100.1854894">
<ele>4.647</ele>
<time>2018-04-02T03:57:47.653Z</time>
</trkpt>
<trkpt lat="13.8018536" lon="100.1853801">
<ele>5.169</ele>
<time>2018-04-02T03:57:51.945Z</time>
</trkpt>
<trkpt lat="13.8018333" lon="100.1852588">
<ele>5.666</ele>
<time>2018-04-02T03:57:55.849Z</time>
</trkpt>
<trkpt lat="13.8018198" lon="100.1851419">
<ele>5.911</ele>
<time>2018-04-02T03:57:58.979Z</time>
</trkpt>
<trkpt lat="13.8017906" lon="100.1850240">
<ele>5.949</ele>
<time>2018-04-02T03:58:01.513Z</time>
</trkpt>
<trkpt lat="13.8017531" lon="100.1849114">
<ele>5.944</ele>
<time>2018-04-02T03:58:03.603Z</time>
</trkpt>
<trkpt lat="13.8017183" lon="100.1847422">
<ele>6.073</ele>
<time>2018-04-02T03:58:05.897Z</time>
</trkpt>
<trkpt lat="13.8016589" lon="100.1845869">
<ele>6.412</ele>
<time>2018-04-02T03:58:07.743Z</time>
</trkpt>
<trkpt lat="13.8016234" lon="100.1843857">
<ele>6.843</ele>
<time>2018-04-02T03:58:09.770Z</time>
</trkpt>
<trkpt lat="13.8015669" lon="100.1841857">
<ele>7.163</ele>
<time>2018-04-02T03:58:11.651Z</time>
</trkpt>
<trkpt lat="13.8015278" lon="100.1839230">
<ele>7.295</ele>
<time>2018-04-02T03:58:13.906Z</time>
</trkpt>
<trkpt lat="13.8014477" lon="100.1835737">
<ele>7.292</ele>
<time>2018-04-02T03:58:16.755Z</time>
</trkpt>
<trkpt lat="13.8013941" lon="100.1831716">
<ele>7.122</ele>
<time>2018-04-02T03:58:19.808Z</time>
</trkpt>
<trkpt lat="13.8012983" lon="100.1827521">
<ele>6.774</ele>
<time>2018-04-02T03:58:22.922Z</time>
</trkpt>
<trkpt lat="13.8011256" lon="100.1823634">
<ele>6.370</ele>
<time>2018-04-02T03:58:25.878Z</time>
</trkpt>
<trkpt lat="13.8009026" lon="100.1819875">
<ele>6.015</ele>
<time>2018-04-02T03:58:28.825Z</time>
</trkpt>
<trkpt lat="13.8004995" lon="100.1813365">
<ele>5.763</ele>
<time>2018-04-02T03:58:33.998Z</time>
</trkpt>
<trkpt lat="13.8002994" lon="100.1809406">
<ele>5.629</ele>
<time>2018-04-02T03:58:36.984Z</time>
</trkpt>
<trkpt lat="13.8001216" lon="100.1805291">
<ele>5.546</ele>
<time>2018-04-02T03:58:40.010Z</time>
</trkpt>
<trkpt lat="13.7997632" lon="100.1797031">
<ele>5.495</ele>
<time>2018-04-02T03:58:46.199Z</time>
</trkpt>
<trkpt lat="13.7993574" lon="100.1789480">
<ele>5.450</ele>
<time>2018-04-02T03:58:52.233Z</time>
</trkpt>
<trkpt lat="13.7991596" lon="100.1785909">
<ele>5.301</ele>
<time>2018-04-02T03:58:55.035Z</time>
</trkpt>
<trkpt lat="13.7989060" lon="100.1782133">
<ele>5.184</ele>
<time>2018-04-02T03:58:58.143Z</time>
</trkpt>
<trkpt lat="13.7987104" lon="100.1778995">
<ele>5.219</ele>
<time>2018-04-02T03:59:00.753Z</time>
</trkpt>
<trkpt lat="13.7985955" lon="100.1775262">
<ele>5.280</ele>
<time>2018-04-02T03:59:03.598Z</time>
</trkpt>
<trkpt lat="13.7984313" lon="100.1771604">
<ele>5.220</ele>
<time>2018-04-02T03:59:06.438Z</time>
</trkpt>
<trkpt lat="13.7982156" lon="100.1767670">
<ele>5.024</ele>
<time>2018-04-02T03:59:09.580Z</time>
</trkpt>
<trkpt lat="13.7980646" lon="100.1763801">
<ele>4.656</ele>
<time>2018-04-02T03:59:12.498Z</time>
</trkpt>
<trkpt lat="13.7978854" lon="100.1759402">
<ele>3.993</ele>
<time>2018-04-02T03:59:15.660Z</time>
</trkpt>
<trkpt lat="13.7976783" lon="100.1755220">
<ele>2.959</ele>
<time>2018-04-02T03:59:18.633Z</time>
</trkpt>
<trkpt lat="13.7972280" lon="100.1747219">
<ele>1.799</ele>
<time>2018-04-02T03:59:24.473Z</time>
</trkpt>
<trkpt lat="13.7970150" lon="100.1743665">
<ele>0.649</ele>
<time>2018-04-02T03:59:27.130Z</time>
</trkpt>
<trkpt lat="13.7967910" lon="100.1739205">
<ele>0.000</ele>
<time>2018-04-02T03:59:30.269Z</time>
</trkpt>
<trkpt lat="13.7965628" lon="100.1734904">
<ele>0.000</ele>
<time>2018-04-02T03:59:33.321Z</time>
</trkpt>
<trkpt lat="13.7963203" lon="100.1731069">
<ele>0.000</ele>
<time>2018-04-02T03:59:36.149Z</time>
</trkpt>
<trkpt lat="13.7960762" lon="100.1726817">
<ele>0.000</ele>
<time>2018-04-02T03:59:39.131Z</time>
</trkpt>
<trkpt lat="13.7958580" lon="100.1722625">
<ele>0.000</ele>
<time>2018-04-02T03:59:42.023Z</time>
</trkpt>
<trkpt lat="13.7956645" lon="100.1718559">
<ele>0.000</ele>
<time>2018-04-02T03:59:44.800Z</time>
</trkpt>
<trkpt lat="13.7954409" lon="100.1713946">
<ele>0.000</ele>
<time>2018-04-02T03:59:47.927Z</time>
</trkpt>
<trkpt lat="13.7952262" lon="100.1709320">
<ele>0.000</ele>
<time>2018-04-02T03:59:51.081Z</time>
</trkpt>
<trkpt lat="13.7950546" lon="100.1705266">
<ele>0.000</ele>
<time>2018-04-02T03:59:53.931Z</time>
</trkpt>
<trkpt lat="13.7946606" lon="100.1697148">
<ele>0.000</ele>
<time>2018-04-02T04:00:00.043Z</time>
</trkpt>
<trkpt lat="13.7945257" lon="100.1693125">
<ele>0.000</ele>
<time>2018-04-02T04:00:03.435Z</time>
</trkpt>
<trkpt lat="13.7945770" lon="100.1690379">
<ele>0.000</ele>
<time>2018-04-02T04:00:05.989Z</time>
</trkpt>
<trkpt lat="13.7947938" lon="100.1688313">
<ele>0.695</ele>
<time>2018-04-02T04:00:08.689Z</time>
</trkpt>
<trkpt lat="13.7951483" lon="100.1686547">
<ele>1.130</ele>
<time>2018-04-02T04:00:11.902Z</time>
</trkpt>
<trkpt lat="13.7955011" lon="100.1684633">
<ele>0.586</ele>
<time>2018-04-02T04:00:14.802Z</time>
</trkpt>
<trkpt lat="13.7959264" lon="100.1682638">
<ele>0.000</ele>
<time>2018-04-02T04:00:17.926Z</time>
</trkpt>
<trkpt lat="13.7963330" lon="100.1680317">
<ele>0.000</ele>
<time>2018-04-02T04:00:20.851Z</time>
</trkpt>
<trkpt lat="13.7967888" lon="100.1677757">
<ele>0.000</ele>
<time>2018-04-02T04:00:24.091Z</time>
</trkpt>
<trkpt lat="13.7971822" lon="100.1675531">
<ele>0.000</ele>
<time>2018-04-02T04:00:26.985Z</time>
</trkpt>
<trkpt lat="13.7979393" lon="100.1671133">
<ele>0.000</ele>
<time>2018-04-02T04:00:32.644Z</time>
</trkpt>
<trkpt lat="13.7983632" lon="100.1668974">
<ele>0.000</ele>
<time>2018-04-02T04:00:35.668Z</time>
</trkpt>
<trkpt lat="13.7987797" lon="100.1666897">
<ele>0.000</ele>
<time>2018-04-02T04:00:38.566Z</time>
</trkpt>
<trkpt lat="13.7992213" lon="100.1664302">
<ele>0.000</ele>
<time>2018-04-02T04:00:41.629Z</time>
</trkpt>
<trkpt lat="13.7997183" lon="100.1661130">
<ele>0.000</ele>
<time>2018-04-02T04:00:44.946Z</time>
</trkpt>
<trkpt lat="13.8002928" lon="100.1658248">
<ele>0.000</ele>
<time>2018-04-02T04:00:48.431Z</time>
</trkpt>
<trkpt lat="13.8007470" lon="100.1655969">
<ele>0.000</ele>
<time>2018-04-02T04:00:51.153Z</time>
</trkpt>
<trkpt lat="13.8012543" lon="100.1653453">
<ele>0.000</ele>
<time>2018-04-02T04:00:54.096Z</time>
</trkpt>
<trkpt lat="13.8017633" lon="100.1650273">
<ele>0.956</ele>
<time>2018-04-02T04:00:57.059Z</time>
</trkpt>
<trkpt lat="13.8022960" lon="100.1646905">
<ele>3.180</ele>
<time>2018-04-02T04:01:00.116Z</time>
</trkpt>
<trkpt lat="13.8028309" lon="100.1643731">
<ele>4.793</ele>
<time>2018-04-02T04:01:03.199Z</time>
</trkpt>
<trkpt lat="13.8032960" lon="100.1639983">
<ele>5.386</ele>
<time>2018-04-02T04:01:06.248Z</time>
</trkpt>
<trkpt lat="13.8036574" lon="100.1635648">
<ele>5.449</ele>
<time>2018-04-02T04:01:09.194Z</time>
</trkpt>
<trkpt lat="13.8040374" lon="100.1631104">
<ele>5.512</ele>
<time>2018-04-02T04:01:12.266Z</time>
</trkpt>
<trkpt lat="13.8043432" lon="100.1625822">
<ele>5.716</ele>
<time>2018-04-02T04:01:15.313Z</time>
</trkpt>
<trkpt lat="13.8045922" lon="100.1620238">
<ele>5.922</ele>
<time>2018-04-02T04:01:18.282Z</time>
</trkpt>
<trkpt lat="13.8047908" lon="100.1614194">
<ele>5.909</ele>
<time>2018-04-02T04:01:21.343Z</time>
</trkpt>
<trkpt lat="13.8049198" lon="100.1608268">
<ele>5.552</ele>
<time>2018-04-02T04:01:24.240Z</time>
</trkpt>
<trkpt lat="13.8050795" lon="100.1602243">
<ele>5.058</ele>
<time>2018-04-02T04:01:27.142Z</time>
</trkpt>
<trkpt lat="13.8051618" lon="100.1595758">
<ele>4.727</ele>
<time>2018-04-02T04:01:30.071Z</time>
</trkpt>
<trkpt lat="13.8053018" lon="100.1589029">
<ele>4.595</ele>
<time>2018-04-02T04:01:33.062Z</time>
</trkpt>
<trkpt lat="13.8054186" lon="100.1581936">
<ele>4.550</ele>
<time>2018-04-02T04:01:36.219Z</time>
</trkpt>
<trkpt lat="13.8056250" lon="100.1576135">
<ele>4.532</ele>
<time>2018-04-02T04:01:39.042Z</time>
</trkpt>
<trkpt lat="13.8057370" lon="100.1570056">
<ele>4.431</ele>
<time>2018-04-02T04:01:41.962Z</time>
</trkpt>
<trkpt lat="13.8058118" lon="100.1563894">
<ele>4.171</ele>
<time>2018-04-02T04:01:44.993Z</time>
</trkpt>
<trkpt lat="13.8058960" lon="100.1558270">
<ele>3.900</ele>
<time>2018-04-02T04:01:47.837Z</time>
</trkpt>
<trkpt lat="13.8059843" lon="100.1552454">
<ele>4.041</ele>
<time>2018-04-02T04:01:50.790Z</time>
</trkpt>
<trkpt lat="13.8061106" lon="100.1546516">
<ele>4.730</ele>
<time>2018-04-02T04:01:53.827Z</time>
</trkpt>
<trkpt lat="13.8062242" lon="100.1540440">
<ele>5.457</ele>
<time>2018-04-02T04:01:56.937Z</time>
</trkpt>
<trkpt lat="13.8063313" lon="100.1534974">
<ele>5.764</ele>
<time>2018-04-02T04:01:59.868Z</time>
</trkpt>
<trkpt lat="13.8064207" lon="100.1529779">
<ele>5.768</ele>
<time>2018-04-02T04:02:02.855Z</time>
</trkpt>
<trkpt lat="13.8065533" lon="100.1525358">
<ele>5.708</ele>
<time>2018-04-02T04:02:05.642Z</time>
</trkpt>
<trkpt lat="13.8066552" lon="100.1520566">
<ele>5.766</ele>
<time>2018-04-02T04:02:08.644Z</time>
</trkpt>
<trkpt lat="13.8067636" lon="100.1515670">
<ele>6.002</ele>
<time>2018-04-02T04:02:11.649Z</time>
</trkpt>
<trkpt lat="13.8068570" lon="100.1510556">
<ele>6.284</ele>
<time>2018-04-02T04:02:14.671Z</time>
</trkpt>
<trkpt lat="13.8069560" lon="100.1505146">
<ele>6.457</ele>
<time>2018-04-02T04:02:17.752Z</time>
</trkpt>
<trkpt lat="13.8070257" lon="100.1499445">
<ele>6.482</ele>
<time>2018-04-02T04:02:20.867Z</time>
</trkpt>
<trkpt lat="13.8071251" lon="100.1494067">
<ele>6.409</ele>
<time>2018-04-02T04:02:23.813Z</time>
</trkpt>
<trkpt lat="13.8072269" lon="100.1488734">
<ele>6.323</ele>
<time>2018-04-02T04:02:26.776Z</time>
</trkpt>
<trkpt lat="13.8072888" lon="100.1483400">
<ele>6.378</ele>
<time>2018-04-02T04:02:29.771Z</time>
</trkpt>
<trkpt lat="13.8073699" lon="100.1478170">
<ele>6.625</ele>
<time>2018-04-02T04:02:32.733Z</time>
</trkpt>
<trkpt lat="13.8074663" lon="100.1472886">
<ele>6.794</ele>
<time>2018-04-02T04:02:35.673Z</time>
</trkpt>
<trkpt lat="13.8075378" lon="100.1469123">
<ele>6.637</ele>
<time>2018-04-02T04:02:37.757Z</time>
</trkpt>
<trkpt lat="13.8076550" lon="100.1464085">
<ele>6.291</ele>
<time>2018-04-02T04:02:40.650Z</time>
</trkpt>
<trkpt lat="13.8077351" lon="100.1459056">
<ele>5.955</ele>
<time>2018-04-02T04:02:43.555Z</time>
</trkpt>
<trkpt lat="13.8078279" lon="100.1453682">
<ele>5.648</ele>
<time>2018-04-02T04:02:46.640Z</time>
</trkpt>
<trkpt lat="13.8079937" lon="100.1448574">
<ele>5.381</ele>
<time>2018-04-02T04:02:49.664Z</time>
</trkpt>
<trkpt lat="13.8081258" lon="100.1443428">
<ele>5.222</ele>
<time>2018-04-02T04:02:52.681Z</time>
</trkpt>
<trkpt lat="13.8082418" lon="100.1438390">
<ele>5.202</ele>
<time>2018-04-02T04:02:55.738Z</time>
</trkpt>
<trkpt lat="13.8083681" lon="100.1429366">
<ele>5.357</ele>
<time>2018-04-02T04:03:01.333Z</time>
</trkpt>
<trkpt lat="13.8084649" lon="100.1423742">
<ele>5.448</ele>
<time>2018-04-02T04:03:05.010Z</time>
</trkpt>
<trkpt lat="13.8085644" lon="100.1419164">
<ele>5.625</ele>
<time>2018-04-02T04:03:08.097Z</time>
</trkpt>
<trkpt lat="13.8085783" lon="100.1414356">
<ele>5.900</ele>
<time>2018-04-02T04:03:11.159Z</time>
</trkpt>
<trkpt lat="13.8087250" lon="100.1404089">
<ele>6.178</ele>
<time>2018-04-02T04:03:17.632Z</time>
</trkpt>
<trkpt lat="13.8088985" lon="100.1395671">
<ele>6.390</ele>
<time>2018-04-02T04:03:23.015Z</time>
</trkpt>
<trkpt lat="13.8090097" lon="100.1390975">
<ele>6.551</ele>
<time>2018-04-02T04:03:26.034Z</time>
</trkpt>
<trkpt lat="13.8091390" lon="100.1386387">
<ele>6.693</ele>
<time>2018-04-02T04:03:28.944Z</time>
</trkpt>
<trkpt lat="13.8092652" lon="100.1376607">
<ele>6.804</ele>
<time>2018-04-02T04:03:34.856Z</time>
</trkpt>
<trkpt lat="13.8093387" lon="100.1371143">
<ele>6.813</ele>
<time>2018-04-02T04:03:38.034Z</time>
</trkpt>
<trkpt lat="13.8094226" lon="100.1365938">
<ele>6.704</ele>
<time>2018-04-02T04:03:40.925Z</time>
</trkpt>
<trkpt lat="13.8096032" lon="100.1358724">
<ele>6.608</ele>
<time>2018-04-02T04:03:44.744Z</time>
</trkpt>
<trkpt lat="13.8096959" lon="100.1352728">
<ele>6.631</ele>
<time>2018-04-02T04:03:47.770Z</time>
</trkpt>
<trkpt lat="13.8097457" lon="100.1347528">
<ele>6.671</ele>
<time>2018-04-02T04:03:50.435Z</time>
</trkpt>
<trkpt lat="13.8098414" lon="100.1341700">
<ele>6.555</ele>
<time>2018-04-02T04:03:53.472Z</time>
</trkpt>
<trkpt lat="13.8099047" lon="100.1335915">
<ele>6.181</ele>
<time>2018-04-02T04:03:56.489Z</time>
</trkpt>
<trkpt lat="13.8099756" lon="100.1330211">
<ele>5.602</ele>
<time>2018-04-02T04:03:59.710Z</time>
</trkpt>
<trkpt lat="13.8100753" lon="100.1322026">
<ele>5.032</ele>
<time>2018-04-02T04:04:04.477Z</time>
</trkpt>
<trkpt lat="13.8101354" lon="100.1316473">
<ele>4.668</ele>
<time>2018-04-02T04:04:07.759Z</time>
</trkpt>
<trkpt lat="13.8101987" lon="100.1311632">
<ele>4.584</ele>
<time>2018-04-02T04:04:10.550Z</time>
</trkpt>
<trkpt lat="13.8102503" lon="100.1305968">
<ele>4.781</ele>
<time>2018-04-02T04:04:13.759Z</time>
</trkpt>
<trkpt lat="13.8103722" lon="100.1300860">
<ele>5.162</ele>
<time>2018-04-02T04:04:16.696Z</time>
</trkpt>
<trkpt lat="13.8104945" lon="100.1295167">
<ele>5.538</ele>
<time>2018-04-02T04:04:19.916Z</time>
</trkpt>
<trkpt lat="13.8105239" lon="100.1289899">
<ele>5.756</ele>
<time>2018-04-02T04:04:22.826Z</time>
</trkpt>
<trkpt lat="13.8105666" lon="100.1284264">
<ele>5.802</ele>
<time>2018-04-02T04:04:25.953Z</time>
</trkpt>
<trkpt lat="13.8106287" lon="100.1279077">
<ele>5.769</ele>
<time>2018-04-02T04:04:28.854Z</time>
</trkpt>
<trkpt lat="13.8106287" lon="100.1279077">
<ele>5.769</ele>
<time>2018-04-02T04:04:28.854Z</time>
</trkpt>
<trkpt lat="13.8133548" lon="100.1145459">
<ele>7.850</ele>
<time>2018-04-02T04:05:44.753Z</time>
</trkpt>
<trkpt lat="13.8134436" lon="100.1140788">
<ele>7.846</ele>
<time>2018-04-02T04:05:47.397Z</time>
</trkpt>
<trkpt lat="13.8135209" lon="100.1135572">
<ele>7.822</ele>
<time>2018-04-02T04:05:50.354Z</time>
</trkpt>
<trkpt lat="13.8135586" lon="100.1129531">
<ele>7.762</ele>
<time>2018-04-02T04:05:53.661Z</time>
</trkpt>
<trkpt lat="13.8134948" lon="100.1122913">
<ele>7.736</ele>
<time>2018-04-02T04:05:57.075Z</time>
</trkpt>
<trkpt lat="13.8134551" lon="100.1117041">
<ele>7.890</ele>
<time>2018-04-02T04:06:00.002Z</time>
</trkpt>
<trkpt lat="13.8134055" lon="100.1110894">
<ele>8.226</ele>
<time>2018-04-02T04:06:03.127Z</time>
</trkpt>
<trkpt lat="13.8133017" lon="100.1105429">
<ele>8.565</ele>
<time>2018-04-02T04:06:06.083Z</time>
</trkpt>
<trkpt lat="13.8133119" lon="100.1100168">
<ele>8.781</ele>
<time>2018-04-02T04:06:09.021Z</time>
</trkpt>
<trkpt lat="13.8132550" lon="100.1090409">
<ele>8.821</ele>
<time>2018-04-02T04:06:14.704Z</time>
</trkpt>
<trkpt lat="13.8131999" lon="100.1081226">
<ele>8.649</ele>
<time>2018-04-02T04:06:20.345Z</time>
</trkpt>
<trkpt lat="13.8131514" lon="100.1076332">
<ele>8.232</ele>
<time>2018-04-02T04:06:23.429Z</time>
</trkpt>
<trkpt lat="13.8129930" lon="100.1071634">
<ele>7.650</ele>
<time>2018-04-02T04:06:26.616Z</time>
</trkpt>
<trkpt lat="13.8130720" lon="100.1065877">
<ele>7.166</ele>
<time>2018-04-02T04:06:30.916Z</time>
</trkpt>
<trkpt lat="13.8130614" lon="100.1061990">
<ele>7.284</ele>
<time>2018-04-02T04:06:34.188Z</time>
</trkpt>
<trkpt lat="13.8130952" lon="100.1058193">
<ele>8.172</ele>
<time>2018-04-02T04:06:37.487Z</time>
</trkpt>
<trkpt lat="13.8131250" lon="100.1053603">
<ele>9.224</ele>
<time>2018-04-02T04:06:41.018Z</time>
</trkpt>
<trkpt lat="13.8130572" lon="100.1049165">
<ele>9.739</ele>
<time>2018-04-02T04:06:44.123Z</time>
</trkpt>
<trkpt lat="13.8129259" lon="100.1044471">
<ele>9.567</ele>
<time>2018-04-02T04:06:47.385Z</time>
</trkpt>
<trkpt lat="13.8129568" lon="100.1040828">
<ele>8.976</ele>
<time>2018-04-02T04:06:49.859Z</time>
</trkpt>
<trkpt lat="13.8129547" lon="100.1036438">
<ele>8.449</ele>
<time>2018-04-02T04:06:52.974Z</time>
</trkpt>
<trkpt lat="13.8128978" lon="100.1032279">
<ele>8.233</ele>
<time>2018-04-02T04:06:55.972Z</time>
</trkpt>
<trkpt lat="13.8128927" lon="100.1028219">
<ele>8.229</ele>
<time>2018-04-02T04:06:58.911Z</time>
</trkpt>
<trkpt lat="13.8129093" lon="100.1024453">
<ele>8.295</ele>
<time>2018-04-02T04:07:01.731Z</time>
</trkpt>
<trkpt lat="13.8129241" lon="100.1020296">
<ele>8.324</ele>
<time>2018-04-02T04:07:04.900Z</time>
</trkpt>
<trkpt lat="13.8129195" lon="100.1016459">
<ele>8.267</ele>
<time>2018-04-02T04:07:07.816Z</time>
</trkpt>
<trkpt lat="13.8129609" lon="100.1012530">
<ele>8.149</ele>
<time>2018-04-02T04:07:10.781Z</time>
</trkpt>
<trkpt lat="13.8130291" lon="100.1007695">
<ele>8.026</ele>
<time>2018-04-02T04:07:14.149Z</time>
</trkpt>
<trkpt lat="13.8132732" lon="100.1002514">
<ele>7.907</ele>
<time>2018-04-02T04:07:17.591Z</time>
</trkpt>
<trkpt lat="13.8134382" lon="100.0997849">
<ele>7.770</ele>
<time>2018-04-02T04:07:20.409Z</time>
</trkpt>
<trkpt lat="13.8134789" lon="100.0992379">
<ele>7.588</ele>
<time>2018-04-02T04:07:23.498Z</time>
</trkpt>
<trkpt lat="13.8135931" lon="100.0986275">
<ele>7.398</ele>
<time>2018-04-02T04:07:26.913Z</time>
</trkpt>
<trkpt lat="13.8136384" lon="100.0981365">
<ele>7.196</ele>
<time>2018-04-02T04:07:29.672Z</time>
</trkpt>
<trkpt lat="13.8136893" lon="100.0976282">
<ele>6.678</ele>
<time>2018-04-02T04:07:32.595Z</time>
</trkpt>
<trkpt lat="13.8137327" lon="100.0970369">
<ele>5.571</ele>
<time>2018-04-02T04:07:35.849Z</time>
</trkpt>
<trkpt lat="13.8138695" lon="100.0964847">
<ele>4.004</ele>
<time>2018-04-02T04:07:38.854Z</time>
</trkpt>
<trkpt lat="13.8140842" lon="100.0959122">
<ele>2.401</ele>
<time>2018-04-02T04:07:42.070Z</time>
</trkpt>
<trkpt lat="13.8141447" lon="100.0954407">
<ele>1.222</ele>
<time>2018-04-02T04:07:44.693Z</time>
</trkpt>
<trkpt lat="13.8141464" lon="100.0949235">
<ele>0.700</ele>
<time>2018-04-02T04:07:47.786Z</time>
</trkpt>
<trkpt lat="13.8143075" lon="100.0944906">
<ele>1.052</ele>
<time>2018-04-02T04:07:50.757Z</time>
</trkpt>
<trkpt lat="13.8143777" lon="100.0941409">
<ele>2.196</ele>
<time>2018-04-02T04:07:53.297Z</time>
</trkpt>
<trkpt lat="13.8144481" lon="100.0938336">
<ele>3.200</ele>
<time>2018-04-02T04:07:55.826Z</time>
</trkpt>
<trkpt lat="13.8144718" lon="100.0934932">
<ele>3.248</ele>
<time>2018-04-02T04:07:58.656Z</time>
</trkpt>
<trkpt lat="13.8145258" lon="100.0931025">
<ele>2.502</ele>
<time>2018-04-02T04:08:01.840Z</time>
</trkpt>
<trkpt lat="13.8146141" lon="100.0928753">
<ele>1.666</ele>
<time>2018-04-02T04:08:03.777Z</time>
</trkpt>
<trkpt lat="13.8146524" lon="100.0926182">
<ele>1.287</ele>
<time>2018-04-02T04:08:05.873Z</time>
</trkpt>
<trkpt lat="13.8146391" lon="100.0923422">
<ele>1.316</ele>
<time>2018-04-02T04:08:08.061Z</time>
</trkpt>
<trkpt lat="13.8146799" lon="100.0920642">
<ele>1.536</ele>
<time>2018-04-02T04:08:10.189Z</time>
</trkpt>
<trkpt lat="13.8147222" lon="100.0918080">
<ele>1.867</ele>
<time>2018-04-02T04:08:12.112Z</time>
</trkpt>
<trkpt lat="13.8147605" lon="100.0914155">
<ele>2.162</ele>
<time>2018-04-02T04:08:14.744Z</time>
</trkpt>
<trkpt lat="13.8148052" lon="100.0910893">
<ele>2.262</ele>
<time>2018-04-02T04:08:16.782Z</time>
</trkpt>
<trkpt lat="13.8148511" lon="100.0907626">
<ele>2.161</ele>
<time>2018-04-02T04:08:18.793Z</time>
</trkpt>
<trkpt lat="13.8148793" lon="100.0904237">
<ele>1.909</ele>
<time>2018-04-02T04:08:20.902Z</time>
</trkpt>
<trkpt lat="13.8148813" lon="100.0901143">
<ele>1.667</ele>
<time>2018-04-02T04:08:22.885Z</time>
</trkpt>
<trkpt lat="13.8148916" lon="100.0898361">
<ele>1.547</ele>
<time>2018-04-02T04:08:24.732Z</time>
</trkpt>
<trkpt lat="13.8149468" lon="100.0895526">
<ele>1.550</ele>
<time>2018-04-02T04:08:26.752Z</time>
</trkpt>
<trkpt lat="13.8150618" lon="100.0892041">
<ele>1.741</ele>
<time>2018-04-02T04:08:29.486Z</time>
</trkpt>
<trkpt lat="13.8153491" lon="100.0889591">
<ele>2.353</ele>
<time>2018-04-02T04:08:32.473Z</time>
</trkpt>
<trkpt lat="13.8156745" lon="100.0886802">
<ele>3.492</ele>
<time>2018-04-02T04:08:35.598Z</time>
</trkpt>
<trkpt lat="13.8159484" lon="100.0882985">
<ele>4.777</ele>
<time>2018-04-02T04:08:38.658Z</time>
</trkpt>
<trkpt lat="13.8161717" lon="100.0878079">
<ele>5.606</ele>
<time>2018-04-02T04:08:41.777Z</time>
</trkpt>
<trkpt lat="13.8163916" lon="100.0872487">
<ele>5.536</ele>
<time>2018-04-02T04:08:44.896Z</time>
</trkpt>
<trkpt lat="13.8165879" lon="100.0867052">
<ele>4.395</ele>
<time>2018-04-02T04:08:47.774Z</time>
</trkpt>
<trkpt lat="13.8167728" lon="100.0861266">
<ele>2.774</ele>
<time>2018-04-02T04:08:50.804Z</time>
</trkpt>
<trkpt lat="13.8169858" lon="100.0855951">
<ele>1.734</ele>
<time>2018-04-02T04:08:53.725Z</time>
</trkpt>
<trkpt lat="13.8172194" lon="100.0850675">
<ele>1.600</ele>
<time>2018-04-02T04:08:56.785Z</time>
</trkpt>
<trkpt lat="13.8174030" lon="100.0845550">
<ele>1.864</ele>
<time>2018-04-02T04:08:59.818Z</time>
</trkpt>
<trkpt lat="13.8176054" lon="100.0841012">
<ele>1.835</ele>
<time>2018-04-02T04:09:02.744Z</time>
</trkpt>
<trkpt lat="13.8178032" lon="100.0836224">
<ele>1.363</ele>
<time>2018-04-02T04:09:05.895Z</time>
</trkpt>
<trkpt lat="13.8179550" lon="100.0832440">
<ele>0.868</ele>
<time>2018-04-02T04:09:08.569Z</time>
</trkpt>
<trkpt lat="13.8180829" lon="100.0828799">
<ele>0.660</ele>
<time>2018-04-02T04:09:11.512Z</time>
</trkpt>
<trkpt lat="13.8181866" lon="100.0825770">
<ele>0.643</ele>
<time>2018-04-02T04:09:14.197Z</time>
</trkpt>
<trkpt lat="13.8183165" lon="100.0822467">
<ele>0.614</ele>
<time>2018-04-02T04:09:17.189Z</time>
</trkpt>
<trkpt lat="13.8184663" lon="100.0818648">
<ele>0.461</ele>
<time>2018-04-02T04:09:20.333Z</time>
</trkpt>
<trkpt lat="13.8186348" lon="100.0814351">
<ele>0.299</ele>
<time>2018-04-02T04:09:23.543Z</time>
</trkpt>
<trkpt lat="13.8187837" lon="100.0810356">
<ele>0.444</ele>
<time>2018-04-02T04:09:26.459Z</time>
</trkpt>
<trkpt lat="13.8189033" lon="100.0806226">
<ele>1.163</ele>
<time>2018-04-02T04:09:29.438Z</time>
</trkpt>
<trkpt lat="13.8190079" lon="100.0802192">
<ele>2.206</ele>
<time>2018-04-02T04:09:32.355Z</time>
</trkpt>
<trkpt lat="13.8190744" lon="100.0798075">
<ele>2.808</ele>
<time>2018-04-02T04:09:35.356Z</time>
</trkpt>
<trkpt lat="13.8191108" lon="100.0794144">
<ele>2.576</ele>
<time>2018-04-02T04:09:38.299Z</time>
</trkpt>
<trkpt lat="13.8191656" lon="100.0790139">
<ele>1.894</ele>
<time>2018-04-02T04:09:41.300Z</time>
</trkpt>
<trkpt lat="13.8192314" lon="100.0785546">
<ele>1.324</ele>
<time>2018-04-02T04:09:44.585Z</time>
</trkpt>
<trkpt lat="13.8192865" lon="100.0781225">
<ele>1.080</ele>
<time>2018-04-02T04:09:47.625Z</time>
</trkpt>
<trkpt lat="13.8193392" lon="100.0777168">
<ele>1.119</ele>
<time>2018-04-02T04:09:50.730Z</time>
</trkpt>
<trkpt lat="13.8193686" lon="100.0774835">
<ele>1.291</ele>
<time>2018-04-02T04:09:52.858Z</time>
</trkpt>
<trkpt lat="13.8193935" lon="100.0773179">
<ele>1.442</ele>
<time>2018-04-02T04:09:55.064Z</time>
</trkpt>
<trkpt lat="13.8194120" lon="100.0771910">
<ele>1.715</ele>
<time>2018-04-02T04:09:57.193Z</time>
</trkpt>
<trkpt lat="13.8194362" lon="100.0770827">
<ele>2.276</ele>
<time>2018-04-02T04:09:59.544Z</time>
</trkpt>
<trkpt lat="13.8194546" lon="100.0769789">
<ele>2.840</ele>
<time>2018-04-02T04:10:02.295Z</time>
</trkpt>
<trkpt lat="13.8194707" lon="100.0768702">
<ele>3.106</ele>
<time>2018-04-02T04:10:05.468Z</time>
</trkpt>
<trkpt lat="13.8194684" lon="100.0767623">
<ele>3.099</ele>
<time>2018-04-02T04:10:08.748Z</time>
</trkpt>
<trkpt lat="13.8194878" lon="100.0765846">
<ele>2.842</ele>
<time>2018-04-02T04:10:14.013Z</time>
</trkpt>
<trkpt lat="13.8195154" lon="100.0763963">
<ele>2.434</ele>
<time>2018-04-02T04:10:18.067Z</time>
</trkpt>
<trkpt lat="13.8195507" lon="100.0761974">
<ele>2.115</ele>
<time>2018-04-02T04:10:21.595Z</time>
</trkpt>
<trkpt lat="13.8195513" lon="100.0760177">
<ele>1.770</ele>
<time>2018-04-02T04:10:24.686Z</time>
</trkpt>
<trkpt lat="13.8195754" lon="100.0758352">
<ele>1.032</ele>
<time>2018-04-02T04:10:27.886Z</time>
</trkpt>
<trkpt lat="13.8196033" lon="100.0756642">
<ele>0.000</ele>
<time>2018-04-02T04:10:30.870Z</time>
</trkpt>
<trkpt lat="13.8196196" lon="100.0754932">
<ele>0.000</ele>
<time>2018-04-02T04:10:34.025Z</time>
</trkpt>
<trkpt lat="13.8196442" lon="100.0753641">
<ele>0.000</ele>
<time>2018-04-02T04:10:36.984Z</time>
</trkpt>
<trkpt lat="13.8196303" lon="100.0752702">
<ele>0.000</ele>
<time>2018-04-02T04:10:39.997Z</time>
</trkpt>
<trkpt lat="13.8196303" lon="100.0752702">
<ele>0.000</ele>
<time>2018-04-02T04:10:41.997Z</time>
</trkpt>
<trkpt lat="13.8196303" lon="100.0752702">
<ele>0.000</ele>
<time>2018-04-02T04:10:55.693Z</time>
</trkpt>
<trkpt lat="13.8196833" lon="100.0749644">
<ele>0.000</ele>
<time>2018-04-02T04:11:08.888Z</time>
</trkpt>
<trkpt lat="13.8197095" lon="100.0747286">
<ele>0.100</ele>
<time>2018-04-02T04:11:12.115Z</time>
</trkpt>
<trkpt lat="13.8197510" lon="100.0744609">
<ele>0.266</ele>
<time>2018-04-02T04:11:15.458Z</time>
</trkpt>
<trkpt lat="13.8197744" lon="100.0742195">
<ele>0.464</ele>
<time>2018-04-02T04:11:18.746Z</time>
</trkpt>
<trkpt lat="13.8198158" lon="100.0740253">
<ele>1.031</ele>
<time>2018-04-02T04:11:21.665Z</time>
</trkpt>
<trkpt lat="13.8198369" lon="100.0737879">
<ele>2.136</ele>
<time>2018-04-02T04:11:25.309Z</time>
</trkpt>
<trkpt lat="13.8198707" lon="100.0736187">
<ele>3.464</ele>
<time>2018-04-02T04:11:27.849Z</time>
</trkpt>
<trkpt lat="13.8198882" lon="100.0733711">
<ele>4.357</ele>
<time>2018-04-02T04:11:31.009Z</time>
</trkpt>
<trkpt lat="13.8199144" lon="100.0731380">
<ele>4.589</ele>
<time>2018-04-02T04:11:33.611Z</time>
</trkpt>
<trkpt lat="13.8199431" lon="100.0728909">
<ele>5.077</ele>
<time>2018-04-02T04:11:36.087Z</time>
</trkpt>
<trkpt lat="13.8199725" lon="100.0725885">
<ele>6.932</ele>
<time>2018-04-02T04:11:38.744Z</time>
</trkpt>
<trkpt lat="13.8200081" lon="100.0721845">
<ele>9.610</ele>
<time>2018-04-02T04:11:42.198Z</time>
</trkpt>
<trkpt lat="13.8200453" lon="100.0718539">
<ele>9.817</ele>
<time>2018-04-02T04:11:45.181Z</time>
</trkpt>
<trkpt lat="13.8200813" lon="100.0715225">
<ele>5.630</ele>
<time>2018-04-02T04:11:48.218Z</time>
</trkpt>
<trkpt lat="13.8201278" lon="100.0712029">
<ele>0.000</ele>
<time>2018-04-02T04:11:51.080Z</time>
</trkpt>
<trkpt lat="13.8201337" lon="100.0709046">
<ele>0.000</ele>
<time>2018-04-02T04:11:53.619Z</time>
</trkpt>
<trkpt lat="13.8201387" lon="100.0705661">
<ele>0.000</ele>
<time>2018-04-02T04:11:56.448Z</time>
</trkpt>
<trkpt lat="13.8201218" lon="100.0702352">
<ele>0.000</ele>
<time>2018-04-02T04:11:59.194Z</time>
</trkpt>
<trkpt lat="13.8201110" lon="100.0698827">
<ele>0.000</ele>
<time>2018-04-02T04:12:02.178Z</time>
</trkpt>
<trkpt lat="13.8201112" lon="100.0695429">
<ele>4.672</ele>
<time>2018-04-02T04:12:05.331Z</time>
</trkpt>
<trkpt lat="13.8201061" lon="100.0692560">
<ele>7.409</ele>
<time>2018-04-02T04:12:08.563Z</time>
</trkpt>
<trkpt lat="13.8200999" lon="100.0690116">
<ele>8.290</ele>
<time>2018-04-02T04:12:12.864Z</time>
</trkpt>
<trkpt lat="13.8200985" lon="100.0689063">
<ele>8.144</ele>
<time>2018-04-02T04:12:15.303Z</time>
</trkpt>
<trkpt lat="13.8200163" lon="100.0687823">
<ele>7.736</ele>
<time>2018-04-02T04:12:18.659Z</time>
</trkpt>
<trkpt lat="13.8200622" lon="100.0686187">
<ele>7.939</ele>
<time>2018-04-02T04:12:21.477Z</time>
</trkpt>
<trkpt lat="13.8201220" lon="100.0682985">
<ele>9.128</ele>
<time>2018-04-02T04:12:25.268Z</time>
</trkpt>
<trkpt lat="13.8201265" lon="100.0680403">
<ele>10.051</ele>
<time>2018-04-02T04:12:27.686Z</time>
</trkpt>
<trkpt lat="13.8201028" lon="100.0676690">
<ele>9.650</ele>
<time>2018-04-02T04:12:30.904Z</time>
</trkpt>
<trkpt lat="13.8200769" lon="100.0673442">
<ele>8.765</ele>
<time>2018-04-02T04:12:33.918Z</time>
</trkpt>
<trkpt lat="13.8200695" lon="100.0669961">
<ele>8.421</ele>
<time>2018-04-02T04:12:37.392Z</time>
</trkpt>
<trkpt lat="13.8200618" lon="100.0665421">
<ele>8.707</ele>
<time>2018-04-02T04:12:42.031Z</time>
</trkpt>
<trkpt lat="13.8200312" lon="100.0662708">
<ele>9.290</ele>
<time>2018-04-02T04:12:45.168Z</time>
</trkpt>
<trkpt lat="13.8200193" lon="100.0660756">
<ele>9.770</ele>
<time>2018-04-02T04:12:47.886Z</time>
</trkpt>
<trkpt lat="13.8200189" lon="100.0659092">
<ele>9.768</ele>
<time>2018-04-02T04:12:50.609Z</time>
</trkpt>
<trkpt lat="13.8200249" lon="100.0657512">
<ele>9.121</ele>
<time>2018-04-02T04:12:53.372Z</time>
</trkpt>
<trkpt lat="13.8200550" lon="100.0655911">
<ele>8.175</ele>
<time>2018-04-02T04:12:56.342Z</time>
</trkpt>
<trkpt lat="13.8200449" lon="100.0654081">
<ele>7.551</ele>
<time>2018-04-02T04:12:59.083Z</time>
</trkpt>
<trkpt lat="13.8200387" lon="100.0651577">
<ele>7.435</ele>
<time>2018-04-02T04:13:01.990Z</time>
</trkpt>
<trkpt lat="13.8200347" lon="100.0648722">
<ele>7.667</ele>
<time>2018-04-02T04:13:04.913Z</time>
</trkpt>
<trkpt lat="13.8200327" lon="100.0645600">
<ele>7.901</ele>
<time>2018-04-02T04:13:08.244Z</time>
</trkpt>
<trkpt lat="13.8200199" lon="100.0643558">
<ele>7.523</ele>
<time>2018-04-02T04:13:10.971Z</time>
</trkpt>
<trkpt lat="13.8200084" lon="100.0641867">
<ele>6.338</ele>
<time>2018-04-02T04:13:14.204Z</time>
</trkpt>
<trkpt lat="13.8200035" lon="100.0640571">
<ele>4.992</ele>
<time>2018-04-02T04:13:17.102Z</time>
</trkpt>
<trkpt lat="13.8199934" lon="100.0638833">
<ele>4.105</ele>
<time>2018-04-02T04:13:20.882Z</time>
</trkpt>
<trkpt lat="13.8199830" lon="100.0636174">
<ele>3.476</ele>
<time>2018-04-02T04:13:24.547Z</time>
</trkpt>
<trkpt lat="13.8199703" lon="100.0633268">
<ele>2.741</ele>
<time>2018-04-02T04:13:27.655Z</time>
</trkpt>
<trkpt lat="13.8199553" lon="100.0629725">
<ele>2.189</ele>
<time>2018-04-02T04:13:30.903Z</time>
</trkpt>
<trkpt lat="13.8199221" lon="100.0626451">
<ele>2.168</ele>
<time>2018-04-02T04:13:34.165Z</time>
</trkpt>
<trkpt lat="13.8199132" lon="100.0624777">
<ele>2.578</ele>
<time>2018-04-02T04:13:36.230Z</time>
</trkpt>
<trkpt lat="13.8198947" lon="100.0623113">
<ele>3.167</ele>
<time>2018-04-02T04:13:38.993Z</time>
</trkpt>
<trkpt lat="13.8198947" lon="100.0623113">
<ele>3.624</ele>
<time>2018-04-02T04:13:50.992Z</time>
</trkpt>
<trkpt lat="13.8198947" lon="100.0623113">
<ele>3.788</ele>
<time>2018-04-02T04:14:13.348Z</time>
</trkpt>
<trkpt lat="13.8198871" lon="100.0620200">
<ele>3.694</ele>
<time>2018-04-02T04:14:33.883Z</time>
</trkpt>
<trkpt lat="13.8198419" lon="100.0619371">
<ele>3.511</ele>
<time>2018-04-02T04:14:36.539Z</time>
</trkpt>
<trkpt lat="13.8197993" lon="100.0618308">
<ele>3.861</ele>
<time>2018-04-02T04:14:39.348Z</time>
</trkpt>
<trkpt lat="13.8197843" lon="100.0616995">
<ele>5.065</ele>
<time>2018-04-02T04:14:42.509Z</time>
</trkpt>
<trkpt lat="13.8197803" lon="100.0615888">
<ele>6.448</ele>
<time>2018-04-02T04:14:45.384Z</time>
</trkpt>
<trkpt lat="13.8197532" lon="100.0614977">
<ele>7.283</ele>
<time>2018-04-02T04:14:48.409Z</time>
</trkpt>
<trkpt lat="13.8196857" lon="100.0614279">
<ele>7.560</ele>
<time>2018-04-02T04:14:51.899Z</time>
</trkpt>
<trkpt lat="13.8195966" lon="100.0614549">
<ele>7.590</ele>
<time>2018-04-02T04:14:55.991Z</time>
</trkpt>
<trkpt lat="13.8195966" lon="100.0614549">
<ele>7.628</ele>
<time>2018-04-02T04:15:09.991Z</time>
</trkpt>
<trkpt lat="13.8195966" lon="100.0614549">
<ele>7.679</ele>
<time>2018-04-02T04:15:15.458Z</time>
</trkpt>
<trkpt lat="13.8193383" lon="100.0614258">
<ele>7.672</ele>
<time>2018-04-02T04:15:38.095Z</time>
</trkpt>
<trkpt lat="13.8192308" lon="100.0614754">
<ele>7.547</ele>
<time>2018-04-02T04:15:44.194Z</time>
</trkpt>
<trkpt lat="13.8191406" lon="100.0614544">
<ele>7.268</ele>
<time>2018-04-02T04:15:48.999Z</time>
</trkpt>
<trkpt lat="13.8191406" lon="100.0614544">
<ele>6.955</ele>
<time>2018-04-02T04:15:54.999Z</time>
</trkpt>
<trkpt lat="13.8191406" lon="100.0614544">
<ele>6.791</ele>
<time>2018-04-02T04:15:55.099Z</time>
</trkpt>
<trkpt lat="13.8188506" lon="100.0615046">
<ele>6.803</ele>
<time>2018-04-02T04:17:04.491Z</time>
</trkpt>
<trkpt lat="13.8187532" lon="100.0615093">
<ele>6.612</ele>
<time>2018-04-02T04:17:09.993Z</time>
</trkpt>
<trkpt lat="13.8186821" lon="100.0615744">
<ele>5.962</ele>
<time>2018-04-02T04:17:14.693Z</time>
</trkpt>
<trkpt lat="13.8187552" lon="100.0616413">
<ele>5.314</ele>
<time>2018-04-02T04:17:18.157Z</time>
</trkpt>
<trkpt lat="13.8188133" lon="100.0617274">
<ele>5.153</ele>
<time>2018-04-02T04:17:21.756Z</time>
</trkpt>
<trkpt lat="13.8188280" lon="100.0618206">
<ele>5.305</ele>
<time>2018-04-02T04:17:24.997Z</time>
</trkpt>
<trkpt lat="13.8188280" lon="100.0618206">
<ele>5.420</ele>
<time>2018-04-02T04:17:33.997Z</time>
</trkpt>
<trkpt lat="13.8188280" lon="100.0618206">
<ele>5.403</ele>
<time>2018-04-02T04:19:53.849Z</time>
</trkpt>
<trkpt lat="13.8188975" lon="100.0616715">
<ele>5.342</ele>
<time>2018-04-02T04:20:13.696Z</time>
</trkpt>
<trkpt lat="13.8189397" lon="100.0615833">
<ele>4.847</ele>
<time>2018-04-02T04:20:22.349Z</time>
</trkpt>
<trkpt lat="13.8188820" lon="100.0615109">
<ele>3.566</ele>
<time>2018-04-02T04:20:30.993Z</time>
</trkpt>
<trkpt lat="13.8188820" lon="100.0615109">
<ele>2.134</ele>
<time>2018-04-02T04:20:31.993Z</time>
</trkpt>
<trkpt lat="13.8188820" lon="100.0615109">
<ele>1.438</ele>
<time>2018-04-02T04:20:32.093Z</time>
</trkpt>
<trkpt lat="13.8189724" lon="100.0615109">
<ele>1.861</ele>
<time>2018-04-02T04:21:01.075Z</time>
</trkpt>
<trkpt lat="13.8190640" lon="100.0615058">
<ele>1.865</ele>
<time>2018-04-02T04:21:11.149Z</time>
</trkpt>
<trkpt lat="13.8191508" lon="100.0614746">
<ele>1.321</ele>
<time>2018-04-02T04:21:21.968Z</time>
</trkpt>
<trkpt lat="13.8192490" lon="100.0614706">
<ele>0.743</ele>
<time>2018-04-02T04:21:32.087Z</time>
</trkpt>
<trkpt lat="13.8193433" lon="100.0614733">
<ele>0.595</ele>
<time>2018-04-02T04:21:40.982Z</time>
</trkpt>
<trkpt lat="13.8194342" lon="100.0614589">
<ele>0.720</ele>
<time>2018-04-02T04:21:49.992Z</time>
</trkpt>
<trkpt lat="13.8194342" lon="100.0614589">
<ele>0.829</ele>
<time>2018-04-02T04:21:55.991Z</time>
</trkpt>
<trkpt lat="13.8194342" lon="100.0614589">
<ele>0.827</ele>
<time>2018-04-02T04:22:02.014Z</time>
</trkpt>
<trkpt lat="13.8195236" lon="100.0614338">
<ele>0.780</ele>
<time>2018-04-02T04:22:16.545Z</time>
</trkpt>
<trkpt lat="13.8196173" lon="100.0614191">
<ele>0.782</ele>
<time>2018-04-02T04:22:22.374Z</time>
</trkpt>
<trkpt lat="13.8197153" lon="100.0614206">
<ele>0.605</ele>
<time>2018-04-02T04:22:27.997Z</time>
</trkpt>
<trkpt lat="13.8197153" lon="100.0614206">
<ele>0.322</ele>
<time>2018-04-02T04:22:34.998Z</time>
</trkpt>
<trkpt lat="13.8197153" lon="100.0614206">
<ele>0.223</ele>
<time>2018-04-02T04:24:47.319Z</time>
</trkpt>
<trkpt lat="13.8198012" lon="100.0613393">
<ele>0.326</ele>
<time>2018-04-02T04:25:09.499Z</time>
</trkpt>
<trkpt lat="13.8198597" lon="100.0612502">
<ele>1.241</ele>
<time>2018-04-02T04:25:18.298Z</time>
</trkpt>
<trkpt lat="13.8197781" lon="100.0611998">
<ele>3.418</ele>
<time>2018-04-02T04:25:25.996Z</time>
</trkpt>
<trkpt lat="13.8197781" lon="100.0611998">
<ele>5.647</ele>
<time>2018-04-02T04:25:48.998Z</time>
</trkpt>
<trkpt lat="13.8197781" lon="100.0611998">
<ele>6.622</ele>
<time>2018-04-02T04:25:49.098Z</time>
</trkpt>
<trkpt lat="13.8197583" lon="100.0610580">
<ele>6.330</ele>
<time>2018-04-02T04:26:29.499Z</time>
</trkpt>
<trkpt lat="13.8196918" lon="100.0609888">
<ele>5.546</ele>
<time>2018-04-02T04:26:33.999Z</time>
</trkpt>
<trkpt lat="13.8196918" lon="100.0609888">
<ele>5.136</ele>
<time>2018-04-02T04:26:39.999Z</time>
</trkpt>
<trkpt lat="13.8196918" lon="100.0609888">
<ele>5.194</ele>
<time>2018-04-02T04:26:52.778Z</time>
</trkpt>
<trkpt lat="13.8196916" lon="100.0608661">
<ele>5.365</ele>
<time>2018-04-02T04:27:05.998Z</time>
</trkpt>
<trkpt lat="13.8196916" lon="100.0608661">
<ele>5.472</ele>
<time>2018-04-02T04:27:10.998Z</time>
</trkpt>
<trkpt lat="13.8196916" lon="100.0608661">
<ele>5.481</ele>
<time>2018-04-02T04:27:16.674Z</time>
</trkpt>
<trkpt lat="13.8197274" lon="100.0607798">
<ele>5.461</ele>
<time>2018-04-02T04:27:26.998Z</time>
</trkpt>
<trkpt lat="13.8197274" lon="100.0607798">
<ele>5.457</ele>
<time>2018-04-02T04:27:28.998Z</time>
</trkpt>
<trkpt lat="13.8197274" lon="100.0607798">
<ele>5.459</ele>
<time>2018-04-02T04:27:29.098Z</time>
</trkpt>
<trkpt lat="13.8197274" lon="100.0607798">
<ele>5.455</ele>
<time>2018-04-02T04:29:32.995Z</time>
</trkpt>
<trkpt lat="13.8197274" lon="100.0607798">
<ele>5.452</ele>
<time>2018-04-02T04:29:33.095Z</time>
</trkpt>
<trkpt lat="13.8197151" lon="100.0605766">
<ele>5.451</ele>
<time>2018-04-02T04:29:53.994Z</time>
</trkpt>
<trkpt lat="13.8197151" lon="100.0605766">
<ele>5.450</ele>
<time>2018-04-02T04:30:02.994Z</time>
</trkpt>
<trkpt lat="13.8197151" lon="100.0605766">
<ele>5.449</ele>
<time>2018-04-02T04:30:03.094Z</time>
</trkpt>
<trkpt lat="13.8198234" lon="100.0606084">
<ele>5.447</ele>
<time>2018-04-02T04:30:13.994Z</time>
</trkpt>
<trkpt lat="13.8198234" lon="100.0606084">
<ele>5.445</ele>
<time>2018-04-02T04:30:18.994Z</time>
</trkpt>
<trkpt lat="13.8198234" lon="100.0606084">
<ele>5.443</ele>
<time>2018-04-02T04:30:21.302Z</time>
</trkpt>
<trkpt lat="13.8199117" lon="100.0605704">
<ele>5.440</ele>
<time>2018-04-02T04:30:36.395Z</time>
</trkpt>
<trkpt lat="13.8199504" lon="100.0604786">
<ele>6.366</ele>
<time>2018-04-02T04:30:42.353Z</time>
</trkpt>
<trkpt lat="13.8200355" lon="100.0604321">
<ele>8.885</ele>
<time>2018-04-02T04:30:46.993Z</time>
</trkpt>
<trkpt lat="13.8200355" lon="100.0604321">
<ele>11.639</ele>
<time>2018-04-02T04:30:57.993Z</time>
</trkpt>
<trkpt lat="13.8200355" lon="100.0604321">
<ele>12.922</ele>
<time>2018-04-02T04:31:02.114Z</time>
</trkpt>
<trkpt lat="13.8200370" lon="100.0603054">
<ele>12.773</ele>
<time>2018-04-02T04:31:18.432Z</time>
</trkpt>
<trkpt lat="13.8200525" lon="100.0602095">
<ele>12.235</ele>
<time>2018-04-02T04:31:24.992Z</time>
</trkpt>
<trkpt lat="13.8200525" lon="100.0602095">
<ele>12.088</ele>
<time>2018-04-02T04:31:27.992Z</time>
</trkpt>
<trkpt lat="13.8200525" lon="100.0602095">
<ele>12.212</ele>
<time>2018-04-02T04:31:37.773Z</time>
</trkpt>
<trkpt lat="13.8200884" lon="100.0603223">
<ele>12.286</ele>
<time>2018-04-02T04:31:45.578Z</time>
</trkpt>
<trkpt lat="13.8199898" lon="100.0603332">
<ele>12.372</ele>
<time>2018-04-02T04:31:49.992Z</time>
</trkpt>
<trkpt lat="13.8199898" lon="100.0603332">
<ele>12.599</ele>
<time>2018-04-02T04:31:51.992Z</time>
</trkpt>
<trkpt lat="13.8199898" lon="100.0603332">
<ele>12.795</ele>
<time>2018-04-02T04:32:46.990Z</time>
</trkpt>
<trkpt lat="13.8199898" lon="100.0603332">
<ele>12.787</ele>
<time>2018-04-02T04:32:47.090Z</time>
</trkpt>
<trkpt lat="13.8200159" lon="100.0602348">
<ele>12.694</ele>
<time>2018-04-02T04:33:01.997Z</time>
</trkpt>
<trkpt lat="13.8200159" lon="100.0602348">
<ele>12.737</ele>
<time>2018-04-02T04:33:03.997Z</time>
</trkpt>
<trkpt lat="13.8200159" lon="100.0602348">
<ele>12.764</ele>
<time>2018-04-02T04:33:04.097Z</time>
</trkpt>
<trkpt lat="13.8199797" lon="100.0603199">
<ele>12.737</ele>
<time>2018-04-02T04:33:27.489Z</time>
</trkpt>
<trkpt lat="13.8199128" lon="100.0603982">
<ele>12.738</ele>
<time>2018-04-02T04:33:36.071Z</time>
</trkpt>
<trkpt lat="13.8198361" lon="100.0604618">
<ele>12.790</ele>
<time>2018-04-02T04:33:44.245Z</time>
</trkpt>
<trkpt lat="13.8197449" lon="100.0604934">
<ele>13.046</ele>
<time>2018-04-02T04:33:52.320Z</time>
</trkpt>
<trkpt lat="13.8196497" lon="100.0605074">
<ele>13.582</ele>
<time>2018-04-02T04:34:01.284Z</time>
</trkpt>
<trkpt lat="13.8195562" lon="100.0604983">
<ele>14.180</ele>
<time>2018-04-02T04:34:11.259Z</time>
</trkpt>
<trkpt lat="13.8194668" lon="100.0604623">
<ele>14.597</ele>
<time>2018-04-02T04:34:22.675Z</time>
</trkpt>
<trkpt lat="13.8194146" lon="100.0603858">
<ele>14.751</ele>
<time>2018-04-02T04:34:32.749Z</time>
</trkpt>
<trkpt lat="13.8193519" lon="100.0603081">
<ele>14.661</ele>
<time>2018-04-02T04:34:41.863Z</time>
</trkpt>
<trkpt lat="13.8192902" lon="100.0602406">
<ele>14.485</ele>
<time>2018-04-02T04:34:49.997Z</time>
</trkpt>
<trkpt lat="13.8192902" lon="100.0602406">
<ele>14.367</ele>
<time>2018-04-02T04:34:56.997Z</time>
</trkpt>
<trkpt lat="13.8192902" lon="100.0602406">
<ele>14.327</ele>
<time>2018-04-02T04:34:57.097Z</time>
</trkpt>
<trkpt lat="13.8192741" lon="100.0601123">
<ele>14.329</ele>
<time>2018-04-02T04:35:11.396Z</time>
</trkpt>
<trkpt lat="13.8193178" lon="100.0600188">
<ele>14.341</ele>
<time>2018-04-02T04:35:18.267Z</time>
</trkpt>
<trkpt lat="13.8193499" lon="100.0599283">
<ele>14.338</ele>
<time>2018-04-02T04:35:23.997Z</time>
</trkpt>
<trkpt lat="13.8193499" lon="100.0599283">
<ele>14.317</ele>
<time>2018-04-02T04:35:26.997Z</time>
</trkpt>
<trkpt lat="13.8193499" lon="100.0599283">
<ele>14.303</ele>
<time>2018-04-02T04:36:45.265Z</time>
</trkpt>
<trkpt lat="13.8193806" lon="100.0598261">
<ele>14.300</ele>
<time>2018-04-02T04:37:03.001Z</time>
</trkpt>
<trkpt lat="13.8194402" lon="100.0597490">
<ele>14.126</ele>
<time>2018-04-02T04:37:13.618Z</time>
</trkpt>
<trkpt lat="13.8195336" lon="100.0597292">
<ele>13.529</ele>
<time>2018-04-02T04:37:24.606Z</time>
</trkpt>
<trkpt lat="13.8196261" lon="100.0597278">
<ele>12.689</ele>
<time>2018-04-02T04:37:34.931Z</time>
</trkpt>
<trkpt lat="13.8197280" lon="100.0597339">
<ele>12.115</ele>
<time>2018-04-02T04:37:44.438Z</time>
</trkpt>
<trkpt lat="13.8198157" lon="100.0597692">
<ele>12.062</ele>
<time>2018-04-02T04:37:52.172Z</time>
</trkpt>
<trkpt lat="13.8198631" lon="100.0598508">
<ele>12.365</ele>
<time>2018-04-02T04:37:59.895Z</time>
</trkpt>
<trkpt lat="13.8199514" lon="100.0598840">
<ele>12.791</ele>
<time>2018-04-02T04:38:07.815Z</time>
</trkpt>
<trkpt lat="13.8200191" lon="100.0599530">
<ele>13.259</ele>
<time>2018-04-02T04:38:15.847Z</time>
</trkpt>
<trkpt lat="13.8200618" lon="100.0600412">
<ele>13.736</ele>
<time>2018-04-02T04:38:24.510Z</time>
</trkpt>
<trkpt lat="13.8200648" lon="100.0601373">
<ele>14.128</ele>
<time>2018-04-02T04:38:34.668Z</time>
</trkpt>
<trkpt lat="13.8200537" lon="100.0602353">
<ele>14.382</ele>
<time>2018-04-02T04:38:45.121Z</time>
</trkpt>
<trkpt lat="13.8200214" lon="100.0603273">
<ele>14.457</ele>
<time>2018-04-02T04:38:53.992Z</time>
</trkpt>
<trkpt lat="13.8200214" lon="100.0603273">
<ele>14.408</ele>
<time>2018-04-02T04:38:58.992Z</time>
</trkpt>
<trkpt lat="13.8200214" lon="100.0603273">
<ele>14.364</ele>
<time>2018-04-02T04:38:59.092Z</time>
</trkpt>
<trkpt lat="13.8199311" lon="100.0603924">
<ele>14.373</ele>
<time>2018-04-02T04:39:14.739Z</time>
</trkpt>
<trkpt lat="13.8198443" lon="100.0604421">
<ele>14.270</ele>
<time>2018-04-02T04:39:24.531Z</time>
</trkpt>
<trkpt lat="13.8199089" lon="100.0603638">
<ele>13.976</ele>
<time>2018-04-02T04:39:34.991Z</time>
</trkpt>
<trkpt lat="13.8199089" lon="100.0603638">
<ele>13.683</ele>
<time>2018-04-02T04:39:43.991Z</time>
</trkpt>
<trkpt lat="13.8199089" lon="100.0603638">
<ele>13.572</ele>
<time>2018-04-02T04:39:59.613Z</time>
</trkpt>
<trkpt lat="13.8199314" lon="100.0604624">
<ele>13.635</ele>
<time>2018-04-02T04:40:09.997Z</time>
</trkpt>
<trkpt lat="13.8199314" lon="100.0604624">
<ele>13.659</ele>
<time>2018-04-02T04:40:16.998Z</time>
</trkpt>
<trkpt lat="13.8199314" lon="100.0604624">
<ele>13.651</ele>
<time>2018-04-02T04:40:29.999Z</time>
</trkpt>
<trkpt lat="13.8199314" lon="100.0604624">
<ele>13.634</ele>
<time>2018-04-02T04:40:36.381Z</time>
</trkpt>
<trkpt lat="13.8198664" lon="100.0605666">
<ele>13.628</ele>
<time>2018-04-02T04:40:46.672Z</time>
</trkpt>
<trkpt lat="13.8198664" lon="100.0605666">
<ele>13.628</ele>
<time>2018-04-02T04:40:46.672Z</time>
</trkpt>
<trkpt lat="13.8195598" lon="100.0607935">
<ele>10.449</ele>
<time>2018-04-02T04:41:18.998Z</time>
</trkpt>
<trkpt lat="13.8200174" lon="100.0606847">
<ele>10.444</ele>
<time>2018-04-02T04:42:32.618Z</time>
</trkpt>
<trkpt lat="13.8201072" lon="100.0607006">
<ele>10.023</ele>
<time>2018-04-02T04:42:38.579Z</time>
</trkpt>
<trkpt lat="13.8201946" lon="100.0606776">
<ele>8.914</ele>
<time>2018-04-02T04:42:43.997Z</time>
</trkpt>
<trkpt lat="13.8201946" lon="100.0606776">
<ele>7.765</ele>
<time>2018-04-02T04:42:45.997Z</time>
</trkpt>
<trkpt lat="13.8201946" lon="100.0606776">
<ele>7.280</ele>
<time>2018-04-02T04:42:49.616Z</time>
</trkpt>
<trkpt lat="13.8201946" lon="100.0606776">
<ele>7.585</ele>
<time>2018-04-02T04:43:08.996Z</time>
</trkpt>
<trkpt lat="13.8201946" lon="100.0606776">
<ele>7.719</ele>
<time>2018-04-02T04:44:11.999Z</time>
</trkpt>
<trkpt lat="13.8201946" lon="100.0606776">
<ele>7.706</ele>
<time>2018-04-02T04:46:58.996Z</time>
</trkpt>
<trkpt lat="13.8201946" lon="100.0606776">
<ele>7.650</ele>
<time>2018-04-02T04:47:07.938Z</time>
</trkpt>
<trkpt lat="13.8201946" lon="100.0606776">
<ele>7.669</ele>
<time>2018-04-02T04:47:25.995Z</time>
</trkpt>
<trkpt lat="13.8201946" lon="100.0606776">
<ele>7.687</ele>
<time>2018-04-02T04:47:46.995Z</time>
</trkpt>
<trkpt lat="13.8202153" lon="100.0607556">
<ele>9.816</ele>
<time>2018-04-02T04:49:31.993Z</time>
</trkpt>
<trkpt lat="13.8202153" lon="100.0607556">
<ele>9.811</ele>
<time>2018-04-02T04:49:34.993Z</time>
</trkpt>
<trkpt lat="13.8202153" lon="100.0607556">
<ele>9.809</ele>
<time>2018-04-02T04:49:35.093Z</time>
</trkpt>
<trkpt lat="13.8202153" lon="100.0607556">
<ele>9.802</ele>
<time>2018-04-02T04:49:36.993Z</time>
</trkpt>
<trkpt lat="13.8202153" lon="100.0607556">
<ele>9.799</ele>
<time>2018-04-02T04:49:37.093Z</time>
</trkpt>
<trkpt lat="13.8201220" lon="100.0607079">
<ele>9.793</ele>
<time>2018-04-02T04:49:39.992Z</time>
</trkpt>
<trkpt lat="13.8201220" lon="100.0607079">
<ele>9.582</ele>
<time>2018-04-02T04:49:39.993Z</time>
</trkpt>
<trkpt lat="13.8201220" lon="100.0607079">
<ele>9.038</ele>
<time>2018-04-02T04:49:51.468Z</time>
</trkpt>
<trkpt lat="13.8201220" lon="100.0607079">
<ele>8.858</ele>
<time>2018-04-02T04:50:09.992Z</time>
</trkpt>
<trkpt lat="13.8201220" lon="100.0607079">
<ele>9.195</ele>
<time>2018-04-02T04:50:10.092Z</time>
</trkpt>
<trkpt lat="13.8200193" lon="100.0607328">
<ele>9.018</ele>
<time>2018-04-02T04:51:21.120Z</time>
</trkpt>
<trkpt lat="13.8199274" lon="100.0607270">
<ele>8.919</ele>
<time>2018-04-02T04:51:27.899Z</time>
</trkpt>
<trkpt lat="13.8198356" lon="100.0607151">
<ele>8.982</ele>
<time>2018-04-02T04:51:34.337Z</time>
</trkpt>
<trkpt lat="13.8197922" lon="100.0607972">
<ele>9.093</ele>
<time>2018-04-02T04:51:41.368Z</time>
</trkpt>
<trkpt lat="13.8197336" lon="100.0608688">
<ele>9.097</ele>
<time>2018-04-02T04:51:48.998Z</time>
</trkpt>
<trkpt lat="13.8197336" lon="100.0608688">
<ele>8.982</ele>
<time>2018-04-02T04:51:51.998Z</time>
</trkpt>
<trkpt lat="13.8197336" lon="100.0608688">
<ele>8.876</ele>
<time>2018-04-02T04:51:58.705Z</time>
</trkpt>
<trkpt lat="13.8197336" lon="100.0608688">
<ele>8.925</ele>
<time>2018-04-02T04:52:23.998Z</time>
</trkpt>
<trkpt lat="13.8197336" lon="100.0608688">
<ele>8.956</ele>
<time>2018-04-02T04:52:24.098Z</time>
</trkpt>
<trkpt lat="13.8197336" lon="100.0608688">
<ele>8.930</ele>
<time>2018-04-02T04:52:25.997Z</time>
</trkpt>
<trkpt lat="13.8197336" lon="100.0608688">
<ele>8.916</ele>
<time>2018-04-02T04:53:04.813Z</time>
</trkpt>
<trkpt lat="13.8197336" lon="100.0608688">
<ele>8.916</ele>
<time>2018-04-02T04:53:04.813Z</time>
</trkpt>
<trkpt lat="13.8197851" lon="100.0607694">
<ele>10.449</ele>
<time>2018-04-02T04:54:35.995Z</time>
</trkpt>
<trkpt lat="13.8197851" lon="100.0607694">
<ele>10.444</ele>
<time>2018-04-02T04:54:40.995Z</time>
</trkpt>
<trkpt lat="13.8197851" lon="100.0607694">
<ele>10.441</ele>
<time>2018-04-02T04:55:02.994Z</time>
</trkpt>
<trkpt lat="13.8197851" lon="100.0607694">
<ele>10.439</ele>
<time>2018-04-02T04:55:46.514Z</time>
</trkpt>
<trkpt lat="13.8196707" lon="100.0608009">
<ele>10.435</ele>
<time>2018-04-02T04:56:04.717Z</time>
</trkpt>
<trkpt lat="13.8196947" lon="100.0607063">
<ele>10.678</ele>
<time>2018-04-02T04:56:13.993Z</time>
</trkpt>
<trkpt lat="13.8196947" lon="100.0607063">
<ele>11.316</ele>
<time>2018-04-02T04:56:18.992Z</time>
</trkpt>
<trkpt lat="13.8196947" lon="100.0607063">
<ele>11.847</ele>
<time>2018-04-02T04:56:29.107Z</time>
</trkpt>
<trkpt lat="13.8197126" lon="100.0608072">
<ele>11.547</ele>
<time>2018-04-02T04:56:41.781Z</time>
</trkpt>
<trkpt lat="13.8197547" lon="100.0608899">
<ele>11.583</ele>
<time>2018-04-02T04:56:48.992Z</time>
</trkpt>
<trkpt lat="13.8197547" lon="100.0608899">
<ele>12.150</ele>
<time>2018-04-02T04:56:48.992Z</time>
</trkpt>
<trkpt lat="13.8197547" lon="100.0608899">
<ele>12.682</ele>
<time>2018-04-02T04:56:59.283Z</time>
</trkpt>
<trkpt lat="13.8197547" lon="100.0608899">
<ele>12.386</ele>
<time>2018-04-02T04:57:07.991Z</time>
</trkpt>
<trkpt lat="13.8197547" lon="100.0608899">
<ele>12.203</ele>
<time>2018-04-02T04:57:19.263Z</time>
</trkpt>
<trkpt lat="13.8197002" lon="100.0609812">
<ele>12.208</ele>
<time>2018-04-02T04:57:34.991Z</time>
</trkpt>
<trkpt lat="13.8197002" lon="100.0609812">
<ele>12.272</ele>
<time>2018-04-02T04:57:41.991Z</time>
</trkpt>
<trkpt lat="13.8197002" lon="100.0609812">
<ele>12.274</ele>
<time>2018-04-02T04:57:42.091Z</time>
</trkpt>
<trkpt lat="13.8197126" lon="100.0610806">
<ele>12.232</ele>
<time>2018-04-02T04:58:04.998Z</time>
</trkpt>
<trkpt lat="13.8197126" lon="100.0610806">
<ele>12.203</ele>
<time>2018-04-02T04:58:09.998Z</time>
</trkpt>
<trkpt lat="13.8197126" lon="100.0610806">
<ele>12.196</ele>
<time>2018-04-02T04:58:23.999Z</time>
</trkpt>
<trkpt lat="13.8197126" lon="100.0610806">
<ele>12.194</ele>
<time>2018-04-02T04:58:26.102Z</time>
</trkpt>
<trkpt lat="13.8196159" lon="100.0610504">
<ele>12.185</ele>
<time>2018-04-02T04:59:12.998Z</time>
</trkpt>
<trkpt lat="13.8196159" lon="100.0610504">
<ele>12.181</ele>
<time>2018-04-02T04:59:21.998Z</time>
</trkpt>
<trkpt lat="13.8196159" lon="100.0610504">
<ele>12.175</ele>
<time>2018-04-02T05:00:16.921Z</time>
</trkpt>
<trkpt lat="13.8197074" lon="100.0610308">
<ele>12.166</ele>
<time>2018-04-02T05:00:48.485Z</time>
</trkpt>
<trkpt lat="13.8197533" lon="100.0609331">
<ele>11.772</ele>
<time>2018-04-02T05:01:06.813Z</time>
</trkpt>
<trkpt lat="13.8197685" lon="100.0610352">
<ele>10.708</ele>
<time>2018-04-02T05:01:24.174Z</time>
</trkpt>
<trkpt lat="13.8197457" lon="100.0611262">
<ele>9.505</ele>
<time>2018-04-02T05:01:35.230Z</time>
</trkpt>
<trkpt lat="13.8197655" lon="100.0612171">
<ele>8.569</ele>
<time>2018-04-02T05:01:46.353Z</time>
</trkpt>
<trkpt lat="13.8198276" lon="100.0612840">
<ele>7.781</ele>
<time>2018-04-02T05:01:57.804Z</time>
</trkpt>
<trkpt lat="13.8197854" lon="100.0613778">
<ele>7.265</ele>
<time>2018-04-02T05:02:08.790Z</time>
</trkpt>
<trkpt lat="13.8197738" lon="100.0614753">
<ele>7.126</ele>
<time>2018-04-02T05:02:17.944Z</time>
</trkpt>
<trkpt lat="13.8197818" lon="100.0613724">
<ele>7.138</ele>
<time>2018-04-02T05:02:28.704Z</time>
</trkpt>
<trkpt lat="13.8197803" lon="100.0612787">
<ele>6.937</ele>
<time>2018-04-02T05:02:38.861Z</time>
</trkpt>
<trkpt lat="13.8197122" lon="100.0612123">
<ele>6.426</ele>
<time>2018-04-02T05:02:48.350Z</time>
</trkpt>
<trkpt lat="13.8197566" lon="100.0611192">
<ele>5.963</ele>
<time>2018-04-02T05:03:00.366Z</time>
</trkpt>
<trkpt lat="13.8197169" lon="100.0610296">
<ele>5.930</ele>
<time>2018-04-02T05:03:13.305Z</time>
</trkpt>
<trkpt lat="13.8196983" lon="100.0609281">
<ele>6.308</ele>
<time>2018-04-02T05:03:25.010Z</time>
</trkpt>
<trkpt lat="13.8196558" lon="100.0608366">
<ele>6.777</ele>
<time>2018-04-02T05:03:38.997Z</time>
</trkpt>
<trkpt lat="13.8196558" lon="100.0608366">
<ele>7.058</ele>
<time>2018-04-02T05:05:02.996Z</time>
</trkpt>
<trkpt lat="13.8196558" lon="100.0608366">
<ele>7.136</ele>
<time>2018-04-02T05:05:49.751Z</time>
</trkpt>
<trkpt lat="13.8197529" lon="100.0608809">
<ele>7.113</ele>
<time>2018-04-02T05:06:03.995Z</time>
</trkpt>
<trkpt lat="13.8197529" lon="100.0608809">
<ele>7.080</ele>
<time>2018-04-02T05:06:08.995Z</time>
</trkpt>
<trkpt lat="13.8197529" lon="100.0608809">
<ele>7.077</ele>
<time>2018-04-02T05:06:13.259Z</time>
</trkpt>
<trkpt lat="13.8196447" lon="100.0608524">
<ele>7.086</ele>
<time>2018-04-02T05:06:24.573Z</time>
</trkpt>
<trkpt lat="13.8196644" lon="100.0609472">
<ele>7.151</ele>
<time>2018-04-02T05:06:31.868Z</time>
</trkpt>
<trkpt lat="13.8196895" lon="100.0610446">
<ele>7.384</ele>
<time>2018-04-02T05:06:39.229Z</time>
</trkpt>
<trkpt lat="13.8197452" lon="100.0611300">
<ele>7.703</ele>
<time>2018-04-02T05:06:44.994Z</time>
</trkpt>
<trkpt lat="13.8197452" lon="100.0611300">
<ele>7.924</ele>
<time>2018-04-02T05:06:44.994Z</time>
</trkpt>
<trkpt lat="13.8197452" lon="100.0611300">
<ele>7.995</ele>
<time>2018-04-02T05:10:25.241Z</time>
</trkpt>
<trkpt lat="13.8197560" lon="100.0612228">
<ele>7.939</ele>
<time>2018-04-02T05:11:35.998Z</time>
</trkpt>
<trkpt lat="13.8197560" lon="100.0612228">
<ele>7.915</ele>
<time>2018-04-02T05:11:48.997Z</time>
</trkpt>
<trkpt lat="13.8197560" lon="100.0612228">
<ele>7.907</ele>
<time>2018-04-02T05:11:49.097Z</time>
</trkpt>
<trkpt lat="13.8197691" lon="100.0613673">
<ele>7.906</ele>
<time>2018-04-02T05:11:55.997Z</time>
</trkpt>
<trkpt lat="13.8197691" lon="100.0613673">
<ele>7.904</ele>
<time>2018-04-02T05:12:00.997Z</time>
</trkpt>
<trkpt lat="13.8197691" lon="100.0613673">
<ele>7.901</ele>
<time>2018-04-02T05:12:01.097Z</time>
</trkpt>
<trkpt lat="13.8196579" lon="100.0613942">
<ele>7.895</ele>
<time>2018-04-02T05:12:34.953Z</time>
</trkpt>
<trkpt lat="13.8195672" lon="100.0614305">
<ele>7.723</ele>
<time>2018-04-02T05:12:41.246Z</time>
</trkpt>
<trkpt lat="13.8194776" lon="100.0614449">
<ele>7.217</ele>
<time>2018-04-02T05:12:45.997Z</time>
</trkpt>
<trkpt lat="13.8194776" lon="100.0614449">
<ele>6.663</ele>
<time>2018-04-02T05:12:48.997Z</time>
</trkpt>
<trkpt lat="13.8194776" lon="100.0614449">
<ele>6.441</ele>
<time>2018-04-02T05:15:14.811Z</time>
</trkpt>
<trkpt lat="13.8195715" lon="100.0614218">
<ele>6.594</ele>
<time>2018-04-02T05:15:27.688Z</time>
</trkpt>
<trkpt lat="13.8196634" lon="100.0614034">
<ele>6.597</ele>
<time>2018-04-02T05:15:33.995Z</time>
</trkpt>
<trkpt lat="13.8196634" lon="100.0614034">
<ele>6.461</ele>
<time>2018-04-02T05:15:43.995Z</time>
</trkpt>
<trkpt lat="13.8196634" lon="100.0614034">
<ele>6.330</ele>
<time>2018-04-02T05:16:14.090Z</time>
</trkpt>
<trkpt lat="13.8197932" lon="100.0614335">
<ele>6.328</ele>
<time>2018-04-02T05:16:25.999Z</time>
</trkpt>
<trkpt lat="13.8197932" lon="100.0614335">
<ele>6.376</ele>
<time>2018-04-02T05:16:27.999Z</time>
</trkpt>
<trkpt lat="13.8197932" lon="100.0614335">
<ele>6.379</ele>
<time>2018-04-02T05:16:28.099Z</time>
</trkpt>
<trkpt lat="13.8197932" lon="100.0614335">
<ele>6.349</ele>
<time>2018-04-02T05:16:29.999Z</time>
</trkpt>
<trkpt lat="13.8197932" lon="100.0614335">
<ele>6.355</ele>
<time>2018-04-02T05:16:30.099Z</time>
</trkpt>
<trkpt lat="13.8197585" lon="100.0612971">
<ele>6.355</ele>
<time>2018-04-02T05:16:40.771Z</time>
</trkpt>
<trkpt lat="13.8198030" lon="100.0612115">
<ele>6.321</ele>
<time>2018-04-02T05:16:45.632Z</time>
</trkpt>
<trkpt lat="13.8197200" lon="100.0611760">
<ele>6.223</ele>
<time>2018-04-02T05:16:50.999Z</time>
</trkpt>
<trkpt lat="13.8197200" lon="100.0611760">
<ele>6.092</ele>
<time>2018-04-02T05:17:02.999Z</time>
</trkpt>
<trkpt lat="13.8197200" lon="100.0611760">
<ele>6.013</ele>
<time>2018-04-02T05:17:03.099Z</time>
</trkpt>
<trkpt lat="13.8197564" lon="100.0610346">
<ele>6.033</ele>
<time>2018-04-02T05:17:20.796Z</time>
</trkpt>
<trkpt lat="13.8197126" lon="100.0609472">
<ele>6.206</ele>
<time>2018-04-02T05:17:28.497Z</time>
</trkpt>
<trkpt lat="13.8197346" lon="100.0608550">
<ele>6.582</ele>
<time>2018-04-02T05:17:34.998Z</time>
</trkpt>
<trkpt lat="13.8197346" lon="100.0608550">
<ele>6.966</ele>
<time>2018-04-02T05:17:36.998Z</time>
</trkpt>
<trkpt lat="13.8197346" lon="100.0608550">
<ele>7.100</ele>
<time>2018-04-02T05:17:50.586Z</time>
</trkpt>
<trkpt lat="13.8198249" lon="100.0608569">
<ele>6.984</ele>
<time>2018-04-02T05:18:02.998Z</time>
</trkpt>
<trkpt lat="13.8198249" lon="100.0608569">
<ele>6.955</ele>
<time>2018-04-02T05:18:04.998Z</time>
</trkpt>
<trkpt lat="13.8198249" lon="100.0608569">
<ele>6.955</ele>
<time>2018-04-02T05:20:49.436Z</time>
</trkpt>
<trkpt lat="13.8197265" lon="100.0608698">
<ele>6.960</ele>
<time>2018-04-02T05:21:18.700Z</time>
</trkpt>
<trkpt lat="13.8196295" lon="100.0608764">
<ele>7.360</ele>
<time>2018-04-02T05:21:43.965Z</time>
</trkpt>
<trkpt lat="13.8195439" lon="100.0608293">
<ele>8.457</ele>
<time>2018-04-02T05:21:56.997Z</time>
</trkpt>
<trkpt lat="13.8195439" lon="100.0608293">
<ele>9.609</ele>
<time>2018-04-02T05:21:58.997Z</time>
</trkpt>
<trkpt lat="13.8195439" lon="100.0608293">
<ele>10.088</ele>
<time>2018-04-02T05:24:10.349Z</time>
</trkpt>
<trkpt lat="13.8196358" lon="100.0607711">
<ele>9.764</ele>
<time>2018-04-02T05:24:18.995Z</time>
</trkpt>
<trkpt lat="13.8196358" lon="100.0607711">
<ele>9.628</ele>
<time>2018-04-02T05:24:24.995Z</time>
</trkpt>
<trkpt lat="13.8196358" lon="100.0607711">
<ele>9.634</ele>
<time>2018-04-02T05:24:38.994Z</time>
</trkpt>
<trkpt lat="13.8196358" lon="100.0607711">
<ele>9.681</ele>
<time>2018-04-02T05:24:39.094Z</time>
</trkpt>
<trkpt lat="13.8196717" lon="100.0606710">
<ele>9.682</ele>
<time>2018-04-02T05:24:55.105Z</time>
</trkpt>
<trkpt lat="13.8196147" lon="100.0605982">
<ele>9.736</ele>
<time>2018-04-02T05:25:02.758Z</time>
</trkpt>
<trkpt lat="13.8195262" lon="100.0605479">
<ele>10.028</ele>
<time>2018-04-02T05:25:10.521Z</time>
</trkpt>
<trkpt lat="13.8194395" lon="100.0605207">
<ele>10.494</ele>
<time>2018-04-02T05:25:18.560Z</time>
</trkpt>
<trkpt lat="13.8193768" lon="100.0604486">
<ele>10.776</ele>
<time>2018-04-02T05:25:26.338Z</time>
</trkpt>
<trkpt lat="13.8193345" lon="100.0603575">
<ele>10.708</ele>
<time>2018-04-02T05:25:32.855Z</time>
</trkpt>
<trkpt lat="13.8192756" lon="100.0602638">
<ele>10.607</ele>
<time>2018-04-02T05:25:38.713Z</time>
</trkpt>
<trkpt lat="13.8192444" lon="100.0601510">
<ele>11.173</ele>
<time>2018-04-02T05:25:43.714Z</time>
</trkpt>
<trkpt lat="13.8192440" lon="100.0600489">
<ele>11.873</ele>
<time>2018-04-02T05:25:48.033Z</time>
</trkpt>
<trkpt lat="13.8193021" lon="100.0599481">
<ele>12.669</ele>
<time>2018-04-02T05:25:53.103Z</time>
</trkpt>
<trkpt lat="13.8193522" lon="100.0598641">
<ele>13.163</ele>
<time>2018-04-02T05:25:56.939Z</time>
</trkpt>
<trkpt lat="13.8194300" lon="100.0597824">
<ele>13.246</ele>
<time>2018-04-02T05:26:01.119Z</time>
</trkpt>
<trkpt lat="13.8195042" lon="100.0597203">
<ele>13.072</ele>
<time>2018-04-02T05:26:04.628Z</time>
</trkpt>
<trkpt lat="13.8195953" lon="100.0596931">
<ele>12.756</ele>
<time>2018-04-02T05:26:08.052Z</time>
</trkpt>
<trkpt lat="13.8196893" lon="100.0596936">
<ele>12.395</ele>
<time>2018-04-02T05:26:11.444Z</time>
</trkpt>
<trkpt lat="13.8197921" lon="100.0597149">
<ele>12.142</ele>
<time>2018-04-02T05:26:15.280Z</time>
</trkpt>
<trkpt lat="13.8198896" lon="100.0597553">
<ele>12.126</ele>
<time>2018-04-02T05:26:19.225Z</time>
</trkpt>
<trkpt lat="13.8199731" lon="100.0598032">
<ele>12.352</ele>
<time>2018-04-02T05:26:22.946Z</time>
</trkpt>
<trkpt lat="13.8200276" lon="100.0598885">
<ele>12.673</ele>
<time>2018-04-02T05:26:27.065Z</time>
</trkpt>
<trkpt lat="13.8200478" lon="100.0599830">
<ele>13.012</ele>
<time>2018-04-02T05:26:32.217Z</time>
</trkpt>
<trkpt lat="13.8200644" lon="100.0600853">
<ele>13.160</ele>
<time>2018-04-02T05:26:38.417Z</time>
</trkpt>
<trkpt lat="13.8200485" lon="100.0601878">
<ele>13.586</ele>
<time>2018-04-02T05:26:46.259Z</time>
</trkpt>
<trkpt lat="13.8200123" lon="100.0602742">
<ele>14.165</ele>
<time>2018-04-02T05:26:53.719Z</time>
</trkpt>
<trkpt lat="13.8199425" lon="100.0603454">
<ele>14.563</ele>
<time>2018-04-02T05:27:01.343Z</time>
</trkpt>
<trkpt lat="13.8198663" lon="100.0604036">
<ele>14.681</ele>
<time>2018-04-02T05:27:08.479Z</time>
</trkpt>
<trkpt lat="13.8197833" lon="100.0604635">
<ele>14.635</ele>
<time>2018-04-02T05:27:16.384Z</time>
</trkpt>
<trkpt lat="13.8198743" lon="100.0604282">
<ele>14.615</ele>
<time>2018-04-02T05:27:25.696Z</time>
</trkpt>
<trkpt lat="13.8199558" lon="100.0603784">
<ele>14.718</ele>
<time>2018-04-02T05:27:34.895Z</time>
</trkpt>
<trkpt lat="13.8199008" lon="100.0604548">
<ele>14.734</ele>
<time>2018-04-02T05:27:43.125Z</time>
</trkpt>
<trkpt lat="13.8198033" lon="100.0604818">
<ele>14.420</ele>
<time>2018-04-02T05:27:51.769Z</time>
</trkpt>
<trkpt lat="13.8197251" lon="100.0605365">
<ele>13.914</ele>
<time>2018-04-02T05:27:58.342Z</time>
</trkpt>
<trkpt lat="13.8196307" lon="100.0605626">
<ele>13.524</ele>
<time>2018-04-02T05:28:05.248Z</time>
</trkpt>
<trkpt lat="13.8196195" lon="100.0606670">
<ele>13.356</ele>
<time>2018-04-02T05:28:13.641Z</time>
</trkpt>
<trkpt lat="13.8196226" lon="100.0607650">
<ele>13.269</ele>
<time>2018-04-02T05:28:20.997Z</time>
</trkpt>
<trkpt lat="13.8196226" lon="100.0607650">
<ele>13.118</ele>
<time>2018-04-02T05:28:28.997Z</time>
</trkpt>
<trkpt lat="13.8196226" lon="100.0607650">
<ele>12.986</ele>
<time>2018-04-02T05:30:27.577Z</time>
</trkpt>
<trkpt lat="13.8196869" lon="100.0608578">
<ele>12.983</ele>
<time>2018-04-02T05:30:49.436Z</time>
</trkpt>
<trkpt lat="13.8196839" lon="100.0609514">
<ele>12.631</ele>
<time>2018-04-02T05:31:04.057Z</time>
</trkpt>
<trkpt lat="13.8196948" lon="100.0610492">
<ele>11.484</ele>
<time>2018-04-02T05:31:15.514Z</time>
</trkpt>
<trkpt lat="13.8196790" lon="100.0611445">
<ele>10.085</ele>
<time>2018-04-02T05:31:24.450Z</time>
</trkpt>
<trkpt lat="13.8196457" lon="100.0612478">
<ele>9.233</ele>
<time>2018-04-02T05:31:34.713Z</time>
</trkpt>
<trkpt lat="13.8197326" lon="100.0612756">
<ele>8.980</ele>
<time>2018-04-02T05:31:43.771Z</time>
</trkpt>
<trkpt lat="13.8197261" lon="100.0613748">
<ele>8.783</ele>
<time>2018-04-02T05:31:56.993Z</time>
</trkpt>
<trkpt lat="13.8197261" lon="100.0613748">
<ele>8.257</ele>
<time>2018-04-02T05:31:57.993Z</time>
</trkpt>
<trkpt lat="13.8197261" lon="100.0613748">
<ele>7.788</ele>
<time>2018-04-02T05:32:02.456Z</time>
</trkpt>
<trkpt lat="13.8196450" lon="100.0614223">
<ele>8.034</ele>
<time>2018-04-02T05:32:20.244Z</time>
</trkpt>
<trkpt lat="13.8195520" lon="100.0614134">
<ele>8.283</ele>
<time>2018-04-02T05:32:31.055Z</time>
</trkpt>
<trkpt lat="13.8194606" lon="100.0614375">
<ele>8.541</ele>
<time>2018-04-02T05:32:41.611Z</time>
</trkpt>
<trkpt lat="13.8193689" lon="100.0614391">
<ele>8.766</ele>
<time>2018-04-02T05:32:52.084Z</time>
</trkpt>
<trkpt lat="13.8192833" lon="100.0614728">
<ele>8.824</ele>
<time>2018-04-02T05:33:02.937Z</time>
</trkpt>
<trkpt lat="13.8191854" lon="100.0614874">
<ele>8.589</ele>
<time>2018-04-02T05:33:15.302Z</time>
</trkpt>
<trkpt lat="13.8190881" lon="100.0615066">
<ele>8.100</ele>
<time>2018-04-02T05:33:28.605Z</time>
</trkpt>
<trkpt lat="13.8190017" lon="100.0615371">
<ele>7.590</ele>
<time>2018-04-02T05:33:38.387Z</time>
</trkpt>
<trkpt lat="13.8189102" lon="100.0615431">
<ele>7.149</ele>
<time>2018-04-02T05:33:47.785Z</time>
</trkpt>
<trkpt lat="13.8188198" lon="100.0615392">
<ele>6.751</ele>
<time>2018-04-02T05:33:58.999Z</time>
</trkpt>
<trkpt lat="13.8188198" lon="100.0615392">
<ele>6.509</ele>
<time>2018-04-02T05:33:59.999Z</time>
</trkpt>
<trkpt lat="13.8188198" lon="100.0615392">
<ele>6.483</ele>
<time>2018-04-02T05:36:42.442Z</time>
</trkpt>
<trkpt lat="13.8188198" lon="100.0615392">
<ele>6.552</ele>
<time>2018-04-02T05:37:22.999Z</time>
</trkpt>
<trkpt lat="13.8188198" lon="100.0615392">
<ele>6.533</ele>
<time>2018-04-02T05:37:23.099Z</time>
</trkpt>
<trkpt lat="13.8189252" lon="100.0615434">
<ele>6.524</ele>
<time>2018-04-02T05:37:47.706Z</time>
</trkpt>
<trkpt lat="13.8190165" lon="100.0615359">
<ele>6.700</ele>
<time>2018-04-02T05:37:53.999Z</time>
</trkpt>
<trkpt lat="13.8190165" lon="100.0615359">
<ele>7.149</ele>
<time>2018-04-02T05:38:01.999Z</time>
</trkpt>
<trkpt lat="13.8190165" lon="100.0615359">
<ele>7.520</ele>
<time>2018-04-02T05:38:31.314Z</time>
</trkpt>
<trkpt lat="13.8191188" lon="100.0615262">
<ele>7.510</ele>
<time>2018-04-02T05:38:44.663Z</time>
</trkpt>
<trkpt lat="13.8192052" lon="100.0614838">
<ele>7.311</ele>
<time>2018-04-02T05:38:51.256Z</time>
</trkpt>
<trkpt lat="13.8192946" lon="100.0614698">
<ele>7.204</ele>
<time>2018-04-02T05:38:56.278Z</time>
</trkpt>
<trkpt lat="13.8193890" lon="100.0614891">
<ele>7.251</ele>
<time>2018-04-02T05:39:02.881Z</time>
</trkpt>
<trkpt lat="13.8194806" lon="100.0614491">
<ele>7.324</ele>
<time>2018-04-02T05:39:09.915Z</time>
</trkpt>
<trkpt lat="13.8195665" lon="100.0614044">
<ele>7.301</ele>
<time>2018-04-02T05:39:19.791Z</time>
</trkpt>
<trkpt lat="13.8196601" lon="100.0614186">
<ele>7.217</ele>
<time>2018-04-02T05:39:28.997Z</time>
</trkpt>
<trkpt lat="13.8196601" lon="100.0614186">
<ele>7.162</ele>
<time>2018-04-02T05:39:41.997Z</time>
</trkpt>
<trkpt lat="13.8196601" lon="100.0614186">
<ele>7.162</ele>
<time>2018-04-02T05:44:21.639Z</time>
</trkpt>
<trkpt lat="13.8197774" lon="100.0613826">
<ele>7.179</ele>
<time>2018-04-02T05:44:34.992Z</time>
</trkpt>
<trkpt lat="13.8197774" lon="100.0613826">
<ele>7.178</ele>
<time>2018-04-02T05:44:47.998Z</time>
</trkpt>
<trkpt lat="13.8197774" lon="100.0613826">
<ele>7.167</ele>
<time>2018-04-02T05:47:58.294Z</time>
</trkpt>
<trkpt lat="13.8198508" lon="100.0615517">
<ele>7.164</ele>
<time>2018-04-02T05:48:05.349Z</time>
</trkpt>
<trkpt lat="13.8198862" lon="100.0617236">
<ele>7.602</ele>
<time>2018-04-02T05:48:08.354Z</time>
</trkpt>
<trkpt lat="13.8199363" lon="100.0620089">
<ele>8.738</ele>
<time>2018-04-02T05:48:12.592Z</time>
</trkpt>
<trkpt lat="13.8199388" lon="100.0621056">
<ele>9.802</ele>
<time>2018-04-02T05:48:13.996Z</time>
</trkpt>
<trkpt lat="13.8199388" lon="100.0621056">
<ele>10.089</ele>
<time>2018-04-02T05:48:17.996Z</time>
</trkpt>
<trkpt lat="13.8199388" lon="100.0621056">
<ele>9.929</ele>
<time>2018-04-02T05:49:02.698Z</time>
</trkpt>
<trkpt lat="13.8197716" lon="100.0621478">
<ele>9.781</ele>
<time>2018-04-02T05:49:09.417Z</time>
</trkpt>
<trkpt lat="13.8194816" lon="100.0621882">
<ele>9.353</ele>
<time>2018-04-02T05:49:13.391Z</time>
</trkpt>
<trkpt lat="13.8191949" lon="100.0622325">
<ele>8.348</ele>
<time>2018-04-02T05:49:16.639Z</time>
</trkpt>
<trkpt lat="13.8189638" lon="100.0622785">
<ele>7.373</ele>
<time>2018-04-02T05:49:19.263Z</time>
</trkpt>
<trkpt lat="13.8186970" lon="100.0622865">
<ele>7.038</ele>
<time>2018-04-02T05:49:22.475Z</time>
</trkpt>
<trkpt lat="13.8185083" lon="100.0623017">
<ele>7.152</ele>
<time>2018-04-02T05:49:25.183Z</time>
</trkpt>
<trkpt lat="13.8183048" lon="100.0623350">
<ele>7.354</ele>
<time>2018-04-02T05:49:29.597Z</time>
</trkpt>
<trkpt lat="13.8182109" lon="100.0623665">
<ele>7.474</ele>
<time>2018-04-02T05:49:33.298Z</time>
</trkpt>
<trkpt lat="13.8182500" lon="100.0624498">
<ele>7.501</ele>
<time>2018-04-02T05:49:34.816Z</time>
</trkpt>
<trkpt lat="13.8182500" lon="100.0624498">
<ele>7.501</ele>
<time>2018-04-02T05:49:34.816Z</time>
</trkpt>
<trkpt lat="13.8178017" lon="100.0611534">
<ele>6.174</ele>
<time>2018-04-02T05:49:53.437Z</time>
</trkpt>
<trkpt lat="13.8177226" lon="100.0608272">
<ele>6.171</ele>
<time>2018-04-02T05:49:56.707Z</time>
</trkpt>
<trkpt lat="13.8176725" lon="100.0605286">
<ele>5.967</ele>
<time>2018-04-02T05:49:59.617Z</time>
</trkpt>
<trkpt lat="13.8176243" lon="100.0602674">
<ele>5.342</ele>
<time>2018-04-02T05:50:02.053Z</time>
</trkpt>
<trkpt lat="13.8175716" lon="100.0599451">
<ele>4.456</ele>
<time>2018-04-02T05:50:04.989Z</time>
</trkpt>
<trkpt lat="13.8175197" lon="100.0596540">
<ele>3.566</ele>
<time>2018-04-02T05:50:07.559Z</time>
</trkpt>
<trkpt lat="13.8174683" lon="100.0593362">
<ele>2.674</ele>
<time>2018-04-02T05:50:10.238Z</time>
</trkpt>
<trkpt lat="13.8174081" lon="100.0589956">
<ele>1.867</ele>
<time>2018-04-02T05:50:13.055Z</time>
</trkpt>
<trkpt lat="13.8173517" lon="100.0586482">
<ele>1.513</ele>
<time>2018-04-02T05:50:16.028Z</time>
</trkpt>
<trkpt lat="13.8173021" lon="100.0583412">
<ele>1.824</ele>
<time>2018-04-02T05:50:18.810Z</time>
</trkpt>
<trkpt lat="13.8172474" lon="100.0580285">
<ele>2.616</ele>
<time>2018-04-02T05:50:21.730Z</time>
</trkpt>
<trkpt lat="13.8172041" lon="100.0577401">
<ele>3.520</ele>
<time>2018-04-02T05:50:24.431Z</time>
</trkpt>
<trkpt lat="13.8171468" lon="100.0574346">
<ele>4.367</ele>
<time>2018-04-02T05:50:27.373Z</time>
</trkpt>
<trkpt lat="13.8170809" lon="100.0571232">
<ele>5.142</ele>
<time>2018-04-02T05:50:30.357Z</time>
</trkpt>
<trkpt lat="13.8170349" lon="100.0567918">
<ele>5.751</ele>
<time>2018-04-02T05:50:33.255Z</time>
</trkpt>
<trkpt lat="13.8169735" lon="100.0564108">
<ele>6.092</ele>
<time>2018-04-02T05:50:36.443Z</time>
</trkpt>
<trkpt lat="13.8169106" lon="100.0560836">
<ele>6.219</ele>
<time>2018-04-02T05:50:39.207Z</time>
</trkpt>
<trkpt lat="13.8168537" lon="100.0557552">
<ele>6.211</ele>
<time>2018-04-02T05:50:42.071Z</time>
</trkpt>
<trkpt lat="13.8168048" lon="100.0554238">
<ele>6.261</ele>
<time>2018-04-02T05:50:44.756Z</time>
</trkpt>
<trkpt lat="13.8167379" lon="100.0549767">
<ele>6.487</ele>
<time>2018-04-02T05:50:47.879Z</time>
</trkpt>
<trkpt lat="13.8166579" lon="100.0545150">
<ele>6.765</ele>
<time>2018-04-02T05:50:50.871Z</time>
</trkpt>
<trkpt lat="13.8165728" lon="100.0540221">
<ele>6.865</ele>
<time>2018-04-02T05:50:54.363Z</time>
</trkpt>
<trkpt lat="13.8165254" lon="100.0537184">
<ele>6.735</ele>
<time>2018-04-02T05:50:56.829Z</time>
</trkpt>
<trkpt lat="13.8164665" lon="100.0534146">
<ele>6.515</ele>
<time>2018-04-02T05:50:59.771Z</time>
</trkpt>
<trkpt lat="13.8164638" lon="100.0532351">
<ele>6.353</ele>
<time>2018-04-02T05:51:01.785Z</time>
</trkpt>
<trkpt lat="13.8164287" lon="100.0530085">
<ele>6.263</ele>
<time>2018-04-02T05:51:04.410Z</time>
</trkpt>
<trkpt lat="13.8163810" lon="100.0527626">
<ele>6.114</ele>
<time>2018-04-02T05:51:07.295Z</time>
</trkpt>
<trkpt lat="13.8163289" lon="100.0525315">
<ele>5.838</ele>
<time>2018-04-02T05:51:10.234Z</time>
</trkpt>
<trkpt lat="13.8163225" lon="100.0523474">
<ele>5.443</ele>
<time>2018-04-02T05:51:13.000Z</time>
</trkpt>
<trkpt lat="13.8163049" lon="100.0522197">
<ele>4.968</ele>
<time>2018-04-02T05:51:15.538Z</time>
</trkpt>
<trkpt lat="13.8162901" lon="100.0521203">
<ele>4.686</ele>
<time>2018-04-02T05:51:18.285Z</time>
</trkpt>
<trkpt lat="13.8162781" lon="100.0520055">
<ele>4.830</ele>
<time>2018-04-02T05:51:21.992Z</time>
</trkpt>
<trkpt lat="13.8162781" lon="100.0520055">
<ele>5.187</ele>
<time>2018-04-02T05:51:27.992Z</time>
</trkpt>
<trkpt lat="13.8162781" lon="100.0520055">
<ele>5.408</ele>
<time>2018-04-02T05:52:14.919Z</time>
</trkpt>
<trkpt lat="13.8162988" lon="100.0517772">
<ele>5.393</ele>
<time>2018-04-02T05:52:25.301Z</time>
</trkpt>
<trkpt lat="13.8162648" lon="100.0515951">
<ele>5.915</ele>
<time>2018-04-02T05:52:28.257Z</time>
</trkpt>
<trkpt lat="13.8161941" lon="100.0513542">
<ele>7.498</ele>
<time>2018-04-02T05:52:31.273Z</time>
</trkpt>
<trkpt lat="13.8161363" lon="100.0510484">
<ele>8.985</ele>
<time>2018-04-02T05:52:34.356Z</time>
</trkpt>
<trkpt lat="13.8160921" lon="100.0507506">
<ele>9.292</ele>
<time>2018-04-02T05:52:37.039Z</time>
</trkpt>
<trkpt lat="13.8160283" lon="100.0504171">
<ele>8.905</ele>
<time>2018-04-02T05:52:39.739Z</time>
</trkpt>
<trkpt lat="13.8159588" lon="100.0500524">
<ele>8.430</ele>
<time>2018-04-02T05:52:42.571Z</time>
</trkpt>
<trkpt lat="13.8159128" lon="100.0497741">
<ele>8.004</ele>
<time>2018-04-02T05:52:45.017Z</time>
</trkpt>
<trkpt lat="13.8158469" lon="100.0495356">
<ele>7.722</ele>
<time>2018-04-02T05:52:47.850Z</time>
</trkpt>
<trkpt lat="13.8157999" lon="100.0494093">
<ele>7.607</ele>
<time>2018-04-02T05:52:49.979Z</time>
</trkpt>
<trkpt lat="13.8157593" lon="100.0492640">
<ele>7.492</ele>
<time>2018-04-02T05:52:53.238Z</time>
</trkpt>
<trkpt lat="13.8157603" lon="100.0491702">
<ele>7.203</ele>
<time>2018-04-02T05:52:55.583Z</time>
</trkpt>
<trkpt lat="13.8157672" lon="100.0489220">
<ele>6.783</ele>
<time>2018-04-02T05:53:00.992Z</time>
</trkpt>
<trkpt lat="13.8157562" lon="100.0487922">
<ele>6.519</ele>
<time>2018-04-02T05:53:04.367Z</time>
</trkpt>
<trkpt lat="13.8157497" lon="100.0486856">
<ele>6.563</ele>
<time>2018-04-02T05:53:07.308Z</time>
</trkpt>
<trkpt lat="13.8157212" lon="100.0485487">
<ele>6.750</ele>
<time>2018-04-02T05:53:10.544Z</time>
</trkpt>
<trkpt lat="13.8157130" lon="100.0484263">
<ele>6.887</ele>
<time>2018-04-02T05:53:12.641Z</time>
</trkpt>
<trkpt lat="13.8156537" lon="100.0481146">
<ele>6.924</ele>
<time>2018-04-02T05:53:15.823Z</time>
</trkpt>
<trkpt lat="13.8155535" lon="100.0476546">
<ele>6.888</ele>
<time>2018-04-02T05:53:19.530Z</time>
</trkpt>
<trkpt lat="13.8155437" lon="100.0474770">
<ele>6.910</ele>
<time>2018-04-02T05:53:21.018Z</time>
</trkpt>
<trkpt lat="13.8155118" lon="100.0472044">
<ele>7.224</ele>
<time>2018-04-02T05:53:23.475Z</time>
</trkpt>
<trkpt lat="13.8154778" lon="100.0469467">
<ele>7.880</ele>
<time>2018-04-02T05:53:25.955Z</time>
</trkpt>
<trkpt lat="13.8154209" lon="100.0466040">
<ele>8.563</ele>
<time>2018-04-02T05:53:29.416Z</time>
</trkpt>
<trkpt lat="13.8153878" lon="100.0464056">
<ele>8.945</ele>
<time>2018-04-02T05:53:31.535Z</time>
</trkpt>
<trkpt lat="13.8153554" lon="100.0461994">
<ele>9.001</ele>
<time>2018-04-02T05:53:33.961Z</time>
</trkpt>
<trkpt lat="13.8153416" lon="100.0460603">
<ele>8.900</ele>
<time>2018-04-02T05:53:35.911Z</time>
</trkpt>
<trkpt lat="13.8153245" lon="100.0459265">
<ele>8.897</ele>
<time>2018-04-02T05:53:38.010Z</time>
</trkpt>
<trkpt lat="13.8152948" lon="100.0457658">
<ele>9.125</ele>
<time>2018-04-02T05:53:40.923Z</time>
</trkpt>
<trkpt lat="13.8152716" lon="100.0456600">
<ele>9.411</ele>
<time>2018-04-02T05:53:42.885Z</time>
</trkpt>
<trkpt lat="13.8152514" lon="100.0455405">
<ele>9.545</ele>
<time>2018-04-02T05:53:44.951Z</time>
</trkpt>
<trkpt lat="13.8152652" lon="100.0456422">
<ele>9.542</ele>
<time>2018-04-02T05:53:46.752Z</time>
</trkpt>
<trkpt lat="13.8152665" lon="100.0457976">
<ele>9.486</ele>
<time>2018-04-02T05:53:50.090Z</time>
</trkpt>
<trkpt lat="13.8152837" lon="100.0458954">
<ele>9.385</ele>
<time>2018-04-02T05:53:54.904Z</time>
</trkpt>
<trkpt lat="13.8153198" lon="100.0459995">
<ele>9.198</ele>
<time>2018-04-02T05:54:00.174Z</time>
</trkpt>
<trkpt lat="13.8152386" lon="100.0457569">
<ele>8.960</ele>
<time>2018-04-02T05:54:11.854Z</time>
</trkpt>
<trkpt lat="13.8152077" lon="100.0456547">
<ele>8.829</ele>
<time>2018-04-02T05:54:16.263Z</time>
</trkpt>
<trkpt lat="13.8151805" lon="100.0455276">
<ele>8.882</ele>
<time>2018-04-02T05:54:20.689Z</time>
</trkpt>
<trkpt lat="13.8151352" lon="100.0454064">
<ele>8.994</ele>
<time>2018-04-02T05:54:24.997Z</time>
</trkpt>
<trkpt lat="13.8151352" lon="100.0454064">
<ele>9.042</ele>
<time>2018-04-02T05:54:29.997Z</time>
</trkpt>
<trkpt lat="13.8151352" lon="100.0454064">
<ele>9.034</ele>
<time>2018-04-02T05:55:02.483Z</time>
</trkpt>
<trkpt lat="13.8149107" lon="100.0454423">
<ele>9.013</ele>
<time>2018-04-02T05:55:15.253Z</time>
</trkpt>
<trkpt lat="13.8147997" lon="100.0454511">
<ele>8.967</ele>
<time>2018-04-02T05:55:17.877Z</time>
</trkpt>
<trkpt lat="13.8146773" lon="100.0454795">
<ele>8.846</ele>
<time>2018-04-02T05:55:21.759Z</time>
</trkpt>
<trkpt lat="13.8145203" lon="100.0455122">
<ele>8.646</ele>
<time>2018-04-02T05:55:27.665Z</time>
</trkpt>
<trkpt lat="13.8143404" lon="100.0455490">
<ele>8.406</ele>
<time>2018-04-02T05:55:34.426Z</time>
</trkpt>
<trkpt lat="13.8141857" lon="100.0455868">
<ele>8.188</ele>
<time>2018-04-02T05:55:40.289Z</time>
</trkpt>
<trkpt lat="13.8141857" lon="100.0455868">
<ele>8.188</ele>
<time>2018-04-02T05:55:40.289Z</time>
</trkpt>
<trkpt lat="13.8136117" lon="100.0458262">
<ele>8.755</ele>
<time>2018-04-02T05:56:08.202Z</time>
</trkpt>
<trkpt lat="13.8129593" lon="100.0457868">
<ele>8.750</ele>
<time>2018-04-02T05:56:36.271Z</time>
</trkpt>
<trkpt lat="13.8129593" lon="100.0457868">
<ele>8.750</ele>
<time>2018-04-02T05:56:36.271Z</time>
</trkpt>
<trkpt lat="13.8126520" lon="100.0459244">
<ele>8.241</ele>
<time>2018-04-02T05:56:47.511Z</time>
</trkpt>
<trkpt lat="13.8125332" lon="100.0458937">
<ele>8.237</ele>
<time>2018-04-02T05:56:51.373Z</time>
</trkpt>
<trkpt lat="13.8124105" lon="100.0458862">
<ele>8.139</ele>
<time>2018-04-02T05:56:54.733Z</time>
</trkpt>
<trkpt lat="13.8122719" lon="100.0459026">
<ele>7.887</ele>
<time>2018-04-02T05:56:58.272Z</time>
</trkpt>
<trkpt lat="13.8121268" lon="100.0459239">
<ele>7.662</ele>
<time>2018-04-02T05:57:01.995Z</time>
</trkpt>
<trkpt lat="13.8119497" lon="100.0459417">
<ele>7.668</ele>
<time>2018-04-02T05:57:06.514Z</time>
</trkpt>
<trkpt lat="13.8117844" lon="100.0459702">
<ele>7.849</ele>
<time>2018-04-02T05:57:10.771Z</time>
</trkpt>
<trkpt lat="13.8117844" lon="100.0459702">
<ele>7.849</ele>
<time>2018-04-02T05:57:10.771Z</time>
</trkpt>
<trkpt lat="13.8109319" lon="100.0459794">
<ele>8.119</ele>
<time>2018-04-02T05:57:31.586Z</time>
</trkpt>
<trkpt lat="13.8103364" lon="100.0460439">
<ele>8.113</ele>
<time>2018-04-02T05:57:42.394Z</time>
</trkpt>
<trkpt lat="13.8098579" lon="100.0461285">
<ele>8.111</ele>
<time>2018-04-02T05:57:50.478Z</time>
</trkpt>
<trkpt lat="13.8098579" lon="100.0461285">
<ele>8.111</ele>
<time>2018-04-02T05:57:50.478Z</time>
</trkpt>
<trkpt lat="13.8071758" lon="100.0466736">
<ele>7.849</ele>
<time>2018-04-02T05:58:48.103Z</time>
</trkpt>
<trkpt lat="13.8071758" lon="100.0466736">
<ele>7.849</ele>
<time>2018-04-02T05:58:48.103Z</time>
</trkpt>
<trkpt lat="13.8067619" lon="100.0468419">
<ele>8.084</ele>
<time>2018-04-02T05:58:59.995Z</time>
</trkpt>
<trkpt lat="13.8067619" lon="100.0468419">
<ele>8.080</ele>
<time>2018-04-02T05:59:09.995Z</time>
</trkpt>
<trkpt lat="13.8067619" lon="100.0468419">
<ele>8.078</ele>
<time>2018-04-02T06:01:36.258Z</time>
</trkpt>
<trkpt lat="13.8065652" lon="100.0468260">
<ele>8.076</ele>
<time>2018-04-02T06:01:50.992Z</time>
</trkpt>
<trkpt lat="13.8064575" lon="100.0468658">
<ele>8.098</ele>
<time>2018-04-02T06:01:54.048Z</time>
</trkpt>
<trkpt lat="13.8062490" lon="100.0469031">
<ele>8.278</ele>
<time>2018-04-02T06:01:58.597Z</time>
</trkpt>
<trkpt lat="13.8061010" lon="100.0468169">
<ele>8.706</ele>
<time>2018-04-02T06:02:01.641Z</time>
</trkpt>
<trkpt lat="13.8059702" lon="100.0466798">
<ele>9.192</ele>
<time>2018-04-02T06:02:03.947Z</time>
</trkpt>
<trkpt lat="13.8059444" lon="100.0464196">
<ele>9.400</ele>
<time>2018-04-02T06:02:06.585Z</time>
</trkpt>
<trkpt lat="13.8058546" lon="100.0460258">
<ele>9.059</ele>
<time>2018-04-02T06:02:10.195Z</time>
</trkpt>
<trkpt lat="13.8057805" lon="100.0457202">
<ele>8.128</ele>
<time>2018-04-02T06:02:12.847Z</time>
</trkpt>
<trkpt lat="13.8057050" lon="100.0453589">
<ele>6.989</ele>
<time>2018-04-02T06:02:15.827Z</time>
</trkpt>
<trkpt lat="13.8056596" lon="100.0451192">
<ele>6.161</ele>
<time>2018-04-02T06:02:17.685Z</time>
</trkpt>
<trkpt lat="13.8056079" lon="100.0448785">
<ele>5.761</ele>
<time>2018-04-02T06:02:19.493Z</time>
</trkpt>
<trkpt lat="13.8055517" lon="100.0446172">
<ele>5.588</ele>
<time>2018-04-02T06:02:21.438Z</time>
</trkpt>
<trkpt lat="13.8055031" lon="100.0443538">
<ele>5.596</ele>
<time>2018-04-02T06:02:23.388Z</time>
</trkpt>
<trkpt lat="13.8054484" lon="100.0440714">
<ele>5.822</ele>
<time>2018-04-02T06:02:25.474Z</time>
</trkpt>
<trkpt lat="13.8054067" lon="100.0438131">
<ele>6.128</ele>
<time>2018-04-02T06:02:27.372Z</time>
</trkpt>
<trkpt lat="13.8053461" lon="100.0435416">
<ele>6.384</ele>
<time>2018-04-02T06:02:29.399Z</time>
</trkpt>
<trkpt lat="13.8052786" lon="100.0432657">
<ele>6.614</ele>
<time>2018-04-02T06:02:31.515Z</time>
</trkpt>
<trkpt lat="13.8052138" lon="100.0429924">
<ele>6.843</ele>
<time>2018-04-02T06:02:33.691Z</time>
</trkpt>
<trkpt lat="13.8051576" lon="100.0427385">
<ele>7.018</ele>
<time>2018-04-02T06:02:35.839Z</time>
</trkpt>
<trkpt lat="13.8050967" lon="100.0424908">
<ele>7.122</ele>
<time>2018-04-02T06:02:38.159Z</time>
</trkpt>
<trkpt lat="13.8050402" lon="100.0422745">
<ele>7.234</ele>
<time>2018-04-02T06:02:40.492Z</time>
</trkpt>
<trkpt lat="13.8049870" lon="100.0420780">
<ele>7.446</ele>
<time>2018-04-02T06:02:42.953Z</time>
</trkpt>
<trkpt lat="13.8049309" lon="100.0419065">
<ele>7.731</ele>
<time>2018-04-02T06:02:46.028Z</time>
</trkpt>
<trkpt lat="13.8048763" lon="100.0416766">
<ele>7.956</ele>
<time>2018-04-02T06:02:52.491Z</time>
</trkpt>
<trkpt lat="13.8048313" lon="100.0415011">
<ele>8.065</ele>
<time>2018-04-02T06:02:57.447Z</time>
</trkpt>
<trkpt lat="13.8047876" lon="100.0414192">
<ele>8.113</ele>
<time>2018-04-02T06:02:59.999Z</time>
</trkpt>
<trkpt lat="13.8047876" lon="100.0414192">
<ele>8.135</ele>
<time>2018-04-02T06:03:06.999Z</time>
</trkpt>
<trkpt lat="13.8047876" lon="100.0414192">
<ele>8.137</ele>
<time>2018-04-02T06:03:07.099Z</time>
</trkpt>
<trkpt lat="13.8047743" lon="100.0413094">
<ele>8.127</ele>
<time>2018-04-02T06:03:44.206Z</time>
</trkpt>
<trkpt lat="13.8046836" lon="100.0413278">
<ele>7.900</ele>
<time>2018-04-02T06:03:52.998Z</time>
</trkpt>
<trkpt lat="13.8046836" lon="100.0413278">
<ele>7.314</ele>
<time>2018-04-02T06:03:56.998Z</time>
</trkpt>
<trkpt lat="13.8046836" lon="100.0413278">
<ele>6.825</ele>
<time>2018-04-02T06:03:57.098Z</time>
</trkpt>
<trkpt lat="13.8045103" lon="100.0413933">
<ele>6.830</ele>
<time>2018-04-02T06:04:19.274Z</time>
</trkpt>
<trkpt lat="13.8044188" lon="100.0414227">
<ele>6.851</ele>
<time>2018-04-02T06:04:26.854Z</time>
</trkpt>
<trkpt lat="13.8043487" lon="100.0413631">
<ele>6.432</ele>
<time>2018-04-02T06:04:37.898Z</time>
</trkpt>
<trkpt lat="13.8042670" lon="100.0413224">
<ele>6.003</ele>
<time>2018-04-02T06:04:48.997Z</time>
</trkpt>
<trkpt lat="13.8042670" lon="100.0413224">
<ele>6.035</ele>
<time>2018-04-02T06:04:56.996Z</time>
</trkpt>
<trkpt lat="13.8042670" lon="100.0413224">
<ele>6.239</ele>
<time>2018-04-02T06:05:47.206Z</time>
</trkpt>
<trkpt lat="13.8043662" lon="100.0413231">
<ele>6.254</ele>
<time>2018-04-02T06:05:58.995Z</time>
</trkpt>
<trkpt lat="13.8043662" lon="100.0413231">
<ele>6.168</ele>
<time>2018-04-02T06:06:01.995Z</time>
</trkpt>
<trkpt lat="13.8043662" lon="100.0413231">
<ele>6.156</ele>
<time>2018-04-02T06:06:15.032Z</time>
</trkpt>
<trkpt lat="13.8042937" lon="100.0413886">
<ele>6.201</ele>
<time>2018-04-02T06:06:25.995Z</time>
</trkpt>
<trkpt lat="13.8042937" lon="100.0413886">
<ele>6.231</ele>
<time>2018-04-02T06:06:27.995Z</time>
</trkpt>
<trkpt lat="13.8042937" lon="100.0413886">
<ele>6.231</ele>
<time>2018-04-02T06:06:28.095Z</time>
</trkpt>
<trkpt lat="13.8042937" lon="100.0413886">
<ele>6.221</ele>
<time>2018-04-02T06:06:29.995Z</time>
</trkpt>
<trkpt lat="13.8042937" lon="100.0413886">
<ele>6.221</ele>
<time>2018-04-02T06:06:30.095Z</time>
</trkpt>
<trkpt lat="13.8041917" lon="100.0413117">
<ele>6.219</ele>
<time>2018-04-02T06:15:10.994Z</time>
</trkpt>
<trkpt lat="13.8041917" lon="100.0413117">
<ele>6.217</ele>
<time>2018-04-02T06:15:14.994Z</time>
</trkpt>
<trkpt lat="13.8041917" lon="100.0413117">
<ele>6.215</ele>
<time>2018-04-02T06:15:15.094Z</time>
</trkpt>
<trkpt lat="13.8041917" lon="100.0413117">
<ele>6.211</ele>
<time>2018-04-02T06:17:54.999Z</time>
</trkpt>
<trkpt lat="13.8041917" lon="100.0413117">
<ele>6.209</ele>
<time>2018-04-02T06:17:55.099Z</time>
</trkpt>
<trkpt lat="13.8041917" lon="100.0413117">
<ele>6.205</ele>
<time>2018-04-02T06:17:56.999Z</time>
</trkpt>
<trkpt lat="13.8041917" lon="100.0413117">
<ele>6.203</ele>
<time>2018-04-02T06:18:00.999Z</time>
</trkpt>
<trkpt lat="13.8041946" lon="100.0416257">
<ele>8.895</ele>
<time>2018-04-02T06:18:40.896Z</time>
</trkpt>
<trkpt lat="13.8041946" lon="100.0416257">
<ele>8.895</ele>
<time>2018-04-02T06:18:40.896Z</time>
</trkpt>
<trkpt lat="13.8042759" lon="100.0413706">
<ele>7.501</ele>
<time>2018-04-02T06:19:14.998Z</time>
</trkpt>
<trkpt lat="13.8042759" lon="100.0413706">
<ele>7.497</ele>
<time>2018-04-02T06:19:18.998Z</time>
</trkpt>
<trkpt lat="13.8042759" lon="100.0413706">
<ele>7.495</ele>
<time>2018-04-02T06:24:17.058Z</time>
</trkpt>
<trkpt lat="13.8038493" lon="100.0411975">
<ele>7.491</ele>
<time>2018-04-02T06:33:10.675Z</time>
</trkpt>
<trkpt lat="13.8038493" lon="100.0411975">
<ele>7.491</ele>
<time>2018-04-02T06:33:10.675Z</time>
</trkpt>
<trkpt lat="13.8042008" lon="100.0413555">
<ele>7.891</ele>
<time>2018-04-02T06:40:36.993Z</time>
</trkpt>
<trkpt lat="13.8042008" lon="100.0413555">
<ele>7.888</ele>
<time>2018-04-02T06:43:34.999Z</time>
</trkpt>
<trkpt lat="13.8040763" lon="100.0414345">
<ele>9.500</ele>
<time>2018-04-02T06:48:52.847Z</time>
</trkpt>
<trkpt lat="13.8040763" lon="100.0414345">
<ele>9.500</ele>
<time>2018-04-02T06:48:52.847Z</time>
</trkpt>
<trkpt lat="13.8043638" lon="100.0410402">
<ele>9.890</ele>
<time>2018-04-02T07:00:49.489Z</time>
</trkpt>
<trkpt lat="13.8043638" lon="100.0410402">
<ele>9.890</ele>
<time>2018-04-02T07:00:49.489Z</time>
</trkpt>
<trkpt lat="13.8043166" lon="100.0412185">
<ele>7.939</ele>
<time>2018-04-02T07:05:17.994Z</time>
</trkpt>
<trkpt lat="13.8043166" lon="100.0412185">
<ele>7.935</ele>
<time>2018-04-02T07:05:21.994Z</time>
</trkpt>
<trkpt lat="13.8043166" lon="100.0412185">
<ele>7.933</ele>
<time>2018-04-02T07:05:35.994Z</time>
</trkpt>
<trkpt lat="13.8043044" lon="100.0413916">
<ele>7.642</ele>
<time>2018-04-02T07:06:06.600Z</time>
</trkpt>
<trkpt lat="13.8047235" lon="100.0411385">
<ele>7.639</ele>
<time>2018-04-02T07:07:00.414Z</time>
</trkpt>
<trkpt lat="13.8047742" lon="100.0410467">
<ele>7.359</ele>
<time>2018-04-02T07:07:11.767Z</time>
</trkpt>
<trkpt lat="13.8047530" lon="100.0408998">
<ele>6.627</ele>
<time>2018-04-02T07:07:27.728Z</time>
</trkpt>
<trkpt lat="13.8047193" lon="100.0406062">
<ele>5.865</ele>
<time>2018-04-02T07:07:59.531Z</time>
</trkpt>
<trkpt lat="13.8046853" lon="100.0403893">
<ele>5.492</ele>
<time>2018-04-02T07:08:23.164Z</time>
</trkpt>
<trkpt lat="13.8046564" lon="100.0400482">
<ele>5.327</ele>
<time>2018-04-02T07:08:59.992Z</time>
</trkpt>
<trkpt lat="13.8046126" lon="100.0397416">
<ele>5.104</ele>
<time>2018-04-02T07:09:33.327Z</time>
</trkpt>
<trkpt lat="13.8045063" lon="100.0390157">
<ele>4.827</ele>
<time>2018-04-02T07:10:52.296Z</time>
</trkpt>
<trkpt lat="13.8044250" lon="100.0385779">
<ele>4.546</ele>
<time>2018-04-02T07:11:40.238Z</time>
</trkpt>
<trkpt lat="13.8044119" lon="100.0381377">
<ele>4.223</ele>
<time>2018-04-02T07:12:27.614Z</time>
</trkpt>
<trkpt lat="13.8044017" lon="100.0377747">
<ele>3.871</ele>
<time>2018-04-02T07:13:03.406Z</time>
</trkpt>
<trkpt lat="13.8043125" lon="100.0366204">
<ele>3.556</ele>
<time>2018-04-02T07:13:20.898Z</time>
</trkpt>
<trkpt lat="13.8042730" lon="100.0362132">
<ele>3.613</ele>
<time>2018-04-02T07:13:25.250Z</time>
</trkpt>
<trkpt lat="13.8042637" lon="100.0357757">
<ele>4.244</ele>
<time>2018-04-02T07:13:29.399Z</time>
</trkpt>
<trkpt lat="13.8042435" lon="100.0353404">
<ele>5.037</ele>
<time>2018-04-02T07:13:33.494Z</time>
</trkpt>
<trkpt lat="13.8042172" lon="100.0348809">
<ele>5.586</ele>
<time>2018-04-02T07:13:37.780Z</time>
</trkpt>
<trkpt lat="13.8041951" lon="100.0344018">
<ele>5.913</ele>
<time>2018-04-02T07:13:42.162Z</time>
</trkpt>
<trkpt lat="13.8041969" lon="100.0339378">
<ele>6.087</ele>
<time>2018-04-02T07:13:46.401Z</time>
</trkpt>
<trkpt lat="13.8041703" lon="100.0334199">
<ele>6.093</ele>
<time>2018-04-02T07:13:51.117Z</time>
</trkpt>
<trkpt lat="13.8041457" lon="100.0329431">
<ele>5.943</ele>
<time>2018-04-02T07:13:55.269Z</time>
</trkpt>
<trkpt lat="13.8041061" lon="100.0323993">
<ele>5.757</ele>
<time>2018-04-02T07:13:59.726Z</time>
</trkpt>
<trkpt lat="13.8041018" lon="100.0318332">
<ele>5.760</ele>
<time>2018-04-02T07:14:04.150Z</time>
</trkpt>
<trkpt lat="13.8040984" lon="100.0311095">
<ele>6.033</ele>
<time>2018-04-02T07:14:09.546Z</time>
</trkpt>
<trkpt lat="13.8040733" lon="100.0305821">
<ele>6.419</ele>
<time>2018-04-02T07:14:13.350Z</time>
</trkpt>
<trkpt lat="13.8040470" lon="100.0301007">
<ele>6.734</ele>
<time>2018-04-02T07:14:16.836Z</time>
</trkpt>
<trkpt lat="13.8040242" lon="100.0295737">
<ele>6.862</ele>
<time>2018-04-02T07:14:20.789Z</time>
</trkpt>
<trkpt lat="13.8040198" lon="100.0290620">
<ele>6.774</ele>
<time>2018-04-02T07:14:24.682Z</time>
</trkpt>
<trkpt lat="13.8040125" lon="100.0286078">
<ele>6.617</ele>
<time>2018-04-02T07:14:28.175Z</time>
</trkpt>
<trkpt lat="13.8040072" lon="100.0281083">
<ele>6.597</ele>
<time>2018-04-02T07:14:32.084Z</time>
</trkpt>
<trkpt lat="13.8039616" lon="100.0276308">
<ele>6.827</ele>
<time>2018-04-02T07:14:35.913Z</time>
</trkpt>
<trkpt lat="13.8039609" lon="100.0271421">
<ele>7.284</ele>
<time>2018-04-02T07:14:39.776Z</time>
</trkpt>
<trkpt lat="13.8039310" lon="100.0266244">
<ele>7.832</ele>
<time>2018-04-02T07:14:43.852Z</time>
</trkpt>
<trkpt lat="13.8039063" lon="100.0261313">
<ele>8.318</ele>
<time>2018-04-02T07:14:47.937Z</time>
</trkpt>
<trkpt lat="13.8038734" lon="100.0256666">
<ele>8.630</ele>
<time>2018-04-02T07:14:51.734Z</time>
</trkpt>
<trkpt lat="13.8038143" lon="100.0251476">
<ele>8.751</ele>
<time>2018-04-02T07:14:56.020Z</time>
</trkpt>
<trkpt lat="13.8038279" lon="100.0246958">
<ele>8.719</ele>
<time>2018-04-02T07:14:59.720Z</time>
</trkpt>
<trkpt lat="13.8037888" lon="100.0242230">
<ele>8.595</ele>
<time>2018-04-02T07:15:03.568Z</time>
</trkpt>
<trkpt lat="13.8037760" lon="100.0237362">
<ele>8.379</ele>
<time>2018-04-02T07:15:07.434Z</time>
</trkpt>
<trkpt lat="13.8037506" lon="100.0232360">
<ele>8.031</ele>
<time>2018-04-02T07:15:11.163Z</time>
</trkpt>
<trkpt lat="13.8037695" lon="100.0227650">
<ele>7.636</ele>
<time>2018-04-02T07:15:14.360Z</time>
</trkpt>
<trkpt lat="13.8038363" lon="100.0222489">
<ele>7.353</ele>
<time>2018-04-02T07:15:17.651Z</time>
</trkpt>
<trkpt lat="13.8038641" lon="100.0217276">
<ele>7.221</ele>
<time>2018-04-02T07:15:20.942Z</time>
</trkpt>
<trkpt lat="13.8037968" lon="100.0210956">
<ele>7.191</ele>
<time>2018-04-02T07:15:25.111Z</time>
</trkpt>
<trkpt lat="13.8037424" lon="100.0204376">
<ele>7.277</ele>
<time>2018-04-02T07:15:29.446Z</time>
</trkpt>
<trkpt lat="13.8036966" lon="100.0197950">
<ele>7.511</ele>
<time>2018-04-02T07:15:33.663Z</time>
</trkpt>
<trkpt lat="13.8036652" lon="100.0191791">
<ele>7.837</ele>
<time>2018-04-02T07:15:37.828Z</time>
</trkpt>
<trkpt lat="13.8035955" lon="100.0181732">
<ele>8.152</ele>
<time>2018-04-02T07:15:44.455Z</time>
</trkpt>
<trkpt lat="13.8035759" lon="100.0177736">
<ele>8.386</ele>
<time>2018-04-02T07:15:46.973Z</time>
</trkpt>
<trkpt lat="13.8035385" lon="100.0173789">
<ele>8.528</ele>
<time>2018-04-02T07:15:49.412Z</time>
</trkpt>
<trkpt lat="13.8034733" lon="100.0170414">
<ele>8.636</ele>
<time>2018-04-02T07:15:51.458Z</time>
</trkpt>
<trkpt lat="13.8034593" lon="100.0166792">
<ele>8.740</ele>
<time>2018-04-02T07:15:53.558Z</time>
</trkpt>
<trkpt lat="13.8034451" lon="100.0162548">
<ele>8.800</ele>
<time>2018-04-02T07:15:56.045Z</time>
</trkpt>
<trkpt lat="13.8034057" lon="100.0158420">
<ele>8.722</ele>
<time>2018-04-02T07:15:58.578Z</time>
</trkpt>
<trkpt lat="13.8033652" lon="100.0154600">
<ele>8.447</ele>
<time>2018-04-02T07:16:00.933Z</time>
</trkpt>
<trkpt lat="13.8033715" lon="100.0150330">
<ele>8.090</ele>
<time>2018-04-02T07:16:03.500Z</time>
</trkpt>
<trkpt lat="13.8033682" lon="100.0146117">
<ele>7.862</ele>
<time>2018-04-02T07:16:05.940Z</time>
</trkpt>
<trkpt lat="13.8033427" lon="100.0141722">
<ele>7.855</ele>
<time>2018-04-02T07:16:08.436Z</time>
</trkpt>
<trkpt lat="13.8033286" lon="100.0137267">
<ele>7.997</ele>
<time>2018-04-02T07:16:10.946Z</time>
</trkpt>
<trkpt lat="13.8032930" lon="100.0132659">
<ele>8.144</ele>
<time>2018-04-02T07:16:13.604Z</time>
</trkpt>
<trkpt lat="13.8032578" lon="100.0128241">
<ele>8.042</ele>
<time>2018-04-02T07:16:16.248Z</time>
</trkpt>
<trkpt lat="13.8031992" lon="100.0124174">
<ele>7.599</ele>
<time>2018-04-02T07:16:18.750Z</time>
</trkpt>
<trkpt lat="13.8032060" lon="100.0120104">
<ele>7.176</ele>
<time>2018-04-02T07:16:21.203Z</time>
</trkpt>
<trkpt lat="13.8032053" lon="100.0115550">
<ele>7.085</ele>
<time>2018-04-02T07:16:23.899Z</time>
</trkpt>
<trkpt lat="13.8031952" lon="100.0111447">
<ele>7.230</ele>
<time>2018-04-02T07:16:26.284Z</time>
</trkpt>
<trkpt lat="13.8031670" lon="100.0106548">
<ele>7.387</ele>
<time>2018-04-02T07:16:29.097Z</time>
</trkpt>
<trkpt lat="13.8031427" lon="100.0101881">
<ele>7.460</ele>
<time>2018-04-02T07:16:31.741Z</time>
</trkpt>
<trkpt lat="13.8030854" lon="100.0094931">
<ele>7.532</ele>
<time>2018-04-02T07:16:35.559Z</time>
</trkpt>
<trkpt lat="13.8030486" lon="100.0087908">
<ele>7.761</ele>
<time>2018-04-02T07:16:39.350Z</time>
</trkpt>
<trkpt lat="13.8030195" lon="100.0081250">
<ele>8.171</ele>
<time>2018-04-02T07:16:42.952Z</time>
</trkpt>
<trkpt lat="13.8029809" lon="100.0074954">
<ele>8.588</ele>
<time>2018-04-02T07:16:46.371Z</time>
</trkpt>
<trkpt lat="13.8029334" lon="100.0068447">
<ele>8.557</ele>
<time>2018-04-02T07:16:50.036Z</time>
</trkpt>
<trkpt lat="13.8029104" lon="100.0062156">
<ele>7.927</ele>
<time>2018-04-02T07:16:53.791Z</time>
</trkpt>
<trkpt lat="13.8028813" lon="100.0055118">
<ele>7.322</ele>
<time>2018-04-02T07:16:58.326Z</time>
</trkpt>
<trkpt lat="13.8028315" lon="100.0046100">
<ele>7.278</ele>
<time>2018-04-02T07:17:04.416Z</time>
</trkpt>
<trkpt lat="13.8027665" lon="100.0038875">
<ele>7.581</ele>
<time>2018-04-02T07:17:09.493Z</time>
</trkpt>
<trkpt lat="13.8027004" lon="100.0031559">
<ele>7.854</ele>
<time>2018-04-02T07:17:14.961Z</time>
</trkpt>
<trkpt lat="13.8026299" lon="100.0024673">
<ele>7.745</ele>
<time>2018-04-02T07:17:19.983Z</time>
</trkpt>
<trkpt lat="13.8025688" lon="100.0017461">
<ele>7.181</ele>
<time>2018-04-02T07:17:25.097Z</time>
</trkpt>
<trkpt lat="13.8026207" lon="100.0010573">
<ele>6.605</ele>
<time>2018-04-02T07:17:30.309Z</time>
</trkpt>
<trkpt lat="13.8026071" lon="100.0003623">
<ele>6.363</ele>
<time>2018-04-02T07:17:35.851Z</time>
</trkpt>
<trkpt lat="13.8025581" lon="99.9997009">
<ele>6.333</ele>
<time>2018-04-02T07:17:40.945Z</time>
</trkpt>
<trkpt lat="13.8024150" lon="99.9990843">
<ele>6.325</ele>
<time>2018-04-02T07:17:45.512Z</time>
</trkpt>
<trkpt lat="13.8022543" lon="99.9984710">
<ele>6.446</ele>
<time>2018-04-02T07:17:49.736Z</time>
</trkpt>
<trkpt lat="13.8021072" lon="99.9979262">
<ele>6.914</ele>
<time>2018-04-02T07:17:53.329Z</time>
</trkpt>
<trkpt lat="13.8019569" lon="99.9973557">
<ele>7.846</ele>
<time>2018-04-02T07:17:57.035Z</time>
</trkpt>
<trkpt lat="13.8018126" lon="99.9968166">
<ele>9.084</ele>
<time>2018-04-02T07:18:00.610Z</time>
</trkpt>
<trkpt lat="13.8017267" lon="99.9963239">
<ele>10.114</ele>
<time>2018-04-02T07:18:03.920Z</time>
</trkpt>
<trkpt lat="13.8015980" lon="99.9958250">
<ele>10.405</ele>
<time>2018-04-02T07:18:07.464Z</time>
</trkpt>
<trkpt lat="13.8014352" lon="99.9953193">
<ele>10.006</ele>
<time>2018-04-02T07:18:11.218Z</time>
</trkpt>
<trkpt lat="13.8013248" lon="99.9948138">
<ele>9.435</ele>
<time>2018-04-02T07:18:14.894Z</time>
</trkpt>
<trkpt lat="13.8011954" lon="99.9942824">
<ele>9.048</ele>
<time>2018-04-02T07:18:18.922Z</time>
</trkpt>
<trkpt lat="13.8010449" lon="99.9937656">
<ele>8.817</ele>
<time>2018-04-02T07:18:22.966Z</time>
</trkpt>
<trkpt lat="13.8008965" lon="99.9932556">
<ele>8.705</ele>
<time>2018-04-02T07:18:26.763Z</time>
</trkpt>
<trkpt lat="13.8007509" lon="99.9927933">
<ele>8.502</ele>
<time>2018-04-02T07:18:30.225Z</time>
</trkpt>
<trkpt lat="13.8006231" lon="99.9923315">
<ele>7.876</ele>
<time>2018-04-02T07:18:33.746Z</time>
</trkpt>
<trkpt lat="13.8005191" lon="99.9918608">
<ele>6.975</ele>
<time>2018-04-02T07:18:37.317Z</time>
</trkpt>
<trkpt lat="13.8003778" lon="99.9913570">
<ele>6.312</ele>
<time>2018-04-02T07:18:41.080Z</time>
</trkpt>
<trkpt lat="13.8002556" lon="99.9908731">
<ele>6.114</ele>
<time>2018-04-02T07:18:44.555Z</time>
</trkpt>
<trkpt lat="13.8001036" lon="99.9903020">
<ele>6.174</ele>
<time>2018-04-02T07:18:48.570Z</time>
</trkpt>
<trkpt lat="13.7999653" lon="99.9897150">
<ele>6.265</ele>
<time>2018-04-02T07:18:52.841Z</time>
</trkpt>
<trkpt lat="13.7998781" lon="99.9891079">
<ele>6.471</ele>
<time>2018-04-02T07:18:57.478Z</time>
</trkpt>
<trkpt lat="13.7997932" lon="99.9884894">
<ele>6.943</ele>
<time>2018-04-02T07:19:02.139Z</time>
</trkpt>
<trkpt lat="13.7997239" lon="99.9878803">
<ele>7.512</ele>
<time>2018-04-02T07:19:06.675Z</time>
</trkpt>
<trkpt lat="13.7996536" lon="99.9872789">
<ele>7.657</ele>
<time>2018-04-02T07:19:11.116Z</time>
</trkpt>
<trkpt lat="13.7995684" lon="99.9867275">
<ele>7.130</ele>
<time>2018-04-02T07:19:15.081Z</time>
</trkpt>
<trkpt lat="13.7995434" lon="99.9861427">
<ele>6.201</ele>
<time>2018-04-02T07:19:19.305Z</time>
</trkpt>
<trkpt lat="13.7995022" lon="99.9855567">
<ele>5.247</ele>
<time>2018-04-02T07:19:23.711Z</time>
</trkpt>
<trkpt lat="13.7994691" lon="99.9850158">
<ele>4.586</ele>
<time>2018-04-02T07:19:27.675Z</time>
</trkpt>
<trkpt lat="13.7993869" lon="99.9844583">
<ele>4.101</ele>
<time>2018-04-02T07:19:31.740Z</time>
</trkpt>
<trkpt lat="13.7993623" lon="99.9839854">
<ele>3.403</ele>
<time>2018-04-02T07:19:35.219Z</time>
</trkpt>
<trkpt lat="13.7993235" lon="99.9834687">
<ele>2.495</ele>
<time>2018-04-02T07:19:39.063Z</time>
</trkpt>
<trkpt lat="13.7992466" lon="99.9828940">
<ele>1.449</ele>
<time>2018-04-02T07:19:43.243Z</time>
</trkpt>
<trkpt lat="13.7991725" lon="99.9823746">
<ele>0.409</ele>
<time>2018-04-02T07:19:46.943Z</time>
</trkpt>
<trkpt lat="13.7990974" lon="99.9817914">
<ele>0.000</ele>
<time>2018-04-02T07:19:50.963Z</time>
</trkpt>
<trkpt lat="13.7990321" lon="99.9812950">
<ele>0.000</ele>
<time>2018-04-02T07:19:54.358Z</time>
</trkpt>
<trkpt lat="13.7989467" lon="99.9807343">
<ele>0.000</ele>
<time>2018-04-02T07:19:58.189Z</time>
</trkpt>
<trkpt lat="13.7989085" lon="99.9801999">
<ele>0.000</ele>
<time>2018-04-02T07:20:01.763Z</time>
</trkpt>
<trkpt lat="13.7988633" lon="99.9796357">
<ele>0.282</ele>
<time>2018-04-02T07:20:05.592Z</time>
</trkpt>
<trkpt lat="13.7988256" lon="99.9792693">
<ele>0.783</ele>
<time>2018-04-02T07:20:08.074Z</time>
</trkpt>
<trkpt lat="13.7987419" lon="99.9786516">
<ele>1.216</ele>
<time>2018-04-02T07:20:12.277Z</time>
</trkpt>
<trkpt lat="13.7987116" lon="99.9783301">
<ele>1.396</ele>
<time>2018-04-02T07:20:14.553Z</time>
</trkpt>
<trkpt lat="13.7986739" lon="99.9779723">
<ele>1.251</ele>
<time>2018-04-02T07:20:17.137Z</time>
</trkpt>
<trkpt lat="13.7986448" lon="99.9776419">
<ele>1.025</ele>
<time>2018-04-02T07:20:19.434Z</time>
</trkpt>
<trkpt lat="13.7986086" lon="99.9773102">
<ele>0.936</ele>
<time>2018-04-02T07:20:21.746Z</time>
</trkpt>
<trkpt lat="13.7985478" lon="99.9768025">
<ele>1.057</ele>
<time>2018-04-02T07:20:25.309Z</time>
</trkpt>
<trkpt lat="13.7984870" lon="99.9762748">
<ele>1.117</ele>
<time>2018-04-02T07:20:29.044Z</time>
</trkpt>
<trkpt lat="13.7984420" lon="99.9757645">
<ele>1.019</ele>
<time>2018-04-02T07:20:32.775Z</time>
</trkpt>
<trkpt lat="13.7983833" lon="99.9752343">
<ele>1.136</ele>
<time>2018-04-02T07:20:36.791Z</time>
</trkpt>
<trkpt lat="13.7983145" lon="99.9746998">
<ele>1.499</ele>
<time>2018-04-02T07:20:40.885Z</time>
</trkpt>
<trkpt lat="13.7982149" lon="99.9741340">
<ele>1.962</ele>
<time>2018-04-02T07:20:45.330Z</time>
</trkpt>
<trkpt lat="13.7981172" lon="99.9735972">
<ele>2.640</ele>
<time>2018-04-02T07:20:49.750Z</time>
</trkpt>
<trkpt lat="13.7980106" lon="99.9730761">
<ele>3.271</ele>
<time>2018-04-02T07:20:54.344Z</time>
</trkpt>
<trkpt lat="13.7978946" lon="99.9725787">
<ele>3.467</ele>
<time>2018-04-02T07:20:58.624Z</time>
</trkpt>
<trkpt lat="13.7977726" lon="99.9720465">
<ele>3.248</ele>
<time>2018-04-02T07:21:02.591Z</time>
</trkpt>
<trkpt lat="13.7976819" lon="99.9714839">
<ele>3.099</ele>
<time>2018-04-02T07:21:06.610Z</time>
</trkpt>
<trkpt lat="13.7975968" lon="99.9709951">
<ele>3.612</ele>
<time>2018-04-02T07:21:09.914Z</time>
</trkpt>
<trkpt lat="13.7974686" lon="99.9705063">
<ele>4.660</ele>
<time>2018-04-02T07:21:13.101Z</time>
</trkpt>
<trkpt lat="13.7973810" lon="99.9700354">
<ele>4.782</ele>
<time>2018-04-02T07:21:16.094Z</time>
</trkpt>
<trkpt lat="13.7972760" lon="99.9694901">
<ele>2.962</ele>
<time>2018-04-02T07:21:19.497Z</time>
</trkpt>
<trkpt lat="13.7971630" lon="99.9689419">
<ele>0.352</ele>
<time>2018-04-02T07:21:22.798Z</time>
</trkpt>
<trkpt lat="13.7970474" lon="99.9684001">
<ele>0.000</ele>
<time>2018-04-02T07:21:26.066Z</time>
</trkpt>
<trkpt lat="13.7969559" lon="99.9678258">
<ele>0.000</ele>
<time>2018-04-02T07:21:29.503Z</time>
</trkpt>
<trkpt lat="13.7968676" lon="99.9672458">
<ele>0.000</ele>
<time>2018-04-02T07:21:32.847Z</time>
</trkpt>
<trkpt lat="13.7967731" lon="99.9666886">
<ele>0.000</ele>
<time>2018-04-02T07:21:35.994Z</time>
</trkpt>
<trkpt lat="13.7967349" lon="99.9660568">
<ele>0.000</ele>
<time>2018-04-02T07:21:39.562Z</time>
</trkpt>
<trkpt lat="13.7966467" lon="99.9654910">
<ele>0.000</ele>
<time>2018-04-02T07:21:42.975Z</time>
</trkpt>
<trkpt lat="13.7965720" lon="99.9649377">
<ele>0.000</ele>
<time>2018-04-02T07:21:46.479Z</time>
</trkpt>
<trkpt lat="13.7965458" lon="99.9642912">
<ele>0.000</ele>
<time>2018-04-02T07:21:50.531Z</time>
</trkpt>
<trkpt lat="13.7965161" lon="99.9637087">
<ele>0.000</ele>
<time>2018-04-02T07:21:54.031Z</time>
</trkpt>
<trkpt lat="13.7964819" lon="99.9632199">
<ele>0.000</ele>
<time>2018-04-02T07:21:56.860Z</time>
</trkpt>
<trkpt lat="13.7964724" lon="99.9626565">
<ele>0.000</ele>
<time>2018-04-02T07:22:00.083Z</time>
</trkpt>
<trkpt lat="13.7964094" lon="99.9620626">
<ele>0.000</ele>
<time>2018-04-02T07:22:03.552Z</time>
</trkpt>
<trkpt lat="13.7964223" lon="99.9615867">
<ele>0.000</ele>
<time>2018-04-02T07:22:06.308Z</time>
</trkpt>
<trkpt lat="13.7963778" lon="99.9610351">
<ele>0.000</ele>
<time>2018-04-02T07:22:09.488Z</time>
</trkpt>
<trkpt lat="13.7963208" lon="99.9604772">
<ele>0.000</ele>
<time>2018-04-02T07:22:12.715Z</time>
</trkpt>
<trkpt lat="13.7962707" lon="99.9599614">
<ele>0.000</ele>
<time>2018-04-02T07:22:15.750Z</time>
</trkpt>
<trkpt lat="13.7962584" lon="99.9594679">
<ele>0.000</ele>
<time>2018-04-02T07:22:18.636Z</time>
</trkpt>
<trkpt lat="13.7962094" lon="99.9589544">
<ele>0.000</ele>
<time>2018-04-02T07:22:21.623Z</time>
</trkpt>
<trkpt lat="13.7961623" lon="99.9584220">
<ele>0.000</ele>
<time>2018-04-02T07:22:24.719Z</time>
</trkpt>
<trkpt lat="13.7960875" lon="99.9578920">
<ele>0.143</ele>
<time>2018-04-02T07:22:27.819Z</time>
</trkpt>
<trkpt lat="13.7959867" lon="99.9574356">
<ele>0.131</ele>
<time>2018-04-02T07:22:30.499Z</time>
</trkpt>
<trkpt lat="13.7958270" lon="99.9569804">
<ele>0.000</ele>
<time>2018-04-02T07:22:33.140Z</time>
</trkpt>
<trkpt lat="13.7957260" lon="99.9566232">
<ele>0.000</ele>
<time>2018-04-02T07:22:35.169Z</time>
</trkpt>
<trkpt lat="13.7956331" lon="99.9561480">
<ele>0.276</ele>
<time>2018-04-02T07:22:37.815Z</time>
</trkpt>
<trkpt lat="13.7954143" lon="99.9555901">
<ele>1.849</ele>
<time>2018-04-02T07:22:41.067Z</time>
</trkpt>
<trkpt lat="13.7952271" lon="99.9550379">
<ele>3.861</ele>
<time>2018-04-02T07:22:44.170Z</time>
</trkpt>
<trkpt lat="13.7950963" lon="99.9545666">
<ele>5.561</ele>
<time>2018-04-02T07:22:46.771Z</time>
</trkpt>
<trkpt lat="13.7948802" lon="99.9539713">
<ele>6.563</ele>
<time>2018-04-02T07:22:50.144Z</time>
</trkpt>
<trkpt lat="13.7946262" lon="99.9533565">
<ele>7.140</ele>
<time>2018-04-02T07:22:53.690Z</time>
</trkpt>
<trkpt lat="13.7943630" lon="99.9528065">
<ele>7.960</ele>
<time>2018-04-02T07:22:56.939Z</time>
</trkpt>
<trkpt lat="13.7941000" lon="99.9522984">
<ele>9.125</ele>
<time>2018-04-02T07:22:59.974Z</time>
</trkpt>
<trkpt lat="13.7937780" lon="99.9517474">
<ele>10.130</ele>
<time>2018-04-02T07:23:03.354Z</time>
</trkpt>
<trkpt lat="13.7933819" lon="99.9511865">
<ele>10.760</ele>
<time>2018-04-02T07:23:06.992Z</time>
</trkpt>
<trkpt lat="13.7930335" lon="99.9506806">
<ele>11.096</ele>
<time>2018-04-02T07:23:10.212Z</time>
</trkpt>
<trkpt lat="13.7926218" lon="99.9500900">
<ele>11.413</ele>
<time>2018-04-02T07:23:13.967Z</time>
</trkpt>
<trkpt lat="13.7921830" lon="99.9495574">
<ele>11.952</ele>
<time>2018-04-02T07:23:17.590Z</time>
</trkpt>
<trkpt lat="13.7917212" lon="99.9490303">
<ele>12.480</ele>
<time>2018-04-02T07:23:21.288Z</time>
</trkpt>
<trkpt lat="13.7912807" lon="99.9484910">
<ele>12.695</ele>
<time>2018-04-02T07:23:25.043Z</time>
</trkpt>
<trkpt lat="13.7908804" lon="99.9480242">
<ele>12.450</ele>
<time>2018-04-02T07:23:28.569Z</time>
</trkpt>
<trkpt lat="13.7905132" lon="99.9476237">
<ele>11.800</ele>
<time>2018-04-02T07:23:31.782Z</time>
</trkpt>
<trkpt lat="13.7901195" lon="99.9471697">
<ele>11.362</ele>
<time>2018-04-02T07:23:35.331Z</time>
</trkpt>
<trkpt lat="13.7896983" lon="99.9466865">
<ele>11.558</ele>
<time>2018-04-02T07:23:39.021Z</time>
</trkpt>
<trkpt lat="13.7892813" lon="99.9461974">
<ele>11.868</ele>
<time>2018-04-02T07:23:42.645Z</time>
</trkpt>
<trkpt lat="13.7888138" lon="99.9456582">
<ele>11.777</ele>
<time>2018-04-02T07:23:46.692Z</time>
</trkpt>
<trkpt lat="13.7884012" lon="99.9451525">
<ele>11.610</ele>
<time>2018-04-02T07:23:50.347Z</time>
</trkpt>
<trkpt lat="13.7879504" lon="99.9446236">
<ele>11.761</ele>
<time>2018-04-02T07:23:54.125Z</time>
</trkpt>
<trkpt lat="13.7875214" lon="99.9441105">
<ele>11.953</ele>
<time>2018-04-02T07:23:57.710Z</time>
</trkpt>
<trkpt lat="13.7871018" lon="99.9435893">
<ele>11.848</ele>
<time>2018-04-02T07:24:01.266Z</time>
</trkpt>
<trkpt lat="13.7866917" lon="99.9430786">
<ele>11.502</ele>
<time>2018-04-02T07:24:04.728Z</time>
</trkpt>
<trkpt lat="13.7862535" lon="99.9425519">
<ele>11.063</ele>
<time>2018-04-02T07:24:08.354Z</time>
</trkpt>
<trkpt lat="13.7858718" lon="99.9420500">
<ele>10.671</ele>
<time>2018-04-02T07:24:11.728Z</time>
</trkpt>
<trkpt lat="13.7838565" lon="99.9398526">
<ele>10.355</ele>
<time>2018-04-02T07:24:28.089Z</time>
</trkpt>
<trkpt lat="13.7819890" lon="99.9382308">
<ele>10.038</ele>
<time>2018-04-02T07:24:41.174Z</time>
</trkpt>
<trkpt lat="13.7813743" lon="99.9378079">
<ele>9.836</ele>
<time>2018-04-02T07:24:45.197Z</time>
</trkpt>
<trkpt lat="13.7788890" lon="99.9364626">
<ele>9.865</ele>
<time>2018-04-02T07:25:03.999Z</time>
</trkpt>
<trkpt lat="13.7782278" lon="99.9361503">
<ele>9.969</ele>
<time>2018-04-02T07:25:09.605Z</time>
</trkpt>
<trkpt lat="13.7775805" lon="99.9358105">
<ele>9.991</ele>
<time>2018-04-02T07:25:14.959Z</time>
</trkpt>
<trkpt lat="13.7769277" lon="99.9354853">
<ele>9.952</ele>
<time>2018-04-02T07:25:19.819Z</time>
</trkpt>
<trkpt lat="13.7762738" lon="99.9351789">
<ele>9.757</ele>
<time>2018-04-02T07:25:24.298Z</time>
</trkpt>
<trkpt lat="13.7756049" lon="99.9348464">
<ele>9.326</ele>
<time>2018-04-02T07:25:28.773Z</time>
</trkpt>
<trkpt lat="13.7749454" lon="99.9345056">
<ele>8.897</ele>
<time>2018-04-02T07:25:33.009Z</time>
</trkpt>
<trkpt lat="13.7742949" lon="99.9341540">
<ele>8.628</ele>
<time>2018-04-02T07:25:37.174Z</time>
</trkpt>
<trkpt lat="13.7736276" lon="99.9338120">
<ele>8.417</ele>
<time>2018-04-02T07:25:41.407Z</time>
</trkpt>
<trkpt lat="13.7729601" lon="99.9334862">
<ele>8.290</ele>
<time>2018-04-02T07:25:45.571Z</time>
</trkpt>
<trkpt lat="13.7723339" lon="99.9332063">
<ele>8.307</ele>
<time>2018-04-02T07:25:49.427Z</time>
</trkpt>
<trkpt lat="13.7717432" lon="99.9329480">
<ele>8.387</ele>
<time>2018-04-02T07:25:53.069Z</time>
</trkpt>
<trkpt lat="13.7709598" lon="99.9325183">
<ele>8.606</ele>
<time>2018-04-02T07:25:58.471Z</time>
</trkpt>
<trkpt lat="13.7703726" lon="99.9322228">
<ele>9.044</ele>
<time>2018-04-02T07:26:04.130Z</time>
</trkpt>
<trkpt lat="13.7697743" lon="99.9319157">
<ele>9.534</ele>
<time>2018-04-02T07:26:12.123Z</time>
</trkpt>
<trkpt lat="13.7691651" lon="99.9315940">
<ele>10.041</ele>
<time>2018-04-02T07:26:19.427Z</time>
</trkpt>
<trkpt lat="13.7685591" lon="99.9312995">
<ele>10.618</ele>
<time>2018-04-02T07:26:25.317Z</time>
</trkpt>
<trkpt lat="13.7679558" lon="99.9309933">
<ele>11.015</ele>
<time>2018-04-02T07:26:31.413Z</time>
</trkpt>
<trkpt lat="13.7673221" lon="99.9306803">
<ele>11.075</ele>
<time>2018-04-02T07:26:37.648Z</time>
</trkpt>
<trkpt lat="13.7666790" lon="99.9303520">
<ele>11.018</ele>
<time>2018-04-02T07:26:44.118Z</time>
</trkpt>
<trkpt lat="13.7660439" lon="99.9300251">
<ele>11.054</ele>
<time>2018-04-02T07:26:49.838Z</time>
</trkpt>
<trkpt lat="13.7654040" lon="99.9296881">
<ele>11.111</ele>
<time>2018-04-02T07:26:55.085Z</time>
</trkpt>
<trkpt lat="13.7647466" lon="99.9293468">
<ele>10.970</ele>
<time>2018-04-02T07:27:00.017Z</time>
</trkpt>
<trkpt lat="13.7640900" lon="99.9290195">
<ele>10.615</ele>
<time>2018-04-02T07:27:04.716Z</time>
</trkpt>
<trkpt lat="13.7634259" lon="99.9286979">
<ele>10.454</ele>
<time>2018-04-02T07:27:09.306Z</time>
</trkpt>
<trkpt lat="13.7627851" lon="99.9283735">
<ele>10.754</ele>
<time>2018-04-02T07:27:13.724Z</time>
</trkpt>
<trkpt lat="13.7617352" lon="99.9278284">
<ele>11.158</ele>
<time>2018-04-02T07:27:20.674Z</time>
</trkpt>
<trkpt lat="13.7602683" lon="99.9271013">
<ele>11.083</ele>
<time>2018-04-02T07:27:30.465Z</time>
</trkpt>
<trkpt lat="13.7596126" lon="99.9268386">
<ele>10.245</ele>
<time>2018-04-02T07:27:35.036Z</time>
</trkpt>
<trkpt lat="13.7589889" lon="99.9265700">
<ele>9.011</ele>
<time>2018-04-02T07:27:39.761Z</time>
</trkpt>
<trkpt lat="13.7583267" lon="99.9262014">
<ele>8.458</ele>
<time>2018-04-02T07:27:44.721Z</time>
</trkpt>
<trkpt lat="13.7576947" lon="99.9258345">
<ele>9.050</ele>
<time>2018-04-02T07:27:49.667Z</time>
</trkpt>
<trkpt lat="13.7570249" lon="99.9254906">
<ele>9.645</ele>
<time>2018-04-02T07:27:54.750Z</time>
</trkpt>
<trkpt lat="13.7563699" lon="99.9251976">
<ele>9.225</ele>
<time>2018-04-02T07:27:59.400Z</time>
</trkpt>
<trkpt lat="13.7557192" lon="99.9248486">
<ele>8.332</ele>
<time>2018-04-02T07:28:03.913Z</time>
</trkpt>
<trkpt lat="13.7550791" lon="99.9245418">
<ele>7.685</ele>
<time>2018-04-02T07:28:08.150Z</time>
</trkpt>
<trkpt lat="13.7545412" lon="99.9242769">
<ele>7.392</ele>
<time>2018-04-02T07:28:11.839Z</time>
</trkpt>
<trkpt lat="13.7540185" lon="99.9240287">
<ele>7.477</ele>
<time>2018-04-02T07:28:15.546Z</time>
</trkpt>
<trkpt lat="13.7535335" lon="99.9237488">
<ele>7.800</ele>
<time>2018-04-02T07:28:19.168Z</time>
</trkpt>
<trkpt lat="13.7530268" lon="99.9234623">
<ele>7.971</ele>
<time>2018-04-02T07:28:23.025Z</time>
</trkpt>
<trkpt lat="13.7525617" lon="99.9232379">
<ele>7.818</ele>
<time>2018-04-02T07:28:26.485Z</time>
</trkpt>
<trkpt lat="13.7521101" lon="99.9230053">
<ele>7.441</ele>
<time>2018-04-02T07:28:29.940Z</time>
</trkpt>
<trkpt lat="13.7516475" lon="99.9227783">
<ele>6.921</ele>
<time>2018-04-02T07:28:33.782Z</time>
</trkpt>
<trkpt lat="13.7511983" lon="99.9225358">
<ele>6.297</ele>
<time>2018-04-02T07:28:37.869Z</time>
</trkpt>
<trkpt lat="13.7506391" lon="99.9222880">
<ele>5.691</ele>
<time>2018-04-02T07:28:42.725Z</time>
</trkpt>
<trkpt lat="13.7501288" lon="99.9220171">
<ele>5.125</ele>
<time>2018-04-02T07:28:47.554Z</time>
</trkpt>
<trkpt lat="13.7495727" lon="99.9217537">
<ele>4.581</ele>
<time>2018-04-02T07:28:52.837Z</time>
</trkpt>
<trkpt lat="13.7489947" lon="99.9214592">
<ele>4.102</ele>
<time>2018-04-02T07:28:58.638Z</time>
</trkpt>
<trkpt lat="13.7484404" lon="99.9212039">
<ele>3.659</ele>
<time>2018-04-02T07:29:03.882Z</time>
</trkpt>
<trkpt lat="13.7478032" lon="99.9208734">
<ele>3.325</ele>
<time>2018-04-02T07:29:09.988Z</time>
</trkpt>
<trkpt lat="13.7471795" lon="99.9205468">
<ele>3.306</ele>
<time>2018-04-02T07:29:15.578Z</time>
</trkpt>
<trkpt lat="13.7465698" lon="99.9202635">
<ele>3.530</ele>
<time>2018-04-02T07:29:20.835Z</time>
</trkpt>
<trkpt lat="13.7459778" lon="99.9199374">
<ele>3.508</ele>
<time>2018-04-02T07:29:26.151Z</time>
</trkpt>
<trkpt lat="13.7453728" lon="99.9196335">
<ele>3.000</ele>
<time>2018-04-02T07:29:30.965Z</time>
</trkpt>
<trkpt lat="13.7447443" lon="99.9193315">
<ele>2.383</ele>
<time>2018-04-02T07:29:35.627Z</time>
</trkpt>
<trkpt lat="13.7441072" lon="99.9190232">
<ele>2.055</ele>
<time>2018-04-02T07:29:40.098Z</time>
</trkpt>
<trkpt lat="13.7426654" lon="99.9182649">
<ele>2.473</ele>
<time>2018-04-02T07:29:49.994Z</time>
</trkpt>
<trkpt lat="13.7421285" lon="99.9179498">
<ele>3.901</ele>
<time>2018-04-02T07:29:53.829Z</time>
</trkpt>
<trkpt lat="13.7417783" lon="99.9175250">
<ele>5.559</ele>
<time>2018-04-02T07:29:57.197Z</time>
</trkpt>
<trkpt lat="13.7412858" lon="99.9174543">
<ele>6.513</ele>
<time>2018-04-02T07:30:00.284Z</time>
</trkpt>
<trkpt lat="13.7411477" lon="99.9173626">
<ele>7.003</ele>
<time>2018-04-02T07:30:01.280Z</time>
</trkpt>
<trkpt lat="13.7410002" lon="99.9172667">
<ele>7.568</ele>
<time>2018-04-02T07:30:02.326Z</time>
</trkpt>
<trkpt lat="13.7408751" lon="99.9170237">
<ele>8.110</ele>
<time>2018-04-02T07:30:03.892Z</time>
</trkpt>
<trkpt lat="13.7406873" lon="99.9168731">
<ele>8.234</ele>
<time>2018-04-02T07:30:05.250Z</time>
</trkpt>
<trkpt lat="13.7404363" lon="99.9166906">
<ele>7.945</ele>
<time>2018-04-02T07:30:06.979Z</time>
</trkpt>
<trkpt lat="13.7402082" lon="99.9165269">
<ele>7.575</ele>
<time>2018-04-02T07:30:08.525Z</time>
</trkpt>
<trkpt lat="13.7399574" lon="99.9163437">
<ele>7.393</ele>
<time>2018-04-02T07:30:10.222Z</time>
</trkpt>
<trkpt lat="13.7397371" lon="99.9161642">
<ele>7.385</ele>
<time>2018-04-02T07:30:11.768Z</time>
</trkpt>
<trkpt lat="13.7395345" lon="99.9159609">
<ele>7.421</ele>
<time>2018-04-02T07:30:13.317Z</time>
</trkpt>
<trkpt lat="13.7393195" lon="99.9157546">
<ele>7.382</ele>
<time>2018-04-02T07:30:14.916Z</time>
</trkpt>
<trkpt lat="13.7391102" lon="99.9155697">
<ele>7.231</ele>
<time>2018-04-02T07:30:16.411Z</time>
</trkpt>
<trkpt lat="13.7388787" lon="99.9153902">
<ele>7.036</ele>
<time>2018-04-02T07:30:17.978Z</time>
</trkpt>
<trkpt lat="13.7386561" lon="99.9151767">
<ele>6.899</ele>
<time>2018-04-02T07:30:19.606Z</time>
</trkpt>
<trkpt lat="13.7384420" lon="99.9149989">
<ele>6.850</ele>
<time>2018-04-02T07:30:21.074Z</time>
</trkpt>
<trkpt lat="13.7382129" lon="99.9147911">
<ele>6.833</ele>
<time>2018-04-02T07:30:22.700Z</time>
</trkpt>
<trkpt lat="13.7379825" lon="99.9146143">
<ele>6.739</ele>
<time>2018-04-02T07:30:24.228Z</time>
</trkpt>
<trkpt lat="13.7377490" lon="99.9144366">
<ele>6.476</ele>
<time>2018-04-02T07:30:25.770Z</time>
</trkpt>
<trkpt lat="13.7375206" lon="99.9142623">
<ele>6.119</ele>
<time>2018-04-02T07:30:27.286Z</time>
</trkpt>
<trkpt lat="13.7372701" lon="99.9140717">
<ele>5.842</ele>
<time>2018-04-02T07:30:28.950Z</time>
</trkpt>
<trkpt lat="13.7370102" lon="99.9138409">
<ele>5.732</ele>
<time>2018-04-02T07:30:30.792Z</time>
</trkpt>
<trkpt lat="13.7367406" lon="99.9136314">
<ele>5.740</ele>
<time>2018-04-02T07:30:32.626Z</time>
</trkpt>
<trkpt lat="13.7364946" lon="99.9134357">
<ele>5.697</ele>
<time>2018-04-02T07:30:34.340Z</time>
</trkpt>
<trkpt lat="13.7361962" lon="99.9131811">
<ele>5.537</ele>
<time>2018-04-02T07:30:36.506Z</time>
</trkpt>
<trkpt lat="13.7359017" lon="99.9128902">
<ele>5.401</ele>
<time>2018-04-02T07:30:38.880Z</time>
</trkpt>
<trkpt lat="13.7355804" lon="99.9126534">
<ele>5.394</ele>
<time>2018-04-02T07:30:41.274Z</time>
</trkpt>
<trkpt lat="13.7352573" lon="99.9124042">
<ele>5.473</ele>
<time>2018-04-02T07:30:43.725Z</time>
</trkpt>
<trkpt lat="13.7349385" lon="99.9121612">
<ele>5.524</ele>
<time>2018-04-02T07:30:46.098Z</time>
</trkpt>
<trkpt lat="13.7346063" lon="99.9118961">
<ele>5.330</ele>
<time>2018-04-02T07:30:48.561Z</time>
</trkpt>
<trkpt lat="13.7342915" lon="99.9116126">
<ele>4.632</ele>
<time>2018-04-02T07:30:50.983Z</time>
</trkpt>
<trkpt lat="13.7339537" lon="99.9113661">
<ele>3.604</ele>
<time>2018-04-02T07:30:53.366Z</time>
</trkpt>
<trkpt lat="13.7336470" lon="99.9110965">
<ele>2.815</ele>
<time>2018-04-02T07:30:55.675Z</time>
</trkpt>
<trkpt lat="13.7333164" lon="99.9108104">
<ele>2.439</ele>
<time>2018-04-02T07:30:58.133Z</time>
</trkpt>
<trkpt lat="13.7329946" lon="99.9105100">
<ele>2.196</ele>
<time>2018-04-02T07:31:00.576Z</time>
</trkpt>
<trkpt lat="13.7326619" lon="99.9102199">
<ele>1.966</ele>
<time>2018-04-02T07:31:02.998Z</time>
</trkpt>
<trkpt lat="13.7323091" lon="99.9099447">
<ele>1.836</ele>
<time>2018-04-02T07:31:05.422Z</time>
</trkpt>
<trkpt lat="13.7319908" lon="99.9095873">
<ele>1.834</ele>
<time>2018-04-02T07:31:07.971Z</time>
</trkpt>
<trkpt lat="13.7316359" lon="99.9092681">
<ele>1.841</ele>
<time>2018-04-02T07:31:10.514Z</time>
</trkpt>
<trkpt lat="13.7312832" lon="99.9089896">
<ele>1.702</ele>
<time>2018-04-02T07:31:12.916Z</time>
</trkpt>
<trkpt lat="13.7309096" lon="99.9087836">
<ele>1.383</ele>
<time>2018-04-02T07:31:15.185Z</time>
</trkpt>
<trkpt lat="13.7305310" lon="99.9085764">
<ele>1.011</ele>
<time>2018-04-02T07:31:17.476Z</time>
</trkpt>
<trkpt lat="13.7301330" lon="99.9084150">
<ele>0.737</ele>
<time>2018-04-02T07:31:19.769Z</time>
</trkpt>
<trkpt lat="13.7297538" lon="99.9082607">
<ele>0.599</ele>
<time>2018-04-02T07:31:21.956Z</time>
</trkpt>
<trkpt lat="13.7293959" lon="99.9081531">
<ele>0.559</ele>
<time>2018-04-02T07:31:23.980Z</time>
</trkpt>
<trkpt lat="13.7290844" lon="99.9080861">
<ele>0.633</ele>
<time>2018-04-02T07:31:25.725Z</time>
</trkpt>
<trkpt lat="13.7287151" lon="99.9079705">
<ele>1.505</ele>
<time>2018-04-02T07:31:27.855Z</time>
</trkpt>
<trkpt lat="13.7283362" lon="99.9078229">
<ele>3.480</ele>
<time>2018-04-02T07:31:30.120Z</time>
</trkpt>
<trkpt lat="13.7279461" lon="99.9077280">
<ele>5.405</ele>
<time>2018-04-02T07:31:32.376Z</time>
</trkpt>
<trkpt lat="13.7275644" lon="99.9076249">
<ele>5.883</ele>
<time>2018-04-02T07:31:34.576Z</time>
</trkpt>
<trkpt lat="13.7271886" lon="99.9075046">
<ele>4.937</ele>
<time>2018-04-02T07:31:36.739Z</time>
</trkpt>
<trkpt lat="13.7268477" lon="99.9074177">
<ele>3.708</ele>
<time>2018-04-02T07:31:38.647Z</time>
</trkpt>
<trkpt lat="13.7264887" lon="99.9073301">
<ele>3.311</ele>
<time>2018-04-02T07:31:40.643Z</time>
</trkpt>
<trkpt lat="13.7261141" lon="99.9072432">
<ele>3.763</ele>
<time>2018-04-02T07:31:42.727Z</time>
</trkpt>
<trkpt lat="13.7257359" lon="99.9071267">
<ele>4.414</ele>
<time>2018-04-02T07:31:44.855Z</time>
</trkpt>
<trkpt lat="13.7253728" lon="99.9069922">
<ele>4.870</ele>
<time>2018-04-02T07:31:46.916Z</time>
</trkpt>
<trkpt lat="13.7249727" lon="99.9068559">
<ele>5.196</ele>
<time>2018-04-02T07:31:49.150Z</time>
</trkpt>
<trkpt lat="13.7245409" lon="99.9066832">
<ele>5.051</ele>
<time>2018-04-02T07:31:51.583Z</time>
</trkpt>
<trkpt lat="13.7241246" lon="99.9065437">
<ele>3.786</ele>
<time>2018-04-02T07:31:53.851Z</time>
</trkpt>
<trkpt lat="13.7237155" lon="99.9063979">
<ele>1.735</ele>
<time>2018-04-02T07:31:56.069Z</time>
</trkpt>
<trkpt lat="13.7232962" lon="99.9062485">
<ele>0.119</ele>
<time>2018-04-02T07:31:58.328Z</time>
</trkpt>
<trkpt lat="13.7228802" lon="99.9061307">
<ele>0.000</ele>
<time>2018-04-02T07:32:00.513Z</time>
</trkpt>
<trkpt lat="13.7224589" lon="99.9059524">
<ele>0.000</ele>
<time>2018-04-02T07:32:02.805Z</time>
</trkpt>
<trkpt lat="13.7220846" lon="99.9057794">
<ele>0.000</ele>
<time>2018-04-02T07:32:04.868Z</time>
</trkpt>
<trkpt lat="13.7217310" lon="99.9056080">
<ele>0.000</ele>
<time>2018-04-02T07:32:06.840Z</time>
</trkpt>
<trkpt lat="13.7213966" lon="99.9053813">
<ele>0.000</ele>
<time>2018-04-02T07:32:08.859Z</time>
</trkpt>
<trkpt lat="13.7210686" lon="99.9051267">
<ele>0.000</ele>
<time>2018-04-02T07:32:10.917Z</time>
</trkpt>
<trkpt lat="13.7207675" lon="99.9048877">
<ele>0.549</ele>
<time>2018-04-02T07:32:12.809Z</time>
</trkpt>
<trkpt lat="13.7205136" lon="99.9046357">
<ele>2.059</ele>
<time>2018-04-02T07:32:14.562Z</time>
</trkpt>
<trkpt lat="13.7202231" lon="99.9043767">
<ele>3.795</ele>
<time>2018-04-02T07:32:16.468Z</time>
</trkpt>
<trkpt lat="13.7199380" lon="99.9041260">
<ele>4.730</ele>
<time>2018-04-02T07:32:18.313Z</time>
</trkpt>
<trkpt lat="13.7196556" lon="99.9038694">
<ele>4.734</ele>
<time>2018-04-02T07:32:20.161Z</time>
</trkpt>
<trkpt lat="13.7193598" lon="99.9036675">
<ele>4.310</ele>
<time>2018-04-02T07:32:21.911Z</time>
</trkpt>
<trkpt lat="13.7190901" lon="99.9034702">
<ele>4.135</ele>
<time>2018-04-02T07:32:23.550Z</time>
</trkpt>
<trkpt lat="13.7188516" lon="99.9033055">
<ele>4.587</ele>
<time>2018-04-02T07:32:24.976Z</time>
</trkpt>
<trkpt lat="13.7185826" lon="99.9030925">
<ele>5.388</ele>
<time>2018-04-02T07:32:26.661Z</time>
</trkpt>
<trkpt lat="13.7182830" lon="99.9028940">
<ele>5.955</ele>
<time>2018-04-02T07:32:28.428Z</time>
</trkpt>
<trkpt lat="13.7180211" lon="99.9027532">
<ele>6.098</ele>
<time>2018-04-02T07:32:29.892Z</time>
</trkpt>
<trkpt lat="13.7177651" lon="99.9025133">
<ele>6.126</ele>
<time>2018-04-02T07:32:31.607Z</time>
</trkpt>
<trkpt lat="13.7175486" lon="99.9023209">
<ele>6.319</ele>
<time>2018-04-02T07:32:33.028Z</time>
</trkpt>
<trkpt lat="13.7173047" lon="99.9021128">
<ele>6.719</ele>
<time>2018-04-02T07:32:34.609Z</time>
</trkpt>
<trkpt lat="13.7170643" lon="99.9019084">
<ele>7.237</ele>
<time>2018-04-02T07:32:36.174Z</time>
</trkpt>
<trkpt lat="13.7168368" lon="99.9017046">
<ele>7.642</ele>
<time>2018-04-02T07:32:37.699Z</time>
</trkpt>
<trkpt lat="13.7166219" lon="99.9014783">
<ele>7.770</ele>
<time>2018-04-02T07:32:39.263Z</time>
</trkpt>
<trkpt lat="13.7164094" lon="99.9012719">
<ele>7.821</ele>
<time>2018-04-02T07:32:40.759Z</time>
</trkpt>
<trkpt lat="13.7162015" lon="99.9010836">
<ele>8.009</ele>
<time>2018-04-02T07:32:42.189Z</time>
</trkpt>
<trkpt lat="13.7159805" lon="99.9008676">
<ele>8.300</ele>
<time>2018-04-02T07:32:43.785Z</time>
</trkpt>
<trkpt lat="13.7157426" lon="99.9006884">
<ele>8.535</ele>
<time>2018-04-02T07:32:45.342Z</time>
</trkpt>
<trkpt lat="13.7154956" lon="99.9004702">
<ele>8.653</ele>
<time>2018-04-02T07:32:47.058Z</time>
</trkpt>
<trkpt lat="13.7152659" lon="99.9002744">
<ele>8.510</ele>
<time>2018-04-02T07:32:48.625Z</time>
</trkpt>
<trkpt lat="13.7150337" lon="99.9000336">
<ele>8.056</ele>
<time>2018-04-02T07:32:50.353Z</time>
</trkpt>
<trkpt lat="13.7148076" lon="99.8998513">
<ele>7.656</ele>
<time>2018-04-02T07:32:51.859Z</time>
</trkpt>
<trkpt lat="13.7145715" lon="99.8996763">
<ele>7.622</ele>
<time>2018-04-02T07:32:53.389Z</time>
</trkpt>
<trkpt lat="13.7143139" lon="99.8994700">
<ele>7.829</ele>
<time>2018-04-02T07:32:55.112Z</time>
</trkpt>
<trkpt lat="13.7140524" lon="99.8992461">
<ele>8.056</ele>
<time>2018-04-02T07:32:56.922Z</time>
</trkpt>
<trkpt lat="13.7137787" lon="99.8990145">
<ele>8.156</ele>
<time>2018-04-02T07:32:58.843Z</time>
</trkpt>
<trkpt lat="13.7135203" lon="99.8988046">
<ele>8.091</ele>
<time>2018-04-02T07:33:00.674Z</time>
</trkpt>
<trkpt lat="13.7132667" lon="99.8986199">
<ele>7.972</ele>
<time>2018-04-02T07:33:02.454Z</time>
</trkpt>
<trkpt lat="13.7130231" lon="99.8984236">
<ele>7.991</ele>
<time>2018-04-02T07:33:04.284Z</time>
</trkpt>
<trkpt lat="13.7127495" lon="99.8982193">
<ele>8.222</ele>
<time>2018-04-02T07:33:06.340Z</time>
</trkpt>
<trkpt lat="13.7124682" lon="99.8979923">
<ele>8.504</ele>
<time>2018-04-02T07:33:08.580Z</time>
</trkpt>
<trkpt lat="13.7121443" lon="99.8978170">
<ele>8.520</ele>
<time>2018-04-02T07:33:10.977Z</time>
</trkpt>
<trkpt lat="13.7117901" lon="99.8976642">
<ele>7.979</ele>
<time>2018-04-02T07:33:13.737Z</time>
</trkpt>
<trkpt lat="13.7114455" lon="99.8975164">
<ele>7.015</ele>
<time>2018-04-02T07:33:16.709Z</time>
</trkpt>
<trkpt lat="13.7110623" lon="99.8974037">
<ele>6.192</ele>
<time>2018-04-02T07:33:20.221Z</time>
</trkpt>
<trkpt lat="13.7106769" lon="99.8972851">
<ele>5.823</ele>
<time>2018-04-02T07:33:23.876Z</time>
</trkpt>
<trkpt lat="13.7102791" lon="99.8971630">
<ele>5.832</ele>
<time>2018-04-02T07:33:27.785Z</time>
</trkpt>
<trkpt lat="13.7098724" lon="99.8970294">
<ele>6.040</ele>
<time>2018-04-02T07:33:32.144Z</time>
</trkpt>
<trkpt lat="13.7094568" lon="99.8969123">
<ele>6.247</ele>
<time>2018-04-02T07:33:36.896Z</time>
</trkpt>
<trkpt lat="13.7090427" lon="99.8967768">
<ele>6.594</ele>
<time>2018-04-02T07:33:42.613Z</time>
</trkpt>
<trkpt lat="13.7086380" lon="99.8966387">
<ele>7.398</ele>
<time>2018-04-02T07:33:55.116Z</time>
</trkpt>
<trkpt lat="13.7082302" lon="99.8964890">
<ele>8.485</ele>
<time>2018-04-02T07:34:02.988Z</time>
</trkpt>
<trkpt lat="13.7078376" lon="99.8963094">
<ele>9.346</ele>
<time>2018-04-02T07:34:07.564Z</time>
</trkpt>
<trkpt lat="13.7074623" lon="99.8961431">
<ele>9.754</ele>
<time>2018-04-02T07:34:11.170Z</time>
</trkpt>
<trkpt lat="13.7070751" lon="99.8959283">
<ele>9.906</ele>
<time>2018-04-02T07:34:14.683Z</time>
</trkpt>
<trkpt lat="13.7067064" lon="99.8957383">
<ele>10.258</ele>
<time>2018-04-02T07:34:17.739Z</time>
</trkpt>
<trkpt lat="13.7063579" lon="99.8955164">
<ele>10.975</ele>
<time>2018-04-02T07:34:20.618Z</time>
</trkpt>
<trkpt lat="13.7059932" lon="99.8952876">
<ele>11.928</ele>
<time>2018-04-02T07:34:23.535Z</time>
</trkpt>
<trkpt lat="13.7056123" lon="99.8950333">
<ele>12.912</ele>
<time>2018-04-02T07:34:26.682Z</time>
</trkpt>
<trkpt lat="13.7052159" lon="99.8947803">
<ele>13.517</ele>
<time>2018-04-02T07:34:30.114Z</time>
</trkpt>
<trkpt lat="13.7048213" lon="99.8945140">
<ele>13.440</ele>
<time>2018-04-02T07:34:33.759Z</time>
</trkpt>
<trkpt lat="13.7044165" lon="99.8942671">
<ele>12.963</ele>
<time>2018-04-02T07:34:37.399Z</time>
</trkpt>
<trkpt lat="13.7040231" lon="99.8939981">
<ele>12.264</ele>
<time>2018-04-02T07:34:40.938Z</time>
</trkpt>
<trkpt lat="13.7036209" lon="99.8937548">
<ele>11.359</ele>
<time>2018-04-02T07:34:44.298Z</time>
</trkpt>
<trkpt lat="13.7032058" lon="99.8934969">
<ele>10.595</ele>
<time>2018-04-02T07:34:47.669Z</time>
</trkpt>
<trkpt lat="13.7028017" lon="99.8932464">
<ele>10.238</ele>
<time>2018-04-02T07:34:50.856Z</time>
</trkpt>
<trkpt lat="13.7023850" lon="99.8929752">
<ele>9.988</ele>
<time>2018-04-02T07:34:54.109Z</time>
</trkpt>
<trkpt lat="13.7019671" lon="99.8926970">
<ele>9.577</ele>
<time>2018-04-02T07:34:57.323Z</time>
</trkpt>
<trkpt lat="13.7015366" lon="99.8924800">
<ele>9.015</ele>
<time>2018-04-02T07:35:00.362Z</time>
</trkpt>
<trkpt lat="13.7011013" lon="99.8921838">
<ele>8.277</ele>
<time>2018-04-02T07:35:03.659Z</time>
</trkpt>
<trkpt lat="13.7006868" lon="99.8919206">
<ele>7.425</ele>
<time>2018-04-02T07:35:06.823Z</time>
</trkpt>
<trkpt lat="13.7002651" lon="99.8916636">
<ele>6.851</ele>
<time>2018-04-02T07:35:10.159Z</time>
</trkpt>
<trkpt lat="13.6998506" lon="99.8913948">
<ele>6.747</ele>
<time>2018-04-02T07:35:13.616Z</time>
</trkpt>
<trkpt lat="13.6994381" lon="99.8911358">
<ele>6.869</ele>
<time>2018-04-02T07:35:16.982Z</time>
</trkpt>
<trkpt lat="13.6990567" lon="99.8908848">
<ele>6.884</ele>
<time>2018-04-02T07:35:20.033Z</time>
</trkpt>
<trkpt lat="13.6986696" lon="99.8905955">
<ele>6.583</ele>
<time>2018-04-02T07:35:23.196Z</time>
</trkpt>
<trkpt lat="13.6983009" lon="99.8903726">
<ele>6.054</ele>
<time>2018-04-02T07:35:26.001Z</time>
</trkpt>
<trkpt lat="13.6979282" lon="99.8901457">
<ele>5.600</ele>
<time>2018-04-02T07:35:28.820Z</time>
</trkpt>
<trkpt lat="13.6975692" lon="99.8898964">
<ele>5.390</ele>
<time>2018-04-02T07:35:31.628Z</time>
</trkpt>
<trkpt lat="13.6971951" lon="99.8896796">
<ele>5.598</ele>
<time>2018-04-02T07:35:34.408Z</time>
</trkpt>
<trkpt lat="13.6968236" lon="99.8894535">
<ele>6.252</ele>
<time>2018-04-02T07:35:37.169Z</time>
</trkpt>
<trkpt lat="13.6964394" lon="99.8892009">
<ele>6.614</ele>
<time>2018-04-02T07:35:40.067Z</time>
</trkpt>
<trkpt lat="13.6960584" lon="99.8889522">
<ele>5.925</ele>
<time>2018-04-02T07:35:42.946Z</time>
</trkpt>
<trkpt lat="13.6956814" lon="99.8886860">
<ele>4.615</ele>
<time>2018-04-02T07:35:45.850Z</time>
</trkpt>
<trkpt lat="13.6953006" lon="99.8884272">
<ele>3.928</ele>
<time>2018-04-02T07:35:48.732Z</time>
</trkpt>
<trkpt lat="13.6949213" lon="99.8881752">
<ele>4.355</ele>
<time>2018-04-02T07:35:51.564Z</time>
</trkpt>
<trkpt lat="13.6945251" lon="99.8879312">
<ele>5.165</ele>
<time>2018-04-02T07:35:54.428Z</time>
</trkpt>
<trkpt lat="13.6941366" lon="99.8876668">
<ele>5.374</ele>
<time>2018-04-02T07:35:57.272Z</time>
</trkpt>
<trkpt lat="13.6937278" lon="99.8874141">
<ele>4.703</ele>
<time>2018-04-02T07:36:00.146Z</time>
</trkpt>
<trkpt lat="13.6933269" lon="99.8871560">
<ele>3.645</ele>
<time>2018-04-02T07:36:02.967Z</time>
</trkpt>
<trkpt lat="13.6929131" lon="99.8869007">
<ele>2.879</ele>
<time>2018-04-02T07:36:05.808Z</time>
</trkpt>
<trkpt lat="13.6924941" lon="99.8866303">
<ele>2.674</ele>
<time>2018-04-02T07:36:08.689Z</time>
</trkpt>
<trkpt lat="13.6920845" lon="99.8863700">
<ele>3.069</ele>
<time>2018-04-02T07:36:11.487Z</time>
</trkpt>
<trkpt lat="13.6916732" lon="99.8861112">
<ele>4.306</ele>
<time>2018-04-02T07:36:14.309Z</time>
</trkpt>
<trkpt lat="13.6912459" lon="99.8858532">
<ele>6.510</ele>
<time>2018-04-02T07:36:17.223Z</time>
</trkpt>
<trkpt lat="13.6908324" lon="99.8855892">
<ele>8.902</ele>
<time>2018-04-02T07:36:20.085Z</time>
</trkpt>
<trkpt lat="13.6904327" lon="99.8853185">
<ele>10.441</ele>
<time>2018-04-02T07:36:22.887Z</time>
</trkpt>
<trkpt lat="13.6900064" lon="99.8850551">
<ele>10.985</ele>
<time>2018-04-02T07:36:25.768Z</time>
</trkpt>
<trkpt lat="13.6896030" lon="99.8847834">
<ele>11.155</ele>
<time>2018-04-02T07:36:28.514Z</time>
</trkpt>
<trkpt lat="13.6892158" lon="99.8845161">
<ele>11.447</ele>
<time>2018-04-02T07:36:31.152Z</time>
</trkpt>
<trkpt lat="13.6888296" lon="99.8842541">
<ele>11.813</ele>
<time>2018-04-02T07:36:33.812Z</time>
</trkpt>
<trkpt lat="13.6884352" lon="99.8840052">
<ele>12.188</ele>
<time>2018-04-02T07:36:36.511Z</time>
</trkpt>
<trkpt lat="13.6880282" lon="99.8837600">
<ele>12.653</ele>
<time>2018-04-02T07:36:39.236Z</time>
</trkpt>
<trkpt lat="13.6876396" lon="99.8835045">
<ele>12.963</ele>
<time>2018-04-02T07:36:41.884Z</time>
</trkpt>
<trkpt lat="13.6872408" lon="99.8832397">
<ele>12.773</ele>
<time>2018-04-02T07:36:44.608Z</time>
</trkpt>
<trkpt lat="13.6868244" lon="99.8830008">
<ele>12.165</ele>
<time>2018-04-02T07:36:47.354Z</time>
</trkpt>
<trkpt lat="13.6864090" lon="99.8827366">
<ele>11.271</ele>
<time>2018-04-02T07:36:50.193Z</time>
</trkpt>
<trkpt lat="13.6860057" lon="99.8824824">
<ele>10.182</ele>
<time>2018-04-02T07:36:52.977Z</time>
</trkpt>
<trkpt lat="13.6856115" lon="99.8822366">
<ele>9.137</ele>
<time>2018-04-02T07:36:55.715Z</time>
</trkpt>
<trkpt lat="13.6851964" lon="99.8819597">
<ele>8.514</ele>
<time>2018-04-02T07:36:58.661Z</time>
</trkpt>
<trkpt lat="13.6847858" lon="99.8816982">
<ele>8.503</ele>
<time>2018-04-02T07:37:01.504Z</time>
</trkpt>
<trkpt lat="13.6843594" lon="99.8814225">
<ele>8.880</ele>
<time>2018-04-02T07:37:04.400Z</time>
</trkpt>
<trkpt lat="13.6839374" lon="99.8811485">
<ele>9.082</ele>
<time>2018-04-02T07:37:07.215Z</time>
</trkpt>
<trkpt lat="13.6835054" lon="99.8808777">
<ele>8.735</ele>
<time>2018-04-02T07:37:10.035Z</time>
</trkpt>
<trkpt lat="13.6830727" lon="99.8805903">
<ele>7.970</ele>
<time>2018-04-02T07:37:12.887Z</time>
</trkpt>
<trkpt lat="13.6826341" lon="99.8803123">
<ele>7.312</ele>
<time>2018-04-02T07:37:15.728Z</time>
</trkpt>
<trkpt lat="13.6821991" lon="99.8800320">
<ele>7.114</ele>
<time>2018-04-02T07:37:18.557Z</time>
</trkpt>
<trkpt lat="13.6817638" lon="99.8797535">
<ele>7.418</ele>
<time>2018-04-02T07:37:21.378Z</time>
</trkpt>
<trkpt lat="13.6813060" lon="99.8794759">
<ele>8.005</ele>
<time>2018-04-02T07:37:24.359Z</time>
</trkpt>
<trkpt lat="13.6808595" lon="99.8791925">
<ele>8.363</ele>
<time>2018-04-02T07:37:27.413Z</time>
</trkpt>
<trkpt lat="13.6804250" lon="99.8789264">
<ele>8.136</ele>
<time>2018-04-02T07:37:30.353Z</time>
</trkpt>
<trkpt lat="13.6799937" lon="99.8786320">
<ele>7.520</ele>
<time>2018-04-02T07:37:33.239Z</time>
</trkpt>
<trkpt lat="13.6795557" lon="99.8783396">
<ele>6.974</ele>
<time>2018-04-02T07:37:36.084Z</time>
</trkpt>
<trkpt lat="13.6791212" lon="99.8780399">
<ele>6.760</ele>
<time>2018-04-02T07:37:38.937Z</time>
</trkpt>
<trkpt lat="13.6786712" lon="99.8777730">
<ele>6.830</ele>
<time>2018-04-02T07:37:41.796Z</time>
</trkpt>
<trkpt lat="13.6782289" lon="99.8774800">
<ele>6.528</ele>
<time>2018-04-02T07:37:44.715Z</time>
</trkpt>
<trkpt lat="13.6777755" lon="99.8771991">
<ele>5.432</ele>
<time>2018-04-02T07:37:47.645Z</time>
</trkpt>
<trkpt lat="13.6773169" lon="99.8769240">
<ele>4.187</ele>
<time>2018-04-02T07:37:50.587Z</time>
</trkpt>
<trkpt lat="13.6768669" lon="99.8766410">
<ele>3.472</ele>
<time>2018-04-02T07:37:53.527Z</time>
</trkpt>
<trkpt lat="13.6764202" lon="99.8763609">
<ele>3.259</ele>
<time>2018-04-02T07:37:56.448Z</time>
</trkpt>
<trkpt lat="13.6759723" lon="99.8760816">
<ele>3.454</ele>
<time>2018-04-02T07:37:59.359Z</time>
</trkpt>
<trkpt lat="13.6755170" lon="99.8758135">
<ele>3.984</ele>
<time>2018-04-02T07:38:02.249Z</time>
</trkpt>
<trkpt lat="13.6750566" lon="99.8755500">
<ele>4.609</ele>
<time>2018-04-02T07:38:05.126Z</time>
</trkpt>
<trkpt lat="13.6745841" lon="99.8753093">
<ele>4.948</ele>
<time>2018-04-02T07:38:07.995Z</time>
</trkpt>
<trkpt lat="13.6741147" lon="99.8750735">
<ele>4.847</ele>
<time>2018-04-02T07:38:10.835Z</time>
</trkpt>
<trkpt lat="13.6736482" lon="99.8748456">
<ele>4.504</ele>
<time>2018-04-02T07:38:13.643Z</time>
</trkpt>
<trkpt lat="13.6731839" lon="99.8746401">
<ele>4.216</ele>
<time>2018-04-02T07:38:16.394Z</time>
</trkpt>
<trkpt lat="13.6727102" lon="99.8744378">
<ele>4.131</ele>
<time>2018-04-02T07:38:19.130Z</time>
</trkpt>
<trkpt lat="13.6722456" lon="99.8742334">
<ele>4.275</ele>
<time>2018-04-02T07:38:21.760Z</time>
</trkpt>
<trkpt lat="13.6717753" lon="99.8740460">
<ele>4.666</ele>
<time>2018-04-02T07:38:24.388Z</time>
</trkpt>
<trkpt lat="13.6713225" lon="99.8738518">
<ele>5.219</ele>
<time>2018-04-02T07:38:26.960Z</time>
</trkpt>
<trkpt lat="13.6708607" lon="99.8736470">
<ele>5.881</ele>
<time>2018-04-02T07:38:29.634Z</time>
</trkpt>
<trkpt lat="13.6704023" lon="99.8734445">
<ele>6.888</ele>
<time>2018-04-02T07:38:32.339Z</time>
</trkpt>
<trkpt lat="13.6699386" lon="99.8732618">
<ele>8.243</ele>
<time>2018-04-02T07:38:35.081Z</time>
</trkpt>
<trkpt lat="13.6694829" lon="99.8730805">
<ele>9.392</ele>
<time>2018-04-02T07:38:37.821Z</time>
</trkpt>
<trkpt lat="13.6690230" lon="99.8728839">
<ele>9.734</ele>
<time>2018-04-02T07:38:40.636Z</time>
</trkpt>
<trkpt lat="13.6685823" lon="99.8727039">
<ele>9.285</ele>
<time>2018-04-02T07:38:43.297Z</time>
</trkpt>
<trkpt lat="13.6681463" lon="99.8725501">
<ele>8.665</ele>
<time>2018-04-02T07:38:45.868Z</time>
</trkpt>
<trkpt lat="13.6677283" lon="99.8723804">
<ele>8.364</ele>
<time>2018-04-02T07:38:48.424Z</time>
</trkpt>
<trkpt lat="13.6673358" lon="99.8722182">
<ele>8.332</ele>
<time>2018-04-02T07:38:50.860Z</time>
</trkpt>
<trkpt lat="13.6669331" lon="99.8720455">
<ele>8.193</ele>
<time>2018-04-02T07:38:53.407Z</time>
</trkpt>
<trkpt lat="13.6665503" lon="99.8719116">
<ele>7.525</ele>
<time>2018-04-02T07:38:55.819Z</time>
</trkpt>
<trkpt lat="13.6660240" lon="99.8716758">
<ele>6.390</ele>
<time>2018-04-02T07:38:59.344Z</time>
</trkpt>
<trkpt lat="13.6655469" lon="99.8714799">
<ele>5.336</ele>
<time>2018-04-02T07:39:02.521Z</time>
</trkpt>
<trkpt lat="13.6651272" lon="99.8712685">
<ele>4.761</ele>
<time>2018-04-02T07:39:05.463Z</time>
</trkpt>
<trkpt lat="13.6647370" lon="99.8710871">
<ele>4.959</ele>
<time>2018-04-02T07:39:08.246Z</time>
</trkpt>
<trkpt lat="13.6643295" lon="99.8708796">
<ele>5.893</ele>
<time>2018-04-02T07:39:11.271Z</time>
</trkpt>
<trkpt lat="13.6639418" lon="99.8707299">
<ele>6.876</ele>
<time>2018-04-02T07:39:14.033Z</time>
</trkpt>
<trkpt lat="13.6635991" lon="99.8705866">
<ele>7.428</ele>
<time>2018-04-02T07:39:16.481Z</time>
</trkpt>
<trkpt lat="13.6632635" lon="99.8704232">
<ele>7.597</ele>
<time>2018-04-02T07:39:18.918Z</time>
</trkpt>
<trkpt lat="13.6629278" lon="99.8702929">
<ele>7.355</ele>
<time>2018-04-02T07:39:21.271Z</time>
</trkpt>
<trkpt lat="13.6626471" lon="99.8702072">
<ele>6.752</ele>
<time>2018-04-02T07:39:23.190Z</time>
</trkpt>
<trkpt lat="13.6623847" lon="99.8700973">
<ele>6.092</ele>
<time>2018-04-02T07:39:25.046Z</time>
</trkpt>
<trkpt lat="13.6621789" lon="99.8700288">
<ele>5.801</ele>
<time>2018-04-02T07:39:26.458Z</time>
</trkpt>
<trkpt lat="13.6620650" lon="99.8699574">
<ele>6.022</ele>
<time>2018-04-02T07:39:27.329Z</time>
</trkpt>
<trkpt lat="13.6619763" lon="99.8699172">
<ele>6.488</ele>
<time>2018-04-02T07:39:27.961Z</time>
</trkpt>
<trkpt lat="13.6618656" lon="99.8698593">
<ele>7.002</ele>
<time>2018-04-02T07:39:28.766Z</time>
</trkpt>
<trkpt lat="13.6617037" lon="99.8697790">
<ele>7.476</ele>
<time>2018-04-02T07:39:29.932Z</time>
</trkpt>
<trkpt lat="13.6614468" lon="99.8696480">
<ele>7.763</ele>
<time>2018-04-02T07:39:31.772Z</time>
</trkpt>
<trkpt lat="13.6611570" lon="99.8694394">
<ele>7.817</ele>
<time>2018-04-02T07:39:34.009Z</time>
</trkpt>
<trkpt lat="13.6608275" lon="99.8692029">
<ele>7.753</ele>
<time>2018-04-02T07:39:36.510Z</time>
</trkpt>
<trkpt lat="13.6604436" lon="99.8689402">
<ele>7.711</ele>
<time>2018-04-02T07:39:39.400Z</time>
</trkpt>
<trkpt lat="13.6600326" lon="99.8686526">
<ele>7.722</ele>
<time>2018-04-02T07:39:42.521Z</time>
</trkpt>
<trkpt lat="13.6596046" lon="99.8683357">
<ele>7.593</ele>
<time>2018-04-02T07:39:45.774Z</time>
</trkpt>
<trkpt lat="13.6592009" lon="99.8679443">
<ele>7.158</ele>
<time>2018-04-02T07:39:49.131Z</time>
</trkpt>
<trkpt lat="13.6587716" lon="99.8675426">
<ele>6.378</ele>
<time>2018-04-02T07:39:52.537Z</time>
</trkpt>
<trkpt lat="13.6583346" lon="99.8671339">
<ele>5.340</ele>
<time>2018-04-02T07:39:55.930Z</time>
</trkpt>
<trkpt lat="13.6579772" lon="99.8667311">
<ele>4.392</ele>
<time>2018-04-02T07:39:58.972Z</time>
</trkpt>
<trkpt lat="13.6576288" lon="99.8663827">
<ele>4.382</ele>
<time>2018-04-02T07:40:01.753Z</time>
</trkpt>
<trkpt lat="13.6572782" lon="99.8660159">
<ele>5.929</ele>
<time>2018-04-02T07:40:04.576Z</time>
</trkpt>
<trkpt lat="13.6569368" lon="99.8656195">
<ele>8.285</ele>
<time>2018-04-02T07:40:07.424Z</time>
</trkpt>
<trkpt lat="13.6565760" lon="99.8652347">
<ele>10.007</ele>
<time>2018-04-02T07:40:10.257Z</time>
</trkpt>
<trkpt lat="13.6562065" lon="99.8648431">
<ele>10.663</ele>
<time>2018-04-02T07:40:13.142Z</time>
</trkpt>
<trkpt lat="13.6557964" lon="99.8644390">
<ele>10.702</ele>
<time>2018-04-02T07:40:16.265Z</time>
</trkpt>
<trkpt lat="13.6553973" lon="99.8640098">
<ele>10.580</ele>
<time>2018-04-02T07:40:19.505Z</time>
</trkpt>
<trkpt lat="13.6549818" lon="99.8635719">
<ele>10.495</ele>
<time>2018-04-02T07:40:22.902Z</time>
</trkpt>
<trkpt lat="13.6545570" lon="99.8631269">
<ele>10.350</ele>
<time>2018-04-02T07:40:26.391Z</time>
</trkpt>
<trkpt lat="13.6541343" lon="99.8626772">
<ele>10.052</ele>
<time>2018-04-02T07:40:29.958Z</time>
</trkpt>
<trkpt lat="13.6537227" lon="99.8621986">
<ele>9.816</ele>
<time>2018-04-02T07:40:33.637Z</time>
</trkpt>
<trkpt lat="13.6532994" lon="99.8617175">
<ele>9.839</ele>
<time>2018-04-02T07:40:37.324Z</time>
</trkpt>
<trkpt lat="13.6528688" lon="99.8613177">
<ele>9.979</ele>
<time>2018-04-02T07:40:40.712Z</time>
</trkpt>
<trkpt lat="13.6524955" lon="99.8608722">
<ele>9.879</ele>
<time>2018-04-02T07:40:44.101Z</time>
</trkpt>
<trkpt lat="13.6521122" lon="99.8604752">
<ele>9.407</ele>
<time>2018-04-02T07:40:47.322Z</time>
</trkpt>
<trkpt lat="13.6517284" lon="99.8600617">
<ele>8.910</ele>
<time>2018-04-02T07:40:50.557Z</time>
</trkpt>
<trkpt lat="13.6513187" lon="99.8596169">
<ele>8.701</ele>
<time>2018-04-02T07:40:53.921Z</time>
</trkpt>
<trkpt lat="13.6509014" lon="99.8592009">
<ele>8.734</ele>
<time>2018-04-02T07:40:57.112Z</time>
</trkpt>
<trkpt lat="13.6504915" lon="99.8587460">
<ele>8.918</ele>
<time>2018-04-02T07:41:00.442Z</time>
</trkpt>
<trkpt lat="13.6500470" lon="99.8582932">
<ele>9.155</ele>
<time>2018-04-02T07:41:04.051Z</time>
</trkpt>
<trkpt lat="13.6496095" lon="99.8578645">
<ele>9.157</ele>
<time>2018-04-02T07:41:07.677Z</time>
</trkpt>
<trkpt lat="13.6492079" lon="99.8574148">
<ele>8.754</ele>
<time>2018-04-02T07:41:11.250Z</time>
</trkpt>
<trkpt lat="13.6487670" lon="99.8569650">
<ele>8.134</ele>
<time>2018-04-02T07:41:14.987Z</time>
</trkpt>
<trkpt lat="13.6483034" lon="99.8565940">
<ele>7.670</ele>
<time>2018-04-02T07:41:18.525Z</time>
</trkpt>
<trkpt lat="13.6477768" lon="99.8562735">
<ele>7.735</ele>
<time>2018-04-02T07:41:22.205Z</time>
</trkpt>
<trkpt lat="13.6472488" lon="99.8560014">
<ele>8.493</ele>
<time>2018-04-02T07:41:25.795Z</time>
</trkpt>
<trkpt lat="13.6466756" lon="99.8557356">
<ele>9.561</ele>
<time>2018-04-02T07:41:29.727Z</time>
</trkpt>
<trkpt lat="13.6461097" lon="99.8554284">
<ele>10.107</ele>
<time>2018-04-02T07:41:33.989Z</time>
</trkpt>
<trkpt lat="13.6455357" lon="99.8551309">
<ele>9.372</ele>
<time>2018-04-02T07:41:38.228Z</time>
</trkpt>
<trkpt lat="13.6449459" lon="99.8548429">
<ele>7.654</ele>
<time>2018-04-02T07:41:42.394Z</time>
</trkpt>
<trkpt lat="13.6443566" lon="99.8545365">
<ele>6.045</ele>
<time>2018-04-02T07:41:46.549Z</time>
</trkpt>
<trkpt lat="13.6437714" lon="99.8541902">
<ele>5.002</ele>
<time>2018-04-02T07:41:50.695Z</time>
</trkpt>
<trkpt lat="13.6431815" lon="99.8538588">
<ele>4.298</ele>
<time>2018-04-02T07:41:54.630Z</time>
</trkpt>
<trkpt lat="13.6426009" lon="99.8535462">
<ele>3.899</ele>
<time>2018-04-02T07:41:58.338Z</time>
</trkpt>
<trkpt lat="13.6419907" lon="99.8532566">
<ele>3.975</ele>
<time>2018-04-02T07:42:02.120Z</time>
</trkpt>
<trkpt lat="13.6413967" lon="99.8529552">
<ele>4.523</ele>
<time>2018-04-02T07:42:05.938Z</time>
</trkpt>
<trkpt lat="13.6407894" lon="99.8526706">
<ele>5.242</ele>
<time>2018-04-02T07:42:09.934Z</time>
</trkpt>
<trkpt lat="13.6402024" lon="99.8523492">
<ele>5.803</ele>
<time>2018-04-02T07:42:14.079Z</time>
</trkpt>
<trkpt lat="13.6395878" lon="99.8520082">
<ele>6.330</ele>
<time>2018-04-02T07:42:18.615Z</time>
</trkpt>
<trkpt lat="13.6391736" lon="99.8518069">
<ele>7.004</ele>
<time>2018-04-02T07:42:21.719Z</time>
</trkpt>
<trkpt lat="13.6387542" lon="99.8516078">
<ele>7.620</ele>
<time>2018-04-02T07:42:24.941Z</time>
</trkpt>
<trkpt lat="13.6383127" lon="99.8514108">
<ele>7.932</ele>
<time>2018-04-02T07:42:28.298Z</time>
</trkpt>
<trkpt lat="13.6378999" lon="99.8512351">
<ele>8.023</ele>
<time>2018-04-02T07:42:31.356Z</time>
</trkpt>
<trkpt lat="13.6374787" lon="99.8510874">
<ele>8.041</ele>
<time>2018-04-02T07:42:34.293Z</time>
</trkpt>
<trkpt lat="13.6370454" lon="99.8509688">
<ele>8.050</ele>
<time>2018-04-02T07:42:37.137Z</time>
</trkpt>
<trkpt lat="13.6366245" lon="99.8508144">
<ele>7.820</ele>
<time>2018-04-02T07:42:39.888Z</time>
</trkpt>
<trkpt lat="13.6361957" lon="99.8506737">
<ele>7.188</ele>
<time>2018-04-02T07:42:42.599Z</time>
</trkpt>
<trkpt lat="13.6357584" lon="99.8505139">
<ele>6.418</ele>
<time>2018-04-02T07:42:45.344Z</time>
</trkpt>
<trkpt lat="13.6351109" lon="99.8503038">
<ele>5.821</ele>
<time>2018-04-02T07:42:49.324Z</time>
</trkpt>
<trkpt lat="13.6344708" lon="99.8500952">
<ele>5.468</ele>
<time>2018-04-02T07:42:53.247Z</time>
</trkpt>
<trkpt lat="13.6338296" lon="99.8498641">
<ele>5.348</ele>
<time>2018-04-02T07:42:57.202Z</time>
</trkpt>
<trkpt lat="13.6332187" lon="99.8496702">
<ele>5.007</ele>
<time>2018-04-02T07:43:01.004Z</time>
</trkpt>
<trkpt lat="13.6326144" lon="99.8494032">
<ele>4.140</ele>
<time>2018-04-02T07:43:05.049Z</time>
</trkpt>
<trkpt lat="13.6320086" lon="99.8491088">
<ele>3.392</ele>
<time>2018-04-02T07:43:09.519Z</time>
</trkpt>
<trkpt lat="13.6313997" lon="99.8487964">
<ele>3.362</ele>
<time>2018-04-02T07:43:14.513Z</time>
</trkpt>
<trkpt lat="13.6307814" lon="99.8484736">
<ele>3.528</ele>
<time>2018-04-02T07:43:19.633Z</time>
</trkpt>
<trkpt lat="13.6301642" lon="99.8481180">
<ele>3.285</ele>
<time>2018-04-02T07:43:24.842Z</time>
</trkpt>
<trkpt lat="13.6295545" lon="99.8477418">
<ele>2.691</ele>
<time>2018-04-02T07:43:30.347Z</time>
</trkpt>
<trkpt lat="13.6289659" lon="99.8473094">
<ele>2.183</ele>
<time>2018-04-02T07:43:36.239Z</time>
</trkpt>
<trkpt lat="13.6283905" lon="99.8468732">
<ele>2.263</ele>
<time>2018-04-02T07:43:41.852Z</time>
</trkpt>
<trkpt lat="13.6278247" lon="99.8464087">
<ele>3.115</ele>
<time>2018-04-02T07:43:47.090Z</time>
</trkpt>
<trkpt lat="13.6272965" lon="99.8460097">
<ele>4.253</ele>
<time>2018-04-02T07:43:51.520Z</time>
</trkpt>
<trkpt lat="13.6267767" lon="99.8456037">
<ele>5.052</ele>
<time>2018-04-02T07:43:55.725Z</time>
</trkpt>
<trkpt lat="13.6262249" lon="99.8452139">
<ele>5.447</ele>
<time>2018-04-02T07:44:00.019Z</time>
</trkpt>
<trkpt lat="13.6256472" lon="99.8447391">
<ele>5.626</ele>
<time>2018-04-02T07:44:05.164Z</time>
</trkpt>
<trkpt lat="13.6250408" lon="99.8444011">
<ele>5.597</ele>
<time>2018-04-02T07:44:10.657Z</time>
</trkpt>
<trkpt lat="13.6244057" lon="99.8440336">
<ele>5.236</ele>
<time>2018-04-02T07:44:16.338Z</time>
</trkpt>
<trkpt lat="13.6238002" lon="99.8437007">
<ele>4.534</ele>
<time>2018-04-02T07:44:21.506Z</time>
</trkpt>
<trkpt lat="13.6231387" lon="99.8433824">
<ele>3.791</ele>
<time>2018-04-02T07:44:27.031Z</time>
</trkpt>
<trkpt lat="13.6224730" lon="99.8430666">
<ele>3.632</ele>
<time>2018-04-02T07:44:32.774Z</time>
</trkpt>
<trkpt lat="13.6218261" lon="99.8428085">
<ele>4.206</ele>
<time>2018-04-02T07:44:38.336Z</time>
</trkpt>
<trkpt lat="13.6211633" lon="99.8425552">
<ele>4.968</ele>
<time>2018-04-02T07:44:44.117Z</time>
</trkpt>
<trkpt lat="13.6205016" lon="99.8423047">
<ele>5.540</ele>
<time>2018-04-02T07:44:49.736Z</time>
</trkpt>
<trkpt lat="13.6198382" lon="99.8420551">
<ele>6.308</ele>
<time>2018-04-02T07:44:55.875Z</time>
</trkpt>
<trkpt lat="13.6191765" lon="99.8418120">
<ele>7.417</ele>
<time>2018-04-02T07:45:02.276Z</time>
</trkpt>
<trkpt lat="13.6184964" lon="99.8415595">
<ele>8.319</ele>
<time>2018-04-02T07:45:08.330Z</time>
</trkpt>
<trkpt lat="13.6178207" lon="99.8413020">
<ele>8.630</ele>
<time>2018-04-02T07:45:14.121Z</time>
</trkpt>
<trkpt lat="13.6171411" lon="99.8410346">
<ele>8.567</ele>
<time>2018-04-02T07:45:19.984Z</time>
</trkpt>
<trkpt lat="13.6164634" lon="99.8407911">
<ele>8.561</ele>
<time>2018-04-02T07:45:25.627Z</time>
</trkpt>
<trkpt lat="13.6157368" lon="99.8405309">
<ele>8.954</ele>
<time>2018-04-02T07:45:31.790Z</time>
</trkpt>
<trkpt lat="13.6150232" lon="99.8402579">
<ele>9.493</ele>
<time>2018-04-02T07:45:38.035Z</time>
</trkpt>
<trkpt lat="13.6143512" lon="99.8399841">
<ele>9.747</ele>
<time>2018-04-02T07:45:44.357Z</time>
</trkpt>
<trkpt lat="13.6136613" lon="99.8397357">
<ele>9.651</ele>
<time>2018-04-02T07:45:51.161Z</time>
</trkpt>
<trkpt lat="13.6130003" lon="99.8394639">
<ele>9.330</ele>
<time>2018-04-02T07:45:59.038Z</time>
</trkpt>
<trkpt lat="13.6123518" lon="99.8391890">
<ele>8.993</ele>
<time>2018-04-02T07:46:11.730Z</time>
</trkpt>
<trkpt lat="13.6116874" lon="99.8389457">
<ele>8.849</ele>
<time>2018-04-02T07:46:25.038Z</time>
</trkpt>
<trkpt lat="13.6110288" lon="99.8387144">
<ele>8.864</ele>
<time>2018-04-02T07:46:38.169Z</time>
</trkpt>
<trkpt lat="13.6103594" lon="99.8384702">
<ele>8.845</ele>
<time>2018-04-02T07:46:51.570Z</time>
</trkpt>
<trkpt lat="13.6097176" lon="99.8382120">
<ele>8.628</ele>
<time>2018-04-02T07:47:04.576Z</time>
</trkpt>
<trkpt lat="13.6091103" lon="99.8379076">
<ele>8.312</ele>
<time>2018-04-02T07:47:17.323Z</time>
</trkpt>
<trkpt lat="13.6084870" lon="99.8376460">
<ele>8.097</ele>
<time>2018-04-02T07:47:30.026Z</time>
</trkpt>
<trkpt lat="13.6078849" lon="99.8373727">
<ele>7.974</ele>
<time>2018-04-02T07:47:42.445Z</time>
</trkpt>
<trkpt lat="13.6073306" lon="99.8371353">
<ele>7.628</ele>
<time>2018-04-02T07:47:53.773Z</time>
</trkpt>
<trkpt lat="13.6067354" lon="99.8368491">
<ele>6.788</ele>
<time>2018-04-02T07:48:06.170Z</time>
</trkpt>
<trkpt lat="13.6061782" lon="99.8365718">
<ele>5.747</ele>
<time>2018-04-02T07:48:17.851Z</time>
</trkpt>
<trkpt lat="13.6056394" lon="99.8362860">
<ele>5.047</ele>
<time>2018-04-02T07:48:29.289Z</time>
</trkpt>
<trkpt lat="13.6051370" lon="99.8360112">
<ele>4.815</ele>
<time>2018-04-02T07:48:40.026Z</time>
</trkpt>
<trkpt lat="13.6046063" lon="99.8357600">
<ele>4.719</ele>
<time>2018-04-02T07:48:51.051Z</time>
</trkpt>
<trkpt lat="13.6040838" lon="99.8354709">
<ele>4.012</ele>
<time>2018-04-02T07:49:02.245Z</time>
</trkpt>
<trkpt lat="13.6035584" lon="99.8352129">
<ele>2.489</ele>
<time>2018-04-02T07:49:13.232Z</time>
</trkpt>
<trkpt lat="13.6030309" lon="99.8349324">
<ele>1.329</ele>
<time>2018-04-02T07:49:24.435Z</time>
</trkpt>
<trkpt lat="13.6024911" lon="99.8346599">
<ele>1.685</ele>
<time>2018-04-02T07:49:35.782Z</time>
</trkpt>
<trkpt lat="13.6019606" lon="99.8343854">
<ele>3.092</ele>
<time>2018-04-02T07:49:46.986Z</time>
</trkpt>
<trkpt lat="13.6014097" lon="99.8340894">
<ele>4.327</ele>
<time>2018-04-02T07:49:58.714Z</time>
</trkpt>
<trkpt lat="13.6008474" lon="99.8337854">
<ele>4.831</ele>
<time>2018-04-02T07:50:10.699Z</time>
</trkpt>
<trkpt lat="13.6002715" lon="99.8334528">
<ele>4.882</ele>
<time>2018-04-02T07:50:23.163Z</time>
</trkpt>
<trkpt lat="13.5997175" lon="99.8331740">
<ele>4.957</ele>
<time>2018-04-02T07:50:34.801Z</time>
</trkpt>
<trkpt lat="13.5991645" lon="99.8328686">
<ele>5.419</ele>
<time>2018-04-02T07:50:46.644Z</time>
</trkpt>
<trkpt lat="13.5986024" lon="99.8325646">
<ele>6.178</ele>
<time>2018-04-02T07:50:58.628Z</time>
</trkpt>
<trkpt lat="13.5980280" lon="99.8322582">
<ele>6.847</ele>
<time>2018-04-02T07:51:10.837Z</time>
</trkpt>
<trkpt lat="13.5974358" lon="99.8319351">
<ele>7.496</ele>
<time>2018-04-02T07:51:23.487Z</time>
</trkpt>
<trkpt lat="13.5968246" lon="99.8316756">
<ele>8.418</ele>
<time>2018-04-02T07:51:35.964Z</time>
</trkpt>
<trkpt lat="13.5961944" lon="99.8314389">
<ele>9.405</ele>
<time>2018-04-02T07:51:48.623Z</time>
</trkpt>
<trkpt lat="13.5955554" lon="99.8312357">
<ele>10.082</ele>
<time>2018-04-02T07:52:01.246Z</time>
</trkpt>
<trkpt lat="13.5948654" lon="99.8310549">
<ele>10.354</ele>
<time>2018-04-02T07:52:14.681Z</time>
</trkpt>
<trkpt lat="13.5941871" lon="99.8308663">
<ele>10.334</ele>
<time>2018-04-02T07:52:27.941Z</time>
</trkpt>
<trkpt lat="13.5934738" lon="99.8307720">
<ele>10.466</ele>
<time>2018-04-02T07:52:41.513Z</time>
</trkpt>
<trkpt lat="13.5927736" lon="99.8306786">
<ele>11.018</ele>
<time>2018-04-02T07:52:54.836Z</time>
</trkpt>
<trkpt lat="13.5920416" lon="99.8306608">
<ele>11.611</ele>
<time>2018-04-02T07:53:08.653Z</time>
</trkpt>
<trkpt lat="13.5913527" lon="99.8306196">
<ele>11.493</ele>
<time>2018-04-02T07:53:21.674Z</time>
</trkpt>
<trkpt lat="13.5906517" lon="99.8305949">
<ele>10.440</ele>
<time>2018-04-02T07:53:34.911Z</time>
</trkpt>
<trkpt lat="13.5899611" lon="99.8305495">
<ele>9.115</ele>
<time>2018-04-02T07:53:47.969Z</time>
</trkpt>
<trkpt lat="13.5893026" lon="99.8305239">
<ele>8.289</ele>
<time>2018-04-02T07:54:00.404Z</time>
</trkpt>
<trkpt lat="13.5886623" lon="99.8304950">
<ele>8.159</ele>
<time>2018-04-02T07:54:12.500Z</time>
</trkpt>
<trkpt lat="13.5879817" lon="99.8304692">
<ele>8.638</ele>
<time>2018-04-02T07:54:25.351Z</time>
</trkpt>
<trkpt lat="13.5872942" lon="99.8304873">
<ele>9.445</ele>
<time>2018-04-02T07:54:38.329Z</time>
</trkpt>
<trkpt lat="13.5866228" lon="99.8304835">
<ele>10.095</ele>
<time>2018-04-02T07:54:50.999Z</time>
</trkpt>
<trkpt lat="13.5859737" lon="99.8305377">
<ele>9.991</ele>
<time>2018-04-02T07:55:03.288Z</time>
</trkpt>
<trkpt lat="13.5852934" lon="99.8304142">
<ele>8.922</ele>
<time>2018-04-02T07:55:16.323Z</time>
</trkpt>
<trkpt lat="13.5846341" lon="99.8303646">
<ele>7.424</ele>
<time>2018-04-02T07:55:28.797Z</time>
</trkpt>
<trkpt lat="13.5839067" lon="99.8303288">
<ele>6.299</ele>
<time>2018-04-02T07:55:42.538Z</time>
</trkpt>
<trkpt lat="13.5831486" lon="99.8303592">
<ele>5.833</ele>
<time>2018-04-02T07:55:56.857Z</time>
</trkpt>
<trkpt lat="13.5824190" lon="99.8303282">
<ele>5.356</ele>
<time>2018-04-02T07:56:10.636Z</time>
</trkpt>
<trkpt lat="13.5817765" lon="99.8303083">
<ele>4.211</ele>
<time>2018-04-02T07:56:22.765Z</time>
</trkpt>
<trkpt lat="13.5811194" lon="99.8302850">
<ele>2.980</ele>
<time>2018-04-02T07:56:35.173Z</time>
</trkpt>
<trkpt lat="13.5804893" lon="99.8302671">
<ele>2.997</ele>
<time>2018-04-02T07:56:47.067Z</time>
</trkpt>
<trkpt lat="13.5798511" lon="99.8302515">
<ele>4.461</ele>
<time>2018-04-02T07:56:59.113Z</time>
</trkpt>
<trkpt lat="13.5792016" lon="99.8302186">
<ele>6.273</ele>
<time>2018-04-02T07:57:11.384Z</time>
</trkpt>
<trkpt lat="13.5785708" lon="99.8302069">
<ele>7.385</ele>
<time>2018-04-02T07:57:23.290Z</time>
</trkpt>
<trkpt lat="13.5779019" lon="99.8301458">
<ele>7.755</ele>
<time>2018-04-02T07:57:35.960Z</time>
</trkpt>
<trkpt lat="13.5772660" lon="99.8301294">
<ele>7.976</ele>
<time>2018-04-02T07:57:47.964Z</time>
</trkpt>
<trkpt lat="13.5766294" lon="99.8300873">
<ele>8.388</ele>
<time>2018-04-02T07:58:00.002Z</time>
</trkpt>
<trkpt lat="13.5759989" lon="99.8300938">
<ele>8.738</ele>
<time>2018-04-02T07:58:11.900Z</time>
</trkpt>
<trkpt lat="13.5756205" lon="99.8300690">
<ele>8.782</ele>
<time>2018-04-02T07:58:19.054Z</time>
</trkpt>
<trkpt lat="13.5750448" lon="99.8300243">
<ele>8.500</ele>
<time>2018-04-02T07:58:29.947Z</time>
</trkpt>
<trkpt lat="13.5744592" lon="99.8300064">
<ele>8.122</ele>
<time>2018-04-02T07:58:41.000Z</time>
</trkpt>
<trkpt lat="13.5738360" lon="99.8299937">
<ele>7.955</ele>
<time>2018-04-02T07:58:52.764Z</time>
</trkpt>
<trkpt lat="13.5732185" lon="99.8299820">
<ele>8.202</ele>
<time>2018-04-02T07:59:04.417Z</time>
</trkpt>
<trkpt lat="13.5726120" lon="99.8299274">
<ele>8.981</ele>
<time>2018-04-02T07:59:15.906Z</time>
</trkpt>
<trkpt lat="13.5719558" lon="99.8298683">
<ele>10.064</ele>
<time>2018-04-02T07:59:28.336Z</time>
</trkpt>
<trkpt lat="13.5713049" lon="99.8298516">
<ele>10.992</ele>
<time>2018-04-02T07:59:40.621Z</time>
</trkpt>
<trkpt lat="13.5705937" lon="99.8298094">
<ele>11.530</ele>
<time>2018-04-02T07:59:54.065Z</time>
</trkpt>
<trkpt lat="13.5699034" lon="99.8297704">
<ele>11.365</ele>
<time>2018-04-02T08:00:07.110Z</time>
</trkpt>
<trkpt lat="13.5692237" lon="99.8297361">
<ele>10.406</ele>
<time>2018-04-02T08:00:19.951Z</time>
</trkpt>
<trkpt lat="13.5684847" lon="99.8297362">
<ele>9.292</ele>
<time>2018-04-02T08:00:33.896Z</time>
</trkpt>
<trkpt lat="13.5678243" lon="99.8297148">
<ele>8.590</ele>
<time>2018-04-02T08:00:46.363Z</time>
</trkpt>
<trkpt lat="13.5671847" lon="99.8296682">
<ele>7.988</ele>
<time>2018-04-02T08:00:58.464Z</time>
</trkpt>
<trkpt lat="13.5665605" lon="99.8296587">
<ele>7.146</ele>
<time>2018-04-02T08:01:10.243Z</time>
</trkpt>
<trkpt lat="13.5659347" lon="99.8296576">
<ele>6.373</ele>
<time>2018-04-02T08:01:22.052Z</time>
</trkpt>
<trkpt lat="13.5653395" lon="99.8296058">
<ele>6.414</ele>
<time>2018-04-02T08:01:33.324Z</time>
</trkpt>
<trkpt lat="13.5647810" lon="99.8295933">
<ele>7.478</ele>
<time>2018-04-02T08:01:43.865Z</time>
</trkpt>
<trkpt lat="13.5642283" lon="99.8295820">
<ele>8.857</ele>
<time>2018-04-02T08:01:54.296Z</time>
</trkpt>
<trkpt lat="13.5636827" lon="99.8295816">
<ele>9.489</ele>
<time>2018-04-02T08:02:04.591Z</time>
</trkpt>
<trkpt lat="13.5631168" lon="99.8295680">
<ele>9.162</ele>
<time>2018-04-02T08:02:15.273Z</time>
</trkpt>
<trkpt lat="13.5625142" lon="99.8295357">
<ele>8.522</ele>
<time>2018-04-02T08:02:26.658Z</time>
</trkpt>
<trkpt lat="13.5618905" lon="99.8295187">
<ele>8.261</ele>
<time>2018-04-02T08:02:38.434Z</time>
</trkpt>
<trkpt lat="13.5612476" lon="99.8294823">
<ele>8.498</ele>
<time>2018-04-02T08:02:50.584Z</time>
</trkpt>
<trkpt lat="13.5605880" lon="99.8294553">
<ele>8.992</ele>
<time>2018-04-02T08:03:03.039Z</time>
</trkpt>
<trkpt lat="13.5599249" lon="99.8294738">
<ele>9.522</ele>
<time>2018-04-02T08:03:15.558Z</time>
</trkpt>
<trkpt lat="13.5592662" lon="99.8294691">
<ele>10.116</ele>
<time>2018-04-02T08:03:27.986Z</time>
</trkpt>
<trkpt lat="13.5585976" lon="99.8294603">
<ele>10.744</ele>
<time>2018-04-02T08:03:40.604Z</time>
</trkpt>
<trkpt lat="13.5579161" lon="99.8294262">
<ele>11.189</ele>
<time>2018-04-02T08:03:53.480Z</time>
</trkpt>
<trkpt lat="13.5572435" lon="99.8293716">
<ele>11.364</ele>
<time>2018-04-02T08:04:06.211Z</time>
</trkpt>
<trkpt lat="13.5566109" lon="99.8293596">
<ele>11.585</ele>
<time>2018-04-02T08:04:18.151Z</time>
</trkpt>
<trkpt lat="13.5559643" lon="99.8293234">
<ele>12.124</ele>
<time>2018-04-02T08:04:30.370Z</time>
</trkpt>
<trkpt lat="13.5553462" lon="99.8292526">
<ele>12.840</ele>
<time>2018-04-02T08:04:42.107Z</time>
</trkpt>
<trkpt lat="13.5548083" lon="99.8291467">
<ele>13.651</ele>
<time>2018-04-02T08:04:52.441Z</time>
</trkpt>
<trkpt lat="13.5543060" lon="99.8290087">
<ele>14.655</ele>
<time>2018-04-02T08:05:02.250Z</time>
</trkpt>
<trkpt lat="13.5538380" lon="99.8287650">
<ele>15.562</ele>
<time>2018-04-02T08:05:12.150Z</time>
</trkpt>
<trkpt lat="13.5533652" lon="99.8284840">
<ele>15.999</ele>
<time>2018-04-02T08:05:22.454Z</time>
</trkpt>
<trkpt lat="13.5529285" lon="99.8281665">
<ele>15.914</ele>
<time>2018-04-02T08:05:32.544Z</time>
</trkpt>
<trkpt lat="13.5525603" lon="99.8278027">
<ele>15.245</ele>
<time>2018-04-02T08:05:42.180Z</time>
</trkpt>
<trkpt lat="13.5522672" lon="99.8274002">
<ele>13.841</ele>
<time>2018-04-02T08:05:51.406Z</time>
</trkpt>
<trkpt lat="13.5520696" lon="99.8269348">
<ele>12.096</ele>
<time>2018-04-02T08:06:00.721Z</time>
</trkpt>
<trkpt lat="13.5518864" lon="99.8264720">
<ele>11.089</ele>
<time>2018-04-02T08:06:09.887Z</time>
</trkpt>
<trkpt lat="13.5517573" lon="99.8259934">
<ele>11.756</ele>
<time>2018-04-02T08:06:18.999Z</time>
</trkpt>
<trkpt lat="13.5516741" lon="99.8254635">
<ele>14.060</ele>
<time>2018-04-02T08:06:28.847Z</time>
</trkpt>
<trkpt lat="13.5516391" lon="99.8251360">
<ele>17.099</ele>
<time>2018-04-02T08:06:34.891Z</time>
</trkpt>
<trkpt lat="13.5515887" lon="99.8247542">
<ele>20.039</ele>
<time>2018-04-02T08:06:41.958Z</time>
</trkpt>
<trkpt lat="13.5515189" lon="99.8243722">
<ele>22.368</ele>
<time>2018-04-02T08:06:49.089Z</time>
</trkpt>
<trkpt lat="13.5514619" lon="99.8239883">
<ele>23.517</ele>
<time>2018-04-02T08:06:56.212Z</time>
</trkpt>
<trkpt lat="13.5514002" lon="99.8236057">
<ele>23.427</ele>
<time>2018-04-02T08:07:03.327Z</time>
</trkpt>
<trkpt lat="13.5513432" lon="99.8231956">
<ele>22.573</ele>
<time>2018-04-02T08:07:10.927Z</time>
</trkpt>
<trkpt lat="13.5512683" lon="99.8227989">
<ele>21.217</ele>
<time>2018-04-02T08:07:18.339Z</time>
</trkpt>
<trkpt lat="13.5512634" lon="99.8223324">
<ele>19.621</ele>
<time>2018-04-02T08:07:26.898Z</time>
</trkpt>
<trkpt lat="13.5512161" lon="99.8219440">
<ele>18.298</ele>
<time>2018-04-02T08:07:34.079Z</time>
</trkpt>
<trkpt lat="13.5511810" lon="99.8215353">
<ele>17.369</ele>
<time>2018-04-02T08:07:41.606Z</time>
</trkpt>
<trkpt lat="13.5511369" lon="99.8211565">
<ele>16.614</ele>
<time>2018-04-02T08:07:48.604Z</time>
</trkpt>
<trkpt lat="13.5510894" lon="99.8207884">
<ele>15.901</ele>
<time>2018-04-02T08:07:55.416Z</time>
</trkpt>
<trkpt lat="13.5510454" lon="99.8204452">
<ele>15.271</ele>
<time>2018-04-02T08:08:01.766Z</time>
</trkpt>
<trkpt lat="13.5510028" lon="99.8201289">
<ele>14.907</ele>
<time>2018-04-02T08:08:07.625Z</time>
</trkpt>
<trkpt lat="13.5509647" lon="99.8198091">
<ele>15.145</ele>
<time>2018-04-02T08:08:13.535Z</time>
</trkpt>
<trkpt lat="13.5509332" lon="99.8194679">
<ele>16.090</ele>
<time>2018-04-02T08:08:19.822Z</time>
</trkpt>
<trkpt lat="13.5508586" lon="99.8189511">
<ele>17.298</ele>
<time>2018-04-02T08:08:29.406Z</time>
</trkpt>
<trkpt lat="13.5507894" lon="99.8184381">
<ele>17.973</ele>
<time>2018-04-02T08:08:38.908Z</time>
</trkpt>
<trkpt lat="13.5506940" lon="99.8179043">
<ele>17.557</ele>
<time>2018-04-02T08:08:48.864Z</time>
</trkpt>
<trkpt lat="13.5506190" lon="99.8173430">
<ele>16.155</ele>
<time>2018-04-02T08:08:59.258Z</time>
</trkpt>
<trkpt lat="13.5505732" lon="99.8168484">
<ele>14.582</ele>
<time>2018-04-02T08:09:08.371Z</time>
</trkpt>
<trkpt lat="13.5505002" lon="99.8163335">
<ele>13.896</ele>
<time>2018-04-02T08:09:17.917Z</time>
</trkpt>
<trkpt lat="13.5504062" lon="99.8158451">
<ele>14.339</ele>
<time>2018-04-02T08:09:27.051Z</time>
</trkpt>
<trkpt lat="13.5503604" lon="99.8153014">
<ele>14.971</ele>
<time>2018-04-02T08:09:37.062Z</time>
</trkpt>
<trkpt lat="13.5502702" lon="99.8148914">
<ele>14.840</ele>
<time>2018-04-02T08:09:44.774Z</time>
</trkpt>
<trkpt lat="13.5502151" lon="99.8143550">
<ele>14.091</ele>
<time>2018-04-02T08:09:54.667Z</time>
</trkpt>
<trkpt lat="13.5501516" lon="99.8138509">
<ele>13.735</ele>
<time>2018-04-02T08:10:03.991Z</time>
</trkpt>
<trkpt lat="13.5500715" lon="99.8133477">
<ele>14.295</ele>
<time>2018-04-02T08:10:13.344Z</time>
</trkpt>
<trkpt lat="13.5500169" lon="99.8128951">
<ele>14.758</ele>
<time>2018-04-02T08:10:21.710Z</time>
</trkpt>
<trkpt lat="13.5498943" lon="99.8120874">
<ele>13.571</ele>
<time>2018-04-02T08:10:36.708Z</time>
</trkpt>
<trkpt lat="13.5496601" lon="99.8113246">
<ele>13.736</ele>
<time>2018-04-02T08:10:51.382Z</time>
</trkpt>
<trkpt lat="13.5495466" lon="99.8107827">
<ele>14.158</ele>
<time>2018-04-02T08:11:01.552Z</time>
</trkpt>
<trkpt lat="13.5493883" lon="99.8102930">
<ele>14.063</ele>
<time>2018-04-02T08:11:11.020Z</time>
</trkpt>
<trkpt lat="13.5487750" lon="99.8088626">
<ele>13.252</ele>
<time>2018-04-02T08:11:39.701Z</time>
</trkpt>
<trkpt lat="13.5485370" lon="99.8084163">
<ele>11.916</ele>
<time>2018-04-02T08:11:49.038Z</time>
</trkpt>
<trkpt lat="13.5482683" lon="99.8079625">
<ele>10.743</ele>
<time>2018-04-02T08:11:58.786Z</time>
</trkpt>
<trkpt lat="13.5479792" lon="99.8075497">
<ele>10.241</ele>
<time>2018-04-02T08:12:08.118Z</time>
</trkpt>
<trkpt lat="13.5476837" lon="99.8071629">
<ele>10.176</ele>
<time>2018-04-02T08:12:17.144Z</time>
</trkpt>
<trkpt lat="13.5473824" lon="99.8067793">
<ele>10.226</ele>
<time>2018-04-02T08:12:26.191Z</time>
</trkpt>
<trkpt lat="13.5470621" lon="99.8063975">
<ele>10.299</ele>
<time>2018-04-02T08:12:35.443Z</time>
</trkpt>
<trkpt lat="13.5467486" lon="99.8060446">
<ele>10.448</ele>
<time>2018-04-02T08:12:44.212Z</time>
</trkpt>
<trkpt lat="13.5464209" lon="99.8057693">
<ele>10.713</ele>
<time>2018-04-02T08:12:52.195Z</time>
</trkpt>
<trkpt lat="13.5460652" lon="99.8054856">
<ele>11.027</ele>
<time>2018-04-02T08:13:00.688Z</time>
</trkpt>
<trkpt lat="13.5457256" lon="99.8052430">
<ele>11.317</ele>
<time>2018-04-02T08:13:08.490Z</time>
</trkpt>
<trkpt lat="13.5450741" lon="99.8047436">
<ele>11.591</ele>
<time>2018-04-02T08:13:23.822Z</time>
</trkpt>
<trkpt lat="13.5446160" lon="99.8043566">
<ele>11.778</ele>
<time>2018-04-02T08:13:35.009Z</time>
</trkpt>
<trkpt lat="13.5441606" lon="99.8040301">
<ele>12.197</ele>
<time>2018-04-02T08:13:45.484Z</time>
</trkpt>
<trkpt lat="13.5440016" lon="99.8039244">
<ele>11.896</ele>
<time>2018-04-02T08:13:49.056Z</time>
</trkpt>
<trkpt lat="13.5438493" lon="99.8037857">
<ele>9.910</ele>
<time>2018-04-02T08:13:52.894Z</time>
</trkpt>
<trkpt lat="13.5436864" lon="99.8036446">
<ele>6.774</ele>
<time>2018-04-02T08:13:56.912Z</time>
</trkpt>
<trkpt lat="13.5435062" lon="99.8034626">
<ele>3.881</ele>
<time>2018-04-02T08:14:01.677Z</time>
</trkpt>
<trkpt lat="13.5433027" lon="99.8032771">
<ele>2.241</ele>
<time>2018-04-02T08:14:06.809Z</time>
</trkpt>
<trkpt lat="13.5431068" lon="99.8030982">
<ele>2.076</ele>
<time>2018-04-02T08:14:11.750Z</time>
</trkpt>
<trkpt lat="13.5429432" lon="99.8029426">
<ele>2.865</ele>
<time>2018-04-02T08:14:15.953Z</time>
</trkpt>
<trkpt lat="13.5428497" lon="99.8028323">
<ele>4.153</ele>
<time>2018-04-02T08:14:18.637Z</time>
</trkpt>
<trkpt lat="13.5428381" lon="99.8027403">
<ele>5.734</ele>
<time>2018-04-02T08:14:20.339Z</time>
</trkpt>
<trkpt lat="13.5429546" lon="99.8027366">
<ele>7.435</ele>
<time>2018-04-02T08:14:22.537Z</time>
</trkpt>
<trkpt lat="13.5431415" lon="99.8027787">
<ele>9.118</ele>
<time>2018-04-02T08:14:26.148Z</time>
</trkpt>
<trkpt lat="13.5433059" lon="99.8028687">
<ele>10.693</ele>
<time>2018-04-02T08:14:29.663Z</time>
</trkpt>
<trkpt lat="13.5435284" lon="99.8030520">
<ele>11.921</ele>
<time>2018-04-02T08:14:35.042Z</time>
</trkpt>
<trkpt lat="13.5437560" lon="99.8032351">
<ele>12.591</ele>
<time>2018-04-02T08:14:40.495Z</time>
</trkpt>
<trkpt lat="13.5439798" lon="99.8034158">
<ele>12.106</ele>
<time>2018-04-02T08:14:46.519Z</time>
</trkpt>
<trkpt lat="13.5442838" lon="99.8036605">
<ele>10.054</ele>
<time>2018-04-02T08:14:54.008Z</time>
</trkpt>
<trkpt lat="13.5445175" lon="99.8038502">
<ele>6.822</ele>
<time>2018-04-02T08:14:58.611Z</time>
</trkpt>
<trkpt lat="13.5447426" lon="99.8040399">
<ele>3.455</ele>
<time>2018-04-02T08:15:03.204Z</time>
</trkpt>
<trkpt lat="13.5450003" lon="99.8042570">
<ele>1.239</ele>
<time>2018-04-02T08:15:12.636Z</time>
</trkpt>
<trkpt lat="13.5452770" lon="99.8044874">
<ele>0.676</ele>
<time>2018-04-02T08:15:22.192Z</time>
</trkpt>
<trkpt lat="13.5455658" lon="99.8047161">
<ele>0.991</ele>
<time>2018-04-02T08:15:27.739Z</time>
</trkpt>
<trkpt lat="13.5458468" lon="99.8049452">
<ele>2.189</ele>
<time>2018-04-02T08:15:32.344Z</time>
</trkpt>
<trkpt lat="13.5461592" lon="99.8051338">
<ele>4.416</ele>
<time>2018-04-02T08:15:36.676Z</time>
</trkpt>
<trkpt lat="13.5463885" lon="99.8053609">
<ele>6.475</ele>
<time>2018-04-02T08:15:40.667Z</time>
</trkpt>
<trkpt lat="13.5466917" lon="99.8056337">
<ele>7.347</ele>
<time>2018-04-02T08:15:45.532Z</time>
</trkpt>
<trkpt lat="13.5469385" lon="99.8059052">
<ele>7.386</ele>
<time>2018-04-02T08:15:49.524Z</time>
</trkpt>
<trkpt lat="13.5475445" lon="99.8066827">
<ele>7.131</ele>
<time>2018-04-02T08:16:00.256Z</time>
</trkpt>
<trkpt lat="13.5477803" lon="99.8069880">
<ele>6.590</ele>
<time>2018-04-02T08:16:04.204Z</time>
</trkpt>
<trkpt lat="13.5480074" lon="99.8073010">
<ele>5.603</ele>
<time>2018-04-02T08:16:08.070Z</time>
</trkpt>
<trkpt lat="13.5482142" lon="99.8076316">
<ele>4.573</ele>
<time>2018-04-02T08:16:11.859Z</time>
</trkpt>
<trkpt lat="13.5483974" lon="99.8079174">
<ele>3.978</ele>
<time>2018-04-02T08:16:15.202Z</time>
</trkpt>
<trkpt lat="13.5485377" lon="99.8081555">
<ele>3.783</ele>
<time>2018-04-02T08:16:17.974Z</time>
</trkpt>
<trkpt lat="13.5486763" lon="99.8083887">
<ele>3.779</ele>
<time>2018-04-02T08:16:20.812Z</time>
</trkpt>
<trkpt lat="13.5488145" lon="99.8086329">
<ele>3.743</ele>
<time>2018-04-02T08:16:24.357Z</time>
</trkpt>
<trkpt lat="13.5489252" lon="99.8088460">
<ele>3.572</ele>
<time>2018-04-02T08:16:27.917Z</time>
</trkpt>
<trkpt lat="13.5490269" lon="99.8090445">
<ele>3.449</ele>
<time>2018-04-02T08:16:31.241Z</time>
</trkpt>
<trkpt lat="13.5491085" lon="99.8092230">
<ele>3.545</ele>
<time>2018-04-02T08:16:34.312Z</time>
</trkpt>
<trkpt lat="13.5491961" lon="99.8094179">
<ele>3.781</ele>
<time>2018-04-02T08:16:37.966Z</time>
</trkpt>
<trkpt lat="13.5492777" lon="99.8096140">
<ele>4.000</ele>
<time>2018-04-02T08:16:41.852Z</time>
</trkpt>
<trkpt lat="13.5493478" lon="99.8097807">
<ele>4.299</ele>
<time>2018-04-02T08:16:45.193Z</time>
</trkpt>
<trkpt lat="13.5494108" lon="99.8099465">
<ele>4.907</ele>
<time>2018-04-02T08:16:48.718Z</time>
</trkpt>
<trkpt lat="13.5494608" lon="99.8100742">
<ele>5.686</ele>
<time>2018-04-02T08:16:51.766Z</time>
</trkpt>
<trkpt lat="13.5495031" lon="99.8102022">
<ele>6.206</ele>
<time>2018-04-02T08:16:55.252Z</time>
</trkpt>
<trkpt lat="13.5495368" lon="99.8103163">
<ele>6.310</ele>
<time>2018-04-02T08:16:58.695Z</time>
</trkpt>
<trkpt lat="13.5495746" lon="99.8104210">
<ele>6.189</ele>
<time>2018-04-02T08:17:02.283Z</time>
</trkpt>
<trkpt lat="13.5496063" lon="99.8105119">
<ele>6.064</ele>
<time>2018-04-02T08:17:05.992Z</time>
</trkpt>
<trkpt lat="13.5496063" lon="99.8105119">
<ele>6.015</ele>
<time>2018-04-02T08:17:12.992Z</time>
</trkpt>
<trkpt lat="13.5496063" lon="99.8105119">
<ele>6.020</ele>
<time>2018-04-02T08:18:11.976Z</time>
</trkpt>
<trkpt lat="13.5497092" lon="99.8107211">
<ele>6.038</ele>
<time>2018-04-02T08:18:23.825Z</time>
</trkpt>
<trkpt lat="13.5497655" lon="99.8109204">
<ele>6.366</ele>
<time>2018-04-02T08:18:26.877Z</time>
</trkpt>
<trkpt lat="13.5498075" lon="99.8111484">
<ele>7.191</ele>
<time>2018-04-02T08:18:29.286Z</time>
</trkpt>
<trkpt lat="13.5498905" lon="99.8114867">
<ele>7.996</ele>
<time>2018-04-02T08:18:32.315Z</time>
</trkpt>
<trkpt lat="13.5499688" lon="99.8118681">
<ele>8.235</ele>
<time>2018-04-02T08:18:35.257Z</time>
</trkpt>
<trkpt lat="13.5500489" lon="99.8122880">
<ele>8.075</ele>
<time>2018-04-02T08:18:38.223Z</time>
</trkpt>
<trkpt lat="13.5501189" lon="99.8127313">
<ele>7.877</ele>
<time>2018-04-02T08:18:41.155Z</time>
</trkpt>
<trkpt lat="13.5501850" lon="99.8132179">
<ele>7.768</ele>
<time>2018-04-02T08:18:44.202Z</time>
</trkpt>
<trkpt lat="13.5502552" lon="99.8137028">
<ele>7.716</ele>
<time>2018-04-02T08:18:47.094Z</time>
</trkpt>
<trkpt lat="13.5503380" lon="99.8142227">
<ele>7.707</ele>
<time>2018-04-02T08:18:50.084Z</time>
</trkpt>
<trkpt lat="13.5504238" lon="99.8147490">
<ele>7.668</ele>
<time>2018-04-02T08:18:53.025Z</time>
</trkpt>
<trkpt lat="13.5505013" lon="99.8152920">
<ele>7.545</ele>
<time>2018-04-02T08:18:55.960Z</time>
</trkpt>
<trkpt lat="13.5505859" lon="99.8158530">
<ele>7.408</ele>
<time>2018-04-02T08:18:58.913Z</time>
</trkpt>
<trkpt lat="13.5506704" lon="99.8164149">
<ele>7.234</ele>
<time>2018-04-02T08:19:01.799Z</time>
</trkpt>
<trkpt lat="13.5507422" lon="99.8170387">
<ele>7.065</ele>
<time>2018-04-02T08:19:04.926Z</time>
</trkpt>
<trkpt lat="13.5508034" lon="99.8174347">
<ele>7.188</ele>
<time>2018-04-02T08:19:06.909Z</time>
</trkpt>
<trkpt lat="13.5508606" lon="99.8178285">
<ele>7.706</ele>
<time>2018-04-02T08:19:08.915Z</time>
</trkpt>
<trkpt lat="13.5508972" lon="99.8181999">
<ele>8.323</ele>
<time>2018-04-02T08:19:10.891Z</time>
</trkpt>
<trkpt lat="13.5509436" lon="99.8185625">
<ele>8.785</ele>
<time>2018-04-02T08:19:12.964Z</time>
</trkpt>
<trkpt lat="13.5509860" lon="99.8188887">
<ele>9.124</ele>
<time>2018-04-02T08:19:14.903Z</time>
</trkpt>
<trkpt lat="13.5510203" lon="99.8192339">
<ele>9.436</ele>
<time>2018-04-02T08:19:16.957Z</time>
</trkpt>
<trkpt lat="13.5510650" lon="99.8195454">
<ele>9.822</ele>
<time>2018-04-02T08:19:18.849Z</time>
</trkpt>
<trkpt lat="13.5511132" lon="99.8198684">
<ele>10.372</ele>
<time>2018-04-02T08:19:20.827Z</time>
</trkpt>
<trkpt lat="13.5511612" lon="99.8201880">
<ele>10.904</ele>
<time>2018-04-02T08:19:22.795Z</time>
</trkpt>
<trkpt lat="13.5512062" lon="99.8205046">
<ele>11.190</ele>
<time>2018-04-02T08:19:24.746Z</time>
</trkpt>
<trkpt lat="13.5512519" lon="99.8208305">
<ele>11.409</ele>
<time>2018-04-02T08:19:26.737Z</time>
</trkpt>
<trkpt lat="13.5512849" lon="99.8211443">
<ele>11.843</ele>
<time>2018-04-02T08:19:28.617Z</time>
</trkpt>
<trkpt lat="13.5513193" lon="99.8214722">
<ele>12.418</ele>
<time>2018-04-02T08:19:30.561Z</time>
</trkpt>
<trkpt lat="13.5513600" lon="99.8218105">
<ele>12.252</ele>
<time>2018-04-02T08:19:32.528Z</time>
</trkpt>
<trkpt lat="13.5514262" lon="99.8221601">
<ele>10.767</ele>
<time>2018-04-02T08:19:34.517Z</time>
</trkpt>
<trkpt lat="13.5514739" lon="99.8225464">
<ele>8.874</ele>
<time>2018-04-02T08:19:36.678Z</time>
</trkpt>
<trkpt lat="13.5515091" lon="99.8228727">
<ele>8.197</ele>
<time>2018-04-02T08:19:38.543Z</time>
</trkpt>
<trkpt lat="13.5515655" lon="99.8232079">
<ele>9.365</ele>
<time>2018-04-02T08:19:40.536Z</time>
</trkpt>
<trkpt lat="13.5516117" lon="99.8235388">
<ele>11.675</ele>
<time>2018-04-02T08:19:42.564Z</time>
</trkpt>
<trkpt lat="13.5516580" lon="99.8238488">
<ele>13.941</ele>
<time>2018-04-02T08:19:44.474Z</time>
</trkpt>
<trkpt lat="13.5517236" lon="99.8243471">
<ele>15.647</ele>
<time>2018-04-02T08:19:47.520Z</time>
</trkpt>
<trkpt lat="13.5517914" lon="99.8248206">
<ele>16.827</ele>
<time>2018-04-02T08:19:50.413Z</time>
</trkpt>
<trkpt lat="13.5518642" lon="99.8252888">
<ele>17.541</ele>
<time>2018-04-02T08:19:53.283Z</time>
</trkpt>
<trkpt lat="13.5519338" lon="99.8257801">
<ele>17.360</ele>
<time>2018-04-02T08:19:56.292Z</time>
</trkpt>
<trkpt lat="13.5520477" lon="99.8262440">
<ele>15.999</ele>
<time>2018-04-02T08:19:59.175Z</time>
</trkpt>
<trkpt lat="13.5521999" lon="99.8267346">
<ele>14.199</ele>
<time>2018-04-02T08:20:02.201Z</time>
</trkpt>
<trkpt lat="13.5524300" lon="99.8271829">
<ele>12.898</ele>
<time>2018-04-02T08:20:05.122Z</time>
</trkpt>
<trkpt lat="13.5527084" lon="99.8276064">
<ele>12.098</ele>
<time>2018-04-02T08:20:08.059Z</time>
</trkpt>
<trkpt lat="13.5530369" lon="99.8279935">
<ele>11.253</ele>
<time>2018-04-02T08:20:11.019Z</time>
</trkpt>
<trkpt lat="13.5534042" lon="99.8283197">
<ele>10.023</ele>
<time>2018-04-02T08:20:13.946Z</time>
</trkpt>
<trkpt lat="13.5537969" lon="99.8285926">
<ele>8.721</ele>
<time>2018-04-02T08:20:16.897Z</time>
</trkpt>
<trkpt lat="13.5541991" lon="99.8287927">
<ele>7.996</ele>
<time>2018-04-02T08:20:19.805Z</time>
</trkpt>
<trkpt lat="13.5546165" lon="99.8289321">
<ele>7.991</ele>
<time>2018-04-02T08:20:22.794Z</time>
</trkpt>
<trkpt lat="13.5550141" lon="99.8290287">
<ele>8.286</ele>
<time>2018-04-02T08:20:25.681Z</time>
</trkpt>
<trkpt lat="13.5554328" lon="99.8290792">
<ele>8.483</ele>
<time>2018-04-02T08:20:28.715Z</time>
</trkpt>
<trkpt lat="13.5558583" lon="99.8290971">
<ele>8.534</ele>
<time>2018-04-02T08:20:31.776Z</time>
</trkpt>
<trkpt lat="13.5562690" lon="99.8290780">
<ele>8.641</ele>
<time>2018-04-02T08:20:34.714Z</time>
</trkpt>
<trkpt lat="13.5567146" lon="99.8291062">
<ele>9.003</ele>
<time>2018-04-02T08:20:37.825Z</time>
</trkpt>
<trkpt lat="13.5571689" lon="99.8290980">
<ele>9.517</ele>
<time>2018-04-02T08:20:40.894Z</time>
</trkpt>
<trkpt lat="13.5575925" lon="99.8290908">
<ele>9.889</ele>
<time>2018-04-02T08:20:43.817Z</time>
</trkpt>
<trkpt lat="13.5579725" lon="99.8290587">
<ele>9.944</ele>
<time>2018-04-02T08:20:46.672Z</time>
</trkpt>
<trkpt lat="13.5582846" lon="99.8289311">
<ele>9.758</ele>
<time>2018-04-02T08:20:49.523Z</time>
</trkpt>
<trkpt lat="13.5583546" lon="99.8286175">
<ele>9.179</ele>
<time>2018-04-02T08:20:52.608Z</time>
</trkpt>
<trkpt lat="13.5581741" lon="99.8283911">
<ele>8.118</ele>
<time>2018-04-02T08:20:55.694Z</time>
</trkpt>
<trkpt lat="13.5578987" lon="99.8283009">
<ele>7.274</ele>
<time>2018-04-02T08:20:58.831Z</time>
</trkpt>
<trkpt lat="13.5576267" lon="99.8283905">
<ele>7.417</ele>
<time>2018-04-02T08:21:01.827Z</time>
</trkpt>
<trkpt lat="13.5574459" lon="99.8286359">
<ele>8.327</ele>
<time>2018-04-02T08:21:04.830Z</time>
</trkpt>
<trkpt lat="13.5573097" lon="99.8289543">
<ele>9.383</ele>
<time>2018-04-02T08:21:07.994Z</time>
</trkpt>
<trkpt lat="13.5572805" lon="99.8292693">
<ele>10.190</ele>
<time>2018-04-02T08:21:10.788Z</time>
</trkpt>
<trkpt lat="13.5572931" lon="99.8296709">
<ele>10.464</ele>
<time>2018-04-02T08:21:14.121Z</time>
</trkpt>
<trkpt lat="13.5573622" lon="99.8300977">
<ele>10.117</ele>
<time>2018-04-02T08:21:17.385Z</time>
</trkpt>
<trkpt lat="13.5573723" lon="99.8304825">
<ele>9.507</ele>
<time>2018-04-02T08:21:20.148Z</time>
</trkpt>
<trkpt lat="13.5573817" lon="99.8309399">
<ele>9.038</ele>
<time>2018-04-02T08:21:23.291Z</time>
</trkpt>
<trkpt lat="13.5574100" lon="99.8313966">
<ele>8.855</ele>
<time>2018-04-02T08:21:26.327Z</time>
</trkpt>
<trkpt lat="13.5573324" lon="99.8318303">
<ele>8.909</ele>
<time>2018-04-02T08:21:29.226Z</time>
</trkpt>
<trkpt lat="13.5572057" lon="99.8322470">
<ele>9.092</ele>
<time>2018-04-02T08:21:32.156Z</time>
</trkpt>
<trkpt lat="13.5571043" lon="99.8326654">
<ele>9.314</ele>
<time>2018-04-02T08:21:35.118Z</time>
</trkpt>
<trkpt lat="13.5568913" lon="99.8330995">
<ele>9.441</ele>
<time>2018-04-02T08:21:38.367Z</time>
</trkpt>
<trkpt lat="13.5567358" lon="99.8335600">
<ele>9.305</ele>
<time>2018-04-02T08:21:41.516Z</time>
</trkpt>
<trkpt lat="13.5566230" lon="99.8339653">
<ele>8.876</ele>
<time>2018-04-02T08:21:44.286Z</time>
</trkpt>
<trkpt lat="13.5564889" lon="99.8343784">
<ele>8.359</ele>
<time>2018-04-02T08:21:47.236Z</time>
</trkpt>
<trkpt lat="13.5563312" lon="99.8347662">
<ele>8.031</ele>
<time>2018-04-02T08:21:50.227Z</time>
</trkpt>
<trkpt lat="13.5561359" lon="99.8350124">
<ele>7.950</ele>
<time>2018-04-02T08:21:52.687Z</time>
</trkpt>
<trkpt lat="13.5559632" lon="99.8352834">
<ele>8.003</ele>
<time>2018-04-02T08:21:55.461Z</time>
</trkpt>
<trkpt lat="13.5558017" lon="99.8356111">
<ele>8.071</ele>
<time>2018-04-02T08:21:58.754Z</time>
</trkpt>
<trkpt lat="13.5555437" lon="99.8358676">
<ele>7.925</ele>
<time>2018-04-02T08:22:02.026Z</time>
</trkpt>
<trkpt lat="13.5554441" lon="99.8361733">
<ele>7.471</ele>
<time>2018-04-02T08:22:04.892Z</time>
</trkpt>
<trkpt lat="13.5552017" lon="99.8364447">
<ele>6.982</ele>
<time>2018-04-02T08:22:08.186Z</time>
</trkpt>
<trkpt lat="13.5549454" lon="99.8366295">
<ele>6.694</ele>
<time>2018-04-02T08:22:10.988Z</time>
</trkpt>
<trkpt lat="13.5546681" lon="99.8368737">
<ele>6.404</ele>
<time>2018-04-02T08:22:14.044Z</time>
</trkpt>
<trkpt lat="13.5543487" lon="99.8371270">
<ele>5.950</ele>
<time>2018-04-02T08:22:17.128Z</time>
</trkpt>
<trkpt lat="13.5539519" lon="99.8373324">
<ele>5.454</ele>
<time>2018-04-02T08:22:20.303Z</time>
</trkpt>
<trkpt lat="13.5535721" lon="99.8375757">
<ele>5.031</ele>
<time>2018-04-02T08:22:23.338Z</time>
</trkpt>
<trkpt lat="13.5531462" lon="99.8377632">
<ele>4.706</ele>
<time>2018-04-02T08:22:26.365Z</time>
</trkpt>
<trkpt lat="13.5527493" lon="99.8379800">
<ele>4.325</ele>
<time>2018-04-02T08:22:29.259Z</time>
</trkpt>
<trkpt lat="13.5523397" lon="99.8382164">
<ele>3.615</ele>
<time>2018-04-02T08:22:32.222Z</time>
</trkpt>
<trkpt lat="13.5518657" lon="99.8383727">
<ele>2.764</ele>
<time>2018-04-02T08:22:35.288Z</time>
</trkpt>
<trkpt lat="13.5514356" lon="99.8384809">
<ele>2.143</ele>
<time>2018-04-02T08:22:38.099Z</time>
</trkpt>
<trkpt lat="13.5510573" lon="99.8386537">
<ele>1.940</ele>
<time>2018-04-02T08:22:40.949Z</time>
</trkpt>
<trkpt lat="13.5507449" lon="99.8389153">
<ele>2.174</ele>
<time>2018-04-02T08:22:44.137Z</time>
</trkpt>
<trkpt lat="13.5505691" lon="99.8390118">
<ele>2.595</ele>
<time>2018-04-02T08:22:45.971Z</time>
</trkpt>
<trkpt lat="13.5504251" lon="99.8391014">
<ele>3.098</ele>
<time>2018-04-02T08:22:48.314Z</time>
</trkpt>
<trkpt lat="13.5504453" lon="99.8392306">
<ele>3.741</ele>
<time>2018-04-02T08:22:50.637Z</time>
</trkpt>
<trkpt lat="13.5505703" lon="99.8393726">
<ele>3.619</ele>
<time>2018-04-02T08:22:54.528Z</time>
</trkpt>
<trkpt lat="13.5507785" lon="99.8393996">
<ele>2.093</ele>
<time>2018-04-02T08:22:58.065Z</time>
</trkpt>
<trkpt lat="13.5510234" lon="99.8393083">
<ele>0.094</ele>
<time>2018-04-02T08:23:01.718Z</time>
</trkpt>
<trkpt lat="13.5512882" lon="99.8394606">
<ele>0.000</ele>
<time>2018-04-02T08:23:05.295Z</time>
</trkpt>
<trkpt lat="13.5516513" lon="99.8394574">
<ele>0.000</ele>
<time>2018-04-02T08:23:08.907Z</time>
</trkpt>
<trkpt lat="13.5519681" lon="99.8394451">
<ele>0.000</ele>
<time>2018-04-02T08:23:11.823Z</time>
</trkpt>
<trkpt lat="13.5522911" lon="99.8393736">
<ele>0.000</ele>
<time>2018-04-02T08:23:14.710Z</time>
</trkpt>
<trkpt lat="13.5527080" lon="99.8392845">
<ele>0.278</ele>
<time>2018-04-02T08:23:18.261Z</time>
</trkpt>
<trkpt lat="13.5530473" lon="99.8392196">
<ele>1.427</ele>
<time>2018-04-02T08:23:21.258Z</time>
</trkpt>
<trkpt lat="13.5533359" lon="99.8391636">
<ele>2.492</ele>
<time>2018-04-02T08:23:24.383Z</time>
</trkpt>
<trkpt lat="13.5537623" lon="99.8389943">
<ele>3.466</ele>
<time>2018-04-02T08:23:30.136Z</time>
</trkpt>
<trkpt lat="13.5539442" lon="99.8389715">
<ele>3.727</ele>
<time>2018-04-02T08:23:32.992Z</time>
</trkpt>
<trkpt lat="13.5541330" lon="99.8389411">
<ele>4.447</ele>
<time>2018-04-02T08:23:35.660Z</time>
</trkpt>
<trkpt lat="13.5543951" lon="99.8389375">
<ele>5.162</ele>
<time>2018-04-02T08:23:38.712Z</time>
</trkpt>
<trkpt lat="13.5546835" lon="99.8388889">
<ele>5.363</ele>
<time>2018-04-02T08:23:41.741Z</time>
</trkpt>
<trkpt lat="13.5549699" lon="99.8388732">
<ele>5.312</ele>
<time>2018-04-02T08:23:44.785Z</time>
</trkpt>
<trkpt lat="13.5552037" lon="99.8388673">
<ele>5.353</ele>
<time>2018-04-02T08:23:47.684Z</time>
</trkpt>
<trkpt lat="13.5554079" lon="99.8388659">
<ele>5.475</ele>
<time>2018-04-02T08:23:51.486Z</time>
</trkpt>
<trkpt lat="13.5554906" lon="99.8388139">
<ele>5.560</ele>
<time>2018-04-02T08:23:54.582Z</time>
</trkpt>
<trkpt lat="13.5555231" lon="99.8387211">
<ele>5.612</ele>
<time>2018-04-02T08:23:59.630Z</time>
</trkpt>
<trkpt lat="13.5555228" lon="99.8386104">
<ele>5.699</ele>
<time>2018-04-02T08:24:05.590Z</time>
</trkpt>
<trkpt lat="13.5555074" lon="99.8385182">
<ele>5.837</ele>
<time>2018-04-02T08:24:08.772Z</time>
</trkpt>
<trkpt lat="13.5555877" lon="99.8383559">
<ele>5.955</ele>
<time>2018-04-02T08:24:12.455Z</time>
</trkpt>
<trkpt lat="13.5556036" lon="99.8380825">
<ele>6.000</ele>
<time>2018-04-02T08:24:16.005Z</time>
</trkpt>
<trkpt lat="13.5556544" lon="99.8377792">
<ele>5.994</ele>
<time>2018-04-02T08:24:19.195Z</time>
</trkpt>
<trkpt lat="13.5556864" lon="99.8375013">
<ele>6.037</ele>
<time>2018-04-02T08:24:21.811Z</time>
</trkpt>
<trkpt lat="13.5557333" lon="99.8371376">
<ele>6.199</ele>
<time>2018-04-02T08:24:25.098Z</time>
</trkpt>
<trkpt lat="13.5558078" lon="99.8368747">
<ele>6.393</ele>
<time>2018-04-02T08:24:27.487Z</time>
</trkpt>
<trkpt lat="13.5558181" lon="99.8364786">
<ele>6.505</ele>
<time>2018-04-02T08:24:30.931Z</time>
</trkpt>
<trkpt lat="13.5558349" lon="99.8361506">
<ele>6.460</ele>
<time>2018-04-02T08:24:34.258Z</time>
</trkpt>
<trkpt lat="13.5558757" lon="99.8359181">
<ele>6.259</ele>
<time>2018-04-02T08:24:37.594Z</time>
</trkpt>
<trkpt lat="13.5558226" lon="99.8357848">
<ele>6.207</ele>
<time>2018-04-02T08:24:40.331Z</time>
</trkpt>
<trkpt lat="13.5556845" lon="99.8357629">
<ele>6.536</ele>
<time>2018-04-02T08:24:43.248Z</time>
</trkpt>
<trkpt lat="13.5556080" lon="99.8359027">
<ele>6.997</ele>
<time>2018-04-02T08:24:45.881Z</time>
</trkpt>
<trkpt lat="13.5554457" lon="99.8360884">
<ele>7.290</ele>
<time>2018-04-02T08:24:48.965Z</time>
</trkpt>
<trkpt lat="13.5552537" lon="99.8362971">
<ele>7.465</ele>
<time>2018-04-02T08:24:51.899Z</time>
</trkpt>
<trkpt lat="13.5550533" lon="99.8365657">
<ele>7.632</ele>
<time>2018-04-02T08:24:54.971Z</time>
</trkpt>
<trkpt lat="13.5547181" lon="99.8367742">
<ele>7.553</ele>
<time>2018-04-02T08:24:58.297Z</time>
</trkpt>
<trkpt lat="13.5543339" lon="99.8368280">
<ele>7.060</ele>
<time>2018-04-02T08:25:01.349Z</time>
</trkpt>
<trkpt lat="13.5540078" lon="99.8371815">
<ele>6.501</ele>
<time>2018-04-02T08:25:04.841Z</time>
</trkpt>
<trkpt lat="13.5536539" lon="99.8373890">
<ele>6.222</ele>
<time>2018-04-02T08:25:07.771Z</time>
</trkpt>
<trkpt lat="13.5532928" lon="99.8375684">
<ele>6.171</ele>
<time>2018-04-02T08:25:10.470Z</time>
</trkpt>
<trkpt lat="13.5528478" lon="99.8378264">
<ele>6.276</ele>
<time>2018-04-02T08:25:13.701Z</time>
</trkpt>
<trkpt lat="13.5524029" lon="99.8380490">
<ele>6.488</ele>
<time>2018-04-02T08:25:16.764Z</time>
</trkpt>
<trkpt lat="13.5519550" lon="99.8382800">
<ele>6.535</ele>
<time>2018-04-02T08:25:19.869Z</time>
</trkpt>
<trkpt lat="13.5515158" lon="99.8384856">
<ele>6.195</ele>
<time>2018-04-02T08:25:22.984Z</time>
</trkpt>
<trkpt lat="13.5511115" lon="99.8386802">
<ele>5.741</ele>
<time>2018-04-02T08:25:26.238Z</time>
</trkpt>
<trkpt lat="13.5507641" lon="99.8388517">
<ele>5.607</ele>
<time>2018-04-02T08:25:29.866Z</time>
</trkpt>
<trkpt lat="13.5505219" lon="99.8390110">
<ele>5.858</ele>
<time>2018-04-02T08:25:33.991Z</time>
</trkpt>
<trkpt lat="13.5503794" lon="99.8391310">
<ele>6.239</ele>
<time>2018-04-02T08:25:37.266Z</time>
</trkpt>
<trkpt lat="13.5504919" lon="99.8392469">
<ele>6.489</ele>
<time>2018-04-02T08:25:39.565Z</time>
</trkpt>
<trkpt lat="13.5507043" lon="99.8392671">
<ele>6.549</ele>
<time>2018-04-02T08:25:42.139Z</time>
</trkpt>
<trkpt lat="13.5509776" lon="99.8392715">
<ele>6.404</ele>
<time>2018-04-02T08:25:44.934Z</time>
</trkpt>
<trkpt lat="13.5512933" lon="99.8392859">
<ele>6.082</ele>
<time>2018-04-02T08:25:47.757Z</time>
</trkpt>
<trkpt lat="13.5516665" lon="99.8392855">
<ele>5.812</ele>
<time>2018-04-02T08:25:50.837Z</time>
</trkpt>
<trkpt lat="13.5520532" lon="99.8392701">
<ele>5.768</ele>
<time>2018-04-02T08:25:54.101Z</time>
</trkpt>
<trkpt lat="13.5523845" lon="99.8391374">
<ele>5.767</ele>
<time>2018-04-02T08:25:57.310Z</time>
</trkpt>
<trkpt lat="13.5526942" lon="99.8391186">
<ele>5.604</ele>
<time>2018-04-02T08:26:00.252Z</time>
</trkpt>
<trkpt lat="13.5530519" lon="99.8390766">
<ele>5.281</ele>
<time>2018-04-02T08:26:04.299Z</time>
</trkpt>
<trkpt lat="13.5533669" lon="99.8390441">
<ele>4.893</ele>
<time>2018-04-02T08:26:11.290Z</time>
</trkpt>
<trkpt lat="13.5535381" lon="99.8390366">
<ele>4.331</ele>
<time>2018-04-02T08:26:17.702Z</time>
</trkpt>
<trkpt lat="13.5536611" lon="99.8390318">
<ele>3.565</ele>
<time>2018-04-02T08:26:23.265Z</time>
</trkpt>
<trkpt lat="13.5537674" lon="99.8390141">
<ele>3.045</ele>
<time>2018-04-02T08:26:26.819Z</time>
</trkpt>
<trkpt lat="13.5538572" lon="99.8390233">
<ele>3.104</ele>
<time>2018-04-02T08:26:28.792Z</time>
</trkpt>
<trkpt lat="13.5539054" lon="99.8391028">
<ele>3.435</ele>
<time>2018-04-02T08:26:30.401Z</time>
</trkpt>
<trkpt lat="13.5538687" lon="99.8392248">
<ele>3.672</ele>
<time>2018-04-02T08:26:32.353Z</time>
</trkpt>
<trkpt lat="13.5538159" lon="99.8393593">
<ele>3.745</ele>
<time>2018-04-02T08:26:34.359Z</time>
</trkpt>
<trkpt lat="13.5537857" lon="99.8394798">
<ele>3.739</ele>
<time>2018-04-02T08:26:35.967Z</time>
</trkpt>
<trkpt lat="13.5537647" lon="99.8396152">
<ele>3.827</ele>
<time>2018-04-02T08:26:37.652Z</time>
</trkpt>
<trkpt lat="13.5537317" lon="99.8397805">
<ele>4.092</ele>
<time>2018-04-02T08:26:39.596Z</time>
</trkpt>
<trkpt lat="13.5536945" lon="99.8399383">
<ele>4.444</ele>
<time>2018-04-02T08:26:41.346Z</time>
</trkpt>
<trkpt lat="13.5536699" lon="99.8401246">
<ele>4.841</ele>
<time>2018-04-02T08:26:43.236Z</time>
</trkpt>
<trkpt lat="13.5536419" lon="99.8403204">
<ele>5.328</ele>
<time>2018-04-02T08:26:45.131Z</time>
</trkpt>
<trkpt lat="13.5536223" lon="99.8405293">
<ele>5.802</ele>
<time>2018-04-02T08:26:47.079Z</time>
</trkpt>
<trkpt lat="13.5535969" lon="99.8407354">
<ele>6.090</ele>
<time>2018-04-02T08:26:48.929Z</time>
</trkpt>
<trkpt lat="13.5535654" lon="99.8409620">
<ele>6.140</ele>
<time>2018-04-02T08:26:50.880Z</time>
</trkpt>
<trkpt lat="13.5535224" lon="99.8411755">
<ele>6.037</ele>
<time>2018-04-02T08:26:52.690Z</time>
</trkpt>
<trkpt lat="13.5534692" lon="99.8414148">
<ele>5.855</ele>
<time>2018-04-02T08:26:54.706Z</time>
</trkpt>
<trkpt lat="13.5534543" lon="99.8416534">
<ele>5.635</ele>
<time>2018-04-02T08:26:56.637Z</time>
</trkpt>
<trkpt lat="13.5534113" lon="99.8419061">
<ele>5.420</ele>
<time>2018-04-02T08:26:58.670Z</time>
</trkpt>
<trkpt lat="13.5533888" lon="99.8422520">
<ele>5.253</ele>
<time>2018-04-02T08:27:01.308Z</time>
</trkpt>
<trkpt lat="13.5533232" lon="99.8426790">
<ele>4.905</ele>
<time>2018-04-02T08:27:04.421Z</time>
</trkpt>
<trkpt lat="13.5532479" lon="99.8431053">
<ele>4.231</ele>
<time>2018-04-02T08:27:07.451Z</time>
</trkpt>
<trkpt lat="13.5531912" lon="99.8435265">
<ele>3.579</ele>
<time>2018-04-02T08:27:10.301Z</time>
</trkpt>
<trkpt lat="13.5531292" lon="99.8440020">
<ele>3.279</ele>
<time>2018-04-02T08:27:13.393Z</time>
</trkpt>
<trkpt lat="13.5530647" lon="99.8444584">
<ele>3.080</ele>
<time>2018-04-02T08:27:16.408Z</time>
</trkpt>
<trkpt lat="13.5529724" lon="99.8448873">
<ele>2.601</ele>
<time>2018-04-02T08:27:19.414Z</time>
</trkpt>
<trkpt lat="13.5529120" lon="99.8453058">
<ele>1.639</ele>
<time>2018-04-02T08:27:22.450Z</time>
</trkpt>
<trkpt lat="13.5528559" lon="99.8456862">
<ele>0.000</ele>
<time>2018-04-02T08:27:25.274Z</time>
</trkpt>
<trkpt lat="13.5528000" lon="99.8460851">
<ele>0.000</ele>
<time>2018-04-02T08:27:28.158Z</time>
</trkpt>
<trkpt lat="13.5527294" lon="99.8465093">
<ele>0.000</ele>
<time>2018-04-02T08:27:31.070Z</time>
</trkpt>
<trkpt lat="13.5526444" lon="99.8469614">
<ele>0.000</ele>
<time>2018-04-02T08:27:34.087Z</time>
</trkpt>
<trkpt lat="13.5526117" lon="99.8473868">
<ele>0.000</ele>
<time>2018-04-02T08:27:36.865Z</time>
</trkpt>
<trkpt lat="13.5525584" lon="99.8478193">
<ele>0.000</ele>
<time>2018-04-02T08:27:39.681Z</time>
</trkpt>
<trkpt lat="13.5524864" lon="99.8483063">
<ele>0.000</ele>
<time>2018-04-02T08:27:42.922Z</time>
</trkpt>
<trkpt lat="13.5524163" lon="99.8487114">
<ele>0.000</ele>
<time>2018-04-02T08:27:45.760Z</time>
</trkpt>
<trkpt lat="13.5523109" lon="99.8491232">
<ele>0.000</ele>
<time>2018-04-02T08:27:48.687Z</time>
</trkpt>
<trkpt lat="13.5522444" lon="99.8495841">
<ele>0.000</ele>
<time>2018-04-02T08:27:51.799Z</time>
</trkpt>
<trkpt lat="13.5521758" lon="99.8500419">
<ele>0.000</ele>
<time>2018-04-02T08:27:54.824Z</time>
</trkpt>
<trkpt lat="13.5521139" lon="99.8505169">
<ele>0.000</ele>
<time>2018-04-02T08:27:57.832Z</time>
</trkpt>
<trkpt lat="13.5520397" lon="99.8510134">
<ele>0.000</ele>
<time>2018-04-02T08:28:00.920Z</time>
</trkpt>
<trkpt lat="13.5519630" lon="99.8514785">
<ele>0.000</ele>
<time>2018-04-02T08:28:03.904Z</time>
</trkpt>
<trkpt lat="13.5519071" lon="99.8519116">
<ele>0.000</ele>
<time>2018-04-02T08:28:06.809Z</time>
</trkpt>
<trkpt lat="13.5518530" lon="99.8523490">
<ele>0.000</ele>
<time>2018-04-02T08:28:09.888Z</time>
</trkpt>
<trkpt lat="13.5517891" lon="99.8527644">
<ele>0.000</ele>
<time>2018-04-02T08:28:12.929Z</time>
</trkpt>
<trkpt lat="13.5517105" lon="99.8531697">
<ele>0.000</ele>
<time>2018-04-02T08:28:15.911Z</time>
</trkpt>
<trkpt lat="13.5516747" lon="99.8536040">
<ele>0.000</ele>
<time>2018-04-02T08:28:19.111Z</time>
</trkpt>
<trkpt lat="13.5516267" lon="99.8539596">
<ele>0.000</ele>
<time>2018-04-02T08:28:21.839Z</time>
</trkpt>
<trkpt lat="13.5515478" lon="99.8543582">
<ele>0.000</ele>
<time>2018-04-02T08:28:24.976Z</time>
</trkpt>
<trkpt lat="13.5514851" lon="99.8547411">
<ele>0.000</ele>
<time>2018-04-02T08:28:27.979Z</time>
</trkpt>
<trkpt lat="13.5514157" lon="99.8551382">
<ele>0.000</ele>
<time>2018-04-02T08:28:31.083Z</time>
</trkpt>
<trkpt lat="13.5513822" lon="99.8555244">
<ele>0.000</ele>
<time>2018-04-02T08:28:34.065Z</time>
</trkpt>
<trkpt lat="13.5513363" lon="99.8559138">
<ele>0.000</ele>
<time>2018-04-02T08:28:37.057Z</time>
</trkpt>
<trkpt lat="13.5512833" lon="99.8562974">
<ele>0.000</ele>
<time>2018-04-02T08:28:39.957Z</time>
</trkpt>
<trkpt lat="13.5512147" lon="99.8566925">
<ele>0.000</ele>
<time>2018-04-02T08:28:42.893Z</time>
</trkpt>
<trkpt lat="13.5511320" lon="99.8570875">
<ele>0.000</ele>
<time>2018-04-02T08:28:45.839Z</time>
</trkpt>
<trkpt lat="13.5510651" lon="99.8574838">
<ele>0.000</ele>
<time>2018-04-02T08:28:48.810Z</time>
</trkpt>
<trkpt lat="13.5509940" lon="99.8578588">
<ele>0.000</ele>
<time>2018-04-02T08:28:51.675Z</time>
</trkpt>
<trkpt lat="13.5509280" lon="99.8582315">
<ele>0.000</ele>
<time>2018-04-02T08:28:54.517Z</time>
</trkpt>
<trkpt lat="13.5508991" lon="99.8586499">
<ele>0.000</ele>
<time>2018-04-02T08:28:57.717Z</time>
</trkpt>
<trkpt lat="13.5508340" lon="99.8590264">
<ele>0.000</ele>
<time>2018-04-02T08:29:00.793Z</time>
</trkpt>
<trkpt lat="13.5507938" lon="99.8593750">
<ele>0.000</ele>
<time>2018-04-02T08:29:03.582Z</time>
</trkpt>
<trkpt lat="13.5507595" lon="99.8597825">
<ele>0.000</ele>
<time>2018-04-02T08:29:06.679Z</time>
</trkpt>
<trkpt lat="13.5507240" lon="99.8601555">
<ele>0.000</ele>
<time>2018-04-02T08:29:09.441Z</time>
</trkpt>
<trkpt lat="13.5506186" lon="99.8605504">
<ele>0.000</ele>
<time>2018-04-02T08:29:12.382Z</time>
</trkpt>
<trkpt lat="13.5505533" lon="99.8609788">
<ele>0.000</ele>
<time>2018-04-02T08:29:15.403Z</time>
</trkpt>
<trkpt lat="13.5504865" lon="99.8614025">
<ele>0.000</ele>
<time>2018-04-02T08:29:18.319Z</time>
</trkpt>
<trkpt lat="13.5504424" lon="99.8618607">
<ele>0.000</ele>
<time>2018-04-02T08:29:21.395Z</time>
</trkpt>
<trkpt lat="13.5503781" lon="99.8623025">
<ele>0.000</ele>
<time>2018-04-02T08:29:24.243Z</time>
</trkpt>
<trkpt lat="13.5503016" lon="99.8628454">
<ele>0.000</ele>
<time>2018-04-02T08:29:27.702Z</time>
</trkpt>
<trkpt lat="13.5502581" lon="99.8632277">
<ele>0.000</ele>
<time>2018-04-02T08:29:30.184Z</time>
</trkpt>
<trkpt lat="13.5501244" lon="99.8637113">
<ele>0.000</ele>
<time>2018-04-02T08:29:33.537Z</time>
</trkpt>
<trkpt lat="13.5501071" lon="99.8640750">
<ele>0.000</ele>
<time>2018-04-02T08:29:36.157Z</time>
</trkpt>
<trkpt lat="13.5500635" lon="99.8643376">
<ele>0.000</ele>
<time>2018-04-02T08:29:38.092Z</time>
</trkpt>
<trkpt lat="13.5499925" lon="99.8646261">
<ele>0.000</ele>
<time>2018-04-02T08:29:40.208Z</time>
</trkpt>
<trkpt lat="13.5499506" lon="99.8648961">
<ele>0.000</ele>
<time>2018-04-02T08:29:42.148Z</time>
</trkpt>
<trkpt lat="13.5499236" lon="99.8651630">
<ele>0.000</ele>
<time>2018-04-02T08:29:43.973Z</time>
</trkpt>
<trkpt lat="13.5498581" lon="99.8655399">
<ele>0.000</ele>
<time>2018-04-02T08:29:46.653Z</time>
</trkpt>
<trkpt lat="13.5498160" lon="99.8657682">
<ele>0.000</ele>
<time>2018-04-02T08:29:48.436Z</time>
</trkpt>
<trkpt lat="13.5497882" lon="99.8659929">
<ele>0.000</ele>
<time>2018-04-02T08:29:50.307Z</time>
</trkpt>
<trkpt lat="13.5497514" lon="99.8661983">
<ele>0.000</ele>
<time>2018-04-02T08:29:52.271Z</time>
</trkpt>
<trkpt lat="13.5497520" lon="99.8663506">
<ele>0.000</ele>
<time>2018-04-02T08:29:54.106Z</time>
</trkpt>
<trkpt lat="13.5497357" lon="99.8664598">
<ele>0.000</ele>
<time>2018-04-02T08:29:56.326Z</time>
</trkpt>
<trkpt lat="13.5496874" lon="99.8665667">
<ele>0.000</ele>
<time>2018-04-02T08:29:59.139Z</time>
</trkpt>
<trkpt lat="13.5495699" lon="99.8665904">
<ele>0.000</ele>
<time>2018-04-02T08:30:03.365Z</time>
</trkpt>
<trkpt lat="13.5494749" lon="99.8665541">
<ele>0.000</ele>
<time>2018-04-02T08:30:07.246Z</time>
</trkpt>
<trkpt lat="13.5494546" lon="99.8666942">
<ele>0.000</ele>
<time>2018-04-02T08:30:11.130Z</time>
</trkpt>
<trkpt lat="13.5494409" lon="99.8668695">
<ele>0.000</ele>
<time>2018-04-02T08:30:14.246Z</time>
</trkpt>
<trkpt lat="13.5494043" lon="99.8671160">
<ele>0.000</ele>
<time>2018-04-02T08:30:17.435Z</time>
</trkpt>
<trkpt lat="13.5494164" lon="99.8675623">
<ele>0.000</ele>
<time>2018-04-02T08:30:21.515Z</time>
</trkpt>
<trkpt lat="13.5493384" lon="99.8679874">
<ele>0.000</ele>
<time>2018-04-02T08:30:24.747Z</time>
</trkpt>
<trkpt lat="13.5491657" lon="99.8684099">
<ele>0.000</ele>
<time>2018-04-02T08:30:28.283Z</time>
</trkpt>
<trkpt lat="13.5491140" lon="99.8687293">
<ele>0.000</ele>
<time>2018-04-02T08:30:31.259Z</time>
</trkpt>
<trkpt lat="13.5490660" lon="99.8690008">
<ele>0.000</ele>
<time>2018-04-02T08:30:34.264Z</time>
</trkpt>
<trkpt lat="13.5490306" lon="99.8692179">
<ele>0.000</ele>
<time>2018-04-02T08:30:36.636Z</time>
</trkpt>
<trkpt lat="13.5490232" lon="99.8695851">
<ele>0.000</ele>
<time>2018-04-02T08:30:39.986Z</time>
</trkpt>
<trkpt lat="13.5489516" lon="99.8699749">
<ele>0.000</ele>
<time>2018-04-02T08:30:43.263Z</time>
</trkpt>
<trkpt lat="13.5488785" lon="99.8703594">
<ele>0.000</ele>
<time>2018-04-02T08:30:47.590Z</time>
</trkpt>
<trkpt lat="13.5488490" lon="99.8704978">
<ele>0.000</ele>
<time>2018-04-02T08:30:50.190Z</time>
</trkpt>
<trkpt lat="13.5488168" lon="99.8706381">
<ele>0.000</ele>
<time>2018-04-02T08:30:53.890Z</time>
</trkpt>
<trkpt lat="13.5487927" lon="99.8707576">
<ele>0.000</ele>
<time>2018-04-02T08:30:57.139Z</time>
</trkpt>
<trkpt lat="13.5487952" lon="99.8708768">
<ele>0.000</ele>
<time>2018-04-02T08:30:59.361Z</time>
</trkpt>
<trkpt lat="13.5487973" lon="99.8711085">
<ele>0.000</ele>
<time>2018-04-02T08:31:02.370Z</time>
</trkpt>
<trkpt lat="13.5487445" lon="99.8714363">
<ele>0.000</ele>
<time>2018-04-02T08:31:05.591Z</time>
</trkpt>
<trkpt lat="13.5486759" lon="99.8717937">
<ele>0.041</ele>
<time>2018-04-02T08:31:08.601Z</time>
</trkpt>
<trkpt lat="13.5486064" lon="99.8721767">
<ele>0.000</ele>
<time>2018-04-02T08:31:11.473Z</time>
</trkpt>
<trkpt lat="13.5485012" lon="99.8727144">
<ele>0.000</ele>
<time>2018-04-02T08:31:15.091Z</time>
</trkpt>
<trkpt lat="13.5484717" lon="99.8731223">
<ele>0.000</ele>
<time>2018-04-02T08:31:17.667Z</time>
</trkpt>
<trkpt lat="13.5483888" lon="99.8736207">
<ele>0.000</ele>
<time>2018-04-02T08:31:20.808Z</time>
</trkpt>
<trkpt lat="13.5483375" lon="99.8740980">
<ele>0.000</ele>
<time>2018-04-02T08:31:23.806Z</time>
</trkpt>
<trkpt lat="13.5482736" lon="99.8745440">
<ele>0.000</ele>
<time>2018-04-02T08:31:26.671Z</time>
</trkpt>
<trkpt lat="13.5481842" lon="99.8749983">
<ele>0.000</ele>
<time>2018-04-02T08:31:29.641Z</time>
</trkpt>
<trkpt lat="13.5481363" lon="99.8754555">
<ele>0.755</ele>
<time>2018-04-02T08:31:32.539Z</time>
</trkpt>
<trkpt lat="13.5480371" lon="99.8759646">
<ele>2.136</ele>
<time>2018-04-02T08:31:35.701Z</time>
</trkpt>
<trkpt lat="13.5479336" lon="99.8764632">
<ele>2.721</ele>
<time>2018-04-02T08:31:38.747Z</time>
</trkpt>
<trkpt lat="13.5478591" lon="99.8769343">
<ele>3.071</ele>
<time>2018-04-02T08:31:41.670Z</time>
</trkpt>
<trkpt lat="13.5477954" lon="99.8774242">
<ele>3.332</ele>
<time>2018-04-02T08:31:44.895Z</time>
</trkpt>
<trkpt lat="13.5477615" lon="99.8778200">
<ele>3.185</ele>
<time>2018-04-02T08:31:47.704Z</time>
</trkpt>
<trkpt lat="13.5476977" lon="99.8782065">
<ele>2.439</ele>
<time>2018-04-02T08:31:50.732Z</time>
</trkpt>
<trkpt lat="13.5476174" lon="99.8785379">
<ele>1.191</ele>
<time>2018-04-02T08:31:53.619Z</time>
</trkpt>
<trkpt lat="13.5476086" lon="99.8788718">
<ele>0.000</ele>
<time>2018-04-02T08:31:56.657Z</time>
</trkpt>
<trkpt lat="13.5475635" lon="99.8791526">
<ele>0.000</ele>
<time>2018-04-02T08:31:59.517Z</time>
</trkpt>
<trkpt lat="13.5475287" lon="99.8794214">
<ele>0.000</ele>
<time>2018-04-02T08:32:02.864Z</time>
</trkpt>
<trkpt lat="13.5475045" lon="99.8795830">
<ele>0.000</ele>
<time>2018-04-02T08:32:05.430Z</time>
</trkpt>
<trkpt lat="13.5475033" lon="99.8797574">
<ele>0.000</ele>
<time>2018-04-02T08:32:08.434Z</time>
</trkpt>
<trkpt lat="13.5474673" lon="99.8799402">
<ele>0.000</ele>
<time>2018-04-02T08:32:11.734Z</time>
</trkpt>
<trkpt lat="13.5474365" lon="99.8800641">
<ele>0.000</ele>
<time>2018-04-02T08:32:14.134Z</time>
</trkpt>
<trkpt lat="13.5473830" lon="99.8802686">
<ele>0.000</ele>
<time>2018-04-02T08:32:17.878Z</time>
</trkpt>
<trkpt lat="13.5473779" lon="99.8804782">
<ele>0.000</ele>
<time>2018-04-02T08:32:20.962Z</time>
</trkpt>
<trkpt lat="13.5473147" lon="99.8806694">
<ele>0.000</ele>
<time>2018-04-02T08:32:23.737Z</time>
</trkpt>
<trkpt lat="13.5473072" lon="99.8808761">
<ele>0.000</ele>
<time>2018-04-02T08:32:26.560Z</time>
</trkpt>
<trkpt lat="13.5472895" lon="99.8811091">
<ele>0.000</ele>
<time>2018-04-02T08:32:29.764Z</time>
</trkpt>
<trkpt lat="13.5472160" lon="99.8813177">
<ele>0.000</ele>
<time>2018-04-02T08:32:32.948Z</time>
</trkpt>
<trkpt lat="13.5472351" lon="99.8814758">
<ele>0.000</ele>
<time>2018-04-02T08:32:35.505Z</time>
</trkpt>
<trkpt lat="13.5471593" lon="99.8818348">
<ele>0.000</ele>
<time>2018-04-02T08:32:40.665Z</time>
</trkpt>
<trkpt lat="13.5471104" lon="99.8820944">
<ele>0.000</ele>
<time>2018-04-02T08:32:43.423Z</time>
</trkpt>
<trkpt lat="13.5470377" lon="99.8823843">
<ele>0.000</ele>
<time>2018-04-02T08:32:46.485Z</time>
</trkpt>
<trkpt lat="13.5470301" lon="99.8826327">
<ele>0.000</ele>
<time>2018-04-02T08:32:49.188Z</time>
</trkpt>
<trkpt lat="13.5469869" lon="99.8828661">
<ele>0.000</ele>
<time>2018-04-02T08:32:51.937Z</time>
</trkpt>
<trkpt lat="13.5469740" lon="99.8830926">
<ele>0.000</ele>
<time>2018-04-02T08:32:54.617Z</time>
</trkpt>
<trkpt lat="13.5469186" lon="99.8833396">
<ele>0.000</ele>
<time>2018-04-02T08:32:57.513Z</time>
</trkpt>
<trkpt lat="13.5468894" lon="99.8835941">
<ele>0.000</ele>
<time>2018-04-02T08:33:00.298Z</time>
</trkpt>
<trkpt lat="13.5468300" lon="99.8838665">
<ele>0.000</ele>
<time>2018-04-02T08:33:03.231Z</time>
</trkpt>
<trkpt lat="13.5468249" lon="99.8841812">
<ele>0.917</ele>
<time>2018-04-02T08:33:06.365Z</time>
</trkpt>
<trkpt lat="13.5467710" lon="99.8845404">
<ele>1.405</ele>
<time>2018-04-02T08:33:09.691Z</time>
</trkpt>
<trkpt lat="13.5467197" lon="99.8848991">
<ele>0.000</ele>
<time>2018-04-02T08:33:12.797Z</time>
</trkpt>
<trkpt lat="13.5466619" lon="99.8852545">
<ele>0.000</ele>
<time>2018-04-02T08:33:15.763Z</time>
</trkpt>
<trkpt lat="13.5465846" lon="99.8856427">
<ele>0.000</ele>
<time>2018-04-02T08:33:19.011Z</time>
</trkpt>
<trkpt lat="13.5465737" lon="99.8859812">
<ele>0.000</ele>
<time>2018-04-02T08:33:21.959Z</time>
</trkpt>
<trkpt lat="13.5464881" lon="99.8862822">
<ele>0.000</ele>
<time>2018-04-02T08:33:24.756Z</time>
</trkpt>
<trkpt lat="13.5464486" lon="99.8866229">
<ele>0.000</ele>
<time>2018-04-02T08:33:27.935Z</time>
</trkpt>
<trkpt lat="13.5463312" lon="99.8868749">
<ele>0.000</ele>
<time>2018-04-02T08:33:31.041Z</time>
</trkpt>
<trkpt lat="13.5462902" lon="99.8871049">
<ele>0.000</ele>
<time>2018-04-02T08:33:34.156Z</time>
</trkpt>
<trkpt lat="13.5462733" lon="99.8873128">
<ele>0.000</ele>
<time>2018-04-02T08:33:36.769Z</time>
</trkpt>
<trkpt lat="13.5462516" lon="99.8875839">
<ele>0.000</ele>
<time>2018-04-02T08:33:39.634Z</time>
</trkpt>
<trkpt lat="13.5462417" lon="99.8878956">
<ele>0.000</ele>
<time>2018-04-02T08:33:42.595Z</time>
</trkpt>
<trkpt lat="13.5462041" lon="99.8882182">
<ele>0.000</ele>
<time>2018-04-02T08:33:45.539Z</time>
</trkpt>
<trkpt lat="13.5461412" lon="99.8885167">
<ele>0.000</ele>
<time>2018-04-02T08:33:48.198Z</time>
</trkpt>
<trkpt lat="13.5460742" lon="99.8888784">
<ele>0.000</ele>
<time>2018-04-02T08:33:51.266Z</time>
</trkpt>
<trkpt lat="13.5460130" lon="99.8892617">
<ele>0.000</ele>
<time>2018-04-02T08:33:54.332Z</time>
</trkpt>
<trkpt lat="13.5459120" lon="99.8896507">
<ele>0.000</ele>
<time>2018-04-02T08:33:57.310Z</time>
</trkpt>
<trkpt lat="13.5458727" lon="99.8901070">
<ele>0.000</ele>
<time>2018-04-02T08:34:00.679Z</time>
</trkpt>
<trkpt lat="13.5458361" lon="99.8904568">
<ele>0.000</ele>
<time>2018-04-02T08:34:03.465Z</time>
</trkpt>
<trkpt lat="13.5457721" lon="99.8907965">
<ele>0.000</ele>
<time>2018-04-02T08:34:06.242Z</time>
</trkpt>
<trkpt lat="13.5457343" lon="99.8912005">
<ele>0.000</ele>
<time>2018-04-02T08:34:09.371Z</time>
</trkpt>
<trkpt lat="13.5456795" lon="99.8915735">
<ele>0.000</ele>
<time>2018-04-02T08:34:12.153Z</time>
</trkpt>
<trkpt lat="13.5456034" lon="99.8919879">
<ele>0.000</ele>
<time>2018-04-02T08:34:15.119Z</time>
</trkpt>
<trkpt lat="13.5455307" lon="99.8924494">
<ele>0.000</ele>
<time>2018-04-02T08:34:18.268Z</time>
</trkpt>
<trkpt lat="13.5455004" lon="99.8928925">
<ele>0.000</ele>
<time>2018-04-02T08:34:21.282Z</time>
</trkpt>
<trkpt lat="13.5454366" lon="99.8932828">
<ele>0.000</ele>
<time>2018-04-02T08:34:23.971Z</time>
</trkpt>
<trkpt lat="13.5453584" lon="99.8937717">
<ele>0.000</ele>
<time>2018-04-02T08:34:27.256Z</time>
</trkpt>
<trkpt lat="13.5452710" lon="99.8942236">
<ele>0.000</ele>
<time>2018-04-02T08:34:30.190Z</time>
</trkpt>
<trkpt lat="13.5451681" lon="99.8947471">
<ele>0.000</ele>
<time>2018-04-02T08:34:33.446Z</time>
</trkpt>
<trkpt lat="13.5450987" lon="99.8952642">
<ele>0.000</ele>
<time>2018-04-02T08:34:36.755Z</time>
</trkpt>
<trkpt lat="13.5450663" lon="99.8956666">
<ele>0.000</ele>
<time>2018-04-02T08:34:39.630Z</time>
</trkpt>
<trkpt lat="13.5449982" lon="99.8960703">
<ele>0.000</ele>
<time>2018-04-02T08:34:42.879Z</time>
</trkpt>
<trkpt lat="13.5449591" lon="99.8963956">
<ele>0.000</ele>
<time>2018-04-02T08:34:46.417Z</time>
</trkpt>
<trkpt lat="13.5449272" lon="99.8965657">
<ele>0.000</ele>
<time>2018-04-02T08:34:49.655Z</time>
</trkpt>
<trkpt lat="13.5448111" lon="99.8965706">
<ele>0.000</ele>
<time>2018-04-02T08:34:51.885Z</time>
</trkpt>
<trkpt lat="13.5446428" lon="99.8965219">
<ele>0.000</ele>
<time>2018-04-02T08:34:55.749Z</time>
</trkpt>
<trkpt lat="13.5444024" lon="99.8964712">
<ele>0.000</ele>
<time>2018-04-02T08:34:59.290Z</time>
</trkpt>
<trkpt lat="13.5440857" lon="99.8964049">
<ele>0.000</ele>
<time>2018-04-02T08:35:02.590Z</time>
</trkpt>
<trkpt lat="13.5437317" lon="99.8963278">
<ele>0.000</ele>
<time>2018-04-02T08:35:05.616Z</time>
</trkpt>
<trkpt lat="13.5433272" lon="99.8962299">
<ele>0.000</ele>
<time>2018-04-02T08:35:08.698Z</time>
</trkpt>
<trkpt lat="13.5428890" lon="99.8961029">
<ele>0.000</ele>
<time>2018-04-02T08:35:11.871Z</time>
</trkpt>
<trkpt lat="13.5424823" lon="99.8959035">
<ele>0.000</ele>
<time>2018-04-02T08:35:14.980Z</time>
</trkpt>
<trkpt lat="13.5421323" lon="99.8956745">
<ele>0.000</ele>
<time>2018-04-02T08:35:17.939Z</time>
</trkpt>
<trkpt lat="13.5417868" lon="99.8954689">
<ele>0.000</ele>
<time>2018-04-02T08:35:20.895Z</time>
</trkpt>
<trkpt lat="13.5414004" lon="99.8953401">
<ele>0.000</ele>
<time>2018-04-02T08:35:23.853Z</time>
</trkpt>
<trkpt lat="13.5409571" lon="99.8952804">
<ele>0.000</ele>
<time>2018-04-02T08:35:26.895Z</time>
</trkpt>
<trkpt lat="13.5404830" lon="99.8952462">
<ele>0.000</ele>
<time>2018-04-02T08:35:29.915Z</time>
</trkpt>
<trkpt lat="13.5399855" lon="99.8952367">
<ele>0.000</ele>
<time>2018-04-02T08:35:32.945Z</time>
</trkpt>
<trkpt lat="13.5395008" lon="99.8953187">
<ele>0.000</ele>
<time>2018-04-02T08:35:35.912Z</time>
</trkpt>
<trkpt lat="13.5390095" lon="99.8954050">
<ele>0.000</ele>
<time>2018-04-02T08:35:38.970Z</time>
</trkpt>
<trkpt lat="13.5385482" lon="99.8954870">
<ele>0.000</ele>
<time>2018-04-02T08:35:41.896Z</time>
</trkpt>
<trkpt lat="13.5380973" lon="99.8956213">
<ele>0.000</ele>
<time>2018-04-02T08:35:44.871Z</time>
</trkpt>
<trkpt lat="13.5376692" lon="99.8957735">
<ele>0.000</ele>
<time>2018-04-02T08:35:47.870Z</time>
</trkpt>
<trkpt lat="13.5373263" lon="99.8959455">
<ele>0.000</ele>
<time>2018-04-02T08:35:50.605Z</time>
</trkpt>
<trkpt lat="13.5370205" lon="99.8962368">
<ele>0.000</ele>
<time>2018-04-02T08:35:53.728Z</time>
</trkpt>
<trkpt lat="13.5366822" lon="99.8964496">
<ele>0.000</ele>
<time>2018-04-02T08:35:56.703Z</time>
</trkpt>
<trkpt lat="13.5363031" lon="99.8965703">
<ele>0.000</ele>
<time>2018-04-02T08:35:59.637Z</time>
</trkpt>
<trkpt lat="13.5359019" lon="99.8967003">
<ele>0.000</ele>
<time>2018-04-02T08:36:02.651Z</time>
</trkpt>
<trkpt lat="13.5355072" lon="99.8967844">
<ele>0.000</ele>
<time>2018-04-02T08:36:05.608Z</time>
</trkpt>
<trkpt lat="13.5351313" lon="99.8967975">
<ele>0.000</ele>
<time>2018-04-02T08:36:08.595Z</time>
</trkpt>
<trkpt lat="13.5348220" lon="99.8968051">
<ele>0.000</ele>
<time>2018-04-02T08:36:11.289Z</time>
</trkpt>
<trkpt lat="13.5345349" lon="99.8967083">
<ele>0.000</ele>
<time>2018-04-02T08:36:14.086Z</time>
</trkpt>
<trkpt lat="13.5342150" lon="99.8966128">
<ele>0.000</ele>
<time>2018-04-02T08:36:17.343Z</time>
</trkpt>
<trkpt lat="13.5339756" lon="99.8965417">
<ele>0.000</ele>
<time>2018-04-02T08:36:20.196Z</time>
</trkpt>
<trkpt lat="13.5338849" lon="99.8965916">
<ele>0.000</ele>
<time>2018-04-02T08:36:22.160Z</time>
</trkpt>
<trkpt lat="13.5338200" lon="99.8967049">
<ele>1.172</ele>
<time>2018-04-02T08:36:24.598Z</time>
</trkpt>
<trkpt lat="13.5337073" lon="99.8968993">
<ele>2.464</ele>
<time>2018-04-02T08:36:29.764Z</time>
</trkpt>
<trkpt lat="13.5335584" lon="99.8971341">
<ele>3.324</ele>
<time>2018-04-02T08:36:33.699Z</time>
</trkpt>
<trkpt lat="13.5333906" lon="99.8974434">
<ele>3.484</ele>
<time>2018-04-02T08:36:37.282Z</time>
</trkpt>
<trkpt lat="13.5331920" lon="99.8978114">
<ele>2.951</ele>
<time>2018-04-02T08:36:40.760Z</time>
</trkpt>
<trkpt lat="13.5329759" lon="99.8982066">
<ele>1.950</ele>
<time>2018-04-02T08:36:43.998Z</time>
</trkpt>
<trkpt lat="13.5327571" lon="99.8986168">
<ele>0.808</ele>
<time>2018-04-02T08:36:47.043Z</time>
</trkpt>
<trkpt lat="13.5325942" lon="99.8989193">
<ele>0.000</ele>
<time>2018-04-02T08:36:49.170Z</time>
</trkpt>
<trkpt lat="13.5324473" lon="99.8991911">
<ele>0.000</ele>
<time>2018-04-02T08:36:51.047Z</time>
</trkpt>
<trkpt lat="13.5322997" lon="99.8994981">
<ele>0.000</ele>
<time>2018-04-02T08:36:53.120Z</time>
</trkpt>
<trkpt lat="13.5321703" lon="99.8997942">
<ele>0.042</ele>
<time>2018-04-02T08:36:55.085Z</time>
</trkpt>
<trkpt lat="13.5321155" lon="99.9001163">
<ele>0.258</ele>
<time>2018-04-02T08:36:57.068Z</time>
</trkpt>
<trkpt lat="13.5320457" lon="99.9004303">
<ele>0.430</ele>
<time>2018-04-02T08:36:59.014Z</time>
</trkpt>
<trkpt lat="13.5319985" lon="99.9007522">
<ele>0.535</ele>
<time>2018-04-02T08:37:00.969Z</time>
</trkpt>
<trkpt lat="13.5319430" lon="99.9011560">
<ele>0.581</ele>
<time>2018-04-02T08:37:03.343Z</time>
</trkpt>
<trkpt lat="13.5318959" lon="99.9014639">
<ele>0.626</ele>
<time>2018-04-02T08:37:05.138Z</time>
</trkpt>
<trkpt lat="13.5318444" lon="99.9017885">
<ele>0.707</ele>
<time>2018-04-02T08:37:07.077Z</time>
</trkpt>
<trkpt lat="13.5317601" lon="99.9020280">
<ele>0.780</ele>
<time>2018-04-02T08:37:08.718Z</time>
</trkpt>
<trkpt lat="13.5316778" lon="99.9022515">
<ele>0.727</ele>
<time>2018-04-02T08:37:10.441Z</time>
</trkpt>
<trkpt lat="13.5314397" lon="99.9023259">
<ele>0.531</ele>
<time>2018-04-02T08:37:12.483Z</time>
</trkpt>
<trkpt lat="13.5312266" lon="99.9024622">
<ele>0.326</ele>
<time>2018-04-02T08:37:14.646Z</time>
</trkpt>
<trkpt lat="13.5310018" lon="99.9025813">
<ele>0.097</ele>
<time>2018-04-02T08:37:16.730Z</time>
</trkpt>
<trkpt lat="13.5307664" lon="99.9027054">
<ele>0.000</ele>
<time>2018-04-02T08:37:18.806Z</time>
</trkpt>
<trkpt lat="13.5305439" lon="99.9028799">
<ele>0.000</ele>
<time>2018-04-02T08:37:20.900Z</time>
</trkpt>
<trkpt lat="13.5303650" lon="99.9031756">
<ele>0.000</ele>
<time>2018-04-02T08:37:23.260Z</time>
</trkpt>
<trkpt lat="13.5300798" lon="99.9035603">
<ele>0.000</ele>
<time>2018-04-02T08:37:26.385Z</time>
</trkpt>
<trkpt lat="13.5298481" lon="99.9039196">
<ele>0.000</ele>
<time>2018-04-02T08:37:29.172Z</time>
</trkpt>
<trkpt lat="13.5295691" lon="99.9042929">
<ele>0.000</ele>
<time>2018-04-02T08:37:32.178Z</time>
</trkpt>
<trkpt lat="13.5292545" lon="99.9046698">
<ele>0.000</ele>
<time>2018-04-02T08:37:35.214Z</time>
</trkpt>
<trkpt lat="13.5289197" lon="99.9050484">
<ele>1.086</ele>
<time>2018-04-02T08:37:38.296Z</time>
</trkpt>
<trkpt lat="13.5286775" lon="99.9053668">
<ele>3.234</ele>
<time>2018-04-02T08:37:40.981Z</time>
</trkpt>
<trkpt lat="13.5285562" lon="99.9056718">
<ele>4.565</ele>
<time>2018-04-02T08:37:43.665Z</time>
</trkpt>
<trkpt lat="13.5286008" lon="99.9059738">
<ele>4.875</ele>
<time>2018-04-02T08:37:46.480Z</time>
</trkpt>
<trkpt lat="13.5286656" lon="99.9061374">
<ele>4.083</ele>
<time>2018-04-02T08:37:48.430Z</time>
</trkpt>
<trkpt lat="13.5287007" lon="99.9062322">
<ele>2.564</ele>
<time>2018-04-02T08:37:49.627Z</time>
</trkpt>
<trkpt lat="13.5286272" lon="99.9063727">
<ele>1.049</ele>
<time>2018-04-02T08:37:52.582Z</time>
</trkpt>
<trkpt lat="13.5284179" lon="99.9065096">
<ele>0.149</ele>
<time>2018-04-02T08:37:58.280Z</time>
</trkpt>
<trkpt lat="13.5281764" lon="99.9066938">
<ele>0.016</ele>
<time>2018-04-02T08:38:02.304Z</time>
</trkpt>
<trkpt lat="13.5278753" lon="99.9069408">
<ele>0.353</ele>
<time>2018-04-02T08:38:05.911Z</time>
</trkpt>
<trkpt lat="13.5275892" lon="99.9071534">
<ele>0.704</ele>
<time>2018-04-02T08:38:08.820Z</time>
</trkpt>
<trkpt lat="13.5272997" lon="99.9073956">
<ele>0.792</ele>
<time>2018-04-02T08:38:11.890Z</time>
</trkpt>
<trkpt lat="13.5269347" lon="99.9076561">
<ele>0.495</ele>
<time>2018-04-02T08:38:15.238Z</time>
</trkpt>
<trkpt lat="13.5265506" lon="99.9078976">
<ele>0.000</ele>
<time>2018-04-02T08:38:18.297Z</time>
</trkpt>
<trkpt lat="13.5261202" lon="99.9081250">
<ele>0.000</ele>
<time>2018-04-02T08:38:21.446Z</time>
</trkpt>
<trkpt lat="13.5257319" lon="99.9083571">
<ele>0.000</ele>
<time>2018-04-02T08:38:24.425Z</time>
</trkpt>
<trkpt lat="13.5253239" lon="99.9084855">
<ele>0.000</ele>
<time>2018-04-02T08:38:27.346Z</time>
</trkpt>
<trkpt lat="13.5248869" lon="99.9085887">
<ele>0.000</ele>
<time>2018-04-02T08:38:30.400Z</time>
</trkpt>
<trkpt lat="13.5244544" lon="99.9086424">
<ele>0.000</ele>
<time>2018-04-02T08:38:33.332Z</time>
</trkpt>
<trkpt lat="13.5240180" lon="99.9086588">
<ele>0.000</ele>
<time>2018-04-02T08:38:36.301Z</time>
</trkpt>
<trkpt lat="13.5236887" lon="99.9088206">
<ele>0.000</ele>
<time>2018-04-02T08:38:38.998Z</time>
</trkpt>
<trkpt lat="13.5234336" lon="99.9090505">
<ele>0.000</ele>
<time>2018-04-02T08:38:41.848Z</time>
</trkpt>
<trkpt lat="13.5231828" lon="99.9092217">
<ele>0.000</ele>
<time>2018-04-02T08:38:44.617Z</time>
</trkpt>
<trkpt lat="13.5228779" lon="99.9092476">
<ele>0.000</ele>
<time>2018-04-02T08:38:47.541Z</time>
</trkpt>
<trkpt lat="13.5225427" lon="99.9092611">
<ele>0.000</ele>
<time>2018-04-02T08:38:50.606Z</time>
</trkpt>
<trkpt lat="13.5221565" lon="99.9091325">
<ele>0.000</ele>
<time>2018-04-02T08:38:53.971Z</time>
</trkpt>
<trkpt lat="13.5217423" lon="99.9091051">
<ele>0.000</ele>
<time>2018-04-02T08:38:57.039Z</time>
</trkpt>
<trkpt lat="13.5212517" lon="99.9090004">
<ele>0.000</ele>
<time>2018-04-02T08:39:00.385Z</time>
</trkpt>
<trkpt lat="13.5207721" lon="99.9090317">
<ele>0.000</ele>
<time>2018-04-02T08:39:03.462Z</time>
</trkpt>
<trkpt lat="13.5203959" lon="99.9090795">
<ele>0.361</ele>
<time>2018-04-02T08:39:06.075Z</time>
</trkpt>
<trkpt lat="13.5202118" lon="99.9091569">
<ele>1.020</ele>
<time>2018-04-02T08:39:07.883Z</time>
</trkpt>
<trkpt lat="13.5200148" lon="99.9093160">
<ele>1.812</ele>
<time>2018-04-02T08:39:10.492Z</time>
</trkpt>
<trkpt lat="13.5198006" lon="99.9095402">
<ele>2.558</ele>
<time>2018-04-02T08:39:13.929Z</time>
</trkpt>
<trkpt lat="13.5195873" lon="99.9097997">
<ele>2.990</ele>
<time>2018-04-02T08:39:17.229Z</time>
</trkpt>
<trkpt lat="13.5194603" lon="99.9100736">
<ele>3.162</ele>
<time>2018-04-02T08:39:20.007Z</time>
</trkpt>
<trkpt lat="13.5193979" lon="99.9103562">
<ele>3.315</ele>
<time>2018-04-02T08:39:22.758Z</time>
</trkpt>
<trkpt lat="13.5192305" lon="99.9105523">
<ele>3.584</ele>
<time>2018-04-02T08:39:25.477Z</time>
</trkpt>
<trkpt lat="13.5189902" lon="99.9106333">
<ele>3.857</ele>
<time>2018-04-02T08:39:28.418Z</time>
</trkpt>
<trkpt lat="13.5187445" lon="99.9107635">
<ele>3.951</ele>
<time>2018-04-02T08:39:31.661Z</time>
</trkpt>
<trkpt lat="13.5185998" lon="99.9109608">
<ele>3.596</ele>
<time>2018-04-02T08:39:34.523Z</time>
</trkpt>
<trkpt lat="13.5186056" lon="99.9111962">
<ele>2.545</ele>
<time>2018-04-02T08:39:37.407Z</time>
</trkpt>
<trkpt lat="13.5184665" lon="99.9114136">
<ele>1.171</ele>
<time>2018-04-02T08:39:40.655Z</time>
</trkpt>
<trkpt lat="13.5181342" lon="99.9115376">
<ele>0.284</ele>
<time>2018-04-02T08:39:44.607Z</time>
</trkpt>
<trkpt lat="13.5178070" lon="99.9117028">
<ele>0.274</ele>
<time>2018-04-02T08:39:47.876Z</time>
</trkpt>
<trkpt lat="13.5175139" lon="99.9119243">
<ele>0.816</ele>
<time>2018-04-02T08:39:50.880Z</time>
</trkpt>
<trkpt lat="13.5172599" lon="99.9121715">
<ele>1.014</ele>
<time>2018-04-02T08:39:53.851Z</time>
</trkpt>
<trkpt lat="13.5171513" lon="99.9124357">
<ele>0.227</ele>
<time>2018-04-02T08:39:56.549Z</time>
</trkpt>
<trkpt lat="13.5171546" lon="99.9126670">
<ele>0.000</ele>
<time>2018-04-02T08:39:59.125Z</time>
</trkpt>
<trkpt lat="13.5171383" lon="99.9128610">
<ele>0.000</ele>
<time>2018-04-02T08:40:01.661Z</time>
</trkpt>
<trkpt lat="13.5170312" lon="99.9130537">
<ele>0.000</ele>
<time>2018-04-02T08:40:04.847Z</time>
</trkpt>
<trkpt lat="13.5168498" lon="99.9131447">
<ele>0.000</ele>
<time>2018-04-02T08:40:07.801Z</time>
</trkpt>
<trkpt lat="13.5165802" lon="99.9131781">
<ele>0.538</ele>
<time>2018-04-02T08:40:11.334Z</time>
</trkpt>
<trkpt lat="13.5162546" lon="99.9132176">
<ele>1.322</ele>
<time>2018-04-02T08:40:14.739Z</time>
</trkpt>
<trkpt lat="13.5158751" lon="99.9132921">
<ele>1.305</ele>
<time>2018-04-02T08:40:18.016Z</time>
</trkpt>
<trkpt lat="13.5154540" lon="99.9134211">
<ele>0.690</ele>
<time>2018-04-02T08:40:21.157Z</time>
</trkpt>
<trkpt lat="13.5149950" lon="99.9136065">
<ele>0.000</ele>
<time>2018-04-02T08:40:24.308Z</time>
</trkpt>
<trkpt lat="13.5146140" lon="99.9138018">
<ele>0.000</ele>
<time>2018-04-02T08:40:27.072Z</time>
</trkpt>
<trkpt lat="13.5143760" lon="99.9139938">
<ele>0.000</ele>
<time>2018-04-02T08:40:29.476Z</time>
</trkpt>
<trkpt lat="13.5143119" lon="99.9142874">
<ele>0.000</ele>
<time>2018-04-02T08:40:32.243Z</time>
</trkpt>
<trkpt lat="13.5142257" lon="99.9145062">
<ele>0.000</ele>
<time>2018-04-02T08:40:34.724Z</time>
</trkpt>
<trkpt lat="13.5138510" lon="99.9147239">
<ele>0.000</ele>
<time>2018-04-02T08:40:39.168Z</time>
</trkpt>
<trkpt lat="13.5134675" lon="99.9148948">
<ele>0.000</ele>
<time>2018-04-02T08:40:42.439Z</time>
</trkpt>
<trkpt lat="13.5130901" lon="99.9151085">
<ele>0.000</ele>
<time>2018-04-02T08:40:45.439Z</time>
</trkpt>
<trkpt lat="13.5126720" lon="99.9153265">
<ele>0.000</ele>
<time>2018-04-02T08:40:48.485Z</time>
</trkpt>
<trkpt lat="13.5122537" lon="99.9155582">
<ele>0.000</ele>
<time>2018-04-02T08:40:51.470Z</time>
</trkpt>
<trkpt lat="13.5117977" lon="99.9157437">
<ele>0.000</ele>
<time>2018-04-02T08:40:54.490Z</time>
</trkpt>
<trkpt lat="13.5113277" lon="99.9159530">
<ele>0.000</ele>
<time>2018-04-02T08:40:57.538Z</time>
</trkpt>
<trkpt lat="13.5108554" lon="99.9161842">
<ele>0.000</ele>
<time>2018-04-02T08:41:00.521Z</time>
</trkpt>
<trkpt lat="13.5103726" lon="99.9164483">
<ele>0.000</ele>
<time>2018-04-02T08:41:03.506Z</time>
</trkpt>
<trkpt lat="13.5098726" lon="99.9166940">
<ele>0.000</ele>
<time>2018-04-02T08:41:06.492Z</time>
</trkpt>
<trkpt lat="13.5094099" lon="99.9169458">
<ele>0.000</ele>
<time>2018-04-02T08:41:09.383Z</time>
</trkpt>
<trkpt lat="13.5089423" lon="99.9172349">
<ele>0.000</ele>
<time>2018-04-02T08:41:12.431Z</time>
</trkpt>
<trkpt lat="13.5084308" lon="99.9174831">
<ele>0.000</ele>
<time>2018-04-02T08:41:15.518Z</time>
</trkpt>
<trkpt lat="13.5079191" lon="99.9177344">
<ele>0.000</ele>
<time>2018-04-02T08:41:18.601Z</time>
</trkpt>
<trkpt lat="13.5074686" lon="99.9179408">
<ele>0.000</ele>
<time>2018-04-02T08:41:21.439Z</time>
</trkpt>
<trkpt lat="13.5070481" lon="99.9181074">
<ele>0.000</ele>
<time>2018-04-02T08:41:24.275Z</time>
</trkpt>
<trkpt lat="13.5066991" lon="99.9182688">
<ele>0.000</ele>
<time>2018-04-02T08:41:26.981Z</time>
</trkpt>
<trkpt lat="13.5064182" lon="99.9184498">
<ele>0.000</ele>
<time>2018-04-02T08:41:29.725Z</time>
</trkpt>
<trkpt lat="13.5061115" lon="99.9186676">
<ele>0.000</ele>
<time>2018-04-02T08:41:32.887Z</time>
</trkpt>
<trkpt lat="13.5057524" lon="99.9188791">
<ele>0.000</ele>
<time>2018-04-02T08:41:36.075Z</time>
</trkpt>
<trkpt lat="13.5053689" lon="99.9190802">
<ele>0.000</ele>
<time>2018-04-02T08:41:39.064Z</time>
</trkpt>
<trkpt lat="13.5049411" lon="99.9192841">
<ele>0.000</ele>
<time>2018-04-02T08:41:42.160Z</time>
</trkpt>
<trkpt lat="13.5045641" lon="99.9194378">
<ele>0.000</ele>
<time>2018-04-02T08:41:44.947Z</time>
</trkpt>
<trkpt lat="13.5042383" lon="99.9195912">
<ele>0.000</ele>
<time>2018-04-02T08:41:47.698Z</time>
</trkpt>
<trkpt lat="13.5038784" lon="99.9197556">
<ele>0.000</ele>
<time>2018-04-02T08:41:50.749Z</time>
</trkpt>
<trkpt lat="13.5034700" lon="99.9199020">
<ele>0.055</ele>
<time>2018-04-02T08:41:53.858Z</time>
</trkpt>
<trkpt lat="13.5030420" lon="99.9200563">
<ele>0.247</ele>
<time>2018-04-02T08:41:56.893Z</time>
</trkpt>
<trkpt lat="13.5026008" lon="99.9202125">
<ele>0.092</ele>
<time>2018-04-02T08:41:59.925Z</time>
</trkpt>
<trkpt lat="13.5021754" lon="99.9203743">
<ele>0.000</ele>
<time>2018-04-02T08:42:02.881Z</time>
</trkpt>
<trkpt lat="13.5018681" lon="99.9206105">
<ele>0.000</ele>
<time>2018-04-02T08:42:05.577Z</time>
</trkpt>
<trkpt lat="13.5015472" lon="99.9208314">
<ele>0.000</ele>
<time>2018-04-02T08:42:08.533Z</time>
</trkpt>
<trkpt lat="13.5011976" lon="99.9210260">
<ele>0.000</ele>
<time>2018-04-02T08:42:11.600Z</time>
</trkpt>
<trkpt lat="13.5008793" lon="99.9212297">
<ele>0.000</ele>
<time>2018-04-02T08:42:14.462Z</time>
</trkpt>
<trkpt lat="13.5006374" lon="99.9214704">
<ele>0.000</ele>
<time>2018-04-02T08:42:17.173Z</time>
</trkpt>
<trkpt lat="13.5003967" lon="99.9217513">
<ele>0.000</ele>
<time>2018-04-02T08:42:20.229Z</time>
</trkpt>
<trkpt lat="13.5000552" lon="99.9219850">
<ele>0.000</ele>
<time>2018-04-02T08:42:23.527Z</time>
</trkpt>
<trkpt lat="13.4996786" lon="99.9221834">
<ele>0.000</ele>
<time>2018-04-02T08:42:26.613Z</time>
</trkpt>
<trkpt lat="13.4992786" lon="99.9224062">
<ele>0.000</ele>
<time>2018-04-02T08:42:29.700Z</time>
</trkpt>
<trkpt lat="13.4988711" lon="99.9226380">
<ele>0.000</ele>
<time>2018-04-02T08:42:32.765Z</time>
</trkpt>
<trkpt lat="13.4984923" lon="99.9228676">
<ele>0.000</ele>
<time>2018-04-02T08:42:35.636Z</time>
</trkpt>
<trkpt lat="13.4981292" lon="99.9230847">
<ele>0.000</ele>
<time>2018-04-02T08:42:38.465Z</time>
</trkpt>
<trkpt lat="13.4977613" lon="99.9233434">
<ele>0.000</ele>
<time>2018-04-02T08:42:41.528Z</time>
</trkpt>
<trkpt lat="13.4973643" lon="99.9235918">
<ele>0.000</ele>
<time>2018-04-02T08:42:44.629Z</time>
</trkpt>
<trkpt lat="13.4968933" lon="99.9236962">
<ele>0.000</ele>
<time>2018-04-02T08:42:47.783Z</time>
</trkpt>
<trkpt lat="13.4965636" lon="99.9240155">
<ele>0.000</ele>
<time>2018-04-02T08:42:50.808Z</time>
</trkpt>
<trkpt lat="13.4964704" lon="99.9241381">
<ele>0.000</ele>
<time>2018-04-02T08:42:52.058Z</time>
</trkpt>
<trkpt lat="13.4963278" lon="99.9242412">
<ele>0.000</ele>
<time>2018-04-02T08:42:53.559Z</time>
</trkpt>
<trkpt lat="13.4961351" lon="99.9243163">
<ele>0.000</ele>
<time>2018-04-02T08:42:56.098Z</time>
</trkpt>
<trkpt lat="13.4959937" lon="99.9243770">
<ele>0.000</ele>
<time>2018-04-02T08:42:58.426Z</time>
</trkpt>
<trkpt lat="13.4958409" lon="99.9244715">
<ele>0.000</ele>
<time>2018-04-02T08:43:01.504Z</time>
</trkpt>
<trkpt lat="13.4956567" lon="99.9245882">
<ele>0.000</ele>
<time>2018-04-02T08:43:05.382Z</time>
</trkpt>
<trkpt lat="13.4954736" lon="99.9247214">
<ele>0.000</ele>
<time>2018-04-02T08:43:08.844Z</time>
</trkpt>
<trkpt lat="13.4953067" lon="99.9248647">
<ele>0.000</ele>
<time>2018-04-02T08:43:11.834Z</time>
</trkpt>
<trkpt lat="13.4951167" lon="99.9250298">
<ele>0.000</ele>
<time>2018-04-02T08:43:15.099Z</time>
</trkpt>
<trkpt lat="13.4949810" lon="99.9252337">
<ele>0.000</ele>
<time>2018-04-02T08:43:18.130Z</time>
</trkpt>
<trkpt lat="13.4948397" lon="99.9254197">
<ele>0.000</ele>
<time>2018-04-02T08:43:20.961Z</time>
</trkpt>
<trkpt lat="13.4946562" lon="99.9255979">
<ele>0.000</ele>
<time>2018-04-02T08:43:24.038Z</time>
</trkpt>
<trkpt lat="13.4944373" lon="99.9257652">
<ele>0.000</ele>
<time>2018-04-02T08:43:27.202Z</time>
</trkpt>
<trkpt lat="13.4942014" lon="99.9259464">
<ele>0.000</ele>
<time>2018-04-02T08:43:30.431Z</time>
</trkpt>
<trkpt lat="13.4939515" lon="99.9261040">
<ele>0.000</ele>
<time>2018-04-02T08:43:33.581Z</time>
</trkpt>
<trkpt lat="13.4937466" lon="99.9261897">
<ele>0.000</ele>
<time>2018-04-02T08:43:35.954Z</time>
</trkpt>
<trkpt lat="13.4936572" lon="99.9262074">
<ele>0.000</ele>
<time>2018-04-02T08:43:37.038Z</time>
</trkpt>
<trkpt lat="13.4935901" lon="99.9260527">
<ele>0.000</ele>
<time>2018-04-02T08:43:39.012Z</time>
</trkpt>
<trkpt lat="13.4935947" lon="99.9258943">
<ele>0.000</ele>
<time>2018-04-02T08:43:41.690Z</time>
</trkpt>
<trkpt lat="13.4934715" lon="99.9256290">
<ele>0.000</ele>
<time>2018-04-02T08:43:47.666Z</time>
</trkpt>
<trkpt lat="13.4932899" lon="99.9253969">
<ele>0.000</ele>
<time>2018-04-02T08:43:51.853Z</time>
</trkpt>
<trkpt lat="13.4930794" lon="99.9250462">
<ele>0.000</ele>
<time>2018-04-02T08:43:55.974Z</time>
</trkpt>
<trkpt lat="13.4929621" lon="99.9248237">
<ele>0.000</ele>
<time>2018-04-02T08:43:58.104Z</time>
</trkpt>
<trkpt lat="13.4928515" lon="99.9246296">
<ele>0.000</ele>
<time>2018-04-02T08:43:59.918Z</time>
</trkpt>
<trkpt lat="13.4927423" lon="99.9244330">
<ele>0.000</ele>
<time>2018-04-02T08:44:01.800Z</time>
</trkpt>
<trkpt lat="13.4926107" lon="99.9242298">
<ele>0.000</ele>
<time>2018-04-02T08:44:03.881Z</time>
</trkpt>
<trkpt lat="13.4924891" lon="99.9240506">
<ele>0.000</ele>
<time>2018-04-02T08:44:05.741Z</time>
</trkpt>
<trkpt lat="13.4923792" lon="99.9238488">
<ele>0.000</ele>
<time>2018-04-02T08:44:07.713Z</time>
</trkpt>
<trkpt lat="13.4922689" lon="99.9236264">
<ele>0.000</ele>
<time>2018-04-02T08:44:09.846Z</time>
</trkpt>
<trkpt lat="13.4921593" lon="99.9234295">
<ele>0.000</ele>
<time>2018-04-02T08:44:11.759Z</time>
</trkpt>
<trkpt lat="13.4920354" lon="99.9232137">
<ele>0.000</ele>
<time>2018-04-02T08:44:13.820Z</time>
</trkpt>
<trkpt lat="13.4918954" lon="99.9229618">
<ele>0.000</ele>
<time>2018-04-02T08:44:16.075Z</time>
</trkpt>
<trkpt lat="13.4917611" lon="99.9227152">
<ele>0.000</ele>
<time>2018-04-02T08:44:18.120Z</time>
</trkpt>
<trkpt lat="13.4916398" lon="99.9224769">
<ele>0.000</ele>
<time>2018-04-02T08:44:20.002Z</time>
</trkpt>
<trkpt lat="13.4915232" lon="99.9222681">
<ele>0.000</ele>
<time>2018-04-02T08:44:21.717Z</time>
</trkpt>
<trkpt lat="13.4913908" lon="99.9220321">
<ele>0.000</ele>
<time>2018-04-02T08:44:23.751Z</time>
</trkpt>
<trkpt lat="13.4912457" lon="99.9217998">
<ele>0.000</ele>
<time>2018-04-02T08:44:25.853Z</time>
</trkpt>
<trkpt lat="13.4911405" lon="99.9215750">
<ele>0.000</ele>
<time>2018-04-02T08:44:27.720Z</time>
</trkpt>
<trkpt lat="13.4910355" lon="99.9213651">
<ele>0.000</ele>
<time>2018-04-02T08:44:29.499Z</time>
</trkpt>
<trkpt lat="13.4909404" lon="99.9212009">
<ele>0.000</ele>
<time>2018-04-02T08:44:30.992Z</time>
</trkpt>
<trkpt lat="13.4908382" lon="99.9210795">
<ele>0.000</ele>
<time>2018-04-02T08:44:32.402Z</time>
</trkpt>
<trkpt lat="13.4907372" lon="99.9210350">
<ele>0.000</ele>
<time>2018-04-02T08:44:33.482Z</time>
</trkpt>
<trkpt lat="13.4905919" lon="99.9211378">
<ele>0.000</ele>
<time>2018-04-02T08:44:35.636Z</time>
</trkpt>
<trkpt lat="13.4903883" lon="99.9212175">
<ele>0.000</ele>
<time>2018-04-02T08:44:39.533Z</time>
</trkpt>
<trkpt lat="13.4901038" lon="99.9213523">
<ele>0.000</ele>
<time>2018-04-02T08:44:44.771Z</time>
</trkpt>
<trkpt lat="13.4898456" lon="99.9215138">
<ele>0.000</ele>
<time>2018-04-02T08:44:48.362Z</time>
</trkpt>
<trkpt lat="13.4895979" lon="99.9216970">
<ele>0.000</ele>
<time>2018-04-02T08:44:51.667Z</time>
</trkpt>
<trkpt lat="13.4893667" lon="99.9218614">
<ele>0.000</ele>
<time>2018-04-02T08:44:54.616Z</time>
</trkpt>
<trkpt lat="13.4891352" lon="99.9220840">
<ele>0.000</ele>
<time>2018-04-02T08:44:57.815Z</time>
</trkpt>
<trkpt lat="13.4889128" lon="99.9223406">
<ele>0.000</ele>
<time>2018-04-02T08:45:01.062Z</time>
</trkpt>
<trkpt lat="13.4886452" lon="99.9225238">
<ele>0.000</ele>
<time>2018-04-02T08:45:04.145Z</time>
</trkpt>
<trkpt lat="13.4883880" lon="99.9227139">
<ele>0.000</ele>
<time>2018-04-02T08:45:07.180Z</time>
</trkpt>
<trkpt lat="13.4880787" lon="99.9229444">
<ele>0.000</ele>
<time>2018-04-02T08:45:10.667Z</time>
</trkpt>
<trkpt lat="13.4878853" lon="99.9232754">
<ele>0.000</ele>
<time>2018-04-02T08:45:13.868Z</time>
</trkpt>
<trkpt lat="13.4876944" lon="99.9235412">
<ele>0.000</ele>
<time>2018-04-02T08:45:16.573Z</time>
</trkpt>
<trkpt lat="13.4875127" lon="99.9238368">
<ele>0.000</ele>
<time>2018-04-02T08:45:19.487Z</time>
</trkpt>
<trkpt lat="13.4873206" lon="99.9240783">
<ele>0.000</ele>
<time>2018-04-02T08:45:22.192Z</time>
</trkpt>
<trkpt lat="13.4870782" lon="99.9243235">
<ele>0.000</ele>
<time>2018-04-02T08:45:25.314Z</time>
</trkpt>
<trkpt lat="13.4867925" lon="99.9245054">
<ele>0.000</ele>
<time>2018-04-02T08:45:28.391Z</time>
</trkpt>
<trkpt lat="13.4865330" lon="99.9247358">
<ele>0.000</ele>
<time>2018-04-02T08:45:31.554Z</time>
</trkpt>
<trkpt lat="13.4865079" lon="99.9250188">
<ele>0.000</ele>
<time>2018-04-02T08:45:34.301Z</time>
</trkpt>
<trkpt lat="13.4864554" lon="99.9252633">
<ele>0.000</ele>
<time>2018-04-02T08:45:36.993Z</time>
</trkpt>
<trkpt lat="13.4863166" lon="99.9255276">
<ele>0.000</ele>
<time>2018-04-02T08:45:40.378Z</time>
</trkpt>
<trkpt lat="13.4860559" lon="99.9257275">
<ele>0.000</ele>
<time>2018-04-02T08:45:43.923Z</time>
</trkpt>
<trkpt lat="13.4858480" lon="99.9259975">
<ele>0.000</ele>
<time>2018-04-02T08:45:47.191Z</time>
</trkpt>
<trkpt lat="13.4856063" lon="99.9262091">
<ele>0.000</ele>
<time>2018-04-02T08:45:50.116Z</time>
</trkpt>
<trkpt lat="13.4853460" lon="99.9264509">
<ele>0.000</ele>
<time>2018-04-02T08:45:53.255Z</time>
</trkpt>
<trkpt lat="13.4851188" lon="99.9266786">
<ele>0.000</ele>
<time>2018-04-02T08:45:56.036Z</time>
</trkpt>
<trkpt lat="13.4848420" lon="99.9269024">
<ele>0.000</ele>
<time>2018-04-02T08:45:58.981Z</time>
</trkpt>
<trkpt lat="13.4846000" lon="99.9272003">
<ele>0.000</ele>
<time>2018-04-02T08:46:01.965Z</time>
</trkpt>
<trkpt lat="13.4842861" lon="99.9274951">
<ele>0.000</ele>
<time>2018-04-02T08:46:05.203Z</time>
</trkpt>
<trkpt lat="13.4840776" lon="99.9277730">
<ele>0.000</ele>
<time>2018-04-02T08:46:07.850Z</time>
</trkpt>
<trkpt lat="13.4837640" lon="99.9279797">
<ele>0.000</ele>
<time>2018-04-02T08:46:10.938Z</time>
</trkpt>
<trkpt lat="13.4835474" lon="99.9282491">
<ele>0.000</ele>
<time>2018-04-02T08:46:13.860Z</time>
</trkpt>
<trkpt lat="13.4832737" lon="99.9284994">
<ele>0.000</ele>
<time>2018-04-02T08:46:16.968Z</time>
</trkpt>
<trkpt lat="13.4829931" lon="99.9287453">
<ele>0.000</ele>
<time>2018-04-02T08:46:19.958Z</time>
</trkpt>
<trkpt lat="13.4827639" lon="99.9290163">
<ele>0.000</ele>
<time>2018-04-02T08:46:22.796Z</time>
</trkpt>
<trkpt lat="13.4826276" lon="99.9291250">
<ele>0.000</ele>
<time>2018-04-02T08:46:24.428Z</time>
</trkpt>
<trkpt lat="13.4823624" lon="99.9292984">
<ele>0.000</ele>
<time>2018-04-02T08:46:27.671Z</time>
</trkpt>
<trkpt lat="13.4820022" lon="99.9294604">
<ele>0.000</ele>
<time>2018-04-02T08:46:31.581Z</time>
</trkpt>
<trkpt lat="13.4816940" lon="99.9296551">
<ele>0.000</ele>
<time>2018-04-02T08:46:35.003Z</time>
</trkpt>
<trkpt lat="13.4813998" lon="99.9298765">
<ele>0.000</ele>
<time>2018-04-02T08:46:38.224Z</time>
</trkpt>
<trkpt lat="13.4810214" lon="99.9300894">
<ele>0.000</ele>
<time>2018-04-02T08:46:41.535Z</time>
</trkpt>
<trkpt lat="13.4806711" lon="99.9303127">
<ele>0.000</ele>
<time>2018-04-02T08:46:44.608Z</time>
</trkpt>
<trkpt lat="13.4803549" lon="99.9305901">
<ele>0.000</ele>
<time>2018-04-02T08:46:47.659Z</time>
</trkpt>
<trkpt lat="13.4800901" lon="99.9308948">
<ele>0.000</ele>
<time>2018-04-02T08:46:50.612Z</time>
</trkpt>
<trkpt lat="13.4797968" lon="99.9311841">
<ele>0.000</ele>
<time>2018-04-02T08:46:53.628Z</time>
</trkpt>
<trkpt lat="13.4794992" lon="99.9314732">
<ele>0.000</ele>
<time>2018-04-02T08:46:56.671Z</time>
</trkpt>
<trkpt lat="13.4791880" lon="99.9316405">
<ele>0.000</ele>
<time>2018-04-02T08:46:59.425Z</time>
</trkpt>
<trkpt lat="13.4788444" lon="99.9318086">
<ele>0.000</ele>
<time>2018-04-02T08:47:02.463Z</time>
</trkpt>
<trkpt lat="13.4784712" lon="99.9319751">
<ele>0.000</ele>
<time>2018-04-02T08:47:05.479Z</time>
</trkpt>
<trkpt lat="13.4780423" lon="99.9321900">
<ele>0.000</ele>
<time>2018-04-02T08:47:08.748Z</time>
</trkpt>
<trkpt lat="13.4776499" lon="99.9323739">
<ele>0.000</ele>
<time>2018-04-02T08:47:11.721Z</time>
</trkpt>
<trkpt lat="13.4773123" lon="99.9325693">
<ele>0.000</ele>
<time>2018-04-02T08:47:14.587Z</time>
</trkpt>
<trkpt lat="13.4769596" lon="99.9327345">
<ele>0.000</ele>
<time>2018-04-02T08:47:17.524Z</time>
</trkpt>
<trkpt lat="13.4767247" lon="99.9328567">
<ele>0.000</ele>
<time>2018-04-02T08:47:19.469Z</time>
</trkpt>
<trkpt lat="13.4764779" lon="99.9329901">
<ele>0.000</ele>
<time>2018-04-02T08:47:21.500Z</time>
</trkpt>
<trkpt lat="13.4762001" lon="99.9330619">
<ele>0.000</ele>
<time>2018-04-02T08:47:23.568Z</time>
</trkpt>
<trkpt lat="13.4759130" lon="99.9330772">
<ele>0.000</ele>
<time>2018-04-02T08:47:25.640Z</time>
</trkpt>
<trkpt lat="13.4756396" lon="99.9331244">
<ele>0.000</ele>
<time>2018-04-02T08:47:27.643Z</time>
</trkpt>
<trkpt lat="13.4753908" lon="99.9332500">
<ele>0.000</ele>
<time>2018-04-02T08:47:29.648Z</time>
</trkpt>
<trkpt lat="13.4751401" lon="99.9333646">
<ele>0.000</ele>
<time>2018-04-02T08:47:31.619Z</time>
</trkpt>
<trkpt lat="13.4748990" lon="99.9335167">
<ele>0.000</ele>
<time>2018-04-02T08:47:33.628Z</time>
</trkpt>
<trkpt lat="13.4746213" lon="99.9336648">
<ele>0.000</ele>
<time>2018-04-02T08:47:35.802Z</time>
</trkpt>
<trkpt lat="13.4743504" lon="99.9337680">
<ele>0.000</ele>
<time>2018-04-02T08:47:37.790Z</time>
</trkpt>
<trkpt lat="13.4740836" lon="99.9339054">
<ele>0.000</ele>
<time>2018-04-02T08:47:39.873Z</time>
</trkpt>
<trkpt lat="13.4738800" lon="99.9340907">
<ele>0.000</ele>
<time>2018-04-02T08:47:41.761Z</time>
</trkpt>
<trkpt lat="13.4735857" lon="99.9342046">
<ele>0.000</ele>
<time>2018-04-02T08:47:43.913Z</time>
</trkpt>
<trkpt lat="13.4731965" lon="99.9343701">
<ele>0.000</ele>
<time>2018-04-02T08:47:46.909Z</time>
</trkpt>
<trkpt lat="13.4729172" lon="99.9345072">
<ele>0.000</ele>
<time>2018-04-02T08:47:49.324Z</time>
</trkpt>
<trkpt lat="13.4725576" lon="99.9346826">
<ele>0.000</ele>
<time>2018-04-02T08:47:52.581Z</time>
</trkpt>
<trkpt lat="13.4722483" lon="99.9349656">
<ele>0.000</ele>
<time>2018-04-02T08:47:55.695Z</time>
</trkpt>
<trkpt lat="13.4719455" lon="99.9352722">
<ele>0.000</ele>
<time>2018-04-02T08:47:58.672Z</time>
</trkpt>
<trkpt lat="13.4716346" lon="99.9356244">
<ele>0.000</ele>
<time>2018-04-02T08:48:01.819Z</time>
</trkpt>
<trkpt lat="13.4712406" lon="99.9358616">
<ele>0.000</ele>
<time>2018-04-02T08:48:04.852Z</time>
</trkpt>
<trkpt lat="13.4708133" lon="99.9360210">
<ele>0.000</ele>
<time>2018-04-02T08:48:07.932Z</time>
</trkpt>
<trkpt lat="13.4704625" lon="99.9361110">
<ele>0.000</ele>
<time>2018-04-02T08:48:10.589Z</time>
</trkpt>
<trkpt lat="13.4700369" lon="99.9361560">
<ele>0.917</ele>
<time>2018-04-02T08:48:13.936Z</time>
</trkpt>
<trkpt lat="13.4697048" lon="99.9362668">
<ele>1.152</ele>
<time>2018-04-02T08:48:16.955Z</time>
</trkpt>
<trkpt lat="13.4694784" lon="99.9363162">
<ele>0.852</ele>
<time>2018-04-02T08:48:19.454Z</time>
</trkpt>
<trkpt lat="13.4692995" lon="99.9363538">
<ele>0.439</ele>
<time>2018-04-02T08:48:21.896Z</time>
</trkpt>
<trkpt lat="13.4689968" lon="99.9364050">
<ele>0.167</ele>
<time>2018-04-02T08:48:25.399Z</time>
</trkpt>
<trkpt lat="13.4687106" lon="99.9365758">
<ele>0.000</ele>
<time>2018-04-02T08:48:28.479Z</time>
</trkpt>
<trkpt lat="13.4684096" lon="99.9368192">
<ele>0.000</ele>
<time>2018-04-02T08:48:31.634Z</time>
</trkpt>
<trkpt lat="13.4680872" lon="99.9370522">
<ele>0.069</ele>
<time>2018-04-02T08:48:34.647Z</time>
</trkpt>
<trkpt lat="13.4677274" lon="99.9372788">
<ele>0.587</ele>
<time>2018-04-02T08:48:37.731Z</time>
</trkpt>
<trkpt lat="13.4673246" lon="99.9374798">
<ele>0.930</ele>
<time>2018-04-02T08:48:40.850Z</time>
</trkpt>
<trkpt lat="13.4669677" lon="99.9377194">
<ele>0.503</ele>
<time>2018-04-02T08:48:43.821Z</time>
</trkpt>
<trkpt lat="13.4666668" lon="99.9379403">
<ele>0.000</ele>
<time>2018-04-02T08:48:46.561Z</time>
</trkpt>
<trkpt lat="13.4663282" lon="99.9381511">
<ele>0.000</ele>
<time>2018-04-02T08:48:49.580Z</time>
</trkpt>
<trkpt lat="13.4659877" lon="99.9383964">
<ele>0.000</ele>
<time>2018-04-02T08:48:52.687Z</time>
</trkpt>
<trkpt lat="13.4656318" lon="99.9385229">
<ele>0.000</ele>
<time>2018-04-02T08:48:55.712Z</time>
</trkpt>
<trkpt lat="13.4653350" lon="99.9386081">
<ele>0.000</ele>
<time>2018-04-02T08:48:58.493Z</time>
</trkpt>
<trkpt lat="13.4649962" lon="99.9386645">
<ele>0.000</ele>
<time>2018-04-02T08:49:01.563Z</time>
</trkpt>
<trkpt lat="13.4645955" lon="99.9388227">
<ele>0.000</ele>
<time>2018-04-02T08:49:04.903Z</time>
</trkpt>
<trkpt lat="13.4642082" lon="99.9389890">
<ele>1.422</ele>
<time>2018-04-02T08:49:07.931Z</time>
</trkpt>
<trkpt lat="13.4638177" lon="99.9391509">
<ele>2.534</ele>
<time>2018-04-02T08:49:10.868Z</time>
</trkpt>
<trkpt lat="13.4633822" lon="99.9393090">
<ele>2.926</ele>
<time>2018-04-02T08:49:13.946Z</time>
</trkpt>
<trkpt lat="13.4629712" lon="99.9395063">
<ele>2.710</ele>
<time>2018-04-02T08:49:16.952Z</time>
</trkpt>
<trkpt lat="13.4625491" lon="99.9396233">
<ele>1.659</ele>
<time>2018-04-02T08:49:19.914Z</time>
</trkpt>
<trkpt lat="13.4620828" lon="99.9397525">
<ele>0.000</ele>
<time>2018-04-02T08:49:23.122Z</time>
</trkpt>
<trkpt lat="13.4617025" lon="99.9400225">
<ele>0.000</ele>
<time>2018-04-02T08:49:26.094Z</time>
</trkpt>
<trkpt lat="13.4612693" lon="99.9402262">
<ele>0.000</ele>
<time>2018-04-02T08:49:29.137Z</time>
</trkpt>
<trkpt lat="13.4608684" lon="99.9403891">
<ele>0.000</ele>
<time>2018-04-02T08:49:31.955Z</time>
</trkpt>
<trkpt lat="13.4604297" lon="99.9405186">
<ele>0.000</ele>
<time>2018-04-02T08:49:35.081Z</time>
</trkpt>
<trkpt lat="13.4600508" lon="99.9405258">
<ele>0.000</ele>
<time>2018-04-02T08:49:37.910Z</time>
</trkpt>
<trkpt lat="13.4597150" lon="99.9405928">
<ele>0.000</ele>
<time>2018-04-02T08:49:40.669Z</time>
</trkpt>
<trkpt lat="13.4593507" lon="99.9406257">
<ele>0.000</ele>
<time>2018-04-02T08:49:43.705Z</time>
</trkpt>
<trkpt lat="13.4590490" lon="99.9406491">
<ele>0.000</ele>
<time>2018-04-02T08:49:46.301Z</time>
</trkpt>
<trkpt lat="13.4586532" lon="99.9407045">
<ele>0.000</ele>
<time>2018-04-02T08:49:49.497Z</time>
</trkpt>
<trkpt lat="13.4581916" lon="99.9407762">
<ele>0.000</ele>
<time>2018-04-02T08:49:52.732Z</time>
</trkpt>
<trkpt lat="13.4577182" lon="99.9408701">
<ele>0.000</ele>
<time>2018-04-02T08:49:55.774Z</time>
</trkpt>
<trkpt lat="13.4572279" lon="99.9409772">
<ele>0.000</ele>
<time>2018-04-02T08:49:58.871Z</time>
</trkpt>
<trkpt lat="13.4568245" lon="99.9410093">
<ele>0.000</ele>
<time>2018-04-02T08:50:01.501Z</time>
</trkpt>
<trkpt lat="13.4563514" lon="99.9411542">
<ele>0.000</ele>
<time>2018-04-02T08:50:04.798Z</time>
</trkpt>
<trkpt lat="13.4559181" lon="99.9412382">
<ele>0.000</ele>
<time>2018-04-02T08:50:07.688Z</time>
</trkpt>
<trkpt lat="13.4554882" lon="99.9413351">
<ele>0.000</ele>
<time>2018-04-02T08:50:10.642Z</time>
</trkpt>
<trkpt lat="13.4550870" lon="99.9413902">
<ele>0.000</ele>
<time>2018-04-02T08:50:13.461Z</time>
</trkpt>
<trkpt lat="13.4546425" lon="99.9414265">
<ele>0.000</ele>
<time>2018-04-02T08:50:16.549Z</time>
</trkpt>
<trkpt lat="13.4541848" lon="99.9413657">
<ele>0.000</ele>
<time>2018-04-02T08:50:19.586Z</time>
</trkpt>
<trkpt lat="13.4537374" lon="99.9413765">
<ele>0.000</ele>
<time>2018-04-02T08:50:22.475Z</time>
</trkpt>
<trkpt lat="13.4533273" lon="99.9413407">
<ele>0.000</ele>
<time>2018-04-02T08:50:25.343Z</time>
</trkpt>
<trkpt lat="13.4530923" lon="99.9413595">
<ele>0.000</ele>
<time>2018-04-02T08:50:27.377Z</time>
</trkpt>
<trkpt lat="13.4527809" lon="99.9414050">
<ele>0.000</ele>
<time>2018-04-02T08:50:30.447Z</time>
</trkpt>
<trkpt lat="13.4523770" lon="99.9414358">
<ele>0.000</ele>
<time>2018-04-02T08:50:34.036Z</time>
</trkpt>
<trkpt lat="13.4519462" lon="99.9414340">
<ele>0.000</ele>
<time>2018-04-02T08:50:37.383Z</time>
</trkpt>
<trkpt lat="13.4516365" lon="99.9414629">
<ele>0.000</ele>
<time>2018-04-02T08:50:39.940Z</time>
</trkpt>
<trkpt lat="13.4512843" lon="99.9414313">
<ele>0.000</ele>
<time>2018-04-02T08:50:42.996Z</time>
</trkpt>
<trkpt lat="13.4508775" lon="99.9413208">
<ele>0.000</ele>
<time>2018-04-02T08:50:46.301Z</time>
</trkpt>
<trkpt lat="13.4504937" lon="99.9412568">
<ele>0.000</ele>
<time>2018-04-02T08:50:49.287Z</time>
</trkpt>
<trkpt lat="13.4501801" lon="99.9412141">
<ele>0.000</ele>
<time>2018-04-02T08:50:51.944Z</time>
</trkpt>
<trkpt lat="13.4500272" lon="99.9413082">
<ele>0.000</ele>
<time>2018-04-02T08:50:53.997Z</time>
</trkpt>
<trkpt lat="13.4499009" lon="99.9413519">
<ele>0.000</ele>
<time>2018-04-02T08:50:55.850Z</time>
</trkpt>
<trkpt lat="13.4497818" lon="99.9413838">
<ele>0.000</ele>
<time>2018-04-02T08:50:58.089Z</time>
</trkpt>
<trkpt lat="13.4496633" lon="99.9414128">
<ele>0.000</ele>
<time>2018-04-02T08:51:00.890Z</time>
</trkpt>
<trkpt lat="13.4495350" lon="99.9414946">
<ele>0.792</ele>
<time>2018-04-02T08:51:04.670Z</time>
</trkpt>
<trkpt lat="13.4493498" lon="99.9415985">
<ele>1.116</ele>
<time>2018-04-02T08:51:08.828Z</time>
</trkpt>
<trkpt lat="13.4490630" lon="99.9416644">
<ele>0.875</ele>
<time>2018-04-02T08:51:12.980Z</time>
</trkpt>
<trkpt lat="13.4487375" lon="99.9416913">
<ele>0.187</ele>
<time>2018-04-02T08:51:16.365Z</time>
</trkpt>
<trkpt lat="13.4482487" lon="99.9417024">
<ele>0.000</ele>
<time>2018-04-02T08:51:20.147Z</time>
</trkpt>
<trkpt lat="13.4477479" lon="99.9417765">
<ele>0.000</ele>
<time>2018-04-02T08:51:23.412Z</time>
</trkpt>
<trkpt lat="13.4472444" lon="99.9417949">
<ele>0.000</ele>
<time>2018-04-02T08:51:26.649Z</time>
</trkpt>
<trkpt lat="13.4468180" lon="99.9418068">
<ele>0.000</ele>
<time>2018-04-02T08:51:29.749Z</time>
</trkpt>
<trkpt lat="13.4465006" lon="99.9418599">
<ele>0.090</ele>
<time>2018-04-02T08:51:32.612Z</time>
</trkpt>
<trkpt lat="13.4462532" lon="99.9419282">
<ele>1.134</ele>
<time>2018-04-02T08:51:35.451Z</time>
</trkpt>
<trkpt lat="13.4460534" lon="99.9418235">
<ele>2.350</ele>
<time>2018-04-02T08:51:38.625Z</time>
</trkpt>
<trkpt lat="13.4459408" lon="99.9417203">
<ele>3.440</ele>
<time>2018-04-02T08:51:41.378Z</time>
</trkpt>
<trkpt lat="13.4458508" lon="99.9416653">
<ele>4.042</ele>
<time>2018-04-02T08:51:43.734Z</time>
</trkpt>
<trkpt lat="13.4457775" lon="99.9416083">
<ele>3.924</ele>
<time>2018-04-02T08:51:46.371Z</time>
</trkpt>
<trkpt lat="13.4456851" lon="99.9416076">
<ele>3.072</ele>
<time>2018-04-02T08:51:50.131Z</time>
</trkpt>
<trkpt lat="13.4455828" lon="99.9415799">
<ele>1.952</ele>
<time>2018-04-02T08:51:54.969Z</time>
</trkpt>
<trkpt lat="13.4454882" lon="99.9415107">
<ele>1.139</ele>
<time>2018-04-02T08:51:59.454Z</time>
</trkpt>
<trkpt lat="13.4454338" lon="99.9414214">
<ele>0.742</ele>
<time>2018-04-02T08:52:03.993Z</time>
</trkpt>
<trkpt lat="13.4454338" lon="99.9414214">
<ele>0.620</ele>
<time>2018-04-02T08:52:07.993Z</time>
</trkpt>
<trkpt lat="13.4454338" lon="99.9414214">
<ele>0.647</ele>
<time>2018-04-02T08:52:50.446Z</time>
</trkpt>
<trkpt lat="13.4453146" lon="99.9413619">
<ele>0.688</ele>
<time>2018-04-02T08:53:10.757Z</time>
</trkpt>
<trkpt lat="13.4452882" lon="99.9414503">
<ele>0.671</ele>
<time>2018-04-02T08:53:18.991Z</time>
</trkpt>
<trkpt lat="13.4452882" lon="99.9414503">
<ele>0.615</ele>
<time>2018-04-02T08:53:23.991Z</time>
</trkpt>
<trkpt lat="13.4452882" lon="99.9414503">
<ele>0.576</ele>
<time>2018-04-02T08:53:24.091Z</time>
</trkpt>
<trkpt lat="13.4453202" lon="99.9413570">
<ele>0.597</ele>
<time>2018-04-02T08:54:04.184Z</time>
</trkpt>
<trkpt lat="13.4452734" lon="99.9412699">
<ele>0.000</ele>
<time>2018-04-02T08:54:28.989Z</time>
</trkpt>
<trkpt lat="13.4452734" lon="99.9412699">
<ele>0.000</ele>
<time>2018-04-02T08:56:19.997Z</time>
</trkpt>
<trkpt lat="13.4452734" lon="99.9412699">
<ele>0.000</ele>
<time>2018-04-02T08:56:27.997Z</time>
</trkpt>
<trkpt lat="13.4452409" lon="99.9412962">
<ele>0.000</ele>
<time>2018-04-02T08:59:12.994Z</time>
</trkpt>
<trkpt lat="13.4452409" lon="99.9412962">
<ele>0.000</ele>
<time>2018-04-02T08:59:16.994Z</time>
</trkpt>
<trkpt lat="13.4452409" lon="99.9412962">
<ele>0.000</ele>
<time>2018-04-02T09:01:35.274Z</time>
</trkpt>
<trkpt lat="13.4453123" lon="99.9413523">
<ele>0.000</ele>
<time>2018-04-02T09:01:58.998Z</time>
</trkpt>
<trkpt lat="13.4453123" lon="99.9413523">
<ele>0.191</ele>
<time>2018-04-02T09:02:03.999Z</time>
</trkpt>
<trkpt lat="13.4453123" lon="99.9413523">
<ele>0.333</ele>
<time>2018-04-02T09:02:04.099Z</time>
</trkpt>
<trkpt lat="13.4452208" lon="99.9413222">
<ele>0.211</ele>
<time>2018-04-02T09:02:27.261Z</time>
</trkpt>
<trkpt lat="13.4451999" lon="99.9412285">
<ele>0.208</ele>
<time>2018-04-02T09:02:37.189Z</time>
</trkpt>
<trkpt lat="13.4451918" lon="99.9411349">
<ele>0.269</ele>
<time>2018-04-02T09:02:44.998Z</time>
</trkpt>
<trkpt lat="13.4451918" lon="99.9411349">
<ele>0.326</ele>
<time>2018-04-02T09:03:01.998Z</time>
</trkpt>
<trkpt lat="13.4451918" lon="99.9411349">
<ele>0.326</ele>
<time>2018-04-02T09:03:02.098Z</time>
</trkpt>
<trkpt lat="13.4452700" lon="99.9410641">
<ele>0.301</ele>
<time>2018-04-02T09:03:12.998Z</time>
</trkpt>
<trkpt lat="13.4452700" lon="99.9410641">
<ele>0.310</ele>
<time>2018-04-02T09:03:22.998Z</time>
</trkpt>
<trkpt lat="13.4452700" lon="99.9410641">
<ele>0.311</ele>
<time>2018-04-02T09:03:54.111Z</time>
</trkpt>
<trkpt lat="13.4452700" lon="99.9410641">
<ele>0.306</ele>
<time>2018-04-02T09:04:04.997Z</time>
</trkpt>
<trkpt lat="13.4452700" lon="99.9410641">
<ele>0.307</ele>
<time>2018-04-02T09:04:05.097Z</time>
</trkpt>
<trkpt lat="13.4452700" lon="99.9410641">
<ele>0.307</ele>
<time>2018-04-02T09:04:06.997Z</time>
</trkpt>
<trkpt lat="13.4452700" lon="99.9410641">
<ele>0.306</ele>
<time>2018-04-02T09:04:07.097Z</time>
</trkpt>
<trkpt lat="13.4452988" lon="99.9412495">
<ele>0.306</ele>
<time>2018-04-02T09:04:22.996Z</time>
</trkpt>
<trkpt lat="13.4452988" lon="99.9412495">
<ele>0.306</ele>
<time>2018-04-02T09:04:26.996Z</time>
</trkpt>
<trkpt lat="13.4452988" lon="99.9412495">
<ele>0.306</ele>
<time>2018-04-02T09:04:27.891Z</time>
</trkpt>
<trkpt lat="13.4452988" lon="99.9412495">
<ele>0.306</ele>
<time>2018-04-02T09:05:16.995Z</time>
</trkpt>
<trkpt lat="13.4452988" lon="99.9412495">
<ele>0.306</ele>
<time>2018-04-02T09:05:32.575Z</time>
</trkpt>
<trkpt lat="13.4453771" lon="99.9413680">
<ele>0.306</ele>
<time>2018-04-02T09:06:35.959Z</time>
</trkpt>
<trkpt lat="13.4454812" lon="99.9413833">
<ele>0.061</ele>
<time>2018-04-02T09:07:01.718Z</time>
</trkpt>
<trkpt lat="13.4455855" lon="99.9413349">
<ele>0.000</ele>
<time>2018-04-02T09:07:29.791Z</time>
</trkpt>
<trkpt lat="13.4456802" lon="99.9413305">
<ele>0.000</ele>
<time>2018-04-02T09:07:53.039Z</time>
</trkpt>
<trkpt lat="13.4457736" lon="99.9414053">
<ele>0.000</ele>
<time>2018-04-02T09:08:05.546Z</time>
</trkpt>
<trkpt lat="13.4458343" lon="99.9414758">
<ele>0.000</ele>
<time>2018-04-02T09:08:09.798Z</time>
</trkpt>
<trkpt lat="13.4459194" lon="99.9415430">
<ele>0.000</ele>
<time>2018-04-02T09:08:14.220Z</time>
</trkpt>
<trkpt lat="13.4459864" lon="99.9416163">
<ele>0.000</ele>
<time>2018-04-02T09:08:18.206Z</time>
</trkpt>
<trkpt lat="13.4460331" lon="99.9417051">
<ele>0.000</ele>
<time>2018-04-02T09:08:22.242Z</time>
</trkpt>
<trkpt lat="13.4461447" lon="99.9417528">
<ele>0.000</ele>
<time>2018-04-02T09:08:27.342Z</time>
</trkpt>
<trkpt lat="13.4463175" lon="99.9417705">
<ele>1.319</ele>
<time>2018-04-02T09:08:35.372Z</time>
</trkpt>
<trkpt lat="13.4465716" lon="99.9417740">
<ele>3.685</ele>
<time>2018-04-02T09:08:42.478Z</time>
</trkpt>
<trkpt lat="13.4468225" lon="99.9417684">
<ele>5.373</ele>
<time>2018-04-02T09:08:46.026Z</time>
</trkpt>
<trkpt lat="13.4471418" lon="99.9417318">
<ele>5.994</ele>
<time>2018-04-02T09:08:49.310Z</time>
</trkpt>
<trkpt lat="13.4475128" lon="99.9417296">
<ele>5.964</ele>
<time>2018-04-02T09:08:52.533Z</time>
</trkpt>
<trkpt lat="13.4477443" lon="99.9416846">
<ele>5.398</ele>
<time>2018-04-02T09:08:54.403Z</time>
</trkpt>
<trkpt lat="13.4480445" lon="99.9417487">
<ele>4.172</ele>
<time>2018-04-02T09:08:56.676Z</time>
</trkpt>
<trkpt lat="13.4483272" lon="99.9416999">
<ele>2.576</ele>
<time>2018-04-02T09:08:58.731Z</time>
</trkpt>
<trkpt lat="13.4486002" lon="99.9416494">
<ele>1.223</ele>
<time>2018-04-02T09:09:00.699Z</time>
</trkpt>
<trkpt lat="13.4488860" lon="99.9416225">
<ele>0.494</ele>
<time>2018-04-02T09:09:02.731Z</time>
</trkpt>
<trkpt lat="13.4491376" lon="99.9416137">
<ele>0.396</ele>
<time>2018-04-02T09:09:04.534Z</time>
</trkpt>
<trkpt lat="13.4494218" lon="99.9415807">
<ele>0.847</ele>
<time>2018-04-02T09:09:06.562Z</time>
</trkpt>
<trkpt lat="13.4496992" lon="99.9414631">
<ele>1.643</ele>
<time>2018-04-02T09:09:08.660Z</time>
</trkpt>
<trkpt lat="13.4499782" lon="99.9413858">
<ele>2.308</ele>
<time>2018-04-02T09:09:10.816Z</time>
</trkpt>
<trkpt lat="13.4501252" lon="99.9413288">
<ele>2.415</ele>
<time>2018-04-02T09:09:12.144Z</time>
</trkpt>
<trkpt lat="13.4502595" lon="99.9412178">
<ele>2.004</ele>
<time>2018-04-02T09:09:13.664Z</time>
</trkpt>
<trkpt lat="13.4504869" lon="99.9411956">
<ele>1.487</ele>
<time>2018-04-02T09:09:15.739Z</time>
</trkpt>
<trkpt lat="13.4506997" lon="99.9412201">
<ele>1.185</ele>
<time>2018-04-02T09:09:17.659Z</time>
</trkpt>
<trkpt lat="13.4509232" lon="99.9412703">
<ele>1.342</ele>
<time>2018-04-02T09:09:19.630Z</time>
</trkpt>
<trkpt lat="13.4511692" lon="99.9413058">
<ele>2.109</ele>
<time>2018-04-02T09:09:21.653Z</time>
</trkpt>
<trkpt lat="13.4514148" lon="99.9413698">
<ele>3.099</ele>
<time>2018-04-02T09:09:23.657Z</time>
</trkpt>
<trkpt lat="13.4516603" lon="99.9413804">
<ele>3.839</ele>
<time>2018-04-02T09:09:25.644Z</time>
</trkpt>
<trkpt lat="13.4519871" lon="99.9414335">
<ele>4.377</ele>
<time>2018-04-02T09:09:28.465Z</time>
</trkpt>
<trkpt lat="13.4523072" lon="99.9414055">
<ele>4.866</ele>
<time>2018-04-02T09:09:31.324Z</time>
</trkpt>
<trkpt lat="13.4526470" lon="99.9413092">
<ele>5.290</ele>
<time>2018-04-02T09:09:34.348Z</time>
</trkpt>
<trkpt lat="13.4530467" lon="99.9413180">
<ele>5.596</ele>
<time>2018-04-02T09:09:37.668Z</time>
</trkpt>
<trkpt lat="13.4533577" lon="99.9412791">
<ele>5.775</ele>
<time>2018-04-02T09:09:40.389Z</time>
</trkpt>
<trkpt lat="13.4536846" lon="99.9412621">
<ele>5.827</ele>
<time>2018-04-02T09:09:43.326Z</time>
</trkpt>
<trkpt lat="13.4540746" lon="99.9412619">
<ele>5.648</ele>
<time>2018-04-02T09:09:46.524Z</time>
</trkpt>
<trkpt lat="13.4544566" lon="99.9412533">
<ele>5.153</ele>
<time>2018-04-02T09:09:49.475Z</time>
</trkpt>
<trkpt lat="13.4548000" lon="99.9412807">
<ele>4.565</ele>
<time>2018-04-02T09:09:52.277Z</time>
</trkpt>
<trkpt lat="13.4550581" lon="99.9413084">
<ele>4.194</ele>
<time>2018-04-02T09:09:54.744Z</time>
</trkpt>
<trkpt lat="13.4553236" lon="99.9412962">
<ele>4.157</ele>
<time>2018-04-02T09:09:57.614Z</time>
</trkpt>
<trkpt lat="13.4556184" lon="99.9412765">
<ele>4.373</ele>
<time>2018-04-02T09:10:00.802Z</time>
</trkpt>
<trkpt lat="13.4558581" lon="99.9412141">
<ele>4.620</ele>
<time>2018-04-02T09:10:03.447Z</time>
</trkpt>
<trkpt lat="13.4560846" lon="99.9411465">
<ele>4.783</ele>
<time>2018-04-02T09:10:06.106Z</time>
</trkpt>
<trkpt lat="13.4562619" lon="99.9410903">
<ele>4.944</ele>
<time>2018-04-02T09:10:08.290Z</time>
</trkpt>
<trkpt lat="13.4566180" lon="99.9410750">
<ele>5.142</ele>
<time>2018-04-02T09:10:12.254Z</time>
</trkpt>
<trkpt lat="13.4570094" lon="99.9410066">
<ele>5.293</ele>
<time>2018-04-02T09:10:15.951Z</time>
</trkpt>
<trkpt lat="13.4573203" lon="99.9408985">
<ele>5.047</ele>
<time>2018-04-02T09:10:19.009Z</time>
</trkpt>
<trkpt lat="13.4575699" lon="99.9408642">
<ele>4.255</ele>
<time>2018-04-02T09:10:21.524Z</time>
</trkpt>
<trkpt lat="13.4578440" lon="99.9408547">
<ele>3.351</ele>
<time>2018-04-02T09:10:24.332Z</time>
</trkpt>
<trkpt lat="13.4581743" lon="99.9408056">
<ele>2.555</ele>
<time>2018-04-02T09:10:27.602Z</time>
</trkpt>
<trkpt lat="13.4584838" lon="99.9407616">
<ele>1.262</ele>
<time>2018-04-02T09:10:30.656Z</time>
</trkpt>
<trkpt lat="13.4587721" lon="99.9407123">
<ele>0.000</ele>
<time>2018-04-02T09:10:33.680Z</time>
</trkpt>
<trkpt lat="13.4590200" lon="99.9406726">
<ele>0.000</ele>
<time>2018-04-02T09:10:36.450Z</time>
</trkpt>
<trkpt lat="13.4592447" lon="99.9406166">
<ele>0.000</ele>
<time>2018-04-02T09:10:39.243Z</time>
</trkpt>
<trkpt lat="13.4594367" lon="99.9405803">
<ele>0.000</ele>
<time>2018-04-02T09:10:41.968Z</time>
</trkpt>
<trkpt lat="13.4595852" lon="99.9405276">
<ele>0.000</ele>
<time>2018-04-02T09:10:44.647Z</time>
</trkpt>
<trkpt lat="13.4597091" lon="99.9405076">
<ele>0.000</ele>
<time>2018-04-02T09:10:47.351Z</time>
</trkpt>
<trkpt lat="13.4598201" lon="99.9404915">
<ele>0.000</ele>
<time>2018-04-02T09:10:50.211Z</time>
</trkpt>
<trkpt lat="13.4599635" lon="99.9404628">
<ele>0.000</ele>
<time>2018-04-02T09:10:53.907Z</time>
</trkpt>
<trkpt lat="13.4600497" lon="99.9405622">
<ele>0.000</ele>
<time>2018-04-02T09:10:57.203Z</time>
</trkpt>
<trkpt lat="13.4600590" lon="99.9407403">
<ele>0.000</ele>
<time>2018-04-02T09:11:00.911Z</time>
</trkpt>
<trkpt lat="13.4600724" lon="99.9409034">
<ele>0.000</ele>
<time>2018-04-02T09:11:03.862Z</time>
</trkpt>
<trkpt lat="13.4601213" lon="99.9410485">
<ele>0.772</ele>
<time>2018-04-02T09:11:06.475Z</time>
</trkpt>
<trkpt lat="13.4601746" lon="99.9412509">
<ele>1.555</ele>
<time>2018-04-02T09:11:09.553Z</time>
</trkpt>
<trkpt lat="13.4602903" lon="99.9414881">
<ele>2.224</ele>
<time>2018-04-02T09:11:12.861Z</time>
</trkpt>
<trkpt lat="13.4604315" lon="99.9417318">
<ele>2.686</ele>
<time>2018-04-02T09:11:16.127Z</time>
</trkpt>
<trkpt lat="13.4605240" lon="99.9419160">
<ele>3.006</ele>
<time>2018-04-02T09:11:18.530Z</time>
</trkpt>
<trkpt lat="13.4606453" lon="99.9421805">
<ele>3.168</ele>
<time>2018-04-02T09:11:21.985Z</time>
</trkpt>
<trkpt lat="13.4606998" lon="99.9424296">
<ele>3.661</ele>
<time>2018-04-02T09:11:25.302Z</time>
</trkpt>
<trkpt lat="13.4607338" lon="99.9425929">
<ele>4.921</ele>
<time>2018-04-02T09:11:27.965Z</time>
</trkpt>
<trkpt lat="13.4607874" lon="99.9427499">
<ele>6.337</ele>
<time>2018-04-02T09:11:30.872Z</time>
</trkpt>
<trkpt lat="13.4608401" lon="99.9429419">
<ele>7.129</ele>
<time>2018-04-02T09:11:33.896Z</time>
</trkpt>
<trkpt lat="13.4609211" lon="99.9431762">
<ele>7.451</ele>
<time>2018-04-02T09:11:37.129Z</time>
</trkpt>
<trkpt lat="13.4610026" lon="99.9433998">
<ele>7.903</ele>
<time>2018-04-02T09:11:39.994Z</time>
</trkpt>
<trkpt lat="13.4611369" lon="99.9436654">
<ele>8.642</ele>
<time>2018-04-02T09:11:43.301Z</time>
</trkpt>
<trkpt lat="13.4612527" lon="99.9439134">
<ele>9.102</ele>
<time>2018-04-02T09:11:46.151Z</time>
</trkpt>
<trkpt lat="13.4613819" lon="99.9441963">
<ele>8.746</ele>
<time>2018-04-02T09:11:49.413Z</time>
</trkpt>
<trkpt lat="13.4614792" lon="99.9444262">
<ele>7.837</ele>
<time>2018-04-02T09:11:52.642Z</time>
</trkpt>
<trkpt lat="13.4615177" lon="99.9445504">
<ele>7.000</ele>
<time>2018-04-02T09:11:55.178Z</time>
</trkpt>
<trkpt lat="13.4615491" lon="99.9446495">
<ele>6.338</ele>
<time>2018-04-02T09:11:57.996Z</time>
</trkpt>
<trkpt lat="13.4615491" lon="99.9446495">
<ele>5.704</ele>
<time>2018-04-02T09:12:04.995Z</time>
</trkpt>
<trkpt lat="13.4615491" lon="99.9446495">
<ele>5.319</ele>
<time>2018-04-02T09:12:54.925Z</time>
</trkpt>
<trkpt lat="13.4615698" lon="99.9448859">
<ele>5.537</ele>
<time>2018-04-02T09:13:10.405Z</time>
</trkpt>
<trkpt lat="13.4615831" lon="99.9450245">
<ele>5.762</ele>
<time>2018-04-02T09:13:14.917Z</time>
</trkpt>
<trkpt lat="13.4615276" lon="99.9451228">
<ele>6.029</ele>
<time>2018-04-02T09:13:18.095Z</time>
</trkpt>
<trkpt lat="13.4614169" lon="99.9451433">
<ele>6.217</ele>
<time>2018-04-02T09:13:20.398Z</time>
</trkpt>
<trkpt lat="13.4612019" lon="99.9452016">
<ele>6.037</ele>
<time>2018-04-02T09:13:23.518Z</time>
</trkpt>
<trkpt lat="13.4609237" lon="99.9452480">
<ele>5.393</ele>
<time>2018-04-02T09:13:26.385Z</time>
</trkpt>
<trkpt lat="13.4606253" lon="99.9453747">
<ele>4.622</ele>
<time>2018-04-02T09:13:29.356Z</time>
</trkpt>
<trkpt lat="13.4602991" lon="99.9454735">
<ele>4.291</ele>
<time>2018-04-02T09:13:32.718Z</time>
</trkpt>
<trkpt lat="13.4600146" lon="99.9455747">
<ele>4.535</ele>
<time>2018-04-02T09:13:35.755Z</time>
</trkpt>
<trkpt lat="13.4597556" lon="99.9456738">
<ele>4.788</ele>
<time>2018-04-02T09:13:38.277Z</time>
</trkpt>
<trkpt lat="13.4594544" lon="99.9457969">
<ele>4.265</ele>
<time>2018-04-02T09:13:40.916Z</time>
</trkpt>
<trkpt lat="13.4591153" lon="99.9459614">
<ele>2.864</ele>
<time>2018-04-02T09:13:43.686Z</time>
</trkpt>
<trkpt lat="13.4587247" lon="99.9461800">
<ele>1.124</ele>
<time>2018-04-02T09:13:46.856Z</time>
</trkpt>
<trkpt lat="13.4583243" lon="99.9463768">
<ele>0.000</ele>
<time>2018-04-02T09:13:50.337Z</time>
</trkpt>
<trkpt lat="13.4580029" lon="99.9464416">
<ele>0.000</ele>
<time>2018-04-02T09:13:53.066Z</time>
</trkpt>
<trkpt lat="13.4576553" lon="99.9464647">
<ele>0.000</ele>
<time>2018-04-02T09:13:55.828Z</time>
</trkpt>
<trkpt lat="13.4572932" lon="99.9465040">
<ele>0.000</ele>
<time>2018-04-02T09:13:58.550Z</time>
</trkpt>
<trkpt lat="13.4568776" lon="99.9465416">
<ele>0.000</ele>
<time>2018-04-02T09:14:01.788Z</time>
</trkpt>
<trkpt lat="13.4565119" lon="99.9465855">
<ele>0.000</ele>
<time>2018-04-02T09:14:04.732Z</time>
</trkpt>
<trkpt lat="13.4561563" lon="99.9466321">
<ele>0.000</ele>
<time>2018-04-02T09:14:07.390Z</time>
</trkpt>
<trkpt lat="13.4557430" lon="99.9467089">
<ele>0.331</ele>
<time>2018-04-02T09:14:10.201Z</time>
</trkpt>
<trkpt lat="13.4552850" lon="99.9467665">
<ele>1.308</ele>
<time>2018-04-02T09:14:13.100Z</time>
</trkpt>
<trkpt lat="13.4547997" lon="99.9468229">
<ele>2.256</ele>
<time>2018-04-02T09:14:16.347Z</time>
</trkpt>
<trkpt lat="13.4543928" lon="99.9468294">
<ele>2.884</ele>
<time>2018-04-02T09:14:19.709Z</time>
</trkpt>
<trkpt lat="13.4540759" lon="99.9468344">
<ele>3.068</ele>
<time>2018-04-02T09:14:22.616Z</time>
</trkpt>
<trkpt lat="13.4537184" lon="99.9468103">
<ele>3.012</ele>
<time>2018-04-02T09:14:25.925Z</time>
</trkpt>
<trkpt lat="13.4534032" lon="99.9467494">
<ele>2.933</ele>
<time>2018-04-02T09:14:29.000Z</time>
</trkpt>
<trkpt lat="13.4531206" lon="99.9467351">
<ele>2.909</ele>
<time>2018-04-02T09:14:31.664Z</time>
</trkpt>
<trkpt lat="13.4528192" lon="99.9465181">
<ele>2.774</ele>
<time>2018-04-02T09:14:34.933Z</time>
</trkpt>
<trkpt lat="13.4524817" lon="99.9464789">
<ele>2.200</ele>
<time>2018-04-02T09:14:37.881Z</time>
</trkpt>
<trkpt lat="13.4521229" lon="99.9465270">
<ele>1.230</ele>
<time>2018-04-02T09:14:41.118Z</time>
</trkpt>
<trkpt lat="13.4518274" lon="99.9466045">
<ele>0.395</ele>
<time>2018-04-02T09:14:43.896Z</time>
</trkpt>
<trkpt lat="13.4515253" lon="99.9466735">
<ele>0.018</ele>
<time>2018-04-02T09:14:46.654Z</time>
</trkpt>
<trkpt lat="13.4511956" lon="99.9467389">
<ele>0.134</ele>
<time>2018-04-02T09:14:49.606Z</time>
</trkpt>
<trkpt lat="13.4508420" lon="99.9467874">
<ele>0.625</ele>
<time>2018-04-02T09:14:52.845Z</time>
</trkpt>
<trkpt lat="13.4505281" lon="99.9468439">
<ele>1.120</ele>
<time>2018-04-02T09:14:55.875Z</time>
</trkpt>
<trkpt lat="13.4502178" lon="99.9468523">
<ele>1.429</ele>
<time>2018-04-02T09:14:58.748Z</time>
</trkpt>
<trkpt lat="13.4498884" lon="99.9468893">
<ele>1.704</ele>
<time>2018-04-02T09:15:01.708Z</time>
</trkpt>
<trkpt lat="13.4495422" lon="99.9469161">
<ele>2.065</ele>
<time>2018-04-02T09:15:04.961Z</time>
</trkpt>
<trkpt lat="13.4492227" lon="99.9469644">
<ele>2.512</ele>
<time>2018-04-02T09:15:08.112Z</time>
</trkpt>
<trkpt lat="13.4489767" lon="99.9470934">
<ele>2.873</ele>
<time>2018-04-02T09:15:10.607Z</time>
</trkpt>
<trkpt lat="13.4486667" lon="99.9472496">
<ele>2.986</ele>
<time>2018-04-02T09:15:13.314Z</time>
</trkpt>
<trkpt lat="13.4483189" lon="99.9474533">
<ele>2.724</ele>
<time>2018-04-02T09:15:16.197Z</time>
</trkpt>
<trkpt lat="13.4479438" lon="99.9476475">
<ele>1.915</ele>
<time>2018-04-02T09:15:19.195Z</time>
</trkpt>
<trkpt lat="13.4475265" lon="99.9477733">
<ele>0.598</ele>
<time>2018-04-02T09:15:22.280Z</time>
</trkpt>
<trkpt lat="13.4471153" lon="99.9477943">
<ele>0.000</ele>
<time>2018-04-02T09:15:25.162Z</time>
</trkpt>
<trkpt lat="13.4466837" lon="99.9477850">
<ele>0.000</ele>
<time>2018-04-02T09:15:28.221Z</time>
</trkpt>
<trkpt lat="13.4462627" lon="99.9477553">
<ele>0.000</ele>
<time>2018-04-02T09:15:31.450Z</time>
</trkpt>
<trkpt lat="13.4459463" lon="99.9476848">
<ele>0.000</ele>
<time>2018-04-02T09:15:34.070Z</time>
</trkpt>
<trkpt lat="13.4456007" lon="99.9476408">
<ele>0.000</ele>
<time>2018-04-02T09:15:36.751Z</time>
</trkpt>
<trkpt lat="13.4451949" lon="99.9476382">
<ele>0.000</ele>
<time>2018-04-02T09:15:39.562Z</time>
</trkpt>
<trkpt lat="13.4447343" lon="99.9476445">
<ele>0.000</ele>
<time>2018-04-02T09:15:42.468Z</time>
</trkpt>
<trkpt lat="13.4442459" lon="99.9477349">
<ele>0.000</ele>
<time>2018-04-02T09:15:45.406Z</time>
</trkpt>
<trkpt lat="13.4437313" lon="99.9477636">
<ele>0.000</ele>
<time>2018-04-02T09:15:48.482Z</time>
</trkpt>
<trkpt lat="13.4432834" lon="99.9477794">
<ele>0.000</ele>
<time>2018-04-02T09:15:51.367Z</time>
</trkpt>
<trkpt lat="13.4428562" lon="99.9477979">
<ele>0.000</ele>
<time>2018-04-02T09:15:54.171Z</time>
</trkpt>
<trkpt lat="13.4423617" lon="99.9478266">
<ele>0.000</ele>
<time>2018-04-02T09:15:57.281Z</time>
</trkpt>
<trkpt lat="13.4418813" lon="99.9479162">
<ele>0.000</ele>
<time>2018-04-02T09:16:00.298Z</time>
</trkpt>
<trkpt lat="13.4414141" lon="99.9480208">
<ele>0.000</ele>
<time>2018-04-02T09:16:03.594Z</time>
</trkpt>
<trkpt lat="13.4412006" lon="99.9480963">
<ele>0.000</ele>
<time>2018-04-02T09:16:05.543Z</time>
</trkpt>
<trkpt lat="13.4410440" lon="99.9481823">
<ele>0.000</ele>
<time>2018-04-02T09:16:07.202Z</time>
</trkpt>
<trkpt lat="13.4408740" lon="99.9483458">
<ele>0.000</ele>
<time>2018-04-02T09:16:09.258Z</time>
</trkpt>
<trkpt lat="13.4407269" lon="99.9485717">
<ele>0.000</ele>
<time>2018-04-02T09:16:11.637Z</time>
</trkpt>
<trkpt lat="13.4406143" lon="99.9487008">
<ele>0.000</ele>
<time>2018-04-02T09:16:13.217Z</time>
</trkpt>
<trkpt lat="13.4404428" lon="99.9488255">
<ele>0.000</ele>
<time>2018-04-02T09:16:15.141Z</time>
</trkpt>
<trkpt lat="13.4402081" lon="99.9488939">
<ele>0.000</ele>
<time>2018-04-02T09:16:17.185Z</time>
</trkpt>
<trkpt lat="13.4399365" lon="99.9489366">
<ele>0.000</ele>
<time>2018-04-02T09:16:19.256Z</time>
</trkpt>
<trkpt lat="13.4396383" lon="99.9489979">
<ele>0.000</ele>
<time>2018-04-02T09:16:21.550Z</time>
</trkpt>
<trkpt lat="13.4394031" lon="99.9490234">
<ele>0.000</ele>
<time>2018-04-02T09:16:23.442Z</time>
</trkpt>
<trkpt lat="13.4391686" lon="99.9490340">
<ele>0.000</ele>
<time>2018-04-02T09:16:25.409Z</time>
</trkpt>
<trkpt lat="13.4389297" lon="99.9490804">
<ele>0.000</ele>
<time>2018-04-02T09:16:27.693Z</time>
</trkpt>
<trkpt lat="13.4387557" lon="99.9491392">
<ele>0.000</ele>
<time>2018-04-02T09:16:29.607Z</time>
</trkpt>
<trkpt lat="13.4386333" lon="99.9492961">
<ele>0.000</ele>
<time>2018-04-02T09:16:31.602Z</time>
</trkpt>
<trkpt lat="13.4385051" lon="99.9494765">
<ele>0.000</ele>
<time>2018-04-02T09:16:33.603Z</time>
</trkpt>
<trkpt lat="13.4383898" lon="99.9496640">
<ele>0.247</ele>
<time>2018-04-02T09:16:35.421Z</time>
</trkpt>
<trkpt lat="13.4382583" lon="99.9498819">
<ele>0.593</ele>
<time>2018-04-02T09:16:37.408Z</time>
</trkpt>
<trkpt lat="13.4381237" lon="99.9501071">
<ele>0.684</ele>
<time>2018-04-02T09:16:39.479Z</time>
</trkpt>
<trkpt lat="13.4380001" lon="99.9503169">
<ele>0.444</ele>
<time>2018-04-02T09:16:41.531Z</time>
</trkpt>
<trkpt lat="13.4378881" lon="99.9504974">
<ele>0.123</ele>
<time>2018-04-02T09:16:43.382Z</time>
</trkpt>
<trkpt lat="13.4377098" lon="99.9507779">
<ele>0.000</ele>
<time>2018-04-02T09:16:46.135Z</time>
</trkpt>
<trkpt lat="13.4374828" lon="99.9511080">
<ele>0.000</ele>
<time>2018-04-02T09:16:49.204Z</time>
</trkpt>
<trkpt lat="13.4372049" lon="99.9514022">
<ele>0.000</ele>
<time>2018-04-02T09:16:52.063Z</time>
</trkpt>
<trkpt lat="13.4368059" lon="99.9516560">
<ele>0.000</ele>
<time>2018-04-02T09:16:55.179Z</time>
</trkpt>
<trkpt lat="13.4363842" lon="99.9518681">
<ele>0.000</ele>
<time>2018-04-02T09:16:58.088Z</time>
</trkpt>
<trkpt lat="13.4359180" lon="99.9520593">
<ele>0.000</ele>
<time>2018-04-02T09:17:01.240Z</time>
</trkpt>
<trkpt lat="13.4355261" lon="99.9522001">
<ele>0.000</ele>
<time>2018-04-02T09:17:04.099Z</time>
</trkpt>
<trkpt lat="13.4351362" lon="99.9522723">
<ele>0.000</ele>
<time>2018-04-02T09:17:06.859Z</time>
</trkpt>
<trkpt lat="13.4346781" lon="99.9523270">
<ele>0.000</ele>
<time>2018-04-02T09:17:09.970Z</time>
</trkpt>
<trkpt lat="13.4342493" lon="99.9523588">
<ele>0.000</ele>
<time>2018-04-02T09:17:12.938Z</time>
</trkpt>
<trkpt lat="13.4338480" lon="99.9524057">
<ele>0.000</ele>
<time>2018-04-02T09:17:15.906Z</time>
</trkpt>
<trkpt lat="13.4335027" lon="99.9525356">
<ele>0.000</ele>
<time>2018-04-02T09:17:18.816Z</time>
</trkpt>
<trkpt lat="13.4331739" lon="99.9526116">
<ele>0.000</ele>
<time>2018-04-02T09:17:21.633Z</time>
</trkpt>
<trkpt lat="13.4328124" lon="99.9525599">
<ele>0.000</ele>
<time>2018-04-02T09:17:24.940Z</time>
</trkpt>
<trkpt lat="13.4325622" lon="99.9524588">
<ele>0.852</ele>
<time>2018-04-02T09:17:27.751Z</time>
</trkpt>
<trkpt lat="13.4323118" lon="99.9523810">
<ele>1.854</ele>
<time>2018-04-02T09:17:30.574Z</time>
</trkpt>
<trkpt lat="13.4320060" lon="99.9522984">
<ele>2.881</ele>
<time>2018-04-02T09:17:33.642Z</time>
</trkpt>
<trkpt lat="13.4316492" lon="99.9522213">
<ele>3.677</ele>
<time>2018-04-02T09:17:36.744Z</time>
</trkpt>
<trkpt lat="13.4312520" lon="99.9521768">
<ele>3.867</ele>
<time>2018-04-02T09:17:39.806Z</time>
</trkpt>
<trkpt lat="13.4308383" lon="99.9521159">
<ele>3.513</ele>
<time>2018-04-02T09:17:42.762Z</time>
</trkpt>
<trkpt lat="13.4304013" lon="99.9520306">
<ele>3.289</ele>
<time>2018-04-02T09:17:45.841Z</time>
</trkpt>
<trkpt lat="13.4299930" lon="99.9519819">
<ele>3.670</ele>
<time>2018-04-02T09:17:48.926Z</time>
</trkpt>
<trkpt lat="13.4296650" lon="99.9519843">
<ele>4.246</ele>
<time>2018-04-02T09:17:51.571Z</time>
</trkpt>
<trkpt lat="13.4292786" lon="99.9519889">
<ele>4.371</ele>
<time>2018-04-02T09:17:54.595Z</time>
</trkpt>
<trkpt lat="13.4288783" lon="99.9520133">
<ele>3.880</ele>
<time>2018-04-02T09:17:57.640Z</time>
</trkpt>
<trkpt lat="13.4285142" lon="99.9520641">
<ele>3.118</ele>
<time>2018-04-02T09:18:00.610Z</time>
</trkpt>
<trkpt lat="13.4281962" lon="99.9521508">
<ele>2.333</ele>
<time>2018-04-02T09:18:03.483Z</time>
</trkpt>
<trkpt lat="13.4278736" lon="99.9522426">
<ele>1.520</ele>
<time>2018-04-02T09:18:06.539Z</time>
</trkpt>
<trkpt lat="13.4276184" lon="99.9523853">
<ele>0.757</ele>
<time>2018-04-02T09:18:09.316Z</time>
</trkpt>
<trkpt lat="13.4273957" lon="99.9525475">
<ele>0.287</ele>
<time>2018-04-02T09:18:12.002Z</time>
</trkpt>
<trkpt lat="13.4271597" lon="99.9527928">
<ele>0.313</ele>
<time>2018-04-02T09:18:15.348Z</time>
</trkpt>
<trkpt lat="13.4270060" lon="99.9530031">
<ele>0.688</ele>
<time>2018-04-02T09:18:18.093Z</time>
</trkpt>
<trkpt lat="13.4268928" lon="99.9532149">
<ele>0.930</ele>
<time>2018-04-02T09:18:20.805Z</time>
</trkpt>
<trkpt lat="13.4267467" lon="99.9534599">
<ele>0.721</ele>
<time>2018-04-02T09:18:24.054Z</time>
</trkpt>
<trkpt lat="13.4266510" lon="99.9536882">
<ele>0.048</ele>
<time>2018-04-02T09:18:26.973Z</time>
</trkpt>
<trkpt lat="13.4266042" lon="99.9539137">
<ele>0.000</ele>
<time>2018-04-02T09:18:29.921Z</time>
</trkpt>
<trkpt lat="13.4265593" lon="99.9541027">
<ele>0.000</ele>
<time>2018-04-02T09:18:32.687Z</time>
</trkpt>
<trkpt lat="13.4265098" lon="99.9542912">
<ele>0.000</ele>
<time>2018-04-02T09:18:35.854Z</time>
</trkpt>
<trkpt lat="13.4264624" lon="99.9543936">
<ele>0.000</ele>
<time>2018-04-02T09:18:37.931Z</time>
</trkpt>
<trkpt lat="13.4265491" lon="99.9544663">
<ele>0.000</ele>
<time>2018-04-02T09:18:40.618Z</time>
</trkpt>
<trkpt lat="13.4266521" lon="99.9546226">
<ele>0.000</ele>
<time>2018-04-02T09:18:44.371Z</time>
</trkpt>
<trkpt lat="13.4267715" lon="99.9548205">
<ele>0.000</ele>
<time>2018-04-02T09:18:47.654Z</time>
</trkpt>
<trkpt lat="13.4268913" lon="99.9550255">
<ele>0.000</ele>
<time>2018-04-02T09:18:50.648Z</time>
</trkpt>
<trkpt lat="13.4270329" lon="99.9551687">
<ele>0.000</ele>
<time>2018-04-02T09:18:53.488Z</time>
</trkpt>
<trkpt lat="13.4271098" lon="99.9552959">
<ele>0.355</ele>
<time>2018-04-02T09:18:56.367Z</time>
</trkpt>
<trkpt lat="13.4271527" lon="99.9553863">
<ele>0.569</ele>
<time>2018-04-02T09:18:59.332Z</time>
</trkpt>
<trkpt lat="13.4272149" lon="99.9554548">
<ele>0.944</ele>
<time>2018-04-02T09:19:05.996Z</time>
</trkpt>
<trkpt lat="13.4272149" lon="99.9554548">
<ele>2.056</ele>
<time>2018-04-02T09:19:05.997Z</time>
</trkpt>
<trkpt lat="13.4272149" lon="99.9554548">
<ele>3.594</ele>
<time>2018-04-02T09:19:06.097Z</time>
</trkpt>
<trkpt lat="13.4271214" lon="99.9554727">
<ele>3.689</ele>
<time>2018-04-02T09:19:54.410Z</time>
</trkpt>
<trkpt lat="13.4270646" lon="99.9555468">
<ele>3.108</ele>
<time>2018-04-02T09:20:28.221Z</time>
</trkpt>
<trkpt lat="13.4269970" lon="99.9556078">
<ele>3.736</ele>
<time>2018-04-02T09:20:44.994Z</time>
</trkpt>
<trkpt lat="13.4269970" lon="99.9556078">
<ele>4.889</ele>
<time>2018-04-02T09:20:55.993Z</time>
</trkpt>
<trkpt lat="13.4269970" lon="99.9556078">
<ele>5.504</ele>
<time>2018-04-02T09:20:56.093Z</time>
</trkpt>
<trkpt lat="13.4269177" lon="99.9556868">
<ele>5.450</ele>
<time>2018-04-02T09:21:14.131Z</time>
</trkpt>
<trkpt lat="13.4268318" lon="99.9557232">
<ele>5.599</ele>
<time>2018-04-02T09:21:27.396Z</time>
</trkpt>
<trkpt lat="13.4268561" lon="99.9558133">
<ele>6.593</ele>
<time>2018-04-02T09:21:40.659Z</time>
</trkpt>
<trkpt lat="13.4268556" lon="99.9559093">
<ele>7.597</ele>
<time>2018-04-02T09:21:53.783Z</time>
</trkpt>
<trkpt lat="13.4267734" lon="99.9559517">
<ele>7.596</ele>
<time>2018-04-02T09:22:04.992Z</time>
</trkpt>
<trkpt lat="13.4267734" lon="99.9559517">
<ele>6.841</ele>
<time>2018-04-02T09:22:07.992Z</time>
</trkpt>
<trkpt lat="13.4267734" lon="99.9559517">
<ele>6.243</ele>
<time>2018-04-02T09:22:19.991Z</time>
</trkpt>
<trkpt lat="13.4267734" lon="99.9559517">
<ele>6.254</ele>
<time>2018-04-02T09:22:23.182Z</time>
</trkpt>
<trkpt lat="13.4266902" lon="99.9560019">
<ele>6.499</ele>
<time>2018-04-02T09:22:37.698Z</time>
</trkpt>
<trkpt lat="13.4266528" lon="99.9559164">
<ele>6.363</ele>
<time>2018-04-02T09:22:44.991Z</time>
</trkpt>
<trkpt lat="13.4266528" lon="99.9559164">
<ele>6.273</ele>
<time>2018-04-02T09:22:44.991Z</time>
</trkpt>
<trkpt lat="13.4266528" lon="99.9559164">
<ele>6.263</ele>
<time>2018-04-02T09:23:30.831Z</time>
</trkpt>
<trkpt lat="13.4266463" lon="99.9560117">
<ele>6.273</ele>
<time>2018-04-02T09:23:47.257Z</time>
</trkpt>
<trkpt lat="13.4266938" lon="99.9560906">
<ele>5.822</ele>
<time>2018-04-02T09:23:56.525Z</time>
</trkpt>
<trkpt lat="13.4267160" lon="99.9561833">
<ele>4.657</ele>
<time>2018-04-02T09:24:05.999Z</time>
</trkpt>
<trkpt lat="13.4267160" lon="99.9561833">
<ele>3.685</ele>
<time>2018-04-02T09:24:05.999Z</time>
</trkpt>
<trkpt lat="13.4267160" lon="99.9561833">
<ele>3.700</ele>
<time>2018-04-02T09:24:12.887Z</time>
</trkpt>
<trkpt lat="13.4267715" lon="99.9562589">
<ele>4.108</ele>
<time>2018-04-02T09:24:25.998Z</time>
</trkpt>
<trkpt lat="13.4267715" lon="99.9562589">
<ele>3.889</ele>
<time>2018-04-02T09:24:25.998Z</time>
</trkpt>
<trkpt lat="13.4267715" lon="99.9562589">
<ele>3.744</ele>
<time>2018-04-02T09:25:54.961Z</time>
</trkpt>
<trkpt lat="13.4267487" lon="99.9561448">
<ele>3.749</ele>
<time>2018-04-02T09:26:14.071Z</time>
</trkpt>
<trkpt lat="13.4267094" lon="99.9560559">
<ele>3.326</ele>
<time>2018-04-02T09:26:21.996Z</time>
</trkpt>
<trkpt lat="13.4267094" lon="99.9560559">
<ele>2.086</ele>
<time>2018-04-02T09:26:28.995Z</time>
</trkpt>
<trkpt lat="13.4267094" lon="99.9560559">
<ele>1.025</ele>
<time>2018-04-02T09:29:01.812Z</time>
</trkpt>
<trkpt lat="13.4268766" lon="99.9559427">
<ele>1.211</ele>
<time>2018-04-02T09:29:27.661Z</time>
</trkpt>
<trkpt lat="13.4269351" lon="99.9558715">
<ele>2.046</ele>
<time>2018-04-02T09:29:36.526Z</time>
</trkpt>
<trkpt lat="13.4269813" lon="99.9557922">
<ele>2.492</ele>
<time>2018-04-02T09:29:45.356Z</time>
</trkpt>
<trkpt lat="13.4270649" lon="99.9557549">
<ele>2.394</ele>
<time>2018-04-02T09:29:53.452Z</time>
</trkpt>
<trkpt lat="13.4271419" lon="99.9557044">
<ele>2.163</ele>
<time>2018-04-02T09:30:01.990Z</time>
</trkpt>
<trkpt lat="13.4271419" lon="99.9557044">
<ele>2.058</ele>
<time>2018-04-02T09:30:11.990Z</time>
</trkpt>
<trkpt lat="13.4271419" lon="99.9557044">
<ele>2.088</ele>
<time>2018-04-02T09:30:14.013Z</time>
</trkpt>
<trkpt lat="13.4271635" lon="99.9555998">
<ele>2.110</ele>
<time>2018-04-02T09:30:25.996Z</time>
</trkpt>
<trkpt lat="13.4271635" lon="99.9555998">
<ele>2.085</ele>
<time>2018-04-02T09:30:40.998Z</time>
</trkpt>
<trkpt lat="13.4271635" lon="99.9555998">
<ele>2.083</ele>
<time>2018-04-02T09:30:59.795Z</time>
</trkpt>
<trkpt lat="13.4271999" lon="99.9554386">
<ele>2.095</ele>
<time>2018-04-02T09:31:15.999Z</time>
</trkpt>
<trkpt lat="13.4271999" lon="99.9554386">
<ele>2.103</ele>
<time>2018-04-02T09:31:17.998Z</time>
</trkpt>
<trkpt lat="13.4271999" lon="99.9554386">
<ele>2.103</ele>
<time>2018-04-02T09:33:19.972Z</time>
</trkpt>
<trkpt lat="13.4271999" lon="99.9554386">
<ele>2.100</ele>
<time>2018-04-02T09:33:31.995Z</time>
</trkpt>
<trkpt lat="13.4271999" lon="99.9554386">
<ele>2.100</ele>
<time>2018-04-02T09:34:26.328Z</time>
</trkpt>
<trkpt lat="13.4270579" lon="99.9553279">
<ele>2.100</ele>
<time>2018-04-02T09:34:34.177Z</time>
</trkpt>
<trkpt lat="13.4269259" lon="99.9551513">
<ele>2.742</ele>
<time>2018-04-02T09:34:38.581Z</time>
</trkpt>
<trkpt lat="13.4268051" lon="99.9549209">
<ele>4.506</ele>
<time>2018-04-02T09:34:42.500Z</time>
</trkpt>
<trkpt lat="13.4267159" lon="99.9547268">
<ele>6.666</ele>
<time>2018-04-02T09:34:46.556Z</time>
</trkpt>
<trkpt lat="13.4266346" lon="99.9545812">
<ele>8.258</ele>
<time>2018-04-02T09:34:51.482Z</time>
</trkpt>
<trkpt lat="13.4265570" lon="99.9544882">
<ele>8.962</ele>
<time>2018-04-02T09:34:55.436Z</time>
</trkpt>
<trkpt lat="13.4265095" lon="99.9544074">
<ele>8.616</ele>
<time>2018-04-02T09:34:57.711Z</time>
</trkpt>
<trkpt lat="13.4264338" lon="99.9544743">
<ele>7.583</ele>
<time>2018-04-02T09:34:59.562Z</time>
</trkpt>
<trkpt lat="13.4263332" lon="99.9546014">
<ele>6.686</ele>
<time>2018-04-02T09:35:02.457Z</time>
</trkpt>
<trkpt lat="13.4261798" lon="99.9547924">
<ele>6.490</ele>
<time>2018-04-02T09:35:07.577Z</time>
</trkpt>
<trkpt lat="13.4261153" lon="99.9549165">
<ele>6.829</ele>
<time>2018-04-02T09:35:10.523Z</time>
</trkpt>
<trkpt lat="13.4260262" lon="99.9550155">
<ele>7.262</ele>
<time>2018-04-02T09:35:13.258Z</time>
</trkpt>
<trkpt lat="13.4260110" lon="99.9551776">
<ele>7.501</ele>
<time>2018-04-02T09:35:16.209Z</time>
</trkpt>
<trkpt lat="13.4259352" lon="99.9553001">
<ele>7.573</ele>
<time>2018-04-02T09:35:18.466Z</time>
</trkpt>
<trkpt lat="13.4259248" lon="99.9554310">
<ele>7.752</ele>
<time>2018-04-02T09:35:20.217Z</time>
</trkpt>
<trkpt lat="13.4258207" lon="99.9556378">
<ele>8.150</ele>
<time>2018-04-02T09:35:23.027Z</time>
</trkpt>
<trkpt lat="13.4256671" lon="99.9558485">
<ele>8.523</ele>
<time>2018-04-02T09:35:25.950Z</time>
</trkpt>
<trkpt lat="13.4255608" lon="99.9560900">
<ele>8.690</ele>
<time>2018-04-02T09:35:28.798Z</time>
</trkpt>
<trkpt lat="13.4254509" lon="99.9563418">
<ele>8.802</ele>
<time>2018-04-02T09:35:31.646Z</time>
</trkpt>
<trkpt lat="13.4254144" lon="99.9565844">
<ele>9.115</ele>
<time>2018-04-02T09:35:34.011Z</time>
</trkpt>
<trkpt lat="13.4253724" lon="99.9568991">
<ele>9.759</ele>
<time>2018-04-02T09:35:36.859Z</time>
</trkpt>
<trkpt lat="13.4253695" lon="99.9572202">
<ele>10.547</ele>
<time>2018-04-02T09:35:39.612Z</time>
</trkpt>
<trkpt lat="13.4253461" lon="99.9575591">
<ele>11.111</ele>
<time>2018-04-02T09:35:42.457Z</time>
</trkpt>
<trkpt lat="13.4253340" lon="99.9579083">
<ele>10.974</ele>
<time>2018-04-02T09:35:45.314Z</time>
</trkpt>
<trkpt lat="13.4253036" lon="99.9582579">
<ele>10.081</ele>
<time>2018-04-02T09:35:48.102Z</time>
</trkpt>
<trkpt lat="13.4252992" lon="99.9586117">
<ele>9.092</ele>
<time>2018-04-02T09:35:50.769Z</time>
</trkpt>
<trkpt lat="13.4252461" lon="99.9590219">
<ele>8.602</ele>
<time>2018-04-02T09:35:53.770Z</time>
</trkpt>
<trkpt lat="13.4252153" lon="99.9594053">
<ele>8.537</ele>
<time>2018-04-02T09:35:56.509Z</time>
</trkpt>
<trkpt lat="13.4251651" lon="99.9598179">
<ele>8.587</ele>
<time>2018-04-02T09:35:59.476Z</time>
</trkpt>
<trkpt lat="13.4251379" lon="99.9602041">
<ele>8.418</ele>
<time>2018-04-02T09:36:02.370Z</time>
</trkpt>
<trkpt lat="13.4250532" lon="99.9605478">
<ele>7.971</ele>
<time>2018-04-02T09:36:05.287Z</time>
</trkpt>
<trkpt lat="13.4249494" lon="99.9608128">
<ele>7.517</ele>
<time>2018-04-02T09:36:07.710Z</time>
</trkpt>
<trkpt lat="13.4246241" lon="99.9610743">
<ele>7.365</ele>
<time>2018-04-02T09:36:11.093Z</time>
</trkpt>
<trkpt lat="13.4243442" lon="99.9613165">
<ele>7.679</ele>
<time>2018-04-02T09:36:13.880Z</time>
</trkpt>
<trkpt lat="13.4240248" lon="99.9615444">
<ele>8.348</ele>
<time>2018-04-02T09:36:16.786Z</time>
</trkpt>
<trkpt lat="13.4237220" lon="99.9617331">
<ele>8.980</ele>
<time>2018-04-02T09:36:19.493Z</time>
</trkpt>
<trkpt lat="13.4234225" lon="99.9619783">
<ele>9.298</ele>
<time>2018-04-02T09:36:22.698Z</time>
</trkpt>
<trkpt lat="13.4232293" lon="99.9621455">
<ele>9.247</ele>
<time>2018-04-02T09:36:25.232Z</time>
</trkpt>
<trkpt lat="13.4230690" lon="99.9622891">
<ele>8.927</ele>
<time>2018-04-02T09:36:27.975Z</time>
</trkpt>
<trkpt lat="13.4230086" lon="99.9623981">
<ele>8.552</ele>
<time>2018-04-02T09:36:29.991Z</time>
</trkpt>
<trkpt lat="13.4230086" lon="99.9623981">
<ele>8.280</ele>
<time>2018-04-02T09:36:33.991Z</time>
</trkpt>
<trkpt lat="13.4230086" lon="99.9623981">
<ele>8.157</ele>
<time>2018-04-02T09:37:21.148Z</time>
</trkpt>
<trkpt lat="13.4229367" lon="99.9625254">
<ele>8.168</ele>
<time>2018-04-02T09:37:27.767Z</time>
</trkpt>
<trkpt lat="13.4227281" lon="99.9626247">
<ele>7.823</ele>
<time>2018-04-02T09:37:31.694Z</time>
</trkpt>
<trkpt lat="13.4224656" lon="99.9626935">
<ele>6.813</ele>
<time>2018-04-02T09:37:34.615Z</time>
</trkpt>
<trkpt lat="13.4221648" lon="99.9628047">
<ele>6.017</ele>
<time>2018-04-02T09:37:37.406Z</time>
</trkpt>
<trkpt lat="13.4219304" lon="99.9628980">
<ele>6.202</ele>
<time>2018-04-02T09:37:39.334Z</time>
</trkpt>
<trkpt lat="13.4216700" lon="99.9629719">
<ele>6.707</ele>
<time>2018-04-02T09:37:41.243Z</time>
</trkpt>
<trkpt lat="13.4213743" lon="99.9630919">
<ele>6.783</ele>
<time>2018-04-02T09:37:43.326Z</time>
</trkpt>
<trkpt lat="13.4210647" lon="99.9631931">
<ele>6.549</ele>
<time>2018-04-02T09:37:45.389Z</time>
</trkpt>
<trkpt lat="13.4207683" lon="99.9632768">
<ele>6.424</ele>
<time>2018-04-02T09:37:47.353Z</time>
</trkpt>
<trkpt lat="13.4204500" lon="99.9633504">
<ele>6.552</ele>
<time>2018-04-02T09:37:49.482Z</time>
</trkpt>
<trkpt lat="13.4201409" lon="99.9633901">
<ele>6.592</ele>
<time>2018-04-02T09:37:51.578Z</time>
</trkpt>
<trkpt lat="13.4198333" lon="99.9634090">
<ele>6.228</ele>
<time>2018-04-02T09:37:53.738Z</time>
</trkpt>
<trkpt lat="13.4195512" lon="99.9634498">
<ele>5.708</ele>
<time>2018-04-02T09:37:55.835Z</time>
</trkpt>
<trkpt lat="13.4192884" lon="99.9634788">
<ele>5.429</ele>
<time>2018-04-02T09:37:57.871Z</time>
</trkpt>
<trkpt lat="13.4190534" lon="99.9635167">
<ele>5.697</ele>
<time>2018-04-02T09:37:59.723Z</time>
</trkpt>
<trkpt lat="13.4187947" lon="99.9635339">
<ele>6.486</ele>
<time>2018-04-02T09:38:01.670Z</time>
</trkpt>
<trkpt lat="13.4185205" lon="99.9635290">
<ele>7.354</ele>
<time>2018-04-02T09:38:03.605Z</time>
</trkpt>
<trkpt lat="13.4182209" lon="99.9635589">
<ele>7.865</ele>
<time>2018-04-02T09:38:05.616Z</time>
</trkpt>
<trkpt lat="13.4179210" lon="99.9635923">
<ele>7.798</ele>
<time>2018-04-02T09:38:07.549Z</time>
</trkpt>
<trkpt lat="13.4176088" lon="99.9636252">
<ele>7.227</ele>
<time>2018-04-02T09:38:09.490Z</time>
</trkpt>
<trkpt lat="13.4172839" lon="99.9636642">
<ele>6.601</ele>
<time>2018-04-02T09:38:11.468Z</time>
</trkpt>
<trkpt lat="13.4169503" lon="99.9637052">
<ele>6.265</ele>
<time>2018-04-02T09:38:13.484Z</time>
</trkpt>
<trkpt lat="13.4166385" lon="99.9637804">
<ele>6.238</ele>
<time>2018-04-02T09:38:15.393Z</time>
</trkpt>
<trkpt lat="13.4161512" lon="99.9639488">
<ele>6.349</ele>
<time>2018-04-02T09:38:18.427Z</time>
</trkpt>
<trkpt lat="13.4157125" lon="99.9642131">
<ele>6.427</ele>
<time>2018-04-02T09:38:21.397Z</time>
</trkpt>
<trkpt lat="13.4153349" lon="99.9645642">
<ele>6.417</ele>
<time>2018-04-02T09:38:24.268Z</time>
</trkpt>
<trkpt lat="13.4149876" lon="99.9650211">
<ele>6.456</ele>
<time>2018-04-02T09:38:27.315Z</time>
</trkpt>
<trkpt lat="13.4147163" lon="99.9655074">
<ele>6.652</ele>
<time>2018-04-02T09:38:30.199Z</time>
</trkpt>
<trkpt lat="13.4144643" lon="99.9660296">
<ele>6.830</ele>
<time>2018-04-02T09:38:33.215Z</time>
</trkpt>
<trkpt lat="13.4142572" lon="99.9665326">
<ele>6.720</ele>
<time>2018-04-02T09:38:36.124Z</time>
</trkpt>
<trkpt lat="13.4141005" lon="99.9670341">
<ele>6.303</ele>
<time>2018-04-02T09:38:38.989Z</time>
</trkpt>
<trkpt lat="13.4139599" lon="99.9675744">
<ele>5.705</ele>
<time>2018-04-02T09:38:42.038Z</time>
</trkpt>
<trkpt lat="13.4140004" lon="99.9681142">
<ele>4.921</ele>
<time>2018-04-02T09:38:44.994Z</time>
</trkpt>
<trkpt lat="13.4141725" lon="99.9686121">
<ele>3.961</ele>
<time>2018-04-02T09:38:47.843Z</time>
</trkpt>
<trkpt lat="13.4144166" lon="99.9691113">
<ele>3.095</ele>
<time>2018-04-02T09:38:50.786Z</time>
</trkpt>
<trkpt lat="13.4147336" lon="99.9695896">
<ele>2.581</ele>
<time>2018-04-02T09:38:53.877Z</time>
</trkpt>
<trkpt lat="13.4150409" lon="99.9700138">
<ele>2.644</ele>
<time>2018-04-02T09:38:56.923Z</time>
</trkpt>
<trkpt lat="13.4153265" lon="99.9703987">
<ele>3.458</ele>
<time>2018-04-02T09:38:59.979Z</time>
</trkpt>
<trkpt lat="13.4156093" lon="99.9707160">
<ele>4.637</ele>
<time>2018-04-02T09:39:02.788Z</time>
</trkpt>
<trkpt lat="13.4158953" lon="99.9711046">
<ele>5.339</ele>
<time>2018-04-02T09:39:05.815Z</time>
</trkpt>
<trkpt lat="13.4162049" lon="99.9715192">
<ele>5.233</ele>
<time>2018-04-02T09:39:08.818Z</time>
</trkpt>
<trkpt lat="13.4165388" lon="99.9719423">
<ele>4.757</ele>
<time>2018-04-02T09:39:11.790Z</time>
</trkpt>
<trkpt lat="13.4168139" lon="99.9724397">
<ele>4.499</ele>
<time>2018-04-02T09:39:14.799Z</time>
</trkpt>
<trkpt lat="13.4171313" lon="99.9729193">
<ele>4.623</ele>
<time>2018-04-02T09:39:17.756Z</time>
</trkpt>
<trkpt lat="13.4174410" lon="99.9734225">
<ele>4.835</ele>
<time>2018-04-02T09:39:20.751Z</time>
</trkpt>
<trkpt lat="13.4177362" lon="99.9739281">
<ele>4.707</ele>
<time>2018-04-02T09:39:23.675Z</time>
</trkpt>
<trkpt lat="13.4180055" lon="99.9745086">
<ele>4.002</ele>
<time>2018-04-02T09:39:26.775Z</time>
</trkpt>
<trkpt lat="13.4183372" lon="99.9752813">
<ele>2.523</ele>
<time>2018-04-02T09:39:30.797Z</time>
</trkpt>
<trkpt lat="13.4185626" lon="99.9758699">
<ele>0.566</ele>
<time>2018-04-02T09:39:33.779Z</time>
</trkpt>
<trkpt lat="13.4187739" lon="99.9764978">
<ele>0.000</ele>
<time>2018-04-02T09:39:36.806Z</time>
</trkpt>
<trkpt lat="13.4189632" lon="99.9771370">
<ele>0.000</ele>
<time>2018-04-02T09:39:39.855Z</time>
</trkpt>
<trkpt lat="13.4191218" lon="99.9776974">
<ele>0.000</ele>
<time>2018-04-02T09:39:42.634Z</time>
</trkpt>
<trkpt lat="13.4192869" lon="99.9782709">
<ele>0.000</ele>
<time>2018-04-02T09:39:45.563Z</time>
</trkpt>
<trkpt lat="13.4195139" lon="99.9788533">
<ele>0.040</ele>
<time>2018-04-02T09:39:48.706Z</time>
</trkpt>
<trkpt lat="13.4196506" lon="99.9793655">
<ele>0.506</ele>
<time>2018-04-02T09:39:51.496Z</time>
</trkpt>
<trkpt lat="13.4197875" lon="99.9798817">
<ele>0.811</ele>
<time>2018-04-02T09:39:54.418Z</time>
</trkpt>
<trkpt lat="13.4200477" lon="99.9803648">
<ele>0.977</ele>
<time>2018-04-02T09:39:57.419Z</time>
</trkpt>
<trkpt lat="13.4203750" lon="99.9808574">
<ele>1.096</ele>
<time>2018-04-02T09:40:00.522Z</time>
</trkpt>
<trkpt lat="13.4206451" lon="99.9813927">
<ele>1.458</ele>
<time>2018-04-02T09:40:03.488Z</time>
</trkpt>
<trkpt lat="13.4209260" lon="99.9819860">
<ele>2.095</ele>
<time>2018-04-02T09:40:06.635Z</time>
</trkpt>
<trkpt lat="13.4211796" lon="99.9825526">
<ele>2.641</ele>
<time>2018-04-02T09:40:09.658Z</time>
</trkpt>
<trkpt lat="13.4214523" lon="99.9830919">
<ele>3.094</ele>
<time>2018-04-02T09:40:12.723Z</time>
</trkpt>
<trkpt lat="13.4216961" lon="99.9835950">
<ele>3.703</ele>
<time>2018-04-02T09:40:15.678Z</time>
</trkpt>
<trkpt lat="13.4219441" lon="99.9840760">
<ele>4.641</ele>
<time>2018-04-02T09:40:18.607Z</time>
</trkpt>
<trkpt lat="13.4221740" lon="99.9845733">
<ele>5.890</ele>
<time>2018-04-02T09:40:21.565Z</time>
</trkpt>
<trkpt lat="13.4224493" lon="99.9850794">
<ele>6.951</ele>
<time>2018-04-02T09:40:24.680Z</time>
</trkpt>
<trkpt lat="13.4226296" lon="99.9855907">
<ele>7.466</ele>
<time>2018-04-02T09:40:27.607Z</time>
</trkpt>
<trkpt lat="13.4227882" lon="99.9861368">
<ele>7.704</ele>
<time>2018-04-02T09:40:30.695Z</time>
</trkpt>
<trkpt lat="13.4227544" lon="99.9866460">
<ele>7.970</ele>
<time>2018-04-02T09:40:33.530Z</time>
</trkpt>
<trkpt lat="13.4225890" lon="99.9871645">
<ele>8.536</ele>
<time>2018-04-02T09:40:36.540Z</time>
</trkpt>
<trkpt lat="13.4222664" lon="99.9876842">
<ele>9.350</ele>
<time>2018-04-02T09:40:39.752Z</time>
</trkpt>
<trkpt lat="13.4219558" lon="99.9882086">
<ele>9.910</ele>
<time>2018-04-02T09:40:42.857Z</time>
</trkpt>
<trkpt lat="13.4216245" lon="99.9886762">
<ele>9.978</ele>
<time>2018-04-02T09:40:45.855Z</time>
</trkpt>
<trkpt lat="13.4209916" lon="99.9896064">
<ele>9.803</ele>
<time>2018-04-02T09:40:51.766Z</time>
</trkpt>
<trkpt lat="13.4206248" lon="99.9901250">
<ele>9.542</ele>
<time>2018-04-02T09:40:54.896Z</time>
</trkpt>
<trkpt lat="13.4202624" lon="99.9906387">
<ele>9.138</ele>
<time>2018-04-02T09:40:57.899Z</time>
</trkpt>
<trkpt lat="13.4199126" lon="99.9911397">
<ele>8.663</ele>
<time>2018-04-02T09:41:00.791Z</time>
</trkpt>
<trkpt lat="13.4195907" lon="99.9916863">
<ele>8.299</ele>
<time>2018-04-02T09:41:03.760Z</time>
</trkpt>
<trkpt lat="13.4192336" lon="99.9922320">
<ele>8.214</ele>
<time>2018-04-02T09:41:06.842Z</time>
</trkpt>
<trkpt lat="13.4189350" lon="99.9927291">
<ele>8.592</ele>
<time>2018-04-02T09:41:09.656Z</time>
</trkpt>
<trkpt lat="13.4185890" lon="99.9932693">
<ele>9.528</ele>
<time>2018-04-02T09:41:12.787Z</time>
</trkpt>
<trkpt lat="13.4182995" lon="99.9938154">
<ele>10.700</ele>
<time>2018-04-02T09:41:15.743Z</time>
</trkpt>
<trkpt lat="13.4179262" lon="99.9943416">
<ele>11.421</ele>
<time>2018-04-02T09:41:18.837Z</time>
</trkpt>
<trkpt lat="13.4175811" lon="99.9948255">
<ele>11.360</ele>
<time>2018-04-02T09:41:21.706Z</time>
</trkpt>
<trkpt lat="13.4172088" lon="99.9953221">
<ele>10.876</ele>
<time>2018-04-02T09:41:24.706Z</time>
</trkpt>
<trkpt lat="13.4168908" lon="99.9958322">
<ele>10.616</ele>
<time>2018-04-02T09:41:27.642Z</time>
</trkpt>
<trkpt lat="13.4165927" lon="99.9963304">
<ele>10.948</ele>
<time>2018-04-02T09:41:30.561Z</time>
</trkpt>
<trkpt lat="13.4162782" lon="99.9968118">
<ele>11.626</ele>
<time>2018-04-02T09:41:33.561Z</time>
</trkpt>
<trkpt lat="13.4159512" lon="99.9972682">
<ele>12.106</ele>
<time>2018-04-02T09:41:36.618Z</time>
</trkpt>
<trkpt lat="13.4156938" lon="99.9977053">
<ele>12.089</ele>
<time>2018-04-02T09:41:39.490Z</time>
</trkpt>
<trkpt lat="13.4153792" lon="99.9981002">
<ele>11.577</ele>
<time>2018-04-02T09:41:42.457Z</time>
</trkpt>
<trkpt lat="13.4150307" lon="99.9984562">
<ele>10.606</ele>
<time>2018-04-02T09:41:45.367Z</time>
</trkpt>
<trkpt lat="13.4145245" lon="99.9987556">
<ele>9.425</ele>
<time>2018-04-02T09:41:48.637Z</time>
</trkpt>
<trkpt lat="13.4139915" lon="99.9989426">
<ele>8.557</ele>
<time>2018-04-02T09:41:51.673Z</time>
</trkpt>
<trkpt lat="13.4134351" lon="99.9991246">
<ele>8.315</ele>
<time>2018-04-02T09:41:54.880Z</time>
</trkpt>
<trkpt lat="13.4130101" lon="99.9992982">
<ele>8.675</ele>
<time>2018-04-02T09:41:57.557Z</time>
</trkpt>
<trkpt lat="13.4126047" lon="99.9995851">
<ele>9.381</ele>
<time>2018-04-02T09:42:00.575Z</time>
</trkpt>
<trkpt lat="13.4122653" lon="99.9999124">
<ele>9.830</ele>
<time>2018-04-02T09:42:03.475Z</time>
</trkpt>
<trkpt lat="13.4120370" lon="100.0001061">
<ele>9.702</ele>
<time>2018-04-02T09:42:05.367Z</time>
</trkpt>
<trkpt lat="13.4117085" lon="100.0004397">
<ele>9.330</ele>
<time>2018-04-02T09:42:08.455Z</time>
</trkpt>
<trkpt lat="13.4114565" lon="100.0006741">
<ele>9.066</ele>
<time>2018-04-02T09:42:10.963Z</time>
</trkpt>
<trkpt lat="13.4111865" lon="100.0008962">
<ele>8.992</ele>
<time>2018-04-02T09:42:13.950Z</time>
</trkpt>
<trkpt lat="13.4109916" lon="100.0010208">
<ele>9.032</ele>
<time>2018-04-02T09:42:16.395Z</time>
</trkpt>
<trkpt lat="13.4108616" lon="100.0011415">
<ele>8.944</ele>
<time>2018-04-02T09:42:18.993Z</time>
</trkpt>
<trkpt lat="13.4108616" lon="100.0011415">
<ele>8.646</ele>
<time>2018-04-02T09:42:23.993Z</time>
</trkpt>
<trkpt lat="13.4108616" lon="100.0011415">
<ele>8.412</ele>
<time>2018-04-02T09:42:24.093Z</time>
</trkpt>
<trkpt lat="13.4107236" lon="100.0013233">
<ele>8.438</ele>
<time>2018-04-02T09:42:38.928Z</time>
</trkpt>
<trkpt lat="13.4106563" lon="100.0013850">
<ele>8.593</ele>
<time>2018-04-02T09:42:42.993Z</time>
</trkpt>
<trkpt lat="13.4106563" lon="100.0013850">
<ele>8.675</ele>
<time>2018-04-02T09:42:43.993Z</time>
</trkpt>
<trkpt lat="13.4106563" lon="100.0013850">
<ele>8.657</ele>
<time>2018-04-02T09:43:24.665Z</time>
</trkpt>
<trkpt lat="13.4105071" lon="100.0015351">
<ele>8.612</ele>
<time>2018-04-02T09:43:40.671Z</time>
</trkpt>
<trkpt lat="13.4104133" lon="100.0016009">
<ele>8.165</ele>
<time>2018-04-02T09:43:46.349Z</time>
</trkpt>
<trkpt lat="13.4103137" lon="100.0016034">
<ele>7.067</ele>
<time>2018-04-02T09:43:51.420Z</time>
</trkpt>
<trkpt lat="13.4103443" lon="100.0015111">
<ele>6.196</ele>
<time>2018-04-02T09:43:54.219Z</time>
</trkpt>
<trkpt lat="13.4104687" lon="100.0014117">
<ele>6.370</ele>
<time>2018-04-02T09:43:57.021Z</time>
</trkpt>
<trkpt lat="13.4107080" lon="100.0012186">
<ele>7.185</ele>
<time>2018-04-02T09:44:01.189Z</time>
</trkpt>
<trkpt lat="13.4108708" lon="100.0010564">
<ele>7.962</ele>
<time>2018-04-02T09:44:04.492Z</time>
</trkpt>
<trkpt lat="13.4108437" lon="100.0009093">
<ele>8.420</ele>
<time>2018-04-02T09:44:06.676Z</time>
</trkpt>
<trkpt lat="13.4108408" lon="100.0007217">
<ele>8.560</ele>
<time>2018-04-02T09:44:09.832Z</time>
</trkpt>
<trkpt lat="13.4108231" lon="100.0005329">
<ele>8.476</ele>
<time>2018-04-02T09:44:14.068Z</time>
</trkpt>
<trkpt lat="13.4107849" lon="100.0004429">
<ele>8.270</ele>
<time>2018-04-02T09:44:15.833Z</time>
</trkpt>
<trkpt lat="13.4107964" lon="100.0002793">
<ele>8.080</ele>
<time>2018-04-02T09:44:18.359Z</time>
</trkpt>
<trkpt lat="13.4107132" lon="100.0000635">
<ele>7.848</ele>
<time>2018-04-02T09:44:21.581Z</time>
</trkpt>
<trkpt lat="13.4106883" lon="99.9998488">
<ele>7.407</ele>
<time>2018-04-02T09:44:25.197Z</time>
</trkpt>
<trkpt lat="13.4106530" lon="99.9996794">
<ele>6.613</ele>
<time>2018-04-02T09:44:29.797Z</time>
</trkpt>
<trkpt lat="13.4106533" lon="99.9995571">
<ele>5.514</ele>
<time>2018-04-02T09:44:32.877Z</time>
</trkpt>
<trkpt lat="13.4106837" lon="99.9994511">
<ele>4.499</ele>
<time>2018-04-02T09:44:35.294Z</time>
</trkpt>
<trkpt lat="13.4106559" lon="99.9993132">
<ele>3.957</ele>
<time>2018-04-02T09:44:38.908Z</time>
</trkpt>
<trkpt lat="13.4105782" lon="99.9991910">
<ele>3.959</ele>
<time>2018-04-02T09:44:43.337Z</time>
</trkpt>
<trkpt lat="13.4104880" lon="99.9991558">
<ele>4.375</ele>
<time>2018-04-02T09:44:46.545Z</time>
</trkpt>
<trkpt lat="13.4103829" lon="99.9991600">
<ele>4.977</ele>
<time>2018-04-02T09:44:49.896Z</time>
</trkpt>
<trkpt lat="13.4102880" lon="99.9991407">
<ele>5.539</ele>
<time>2018-04-02T09:44:52.336Z</time>
</trkpt>
<trkpt lat="13.4101369" lon="99.9991145">
<ele>5.829</ele>
<time>2018-04-02T09:44:55.921Z</time>
</trkpt>
<trkpt lat="13.4100149" lon="99.9991837">
<ele>5.725</ele>
<time>2018-04-02T09:44:59.119Z</time>
</trkpt>
<trkpt lat="13.4098806" lon="99.9991162">
<ele>5.303</ele>
<time>2018-04-02T09:45:03.745Z</time>
</trkpt>
<trkpt lat="13.4097857" lon="99.9990829">
<ele>4.780</ele>
<time>2018-04-02T09:45:07.759Z</time>
</trkpt>
<trkpt lat="13.4096990" lon="99.9990476">
<ele>4.423</ele>
<time>2018-04-02T09:45:12.759Z</time>
</trkpt>
<trkpt lat="13.4095927" lon="99.9990439">
<ele>4.376</ele>
<time>2018-04-02T09:45:17.117Z</time>
</trkpt>
<trkpt lat="13.4095256" lon="99.9989614">
<ele>4.573</ele>
<time>2018-04-02T09:45:20.825Z</time>
</trkpt>
<trkpt lat="13.4094207" lon="99.9989384">
<ele>4.827</ele>
<time>2018-04-02T09:45:25.264Z</time>
</trkpt>
<trkpt lat="13.4093153" lon="99.9989252">
<ele>4.986</ele>
<time>2018-04-02T09:45:30.744Z</time>
</trkpt>
<trkpt lat="13.4092090" lon="99.9989122">
<ele>5.065</ele>
<time>2018-04-02T09:45:37.151Z</time>
</trkpt>
<trkpt lat="13.4091127" lon="99.9989221">
<ele>5.126</ele>
<time>2018-04-02T09:45:43.068Z</time>
</trkpt>
<trkpt lat="13.4090260" lon="99.9989591">
<ele>5.230</ele>
<time>2018-04-02T09:45:48.763Z</time>
</trkpt>
<trkpt lat="13.4089329" lon="99.9989725">
<ele>5.296</ele>
<time>2018-04-02T09:45:54.619Z</time>
</trkpt>
<trkpt lat="13.4088406" lon="99.9989991">
<ele>5.035</ele>
<time>2018-04-02T09:46:01.478Z</time>
</trkpt>
<trkpt lat="13.4084873" lon="99.9993273">
<ele>4.086</ele>
<time>2018-04-02T09:46:35.022Z</time>
</trkpt>
<trkpt lat="13.4084954" lon="99.9994202">
<ele>4.302</ele>
<time>2018-04-02T09:46:40.037Z</time>
</trkpt>
<trkpt lat="13.4085117" lon="99.9995171">
<ele>4.738</ele>
<time>2018-04-02T09:46:45.084Z</time>
</trkpt>
<trkpt lat="13.4084870" lon="99.9996266">
<ele>5.028</ele>
<time>2018-04-02T09:46:51.092Z</time>
</trkpt>
<trkpt lat="13.4084860" lon="99.9997295">
<ele>5.260</ele>
<time>2018-04-02T09:46:56.453Z</time>
</trkpt>
<trkpt lat="13.4085078" lon="99.9998201">
<ele>5.578</ele>
<time>2018-04-02T09:47:00.094Z</time>
</trkpt>
<trkpt lat="13.4085138" lon="99.9999253">
<ele>5.903</ele>
<time>2018-04-02T09:47:03.230Z</time>
</trkpt>
<trkpt lat="13.4085044" lon="100.0000493">
<ele>6.157</ele>
<time>2018-04-02T09:47:06.118Z</time>
</trkpt>
<trkpt lat="13.4083769" lon="100.0002791">
<ele>6.530</ele>
<time>2018-04-02T09:47:12.370Z</time>
</trkpt>
<trkpt lat="13.4083620" lon="100.0003817">
<ele>7.093</ele>
<time>2018-04-02T09:47:15.115Z</time>
</trkpt>
<trkpt lat="13.4083055" lon="100.0004767">
<ele>7.437</ele>
<time>2018-04-02T09:47:18.613Z</time>
</trkpt>
<trkpt lat="13.4082192" lon="100.0005409">
<ele>7.221</ele>
<time>2018-04-02T09:47:22.466Z</time>
</trkpt>
<trkpt lat="13.4081261" lon="100.0005810">
<ele>6.336</ele>
<time>2018-04-02T09:47:26.997Z</time>
</trkpt>
<trkpt lat="13.4081261" lon="100.0005810">
<ele>4.989</ele>
<time>2018-04-02T09:47:33.996Z</time>
</trkpt>
<trkpt lat="13.4081261" lon="100.0005810">
<ele>4.056</ele>
<time>2018-04-02T09:47:43.235Z</time>
</trkpt>
<trkpt lat="13.4078788" lon="100.0005418">
<ele>4.092</ele>
<time>2018-04-02T09:47:56.881Z</time>
</trkpt>
<trkpt lat="13.4078594" lon="100.0003638">
<ele>4.373</ele>
<time>2018-04-02T09:48:01.127Z</time>
</trkpt>
<trkpt lat="13.4078803" lon="100.0001362">
<ele>4.090</ele>
<time>2018-04-02T09:48:07.062Z</time>
</trkpt>
<trkpt lat="13.4078267" lon="99.9996255">
<ele>2.800</ele>
<time>2018-04-02T09:48:24.191Z</time>
</trkpt>
<trkpt lat="13.4077152" lon="99.9991254">
<ele>2.372</ele>
<time>2018-04-02T09:48:49.006Z</time>
</trkpt>
<trkpt lat="13.4073421" lon="99.9988566">
<ele>2.054</ele>
<time>2018-04-02T09:49:12.994Z</time>
</trkpt>
<trkpt lat="13.4073421" lon="99.9988566">
<ele>1.901</ele>
<time>2018-04-02T09:49:24.994Z</time>
</trkpt>
<trkpt lat="13.4073421" lon="99.9988566">
<ele>1.917</ele>
<time>2018-04-02T09:49:34.520Z</time>
</trkpt>
<trkpt lat="13.4074532" lon="99.9988590">
<ele>1.970</ele>
<time>2018-04-02T09:50:09.554Z</time>
</trkpt>
<trkpt lat="13.4074702" lon="99.9989527">
<ele>2.363</ele>
<time>2018-04-02T09:50:34.549Z</time>
</trkpt>
<trkpt lat="13.4074660" lon="99.9990485">
<ele>3.457</ele>
<time>2018-04-02T09:50:59.265Z</time>
</trkpt>
<trkpt lat="13.4074720" lon="99.9991443">
<ele>4.623</ele>
<time>2018-04-02T09:51:23.685Z</time>
</trkpt>
<trkpt lat="13.4074877" lon="99.9992412">
<ele>5.296</ele>
<time>2018-04-02T09:51:50.991Z</time>
</trkpt>
<trkpt lat="13.4074877" lon="99.9992412">
<ele>5.611</ele>
<time>2018-04-02T09:51:53.991Z</time>
</trkpt>
<trkpt lat="13.4074877" lon="99.9992412">
<ele>5.712</ele>
<time>2018-04-02T09:53:07.763Z</time>
</trkpt>
<trkpt lat="13.4075318" lon="99.9994102">
<ele>5.689</ele>
<time>2018-04-02T09:53:51.998Z</time>
</trkpt>
<trkpt lat="13.4075318" lon="99.9994102">
<ele>5.648</ele>
<time>2018-04-02T09:53:52.997Z</time>
</trkpt>
<trkpt lat="13.4075318" lon="99.9994102">
<ele>5.644</ele>
<time>2018-04-02T09:53:53.097Z</time>
</trkpt>
<trkpt lat="13.4074761" lon="99.9994894">
<ele>5.659</ele>
<time>2018-04-02T09:54:07.997Z</time>
</trkpt>
<trkpt lat="13.4074761" lon="99.9994894">
<ele>5.651</ele>
<time>2018-04-02T09:54:14.997Z</time>
</trkpt>
<trkpt lat="13.4074761" lon="99.9994894">
<ele>5.648</ele>
<time>2018-04-02T09:54:23.112Z</time>
</trkpt>
<trkpt lat="13.4074761" lon="99.9994894">
<ele>5.648</ele>
<time>2018-04-02T09:54:33.997Z</time>
</trkpt>
<trkpt lat="13.4074761" lon="99.9994894">
<ele>5.646</ele>
<time>2018-04-02T09:54:34.097Z</time>
</trkpt>
<trkpt lat="13.4075143" lon="99.9997018">
<ele>5.644</ele>
<time>2018-04-02T09:55:42.812Z</time>
</trkpt>
<trkpt lat="13.4075475" lon="99.9997944">
<ele>6.055</ele>
<time>2018-04-02T09:56:06.271Z</time>
</trkpt>
<trkpt lat="13.4075242" lon="99.9998914">
<ele>7.266</ele>
<time>2018-04-02T09:56:30.805Z</time>
</trkpt>
<trkpt lat="13.4075085" lon="99.9999860">
<ele>8.786</ele>
<time>2018-04-02T09:56:54.525Z</time>
</trkpt>
<trkpt lat="13.4075169" lon="99.9998915">
<ele>9.880</ele>
<time>2018-04-02T09:57:17.993Z</time>
</trkpt>
<trkpt lat="13.4075169" lon="99.9998915">
<ele>10.370</ele>
<time>2018-04-02T09:57:28.993Z</time>
</trkpt>
<trkpt lat="13.4075169" lon="99.9998915">
<ele>10.430</ele>
<time>2018-04-02T09:57:29.093Z</time>
</trkpt>
<trkpt lat="13.4075296" lon="99.9996373">
<ele>10.354</ele>
<time>2018-04-02T09:58:11.992Z</time>
</trkpt>
<trkpt lat="13.4075296" lon="99.9996373">
<ele>10.309</ele>
<time>2018-04-02T09:58:15.992Z</time>
</trkpt>
<trkpt lat="13.4075296" lon="99.9996373">
<ele>10.297</ele>
<time>2018-04-02T09:58:22.342Z</time>
</trkpt>
<trkpt lat="13.4075517" lon="99.9995454">
<ele>10.299</ele>
<time>2018-04-02T09:58:35.991Z</time>
</trkpt>
<trkpt lat="13.4075517" lon="99.9995454">
<ele>10.297</ele>
<time>2018-04-02T09:58:36.991Z</time>
</trkpt>
<trkpt lat="13.4075517" lon="99.9995454">
<ele>10.292</ele>
<time>2018-04-02T09:58:40.473Z</time>
</trkpt>
<trkpt lat="13.4074755" lon="99.9994951">
<ele>10.285</ele>
<time>2018-04-02T09:59:11.621Z</time>
</trkpt>
<trkpt lat="13.4074653" lon="99.9994015">
<ele>9.913</ele>
<time>2018-04-02T09:59:25.772Z</time>
</trkpt>
<trkpt lat="13.4074767" lon="99.9993025">
<ele>8.930</ele>
<time>2018-04-02T09:59:35.768Z</time>
</trkpt>
<trkpt lat="13.4074889" lon="99.9992054">
<ele>7.892</ele>
<time>2018-04-02T09:59:44.510Z</time>
</trkpt>
<trkpt lat="13.4075037" lon="99.9991064">
<ele>7.328</ele>
<time>2018-04-02T09:59:53.270Z</time>
</trkpt>
<trkpt lat="13.4074776" lon="99.9990040">
<ele>7.110</ele>
<time>2018-04-02T10:00:01.453Z</time>
</trkpt>
<trkpt lat="13.4074857" lon="99.9989099">
<ele>7.057</ele>
<time>2018-04-02T10:00:08.695Z</time>
</trkpt>
<trkpt lat="13.4073968" lon="99.9988703">
<ele>7.109</ele>
<time>2018-04-02T10:00:16.858Z</time>
</trkpt>
<trkpt lat="13.4073055" lon="99.9988627">
<ele>7.250</ele>
<time>2018-04-02T10:00:25.998Z</time>
</trkpt>
<trkpt lat="13.4073055" lon="99.9988627">
<ele>7.431</ele>
<time>2018-04-02T10:00:27.998Z</time>
</trkpt>
<trkpt lat="13.4073055" lon="99.9988627">
<ele>7.540</ele>
<time>2018-04-02T10:00:29.902Z</time>
</trkpt>
<trkpt lat="13.4072187" lon="99.9988385">
<ele>7.470</ele>
<time>2018-04-02T10:00:44.122Z</time>
</trkpt>
<trkpt lat="13.4071202" lon="99.9988181">
<ele>7.579</ele>
<time>2018-04-02T10:00:54.504Z</time>
</trkpt>
<trkpt lat="13.4070297" lon="99.9988003">
<ele>7.968</ele>
<time>2018-04-02T10:01:04.760Z</time>
</trkpt>
<trkpt lat="13.4069383" lon="99.9987637">
<ele>8.400</ele>
<time>2018-04-02T10:01:17.997Z</time>
</trkpt>
<trkpt lat="13.4069383" lon="99.9987637">
<ele>8.596</ele>
<time>2018-04-02T10:01:27.997Z</time>
</trkpt>
<trkpt lat="13.4069383" lon="99.9987637">
<ele>8.570</ele>
<time>2018-04-02T10:13:20.320Z</time>
</trkpt>
<trkpt lat="13.4068190" lon="99.9987403">
<ele>8.466</ele>
<time>2018-04-02T10:13:34.997Z</time>
</trkpt>
<trkpt lat="13.4068190" lon="99.9987403">
<ele>8.405</ele>
<time>2018-04-02T10:13:42.998Z</time>
</trkpt>
<trkpt lat="13.4068190" lon="99.9987403">
<ele>8.398</ele>
<time>2018-04-02T10:14:24.707Z</time>
</trkpt>
<trkpt lat="13.4065712" lon="99.9986793">
<ele>8.403</ele>
<time>2018-04-02T10:14:39.812Z</time>
</trkpt>
<trkpt lat="13.4064561" lon="99.9986105">
<ele>8.349</ele>
<time>2018-04-02T10:14:43.154Z</time>
</trkpt>
<trkpt lat="13.4063531" lon="99.9985586">
<ele>8.149</ele>
<time>2018-04-02T10:14:45.849Z</time>
</trkpt>
<trkpt lat="13.4061614" lon="99.9985425">
<ele>7.776</ele>
<time>2018-04-02T10:14:51.073Z</time>
</trkpt>
<trkpt lat="13.4060567" lon="99.9985397">
<ele>7.358</ele>
<time>2018-04-02T10:14:53.820Z</time>
</trkpt>
<trkpt lat="13.4059426" lon="99.9986019">
<ele>7.179</ele>
<time>2018-04-02T10:14:56.395Z</time>
</trkpt>
<trkpt lat="13.4058904" lon="99.9987955">
<ele>7.390</ele>
<time>2018-04-02T10:14:59.558Z</time>
</trkpt>
<trkpt lat="13.4058743" lon="99.9989811">
<ele>7.776</ele>
<time>2018-04-02T10:15:02.318Z</time>
</trkpt>
<trkpt lat="13.4058147" lon="99.9991724">
<ele>8.049</ele>
<time>2018-04-02T10:15:05.335Z</time>
</trkpt>
<trkpt lat="13.4057943" lon="99.9993531">
<ele>8.287</ele>
<time>2018-04-02T10:15:08.218Z</time>
</trkpt>
<trkpt lat="13.4057415" lon="99.9995490">
<ele>8.775</ele>
<time>2018-04-02T10:15:11.822Z</time>
</trkpt>
<trkpt lat="13.4057265" lon="99.9997095">
<ele>9.490</ele>
<time>2018-04-02T10:15:15.453Z</time>
</trkpt>
<trkpt lat="13.4057084" lon="99.9998415">
<ele>10.104</ele>
<time>2018-04-02T10:15:19.248Z</time>
</trkpt>
<trkpt lat="13.4057588" lon="99.9999380">
<ele>10.413</ele>
<time>2018-04-02T10:15:22.496Z</time>
</trkpt>
<trkpt lat="13.4058049" lon="100.0000264">
<ele>10.564</ele>
<time>2018-04-02T10:15:25.058Z</time>
</trkpt>
<trkpt lat="13.4058710" lon="100.0001162">
<ele>10.774</ele>
<time>2018-04-02T10:15:27.839Z</time>
</trkpt>
<trkpt lat="13.4059639" lon="100.0002069">
<ele>11.099</ele>
<time>2018-04-02T10:15:31.265Z</time>
</trkpt>
<trkpt lat="13.4060671" lon="100.0002367">
<ele>11.467</ele>
<time>2018-04-02T10:15:34.805Z</time>
</trkpt>
<trkpt lat="13.4061466" lon="100.0003086">
<ele>11.759</ele>
<time>2018-04-02T10:15:39.791Z</time>
</trkpt>
<trkpt lat="13.4062160" lon="100.0003835">
<ele>11.881</ele>
<time>2018-04-02T10:15:46.551Z</time>
</trkpt>
<trkpt lat="13.4063004" lon="100.0004293">
<ele>11.891</ele>
<time>2018-04-02T10:15:52.018Z</time>
</trkpt>
<trkpt lat="13.4064041" lon="100.0004489">
<ele>11.864</ele>
<time>2018-04-02T10:15:56.727Z</time>
</trkpt>
<trkpt lat="13.4063873" lon="100.0005726">
<ele>11.645</ele>
<time>2018-04-02T10:15:59.878Z</time>
</trkpt>
<trkpt lat="13.4062755" lon="100.0006678">
<ele>11.086</ele>
<time>2018-04-02T10:16:02.530Z</time>
</trkpt>
<trkpt lat="13.4060543" lon="100.0008134">
<ele>10.179</ele>
<time>2018-04-02T10:16:05.862Z</time>
</trkpt>
<trkpt lat="13.4057800" lon="100.0009889">
<ele>9.089</ele>
<time>2018-04-02T10:16:09.141Z</time>
</trkpt>
<trkpt lat="13.4056254" lon="100.0011381">
<ele>8.408</ele>
<time>2018-04-02T10:16:11.177Z</time>
</trkpt>
<trkpt lat="13.4053822" lon="100.0013119">
<ele>8.516</ele>
<time>2018-04-02T10:16:13.939Z</time>
</trkpt>
<trkpt lat="13.4050095" lon="100.0015457">
<ele>9.026</ele>
<time>2018-04-02T10:16:17.533Z</time>
</trkpt>
<trkpt lat="13.4046659" lon="100.0017997">
<ele>9.491</ele>
<time>2018-04-02T10:16:20.772Z</time>
</trkpt>
<trkpt lat="13.4044235" lon="100.0020645">
<ele>9.973</ele>
<time>2018-04-02T10:16:23.439Z</time>
</trkpt>
<trkpt lat="13.4041613" lon="100.0023289">
<ele>10.604</ele>
<time>2018-04-02T10:16:26.204Z</time>
</trkpt>
<trkpt lat="13.4038791" lon="100.0025924">
<ele>11.085</ele>
<time>2018-04-02T10:16:28.969Z</time>
</trkpt>
<trkpt lat="13.4035620" lon="100.0029096">
<ele>11.084</ele>
<time>2018-04-02T10:16:32.099Z</time>
</trkpt>
<trkpt lat="13.4032775" lon="100.0031831">
<ele>10.764</ele>
<time>2018-04-02T10:16:34.827Z</time>
</trkpt>
<trkpt lat="13.4029376" lon="100.0035051">
<ele>10.543</ele>
<time>2018-04-02T10:16:38.380Z</time>
</trkpt>
<trkpt lat="13.4024845" lon="100.0039998">
<ele>10.625</ele>
<time>2018-04-02T10:16:44.132Z</time>
</trkpt>
<trkpt lat="13.4022739" lon="100.0041948">
<ele>10.974</ele>
<time>2018-04-02T10:16:47.674Z</time>
</trkpt>
<trkpt lat="13.4022005" lon="100.0043446">
<ele>11.489</ele>
<time>2018-04-02T10:16:50.617Z</time>
</trkpt>
<trkpt lat="13.4018404" lon="100.0047934">
<ele>12.169</ele>
<time>2018-04-02T10:17:02.258Z</time>
</trkpt>
<trkpt lat="13.4015149" lon="100.0051669">
<ele>12.711</ele>
<time>2018-04-02T10:17:17.937Z</time>
</trkpt>
<trkpt lat="13.4014422" lon="100.0052375">
<ele>14.000</ele>
<time>2018-04-02T10:17:22.999Z</time>
</trkpt>
<trkpt lat="13.4013695" lon="100.0052937">
<ele>15.324</ele>
<time>2018-04-02T10:17:28.238Z</time>
</trkpt>
<trkpt lat="13.4012824" lon="100.0053906">
<ele>15.981</ele>
<time>2018-04-02T10:17:33.551Z</time>
</trkpt>
<trkpt lat="13.4012053" lon="100.0054796">
<ele>16.160</ele>
<time>2018-04-02T10:17:36.939Z</time>
</trkpt>
<trkpt lat="13.4011178" lon="100.0055833">
<ele>16.145</ele>
<time>2018-04-02T10:17:40.764Z</time>
</trkpt>
<trkpt lat="13.4010293" lon="100.0056487">
<ele>16.083</ele>
<time>2018-04-02T10:17:44.158Z</time>
</trkpt>
<trkpt lat="13.4009531" lon="100.0057222">
<ele>15.947</ele>
<time>2018-04-02T10:17:47.932Z</time>
</trkpt>
<trkpt lat="13.4008912" lon="100.0058050">
<ele>15.799</ele>
<time>2018-04-02T10:17:51.915Z</time>
</trkpt>
<trkpt lat="13.4008013" lon="100.0058599">
<ele>15.839</ele>
<time>2018-04-02T10:17:56.995Z</time>
</trkpt>
<trkpt lat="13.4008013" lon="100.0058599">
<ele>16.028</ele>
<time>2018-04-02T10:18:08.995Z</time>
</trkpt>
<trkpt lat="13.4008013" lon="100.0058599">
<ele>16.136</ele>
<time>2018-04-02T10:20:54.286Z</time>
</trkpt>
<trkpt lat="13.4009774" lon="100.0058217">
<ele>16.096</ele>
<time>2018-04-02T10:21:14.999Z</time>
</trkpt>
<trkpt lat="13.4009774" lon="100.0058217">
<ele>15.990</ele>
<time>2018-04-02T10:21:19.999Z</time>
</trkpt>
<trkpt lat="13.4009774" lon="100.0058217">
<ele>15.939</ele>
<time>2018-04-02T10:25:45.128Z</time>
</trkpt>
<trkpt lat="13.4007726" lon="100.0059225">
<ele>15.947</ele>
<time>2018-04-02T10:26:08.993Z</time>
</trkpt>
<trkpt lat="13.4007726" lon="100.0059225">
<ele>15.956</ele>
<time>2018-04-02T10:26:16.993Z</time>
</trkpt>
<trkpt lat="13.4007726" lon="100.0059225">
<ele>15.950</ele>
<time>2018-04-02T10:31:55.625Z</time>
</trkpt>
<trkpt lat="13.4006533" lon="100.0059920">
<ele>15.937</ele>
<time>2018-04-02T10:32:06.533Z</time>
</trkpt>
<trkpt lat="13.4005802" lon="100.0060583">
<ele>14.393</ele>
<time>2018-04-02T10:32:12.141Z</time>
</trkpt>
<trkpt lat="13.4004944" lon="100.0061390">
<ele>10.390</ele>
<time>2018-04-02T10:32:18.948Z</time>
</trkpt>
<trkpt lat="13.4004477" lon="100.0062454">
<ele>6.422</ele>
<time>2018-04-02T10:32:26.382Z</time>
</trkpt>
<trkpt lat="13.4004039" lon="100.0063297">
<ele>4.927</ele>
<time>2018-04-02T10:32:31.746Z</time>
</trkpt>
<trkpt lat="13.4003732" lon="100.0064242">
<ele>5.443</ele>
<time>2018-04-02T10:32:36.564Z</time>
</trkpt>
<trkpt lat="13.4003404" lon="100.0065354">
<ele>6.731</ele>
<time>2018-04-02T10:32:42.555Z</time>
</trkpt>
<trkpt lat="13.4002991" lon="100.0066437">
<ele>8.206</ele>
<time>2018-04-02T10:32:48.821Z</time>
</trkpt>
<trkpt lat="13.4002769" lon="100.0067457">
<ele>9.856</ele>
<time>2018-04-02T10:32:54.686Z</time>
</trkpt>
<trkpt lat="13.4002843" lon="100.0068498">
<ele>11.318</ele>
<time>2018-04-02T10:33:00.248Z</time>
</trkpt>
<trkpt lat="13.4002980" lon="100.0069537">
<ele>12.115</ele>
<time>2018-04-02T10:33:06.918Z</time>
</trkpt>
<trkpt lat="13.4003149" lon="100.0070665">
<ele>12.317</ele>
<time>2018-04-02T10:33:10.603Z</time>
</trkpt>
<trkpt lat="13.4003576" lon="100.0071524">
<ele>12.114</ele>
<time>2018-04-02T10:33:13.175Z</time>
</trkpt>
<trkpt lat="13.4004193" lon="100.0072323">
<ele>11.491</ele>
<time>2018-04-02T10:33:15.897Z</time>
</trkpt>
<trkpt lat="13.4023869" lon="100.0102563">
<ele>10.367</ele>
<time>2018-04-02T10:34:30.435Z</time>
</trkpt>
<trkpt lat="13.4025895" lon="100.0105329">
<ele>8.801</ele>
<time>2018-04-02T10:34:33.733Z</time>
</trkpt>
<trkpt lat="13.4027535" lon="100.0107692">
<ele>7.143</ele>
<time>2018-04-02T10:34:36.159Z</time>
</trkpt>
<trkpt lat="13.4029096" lon="100.0110146">
<ele>5.611</ele>
<time>2018-04-02T10:34:38.463Z</time>
</trkpt>
<trkpt lat="13.4030948" lon="100.0112208">
<ele>4.246</ele>
<time>2018-04-02T10:34:40.584Z</time>
</trkpt>
<trkpt lat="13.4032136" lon="100.0114070">
<ele>3.170</ele>
<time>2018-04-02T10:34:42.212Z</time>
</trkpt>
<trkpt lat="13.4034263" lon="100.0116734">
<ele>2.357</ele>
<time>2018-04-02T10:34:44.726Z</time>
</trkpt>
<trkpt lat="13.4036233" lon="100.0119742">
<ele>1.660</ele>
<time>2018-04-02T10:34:47.463Z</time>
</trkpt>
<trkpt lat="13.4038953" lon="100.0123193">
<ele>1.598</ele>
<time>2018-04-02T10:34:51.112Z</time>
</trkpt>
<trkpt lat="13.4041910" lon="100.0126927">
<ele>2.427</ele>
<time>2018-04-02T10:34:55.465Z</time>
</trkpt>
<trkpt lat="13.4044564" lon="100.0130842">
<ele>3.334</ele>
<time>2018-04-02T10:34:59.970Z</time>
</trkpt>
<trkpt lat="13.4047428" lon="100.0135208">
<ele>3.575</ele>
<time>2018-04-02T10:35:04.969Z</time>
</trkpt>
<trkpt lat="13.4049948" lon="100.0139103">
<ele>3.243</ele>
<time>2018-04-02T10:35:09.948Z</time>
</trkpt>
<trkpt lat="13.4052504" lon="100.0142774">
<ele>2.747</ele>
<time>2018-04-02T10:35:15.035Z</time>
</trkpt>
<trkpt lat="13.4054898" lon="100.0145884">
<ele>2.461</ele>
<time>2018-04-02T10:35:19.497Z</time>
</trkpt>
<trkpt lat="13.4057314" lon="100.0149292">
<ele>2.448</ele>
<time>2018-04-02T10:35:24.241Z</time>
</trkpt>
<trkpt lat="13.4059505" lon="100.0152626">
<ele>2.609</ele>
<time>2018-04-02T10:35:28.635Z</time>
</trkpt>
<trkpt lat="13.4061938" lon="100.0155839">
<ele>2.889</ele>
<time>2018-04-02T10:35:32.419Z</time>
</trkpt>
<trkpt lat="13.4063925" lon="100.0159252">
<ele>3.237</ele>
<time>2018-04-02T10:35:36.069Z</time>
</trkpt>
<trkpt lat="13.4066061" lon="100.0162150">
<ele>3.677</ele>
<time>2018-04-02T10:35:39.404Z</time>
</trkpt>
<trkpt lat="13.4068390" lon="100.0165140">
<ele>4.287</ele>
<time>2018-04-02T10:35:44.681Z</time>
</trkpt>
<trkpt lat="13.4078403" lon="100.0180564">
<ele>4.998</ele>
<time>2018-04-02T10:36:17.317Z</time>
</trkpt>
<trkpt lat="13.4081727" lon="100.0185888">
<ele>5.611</ele>
<time>2018-04-02T10:36:28.451Z</time>
</trkpt>
<trkpt lat="13.4088445" lon="100.0195647">
<ele>5.979</ele>
<time>2018-04-02T10:36:49.493Z</time>
</trkpt>
<trkpt lat="13.4102198" lon="100.0207530">
<ele>6.120</ele>
<time>2018-04-02T10:37:21.998Z</time>
</trkpt>
<trkpt lat="13.4102198" lon="100.0207530">
<ele>6.130</ele>
<time>2018-04-02T10:37:23.998Z</time>
</trkpt>
<trkpt lat="13.4201541" lon="100.0328167">
<ele>3.874</ele>
<time>2018-04-02T11:00:25.519Z</time>
</trkpt>
<trkpt lat="13.4205648" lon="100.0331923">
<ele>3.872</ele>
<time>2018-04-02T11:01:14.902Z</time>
</trkpt>
<trkpt lat="13.4209487" lon="100.0335563">
<ele>4.229</ele>
<time>2018-04-02T11:02:01.824Z</time>
</trkpt>
<trkpt lat="13.4213263" lon="100.0339647">
<ele>5.159</ele>
<time>2018-04-02T11:02:51.070Z</time>
</trkpt>
<trkpt lat="13.4217053" lon="100.0344337">
<ele>5.791</ele>
<time>2018-04-02T11:03:44.360Z</time>
</trkpt>
<trkpt lat="13.4221098" lon="100.0348659">
<ele>5.404</ele>
<time>2018-04-02T11:04:36.771Z</time>
</trkpt>
<trkpt lat="13.4225434" lon="100.0352906">
<ele>4.803</ele>
<time>2018-04-02T11:05:30.578Z</time>
</trkpt>
<trkpt lat="13.4229586" lon="100.0357106">
<ele>4.839</ele>
<time>2018-04-02T11:06:22.916Z</time>
</trkpt>
<trkpt lat="13.4233763" lon="100.0361349">
<ele>5.267</ele>
<time>2018-04-02T11:07:15.673Z</time>
</trkpt>
<trkpt lat="13.4238785" lon="100.0365661">
<ele>5.695</ele>
<time>2018-04-02T11:08:14.468Z</time>
</trkpt>
<trkpt lat="13.4243241" lon="100.0370628">
<ele>6.692</ele>
<time>2018-04-02T11:09:13.514Z</time>
</trkpt>
<trkpt lat="13.4327409" lon="100.0508486">
<ele>8.562</ele>
<time>2018-04-02T11:31:05.998Z</time>
</trkpt>
<trkpt lat="13.4328123" lon="100.0509185">
<ele>9.606</ele>
<time>2018-04-02T11:31:10.751Z</time>
</trkpt>
<trkpt lat="13.4331072" lon="100.0509888">
<ele>8.507</ele>
<time>2018-04-02T11:32:52.001Z</time>
</trkpt>
<trkpt lat="13.4331072" lon="100.0509888">
<ele>5.791</ele>
<time>2018-04-02T11:32:52.002Z</time>
</trkpt>
<trkpt lat="13.4331072" lon="100.0509888">
<ele>2.554</ele>
<time>2018-04-02T11:34:49.337Z</time>
</trkpt>
<trkpt lat="13.4330692" lon="100.0513047">
<ele>0.598</ele>
<time>2018-04-02T11:35:10.534Z</time>
</trkpt>
<trkpt lat="13.4347681" lon="100.0545397">
<ele>1.305</ele>
<time>2018-04-02T11:35:47.722Z</time>
</trkpt>
<trkpt lat="13.4349268" lon="100.0548020">
<ele>4.312</ele>
<time>2018-04-02T11:35:49.375Z</time>
</trkpt>
<trkpt lat="13.4350430" lon="100.0550606">
<ele>8.403</ele>
<time>2018-04-02T11:35:50.876Z</time>
</trkpt>
<trkpt lat="13.4351821" lon="100.0553096">
<ele>11.846</ele>
<time>2018-04-02T11:35:52.363Z</time>
</trkpt>
<trkpt lat="13.4353376" lon="100.0555736">
<ele>13.570</ele>
<time>2018-04-02T11:35:53.916Z</time>
</trkpt>
<trkpt lat="13.4354880" lon="100.0558574">
<ele>13.984</ele>
<time>2018-04-02T11:35:55.480Z</time>
</trkpt>
<trkpt lat="13.4356485" lon="100.0561288">
<ele>13.712</ele>
<time>2018-04-02T11:35:56.973Z</time>
</trkpt>
<trkpt lat="13.4358196" lon="100.0564408">
<ele>12.993</ele>
<time>2018-04-02T11:35:58.592Z</time>
</trkpt>
<trkpt lat="13.4360151" lon="100.0567118">
<ele>12.009</ele>
<time>2018-04-02T11:36:00.058Z</time>
</trkpt>
<trkpt lat="13.4361849" lon="100.0570601">
<ele>10.814</ele>
<time>2018-04-02T11:36:01.691Z</time>
</trkpt>
<trkpt lat="13.4363927" lon="100.0574133">
<ele>9.521</ele>
<time>2018-04-02T11:36:03.365Z</time>
</trkpt>
<trkpt lat="13.4366020" lon="100.0577588">
<ele>8.569</ele>
<time>2018-04-02T11:36:05.005Z</time>
</trkpt>
<trkpt lat="13.4378613" lon="100.0598833">
<ele>8.090</ele>
<time>2018-04-02T11:36:14.980Z</time>
</trkpt>
<trkpt lat="13.4383662" lon="100.0608374">
<ele>7.798</ele>
<time>2018-04-02T11:36:19.157Z</time>
</trkpt>
<trkpt lat="13.4400208" lon="100.0636532">
<ele>7.579</ele>
<time>2018-04-02T11:36:31.540Z</time>
</trkpt>
<trkpt lat="13.4422810" lon="100.0676516">
<ele>7.629</ele>
<time>2018-04-02T11:36:49.127Z</time>
</trkpt>
<trkpt lat="13.4426070" lon="100.0682461">
<ele>7.915</ele>
<time>2018-04-02T11:36:51.727Z</time>
</trkpt>
<trkpt lat="13.4429596" lon="100.0688405">
<ele>8.074</ele>
<time>2018-04-02T11:36:54.378Z</time>
</trkpt>
<trkpt lat="13.4432817" lon="100.0694161">
<ele>7.993</ele>
<time>2018-04-02T11:36:56.908Z</time>
</trkpt>
<trkpt lat="13.4435021" lon="100.0697869">
<ele>7.775</ele>
<time>2018-04-02T11:36:58.562Z</time>
</trkpt>
<trkpt lat="13.4437104" lon="100.0701885">
<ele>7.426</ele>
<time>2018-04-02T11:37:00.260Z</time>
</trkpt>
<trkpt lat="13.4439419" lon="100.0705920">
<ele>7.037</ele>
<time>2018-04-02T11:37:01.995Z</time>
</trkpt>
<trkpt lat="13.4441628" lon="100.0709810">
<ele>6.701</ele>
<time>2018-04-02T11:37:03.653Z</time>
</trkpt>
<trkpt lat="13.4443755" lon="100.0713986">
<ele>6.435</ele>
<time>2018-04-02T11:37:05.390Z</time>
</trkpt>
<trkpt lat="13.4445961" lon="100.0717617">
<ele>6.264</ele>
<time>2018-04-02T11:37:06.970Z</time>
</trkpt>
<trkpt lat="13.4448288" lon="100.0721661">
<ele>6.209</ele>
<time>2018-04-02T11:37:08.691Z</time>
</trkpt>
<trkpt lat="13.4581092" lon="100.0921122">
<ele>6.354</ele>
<time>2018-04-02T11:38:41.108Z</time>
</trkpt>
<trkpt lat="13.4748740" lon="100.1164184">
<ele>6.687</ele>
<time>2018-04-02T11:40:34.346Z</time>
</trkpt>
<trkpt lat="13.5921529" lon="100.3357250">
<ele>4.294</ele>
<time>2018-04-02T12:06:38.938Z</time>
</trkpt>
<trkpt lat="13.5921951" lon="100.3358147">
<ele>4.292</ele>
<time>2018-04-02T12:06:40.088Z</time>
</trkpt>
<trkpt lat="13.5922437" lon="100.3359601">
<ele>4.312</ele>
<time>2018-04-02T12:06:41.834Z</time>
</trkpt>
<trkpt lat="13.5923135" lon="100.3362098">
<ele>4.372</ele>
<time>2018-04-02T12:06:44.426Z</time>
</trkpt>
<trkpt lat="13.5924201" lon="100.3364415">
<ele>4.456</ele>
<time>2018-04-02T12:06:47.072Z</time>
</trkpt>
<trkpt lat="13.5925274" lon="100.3366963">
<ele>4.590</ele>
<time>2018-04-02T12:06:50.402Z</time>
</trkpt>
<trkpt lat="13.5926131" lon="100.3369136">
<ele>4.817</ele>
<time>2018-04-02T12:06:54.014Z</time>
</trkpt>
<trkpt lat="13.5926664" lon="100.3370717">
<ele>5.162</ele>
<time>2018-04-02T12:06:57.309Z</time>
</trkpt>
<trkpt lat="13.5926991" lon="100.3371927">
<ele>5.568</ele>
<time>2018-04-02T12:06:59.942Z</time>
</trkpt>
<trkpt lat="13.5927307" lon="100.3373023">
<ele>5.767</ele>
<time>2018-04-02T12:07:02.557Z</time>
</trkpt>
<trkpt lat="13.5927603" lon="100.3374119">
<ele>5.602</ele>
<time>2018-04-02T12:07:05.794Z</time>
</trkpt>
<trkpt lat="13.5927816" lon="100.3375048">
<ele>5.379</ele>
<time>2018-04-02T12:07:08.796Z</time>
</trkpt>
<trkpt lat="13.5928096" lon="100.3376124">
<ele>5.385</ele>
<time>2018-04-02T12:07:13.084Z</time>
</trkpt>
<trkpt lat="13.5928222" lon="100.3377102">
<ele>5.588</ele>
<time>2018-04-02T12:07:17.843Z</time>
</trkpt>
<trkpt lat="13.5928394" lon="100.3378100">
<ele>5.864</ele>
<time>2018-04-02T12:07:22.766Z</time>
</trkpt>
<trkpt lat="13.5928768" lon="100.3379056">
<ele>6.014</ele>
<time>2018-04-02T12:07:27.805Z</time>
</trkpt>
<trkpt lat="13.5928970" lon="100.3380148">
<ele>5.913</ele>
<time>2018-04-02T12:07:32.464Z</time>
</trkpt>
<trkpt lat="13.5929303" lon="100.3381209">
<ele>5.701</ele>
<time>2018-04-02T12:07:36.999Z</time>
</trkpt>
<trkpt lat="13.5929303" lon="100.3381209">
<ele>5.576</ele>
<time>2018-04-02T12:07:50.999Z</time>
</trkpt>
<trkpt lat="13.5929303" lon="100.3381209">
<ele>5.583</ele>
<time>2018-04-02T12:08:18.836Z</time>
</trkpt>
<trkpt lat="13.5930159" lon="100.3384967">
<ele>5.644</ele>
<time>2018-04-02T12:08:43.000Z</time>
</trkpt>
<trkpt lat="13.5930376" lon="100.3386100">
<ele>5.742</ele>
<time>2018-04-02T12:08:45.984Z</time>
</trkpt>
<trkpt lat="13.5930751" lon="100.3387375">
<ele>5.898</ele>
<time>2018-04-02T12:08:49.090Z</time>
</trkpt>
<trkpt lat="13.5931088" lon="100.3388908">
<ele>6.041</ele>
<time>2018-04-02T12:08:53.017Z</time>
</trkpt>
<trkpt lat="13.5931107" lon="100.3390311">
<ele>6.143</ele>
<time>2018-04-02T12:08:56.783Z</time>
</trkpt>
<trkpt lat="13.5931152" lon="100.3391467">
<ele>6.252</ele>
<time>2018-04-02T12:08:59.882Z</time>
</trkpt>
<trkpt lat="13.5931284" lon="100.3392579">
<ele>6.306</ele>
<time>2018-04-02T12:09:02.587Z</time>
</trkpt>
<trkpt lat="13.5931457" lon="100.3393575">
<ele>6.220</ele>
<time>2018-04-02T12:09:04.820Z</time>
</trkpt>
<trkpt lat="13.5931708" lon="100.3394696">
<ele>6.036</ele>
<time>2018-04-02T12:09:07.218Z</time>
</trkpt>
<trkpt lat="13.5931750" lon="100.3396253">
<ele>5.876</ele>
<time>2018-04-02T12:09:10.324Z</time>
</trkpt>
<trkpt lat="13.5931956" lon="100.3397547">
<ele>5.809</ele>
<time>2018-04-02T12:09:12.801Z</time>
</trkpt>
<trkpt lat="13.5932117" lon="100.3399166">
<ele>5.923</ele>
<time>2018-04-02T12:09:15.760Z</time>
</trkpt>
<trkpt lat="13.5932239" lon="100.3400887">
<ele>6.310</ele>
<time>2018-04-02T12:09:18.868Z</time>
</trkpt>
<trkpt lat="13.5932316" lon="100.3402494">
<ele>6.823</ele>
<time>2018-04-02T12:09:21.781Z</time>
</trkpt>
<trkpt lat="13.5932265" lon="100.3404009">
<ele>7.169</ele>
<time>2018-04-02T12:09:24.594Z</time>
</trkpt>
<trkpt lat="13.5932283" lon="100.3405661">
<ele>7.185</ele>
<time>2018-04-02T12:09:27.818Z</time>
</trkpt>
<trkpt lat="13.5932042" lon="100.3407202">
<ele>6.802</ele>
<time>2018-04-02T12:09:30.929Z</time>
</trkpt>
<trkpt lat="13.5932065" lon="100.3408611">
<ele>6.180</ele>
<time>2018-04-02T12:09:33.550Z</time>
</trkpt>
<trkpt lat="13.5932018" lon="100.3410080">
<ele>5.831</ele>
<time>2018-04-02T12:09:36.158Z</time>
</trkpt>
<trkpt lat="13.5931899" lon="100.3411757">
<ele>6.015</ele>
<time>2018-04-02T12:09:39.162Z</time>
</trkpt>
<trkpt lat="13.5931853" lon="100.3413406">
<ele>6.468</ele>
<time>2018-04-02T12:09:42.235Z</time>
</trkpt>
<trkpt lat="13.5931693" lon="100.3414981">
<ele>6.927</ele>
<time>2018-04-02T12:09:45.287Z</time>
</trkpt>
<trkpt lat="13.5931705" lon="100.3416626">
<ele>7.311</ele>
<time>2018-04-02T12:09:48.392Z</time>
</trkpt>
<trkpt lat="13.5931630" lon="100.3418097">
<ele>7.600</ele>
<time>2018-04-02T12:09:51.118Z</time>
</trkpt>
<trkpt lat="13.5931482" lon="100.3419762">
<ele>7.822</ele>
<time>2018-04-02T12:09:54.271Z</time>
</trkpt>
<trkpt lat="13.5931553" lon="100.3421323">
<ele>7.949</ele>
<time>2018-04-02T12:09:57.398Z</time>
</trkpt>
<trkpt lat="13.5931421" lon="100.3422925">
<ele>7.945</ele>
<time>2018-04-02T12:10:00.919Z</time>
</trkpt>
<trkpt lat="13.5931156" lon="100.3424055">
<ele>7.787</ele>
<time>2018-04-02T12:10:03.289Z</time>
</trkpt>
<trkpt lat="13.5931043" lon="100.3425423">
<ele>7.495</ele>
<time>2018-04-02T12:10:05.609Z</time>
</trkpt>
<trkpt lat="13.5930963" lon="100.3427573">
<ele>7.190</ele>
<time>2018-04-02T12:10:08.786Z</time>
</trkpt>
<trkpt lat="13.5931005" lon="100.3429585">
<ele>6.953</ele>
<time>2018-04-02T12:10:11.715Z</time>
</trkpt>
<trkpt lat="13.5930828" lon="100.3431583">
<ele>6.818</ele>
<time>2018-04-02T12:10:14.663Z</time>
</trkpt>
<trkpt lat="13.5930809" lon="100.3433405">
<ele>6.877</ele>
<time>2018-04-02T12:10:17.215Z</time>
</trkpt>
<trkpt lat="13.5930747" lon="100.3435820">
<ele>7.190</ele>
<time>2018-04-02T12:10:20.454Z</time>
</trkpt>
<trkpt lat="13.5930932" lon="100.3438487">
<ele>7.617</ele>
<time>2018-04-02T12:10:23.974Z</time>
</trkpt>
<trkpt lat="13.5930758" lon="100.3440452">
<ele>7.863</ele>
<time>2018-04-02T12:10:26.569Z</time>
</trkpt>
<trkpt lat="13.5930834" lon="100.3442793">
<ele>7.802</ele>
<time>2018-04-02T12:10:29.709Z</time>
</trkpt>
<trkpt lat="13.5930658" lon="100.3444809">
<ele>7.619</ele>
<time>2018-04-02T12:10:32.459Z</time>
</trkpt>
<trkpt lat="13.5930885" lon="100.3447270">
<ele>7.498</ele>
<time>2018-04-02T12:10:35.824Z</time>
</trkpt>
<trkpt lat="13.5930422" lon="100.3449395">
<ele>7.458</ele>
<time>2018-04-02T12:10:39.044Z</time>
</trkpt>
<trkpt lat="13.5930189" lon="100.3451725">
<ele>7.426</ele>
<time>2018-04-02T12:10:43.572Z</time>
</trkpt>
<trkpt lat="13.5930126" lon="100.3453369">
<ele>7.312</ele>
<time>2018-04-02T12:10:46.929Z</time>
</trkpt>
<trkpt lat="13.5930102" lon="100.3454746">
<ele>7.136</ele>
<time>2018-04-02T12:10:49.449Z</time>
</trkpt>
<trkpt lat="13.5930115" lon="100.3456280">
<ele>7.040</ele>
<time>2018-04-02T12:10:52.125Z</time>
</trkpt>
<trkpt lat="13.5929789" lon="100.3457930">
<ele>7.125</ele>
<time>2018-04-02T12:10:55.005Z</time>
</trkpt>
<trkpt lat="13.5929598" lon="100.3459495">
<ele>7.284</ele>
<time>2018-04-02T12:10:57.756Z</time>
</trkpt>
<trkpt lat="13.5929606" lon="100.3461367">
<ele>7.402</ele>
<time>2018-04-02T12:11:01.234Z</time>
</trkpt>
<trkpt lat="13.5929533" lon="100.3462837">
<ele>7.566</ele>
<time>2018-04-02T12:11:03.907Z</time>
</trkpt>
<trkpt lat="13.5929600" lon="100.3464626">
<ele>7.871</ele>
<time>2018-04-02T12:11:06.961Z</time>
</trkpt>
<trkpt lat="13.5929770" lon="100.3466468">
<ele>8.232</ele>
<time>2018-04-02T12:11:09.766Z</time>
</trkpt>
<trkpt lat="13.5929826" lon="100.3468365">
<ele>8.671</ele>
<time>2018-04-02T12:11:12.562Z</time>
</trkpt>
<trkpt lat="13.5929745" lon="100.3470523">
<ele>9.222</ele>
<time>2018-04-02T12:11:15.856Z</time>
</trkpt>
<trkpt lat="13.5929673" lon="100.3472368">
<ele>9.646</ele>
<time>2018-04-02T12:11:18.793Z</time>
</trkpt>
<trkpt lat="13.5929461" lon="100.3474372">
<ele>9.680</ele>
<time>2018-04-02T12:11:22.203Z</time>
</trkpt>
<trkpt lat="13.5929496" lon="100.3476206">
<ele>9.347</ele>
<time>2018-04-02T12:11:24.933Z</time>
</trkpt>
<trkpt lat="13.5929415" lon="100.3477906">
<ele>8.883</ele>
<time>2018-04-02T12:11:27.465Z</time>
</trkpt>
<trkpt lat="13.5929212" lon="100.3485165">
<ele>8.515</ele>
<time>2018-04-02T12:11:37.771Z</time>
</trkpt>
<trkpt lat="13.5928965" lon="100.3490434">
<ele>8.468</ele>
<time>2018-04-02T12:11:46.885Z</time>
</trkpt>
<trkpt lat="13.5929134" lon="100.3495259">
<ele>8.141</ele>
<time>2018-04-02T12:11:57.925Z</time>
</trkpt>
<trkpt lat="13.5928259" lon="100.3500290">
<ele>7.442</ele>
<time>2018-04-02T12:12:12.309Z</time>
</trkpt>
<trkpt lat="13.5928271" lon="100.3501967">
<ele>6.419</ele>
<time>2018-04-02T12:12:16.957Z</time>
</trkpt>
<trkpt lat="13.5928153" lon="100.3503550">
<ele>5.333</ele>
<time>2018-04-02T12:12:20.562Z</time>
</trkpt>
<trkpt lat="13.5928100" lon="100.3505230">
<ele>4.631</ele>
<time>2018-04-02T12:12:23.631Z</time>
</trkpt>
<trkpt lat="13.5928043" lon="100.3506334">
<ele>4.486</ele>
<time>2018-04-02T12:12:25.579Z</time>
</trkpt>
<trkpt lat="13.5928031" lon="100.3507898">
<ele>4.726</ele>
<time>2018-04-02T12:12:28.506Z</time>
</trkpt>
<trkpt lat="13.5927944" lon="100.3509604">
<ele>5.311</ele>
<time>2018-04-02T12:12:31.856Z</time>
</trkpt>
<trkpt lat="13.5927883" lon="100.3511022">
<ele>6.134</ele>
<time>2018-04-02T12:12:34.631Z</time>
</trkpt>
<trkpt lat="13.5927938" lon="100.3512448">
<ele>6.672</ele>
<time>2018-04-02T12:12:37.344Z</time>
</trkpt>
<trkpt lat="13.5927800" lon="100.3514170">
<ele>6.586</ele>
<time>2018-04-02T12:12:40.505Z</time>
</trkpt>
<trkpt lat="13.5927785" lon="100.3515741">
<ele>6.222</ele>
<time>2018-04-02T12:12:43.320Z</time>
</trkpt>
<trkpt lat="13.5927574" lon="100.3517171">
<ele>5.956</ele>
<time>2018-04-02T12:12:45.979Z</time>
</trkpt>
<trkpt lat="13.5927504" lon="100.3518310">
<ele>5.799</ele>
<time>2018-04-02T12:12:48.200Z</time>
</trkpt>
<trkpt lat="13.5927517" lon="100.3519354">
<ele>5.595</ele>
<time>2018-04-02T12:12:50.595Z</time>
</trkpt>
<trkpt lat="13.5927443" lon="100.3520346">
<ele>5.169</ele>
<time>2018-04-02T12:12:54.223Z</time>
</trkpt>
<trkpt lat="13.5927372" lon="100.3521410">
<ele>4.577</ele>
<time>2018-04-02T12:12:58.631Z</time>
</trkpt>
<trkpt lat="13.5927340" lon="100.3523211">
<ele>4.131</ele>
<time>2018-04-02T12:13:07.416Z</time>
</trkpt>
<trkpt lat="13.5927444" lon="100.3525134">
<ele>4.067</ele>
<time>2018-04-02T12:13:12.559Z</time>
</trkpt>
<trkpt lat="13.5927474" lon="100.3527208">
<ele>4.328</ele>
<time>2018-04-02T12:13:16.202Z</time>
</trkpt>
<trkpt lat="13.5927102" lon="100.3529681">
<ele>4.589</ele>
<time>2018-04-02T12:13:19.596Z</time>
</trkpt>
<trkpt lat="13.5926581" lon="100.3530680">
<ele>4.621</ele>
<time>2018-04-02T12:13:21.844Z</time>
</trkpt>
<trkpt lat="13.5926181" lon="100.3532821">
<ele>4.522</ele>
<time>2018-04-02T12:13:26.728Z</time>
</trkpt>
<trkpt lat="13.5926190" lon="100.3535377">
<ele>4.373</ele>
<time>2018-04-02T12:13:32.401Z</time>
</trkpt>
<trkpt lat="13.5925894" lon="100.3539464">
<ele>4.157</ele>
<time>2018-04-02T12:13:37.286Z</time>
</trkpt>
<trkpt lat="13.5926014" lon="100.3542771">
<ele>3.936</ele>
<time>2018-04-02T12:13:40.713Z</time>
</trkpt>
<trkpt lat="13.5925858" lon="100.3545763">
<ele>3.809</ele>
<time>2018-04-02T12:13:44.092Z</time>
</trkpt>
<trkpt lat="13.5925940" lon="100.3548161">
<ele>3.898</ele>
<time>2018-04-02T12:13:47.394Z</time>
</trkpt>
<trkpt lat="13.5926318" lon="100.3550233">
<ele>4.220</ele>
<time>2018-04-02T12:13:50.834Z</time>
</trkpt>
<trkpt lat="13.5926467" lon="100.3552033">
<ele>4.551</ele>
<time>2018-04-02T12:13:53.969Z</time>
</trkpt>
<trkpt lat="13.5926244" lon="100.3553834">
<ele>4.707</ele>
<time>2018-04-02T12:13:56.824Z</time>
</trkpt>
<trkpt lat="13.5925726" lon="100.3555989">
<ele>4.702</ele>
<time>2018-04-02T12:13:59.853Z</time>
</trkpt>
<trkpt lat="13.5925694" lon="100.3558338">
<ele>4.575</ele>
<time>2018-04-02T12:14:02.874Z</time>
</trkpt>
<trkpt lat="13.5925792" lon="100.3560735">
<ele>4.374</ele>
<time>2018-04-02T12:14:05.882Z</time>
</trkpt>
<trkpt lat="13.5925877" lon="100.3563657">
<ele>4.126</ele>
<time>2018-04-02T12:14:09.650Z</time>
</trkpt>
<trkpt lat="13.5925941" lon="100.3565874">
<ele>3.826</ele>
<time>2018-04-02T12:14:12.555Z</time>
</trkpt>
<trkpt lat="13.5925992" lon="100.3568077">
<ele>3.538</ele>
<time>2018-04-02T12:14:15.490Z</time>
</trkpt>
<trkpt lat="13.5925867" lon="100.3570629">
<ele>3.371</ele>
<time>2018-04-02T12:14:19.028Z</time>
</trkpt>
<trkpt lat="13.5925713" lon="100.3572402">
<ele>3.335</ele>
<time>2018-04-02T12:14:21.321Z</time>
</trkpt>
<trkpt lat="13.5925992" lon="100.3574866">
<ele>3.361</ele>
<time>2018-04-02T12:14:24.276Z</time>
</trkpt>
<trkpt lat="13.5925909" lon="100.3578382">
<ele>3.393</ele>
<time>2018-04-02T12:14:28.895Z</time>
</trkpt>
<trkpt lat="13.5926438" lon="100.3581008">
<ele>3.326</ele>
<time>2018-04-02T12:14:36.922Z</time>
</trkpt>
<trkpt lat="13.5926844" lon="100.3582185">
<ele>3.114</ele>
<time>2018-04-02T12:14:42.594Z</time>
</trkpt>
<trkpt lat="13.5927484" lon="100.3583201">
<ele>2.924</ele>
<time>2018-04-02T12:14:46.939Z</time>
</trkpt>
<trkpt lat="13.5927740" lon="100.3584282">
<ele>2.993</ele>
<time>2018-04-02T12:14:49.602Z</time>
</trkpt>
<trkpt lat="13.5927988" lon="100.3585421">
<ele>3.761</ele>
<time>2018-04-02T12:14:52.046Z</time>
</trkpt>
<trkpt lat="13.5927842" lon="100.3586901">
<ele>5.354</ele>
<time>2018-04-02T12:14:55.469Z</time>
</trkpt>
<trkpt lat="13.5928278" lon="100.3589084">
<ele>6.958</ele>
<time>2018-04-02T12:15:01.831Z</time>
</trkpt>
<trkpt lat="13.5928740" lon="100.3590044">
<ele>7.797</ele>
<time>2018-04-02T12:15:05.033Z</time>
</trkpt>
<trkpt lat="13.5929089" lon="100.3590968">
<ele>7.944</ele>
<time>2018-04-02T12:15:07.692Z</time>
</trkpt>
<trkpt lat="13.5929390" lon="100.3591857">
<ele>7.458</ele>
<time>2018-04-02T12:15:09.835Z</time>
</trkpt>
<trkpt lat="13.5929684" lon="100.3593116">
<ele>6.016</ele>
<time>2018-04-02T12:15:12.349Z</time>
</trkpt>
<trkpt lat="13.5930151" lon="100.3594413">
<ele>3.955</ele>
<time>2018-04-02T12:15:15.168Z</time>
</trkpt>
<trkpt lat="13.5930850" lon="100.3595707">
<ele>2.493</ele>
<time>2018-04-02T12:15:18.331Z</time>
</trkpt>
<trkpt lat="13.5931448" lon="100.3596851">
<ele>2.334</ele>
<time>2018-04-02T12:15:21.598Z</time>
</trkpt>
<trkpt lat="13.5931929" lon="100.3598420">
<ele>3.017</ele>
<time>2018-04-02T12:15:26.365Z</time>
</trkpt>
<trkpt lat="13.5932156" lon="100.3599463">
<ele>4.031</ele>
<time>2018-04-02T12:15:29.459Z</time>
</trkpt>
<trkpt lat="13.5932663" lon="100.3600671">
<ele>5.859</ele>
<time>2018-04-02T12:15:32.829Z</time>
</trkpt>
<trkpt lat="13.5933177" lon="100.3601808">
<ele>8.541</ele>
<time>2018-04-02T12:15:36.015Z</time>
</trkpt>
<trkpt lat="13.5934486" lon="100.3603934">
<ele>10.694</ele>
<time>2018-04-02T12:15:42.241Z</time>
</trkpt>
<trkpt lat="13.5935135" lon="100.3604942">
<ele>11.390</ele>
<time>2018-04-02T12:15:44.758Z</time>
</trkpt>
<trkpt lat="13.5935759" lon="100.3606548">
<ele>10.557</ele>
<time>2018-04-02T12:15:47.807Z</time>
</trkpt>
<trkpt lat="13.5936450" lon="100.3608070">
<ele>8.597</ele>
<time>2018-04-02T12:15:50.305Z</time>
</trkpt>
<trkpt lat="13.5937809" lon="100.3610244">
<ele>6.684</ele>
<time>2018-04-02T12:15:53.734Z</time>
</trkpt>
<trkpt lat="13.5940427" lon="100.3614068">
<ele>5.447</ele>
<time>2018-04-02T12:16:00.269Z</time>
</trkpt>
<trkpt lat="13.5941572" lon="100.3616322">
<ele>5.714</ele>
<time>2018-04-02T12:16:04.030Z</time>
</trkpt>
<trkpt lat="13.5944249" lon="100.3620230">
<ele>6.157</ele>
<time>2018-04-02T12:16:11.746Z</time>
</trkpt>
<trkpt lat="13.5947640" lon="100.3623821">
<ele>5.975</ele>
<time>2018-04-02T12:16:19.679Z</time>
</trkpt>
<trkpt lat="13.5950855" lon="100.3627243">
<ele>5.648</ele>
<time>2018-04-02T12:16:26.148Z</time>
</trkpt>
<trkpt lat="13.5952149" lon="100.3627991">
<ele>5.372</ele>
<time>2018-04-02T12:16:28.116Z</time>
</trkpt>
<trkpt lat="13.5953740" lon="100.3629376">
<ele>5.225</ele>
<time>2018-04-02T12:16:31.044Z</time>
</trkpt>
<trkpt lat="13.5955512" lon="100.3631202">
<ele>5.256</ele>
<time>2018-04-02T12:16:34.860Z</time>
</trkpt>
<trkpt lat="13.5956662" lon="100.3632216">
<ele>5.461</ele>
<time>2018-04-02T12:16:36.903Z</time>
</trkpt>
<trkpt lat="13.5958554" lon="100.3633714">
<ele>5.693</ele>
<time>2018-04-02T12:16:39.695Z</time>
</trkpt>
<trkpt lat="13.5962551" lon="100.3638611">
<ele>5.791</ele>
<time>2018-04-02T12:16:46.371Z</time>
</trkpt>
<trkpt lat="13.5964626" lon="100.3640571">
<ele>5.779</ele>
<time>2018-04-02T12:16:49.606Z</time>
</trkpt>
<trkpt lat="13.5966667" lon="100.3642047">
<ele>6.020</ele>
<time>2018-04-02T12:16:53.970Z</time>
</trkpt>
<trkpt lat="13.5967583" lon="100.3642999">
<ele>6.670</ele>
<time>2018-04-02T12:16:58.004Z</time>
</trkpt>
<trkpt lat="13.5967912" lon="100.3643874">
<ele>7.484</ele>
<time>2018-04-02T12:17:01.701Z</time>
</trkpt>
<trkpt lat="13.5968924" lon="100.3644353">
<ele>8.024</ele>
<time>2018-04-02T12:17:06.445Z</time>
</trkpt>
<trkpt lat="13.5969627" lon="100.3645262">
<ele>8.063</ele>
<time>2018-04-02T12:17:11.911Z</time>
</trkpt>
<trkpt lat="13.5970228" lon="100.3646037">
<ele>7.720</ele>
<time>2018-04-02T12:17:16.996Z</time>
</trkpt>
<trkpt lat="13.5970228" lon="100.3646037">
<ele>7.360</ele>
<time>2018-04-02T12:17:22.996Z</time>
</trkpt>
<trkpt lat="13.5970228" lon="100.3646037">
<ele>7.226</ele>
<time>2018-04-02T12:17:23.096Z</time>
</trkpt>
<trkpt lat="13.5971742" lon="100.3647471">
<ele>7.252</ele>
<time>2018-04-02T12:17:36.492Z</time>
</trkpt>
<trkpt lat="13.5972652" lon="100.3648155">
<ele>7.224</ele>
<time>2018-04-02T12:17:42.246Z</time>
</trkpt>
<trkpt lat="13.5973569" lon="100.3648559">
<ele>7.032</ele>
<time>2018-04-02T12:17:46.863Z</time>
</trkpt>
<trkpt lat="13.5974419" lon="100.3649356">
<ele>6.807</ele>
<time>2018-04-02T12:17:51.092Z</time>
</trkpt>
<trkpt lat="13.5975470" lon="100.3650067">
<ele>6.628</ele>
<time>2018-04-02T12:17:54.687Z</time>
</trkpt>
<trkpt lat="13.5976469" lon="100.3651112">
<ele>6.438</ele>
<time>2018-04-02T12:17:58.196Z</time>
</trkpt>
<trkpt lat="13.5977468" lon="100.3652169">
<ele>6.280</ele>
<time>2018-04-02T12:18:01.964Z</time>
</trkpt>
<trkpt lat="13.5978427" lon="100.3653381">
<ele>6.203</ele>
<time>2018-04-02T12:18:07.205Z</time>
</trkpt>
<trkpt lat="13.5979020" lon="100.3654307">
<ele>6.162</ele>
<time>2018-04-02T12:18:10.242Z</time>
</trkpt>
<trkpt lat="13.5979572" lon="100.3655286">
<ele>6.082</ele>
<time>2018-04-02T12:18:12.456Z</time>
</trkpt>
<trkpt lat="13.5980629" lon="100.3656639">
<ele>5.901</ele>
<time>2018-04-02T12:18:15.157Z</time>
</trkpt>
<trkpt lat="13.5981917" lon="100.3658040">
<ele>5.648</ele>
<time>2018-04-02T12:18:17.743Z</time>
</trkpt>
<trkpt lat="13.5984037" lon="100.3659808">
<ele>5.455</ele>
<time>2018-04-02T12:18:21.244Z</time>
</trkpt>
<trkpt lat="13.5985467" lon="100.3661646">
<ele>5.411</ele>
<time>2018-04-02T12:18:24.110Z</time>
</trkpt>
<trkpt lat="13.5987205" lon="100.3663571">
<ele>5.569</ele>
<time>2018-04-02T12:18:27.312Z</time>
</trkpt>
<trkpt lat="13.5989036" lon="100.3664794">
<ele>6.128</ele>
<time>2018-04-02T12:18:29.933Z</time>
</trkpt>
<trkpt lat="13.5990910" lon="100.3666594">
<ele>7.042</ele>
<time>2018-04-02T12:18:32.765Z</time>
</trkpt>
<trkpt lat="13.5992636" lon="100.3668528">
<ele>7.941</ele>
<time>2018-04-02T12:18:35.360Z</time>
</trkpt>
<trkpt lat="13.5995132" lon="100.3671583">
<ele>8.731</ele>
<time>2018-04-02T12:18:39.058Z</time>
</trkpt>
<trkpt lat="13.5997687" lon="100.3673777">
<ele>9.790</ele>
<time>2018-04-02T12:18:42.002Z</time>
</trkpt>
<trkpt lat="13.6000013" lon="100.3676284">
<ele>11.627</ele>
<time>2018-04-02T12:18:44.911Z</time>
</trkpt>
<trkpt lat="13.6005532" lon="100.3680991">
<ele>14.232</ele>
<time>2018-04-02T12:18:50.594Z</time>
</trkpt>
<trkpt lat="13.6008418" lon="100.3683809">
<ele>14.284</ele>
<time>2018-04-02T12:18:53.611Z</time>
</trkpt>
<trkpt lat="13.6010480" lon="100.3686292">
<ele>14.267</ele>
<time>2018-04-02T12:18:56.018Z</time>
</trkpt>
<trkpt lat="13.6013005" lon="100.3688566">
<ele>14.146</ele>
<time>2018-04-02T12:18:58.562Z</time>
</trkpt>
<trkpt lat="13.6014869" lon="100.3690248">
<ele>13.813</ele>
<time>2018-04-02T12:19:00.442Z</time>
</trkpt>
<trkpt lat="13.6016349" lon="100.3691678">
<ele>13.045</ele>
<time>2018-04-02T12:19:02.371Z</time>
</trkpt>
<trkpt lat="13.6017346" lon="100.3692792">
<ele>12.059</ele>
<time>2018-04-02T12:19:03.927Z</time>
</trkpt>
<trkpt lat="13.6018662" lon="100.3694337">
<ele>11.324</ele>
<time>2018-04-02T12:19:07.396Z</time>
</trkpt>
<trkpt lat="13.6019736" lon="100.3695278">
<ele>11.116</ele>
<time>2018-04-02T12:19:10.009Z</time>
</trkpt>
<trkpt lat="13.6020725" lon="100.3696268">
<ele>11.485</ele>
<time>2018-04-02T12:19:12.798Z</time>
</trkpt>
<trkpt lat="13.6022076" lon="100.3697633">
<ele>12.230</ele>
<time>2018-04-02T12:19:16.484Z</time>
</trkpt>
<trkpt lat="13.6023318" lon="100.3698816">
<ele>12.959</ele>
<time>2018-04-02T12:19:19.619Z</time>
</trkpt>
<trkpt lat="13.6024231" lon="100.3699663">
<ele>13.380</ele>
<time>2018-04-02T12:19:21.995Z</time>
</trkpt>
<trkpt lat="13.6024231" lon="100.3699663">
<ele>13.490</ele>
<time>2018-04-02T12:19:27.995Z</time>
</trkpt>
<trkpt lat="13.6024231" lon="100.3699663">
<ele>13.469</ele>
<time>2018-04-02T12:19:40.837Z</time>
</trkpt>
<trkpt lat="13.6026238" lon="100.3701194">
<ele>13.436</ele>
<time>2018-04-02T12:19:49.286Z</time>
</trkpt>
<trkpt lat="13.6027467" lon="100.3702313">
<ele>13.419</ele>
<time>2018-04-02T12:19:52.773Z</time>
</trkpt>
<trkpt lat="13.6028682" lon="100.3703486">
<ele>13.316</ele>
<time>2018-04-02T12:19:56.436Z</time>
</trkpt>
<trkpt lat="13.6029689" lon="100.3704421">
<ele>13.051</ele>
<time>2018-04-02T12:19:58.833Z</time>
</trkpt>
<trkpt lat="13.6030859" lon="100.3705664">
<ele>12.729</ele>
<time>2018-04-02T12:20:01.927Z</time>
</trkpt>
<trkpt lat="13.6031945" lon="100.3706678">
<ele>12.235</ele>
<time>2018-04-02T12:20:04.824Z</time>
</trkpt>
<trkpt lat="13.6032925" lon="100.3707650">
<ele>10.862</ele>
<time>2018-04-02T12:20:07.566Z</time>
</trkpt>
<trkpt lat="13.6034040" lon="100.3708715">
<ele>8.557</ele>
<time>2018-04-02T12:20:10.567Z</time>
</trkpt>
<trkpt lat="13.6035106" lon="100.3709819">
<ele>6.470</ele>
<time>2018-04-02T12:20:13.358Z</time>
</trkpt>
<trkpt lat="13.6036336" lon="100.3711072">
<ele>5.406</ele>
<time>2018-04-02T12:20:16.300Z</time>
</trkpt>
<trkpt lat="13.6037475" lon="100.3712300">
<ele>4.941</ele>
<time>2018-04-02T12:20:18.830Z</time>
</trkpt>
<trkpt lat="13.6039051" lon="100.3713823">
<ele>4.553</ele>
<time>2018-04-02T12:20:21.724Z</time>
</trkpt>
<trkpt lat="13.6041142" lon="100.3715866">
<ele>4.277</ele>
<time>2018-04-02T12:20:25.119Z</time>
</trkpt>
<trkpt lat="13.6042931" lon="100.3717639">
<ele>4.294</ele>
<time>2018-04-02T12:20:28.085Z</time>
</trkpt>
<trkpt lat="13.6044529" lon="100.3719183">
<ele>4.675</ele>
<time>2018-04-02T12:20:31.003Z</time>
</trkpt>
<trkpt lat="13.6045981" lon="100.3720655">
<ele>5.444</ele>
<time>2018-04-02T12:20:34.007Z</time>
</trkpt>
<trkpt lat="13.6047325" lon="100.3722050">
<ele>6.551</ele>
<time>2018-04-02T12:20:36.814Z</time>
</trkpt>
<trkpt lat="13.6048906" lon="100.3723590">
<ele>7.723</ele>
<time>2018-04-02T12:20:39.747Z</time>
</trkpt>
<trkpt lat="13.6049938" lon="100.3724570">
<ele>8.332</ele>
<time>2018-04-02T12:20:41.392Z</time>
</trkpt>
<trkpt lat="13.6051381" lon="100.3725932">
<ele>7.984</ele>
<time>2018-04-02T12:20:43.521Z</time>
</trkpt>
<trkpt lat="13.6052659" lon="100.3727146">
<ele>7.084</ele>
<time>2018-04-02T12:20:45.375Z</time>
</trkpt>
<trkpt lat="13.6053881" lon="100.3728226">
<ele>6.088</ele>
<time>2018-04-02T12:20:47.160Z</time>
</trkpt>
<trkpt lat="13.6055743" lon="100.3729939">
<ele>5.024</ele>
<time>2018-04-02T12:20:50.096Z</time>
</trkpt>
<trkpt lat="13.6057286" lon="100.3731411">
<ele>3.639</ele>
<time>2018-04-02T12:20:52.716Z</time>
</trkpt>
<trkpt lat="13.6059594" lon="100.3733683">
<ele>1.931</ele>
<time>2018-04-02T12:20:56.676Z</time>
</trkpt>
<trkpt lat="13.6060961" lon="100.3734920">
<ele>0.249</ele>
<time>2018-04-02T12:20:59.132Z</time>
</trkpt>
<trkpt lat="13.6062271" lon="100.3736254">
<ele>0.000</ele>
<time>2018-04-02T12:21:01.942Z</time>
</trkpt>
<trkpt lat="13.6063389" lon="100.3737297">
<ele>0.000</ele>
<time>2018-04-02T12:21:04.374Z</time>
</trkpt>
<trkpt lat="13.6065639" lon="100.3739548">
<ele>0.000</ele>
<time>2018-04-02T12:21:08.551Z</time>
</trkpt>
<trkpt lat="13.6067094" lon="100.3740974">
<ele>0.000</ele>
<time>2018-04-02T12:21:10.989Z</time>
</trkpt>
<trkpt lat="13.6068577" lon="100.3742559">
<ele>0.000</ele>
<time>2018-04-02T12:21:13.810Z</time>
</trkpt>
<trkpt lat="13.6069615" lon="100.3743573">
<ele>0.000</ele>
<time>2018-04-02T12:21:15.999Z</time>
</trkpt>
<trkpt lat="13.6069615" lon="100.3743573">
<ele>0.000</ele>
<time>2018-04-02T12:21:21.999Z</time>
</trkpt>
<trkpt lat="13.6069615" lon="100.3743573">
<ele>0.000</ele>
<time>2018-04-02T12:21:22.214Z</time>
</trkpt>
<trkpt lat="13.6071076" lon="100.3745157">
<ele>0.000</ele>
<time>2018-04-02T12:21:32.882Z</time>
</trkpt>
<trkpt lat="13.6072212" lon="100.3746276">
<ele>0.000</ele>
<time>2018-04-02T12:21:37.565Z</time>
</trkpt>
<trkpt lat="13.6073087" lon="100.3747172">
<ele>0.000</ele>
<time>2018-04-02T12:21:41.214Z</time>
</trkpt>
<trkpt lat="13.6074149" lon="100.3748215">
<ele>0.000</ele>
<time>2018-04-02T12:21:45.019Z</time>
</trkpt>
<trkpt lat="13.6075064" lon="100.3749102">
<ele>0.000</ele>
<time>2018-04-02T12:21:48.027Z</time>
</trkpt>
<trkpt lat="13.6076087" lon="100.3750073">
<ele>0.000</ele>
<time>2018-04-02T12:21:51.805Z</time>
</trkpt>
<trkpt lat="13.6076778" lon="100.3750720">
<ele>0.000</ele>
<time>2018-04-02T12:21:54.718Z</time>
</trkpt>
<trkpt lat="13.6077524" lon="100.3751433">
<ele>0.000</ele>
<time>2018-04-02T12:21:58.096Z</time>
</trkpt>
<trkpt lat="13.6078683" lon="100.3752587">
<ele>0.000</ele>
<time>2018-04-02T12:22:02.089Z</time>
</trkpt>
<trkpt lat="13.6080099" lon="100.3753949">
<ele>0.000</ele>
<time>2018-04-02T12:22:06.194Z</time>
</trkpt>
<trkpt lat="13.6081461" lon="100.3755200">
<ele>0.000</ele>
<time>2018-04-02T12:22:09.711Z</time>
</trkpt>
<trkpt lat="13.6082648" lon="100.3756291">
<ele>0.000</ele>
<time>2018-04-02T12:22:13.150Z</time>
</trkpt>
<trkpt lat="13.6083426" lon="100.3757045">
<ele>0.000</ele>
<time>2018-04-02T12:22:15.547Z</time>
</trkpt>
<trkpt lat="13.6084521" lon="100.3758219">
<ele>0.000</ele>
<time>2018-04-02T12:22:18.971Z</time>
</trkpt>
<trkpt lat="13.6085419" lon="100.3759140">
<ele>0.000</ele>
<time>2018-04-02T12:22:21.473Z</time>
</trkpt>
<trkpt lat="13.6086761" lon="100.3760429">
<ele>0.000</ele>
<time>2018-04-02T12:22:24.580Z</time>
</trkpt>
<trkpt lat="13.6088164" lon="100.3761987">
<ele>0.000</ele>
<time>2018-04-02T12:22:27.834Z</time>
</trkpt>
<trkpt lat="13.6089129" lon="100.3763043">
<ele>0.000</ele>
<time>2018-04-02T12:22:30.073Z</time>
</trkpt>
<trkpt lat="13.6090441" lon="100.3764626">
<ele>0.000</ele>
<time>2018-04-02T12:22:33.274Z</time>
</trkpt>
<trkpt lat="13.6091769" lon="100.3765894">
<ele>0.000</ele>
<time>2018-04-02T12:22:36.260Z</time>
</trkpt>
<trkpt lat="13.6092677" lon="100.3767089">
<ele>0.000</ele>
<time>2018-04-02T12:22:38.978Z</time>
</trkpt>
<trkpt lat="13.6093458" lon="100.3767634">
<ele>0.000</ele>
<time>2018-04-02T12:22:40.840Z</time>
</trkpt>
<trkpt lat="13.6094798" lon="100.3768742">
<ele>0.000</ele>
<time>2018-04-02T12:22:44.580Z</time>
</trkpt>
<trkpt lat="13.6095771" lon="100.3769215">
<ele>0.000</ele>
<time>2018-04-02T12:22:47.148Z</time>
</trkpt>
<trkpt lat="13.6096426" lon="100.3770055">
<ele>0.000</ele>
<time>2018-04-02T12:22:50.534Z</time>
</trkpt>
<trkpt lat="13.6097448" lon="100.3771199">
<ele>0.000</ele>
<time>2018-04-02T12:22:55.995Z</time>
</trkpt>
<trkpt lat="13.6098109" lon="100.3772063">
<ele>0.000</ele>
<time>2018-04-02T12:22:58.997Z</time>
</trkpt>
<trkpt lat="13.6098109" lon="100.3772063">
<ele>0.000</ele>
<time>2018-04-02T12:23:02.997Z</time>
</trkpt>
<trkpt lat="13.6098109" lon="100.3772063">
<ele>0.000</ele>
<time>2018-04-02T12:23:03.643Z</time>
</trkpt>
<trkpt lat="13.6099458" lon="100.3773140">
<ele>0.000</ele>
<time>2018-04-02T12:23:10.790Z</time>
</trkpt>
<trkpt lat="13.6101469" lon="100.3775182">
<ele>0.000</ele>
<time>2018-04-02T12:23:16.430Z</time>
</trkpt>
<trkpt lat="13.6102998" lon="100.3776787">
<ele>0.170</ele>
<time>2018-04-02T12:23:20.398Z</time>
</trkpt>
<trkpt lat="13.6104252" lon="100.3777864">
<ele>0.528</ele>
<time>2018-04-02T12:23:22.820Z</time>
</trkpt>
<trkpt lat="13.6106507" lon="100.3779941">
<ele>1.009</ele>
<time>2018-04-02T12:23:27.481Z</time>
</trkpt>
<trkpt lat="13.6107147" lon="100.3780615">
<ele>1.148</ele>
<time>2018-04-02T12:23:29.063Z</time>
</trkpt>
<trkpt lat="13.6108371" lon="100.3782011">
<ele>0.688</ele>
<time>2018-04-02T12:23:31.897Z</time>
</trkpt>
<trkpt lat="13.6110086" lon="100.3783613">
<ele>0.246</ele>
<time>2018-04-02T12:23:34.772Z</time>
</trkpt>
<trkpt lat="13.6111783" lon="100.3785517">
<ele>0.365</ele>
<time>2018-04-02T12:23:37.877Z</time>
</trkpt>
<trkpt lat="13.6112945" lon="100.3786565">
<ele>0.489</ele>
<time>2018-04-02T12:23:39.944Z</time>
</trkpt>
<trkpt lat="13.6114570" lon="100.3788270">
<ele>0.059</ele>
<time>2018-04-02T12:23:43.064Z</time>
</trkpt>
<trkpt lat="13.6116379" lon="100.3790146">
<ele>0.000</ele>
<time>2018-04-02T12:23:46.663Z</time>
</trkpt>
<trkpt lat="13.6117510" lon="100.3791193">
<ele>0.000</ele>
<time>2018-04-02T12:23:49.341Z</time>
</trkpt>
<trkpt lat="13.6118249" lon="100.3791786">
<ele>0.000</ele>
<time>2018-04-02T12:23:51.766Z</time>
</trkpt>
<trkpt lat="13.6119109" lon="100.3792412">
<ele>0.000</ele>
<time>2018-04-02T12:23:54.996Z</time>
</trkpt>
<trkpt lat="13.6119109" lon="100.3792412">
<ele>0.000</ele>
<time>2018-04-02T12:24:02.996Z</time>
</trkpt>
<trkpt lat="13.6119109" lon="100.3792412">
<ele>0.000</ele>
<time>2018-04-02T12:24:03.096Z</time>
</trkpt>
<trkpt lat="13.6121277" lon="100.3794549">
<ele>0.000</ele>
<time>2018-04-02T12:24:16.465Z</time>
</trkpt>
<trkpt lat="13.6122023" lon="100.3795285">
<ele>0.000</ele>
<time>2018-04-02T12:24:18.410Z</time>
</trkpt>
<trkpt lat="13.6123302" lon="100.3796508">
<ele>0.338</ele>
<time>2018-04-02T12:24:21.478Z</time>
</trkpt>
<trkpt lat="13.6124433" lon="100.3797692">
<ele>1.115</ele>
<time>2018-04-02T12:24:24.147Z</time>
</trkpt>
<trkpt lat="13.6125677" lon="100.3798804">
<ele>2.393</ele>
<time>2018-04-02T12:24:26.702Z</time>
</trkpt>
<trkpt lat="13.6127034" lon="100.3800147">
<ele>3.859</ele>
<time>2018-04-02T12:24:29.515Z</time>
</trkpt>
<trkpt lat="13.6128395" lon="100.3801466">
<ele>4.807</ele>
<time>2018-04-02T12:24:32.252Z</time>
</trkpt>
<trkpt lat="13.6130046" lon="100.3803092">
<ele>4.803</ele>
<time>2018-04-02T12:24:35.365Z</time>
</trkpt>
<trkpt lat="13.6131385" lon="100.3804487">
<ele>3.959</ele>
<time>2018-04-02T12:24:37.672Z</time>
</trkpt>
<trkpt lat="13.6133585" lon="100.3806714">
<ele>2.749</ele>
<time>2018-04-02T12:24:40.968Z</time>
</trkpt>
<trkpt lat="13.6135873" lon="100.3808961">
<ele>2.316</ele>
<time>2018-04-02T12:24:44.552Z</time>
</trkpt>
<trkpt lat="13.6137356" lon="100.3810395">
<ele>3.231</ele>
<time>2018-04-02T12:24:47.293Z</time>
</trkpt>
<trkpt lat="13.6138516" lon="100.3811575">
<ele>4.542</ele>
<time>2018-04-02T12:24:50.066Z</time>
</trkpt>
<trkpt lat="13.6139179" lon="100.3812281">
<ele>5.278</ele>
<time>2018-04-02T12:24:51.767Z</time>
</trkpt>
<trkpt lat="13.6140525" lon="100.3813567">
<ele>5.452</ele>
<time>2018-04-02T12:24:55.164Z</time>
</trkpt>
<trkpt lat="13.6141667" lon="100.3814726">
<ele>5.538</ele>
<time>2018-04-02T12:24:58.075Z</time>
</trkpt>
<trkpt lat="13.6142365" lon="100.3815470">
<ele>6.229</ele>
<time>2018-04-02T12:24:59.995Z</time>
</trkpt>
<trkpt lat="13.6142365" lon="100.3815470">
<ele>7.561</ele>
<time>2018-04-02T12:25:04.995Z</time>
</trkpt>
<trkpt lat="13.6142365" lon="100.3815470">
<ele>8.517</ele>
<time>2018-04-02T12:25:05.095Z</time>
</trkpt>
<trkpt lat="13.6143846" lon="100.3817470">
<ele>8.480</ele>
<time>2018-04-02T12:25:14.287Z</time>
</trkpt>
<trkpt lat="13.6144848" lon="100.3818683">
<ele>7.974</ele>
<time>2018-04-02T12:25:18.609Z</time>
</trkpt>
<trkpt lat="13.6145446" lon="100.3819413">
<ele>7.508</ele>
<time>2018-04-02T12:25:21.255Z</time>
</trkpt>
<trkpt lat="13.6146267" lon="100.3820289">
<ele>7.023</ele>
<time>2018-04-02T12:25:24.631Z</time>
</trkpt>
<trkpt lat="13.6146995" lon="100.3820960">
<ele>6.439</ele>
<time>2018-04-02T12:25:27.264Z</time>
</trkpt>
<trkpt lat="13.6147716" lon="100.3821577">
<ele>5.900</ele>
<time>2018-04-02T12:25:29.782Z</time>
</trkpt>
<trkpt lat="13.6148585" lon="100.3822302">
<ele>6.051</ele>
<time>2018-04-02T12:25:32.729Z</time>
</trkpt>
<trkpt lat="13.6149456" lon="100.3823102">
<ele>7.181</ele>
<time>2018-04-02T12:25:35.479Z</time>
</trkpt>
<trkpt lat="13.6150423" lon="100.3824112">
<ele>8.461</ele>
<time>2018-04-02T12:25:38.145Z</time>
</trkpt>
<trkpt lat="13.6151681" lon="100.3825324">
<ele>9.148</ele>
<time>2018-04-02T12:25:40.890Z</time>
</trkpt>
<trkpt lat="13.6153307" lon="100.3826874">
<ele>9.381</ele>
<time>2018-04-02T12:25:44.090Z</time>
</trkpt>
<trkpt lat="13.6154840" lon="100.3828262">
<ele>9.420</ele>
<time>2018-04-02T12:25:47.164Z</time>
</trkpt>
<trkpt lat="13.6156380" lon="100.3829811">
<ele>9.539</ele>
<time>2018-04-02T12:25:50.652Z</time>
</trkpt>
<trkpt lat="13.6157501" lon="100.3830959">
<ele>9.925</ele>
<time>2018-04-02T12:25:53.205Z</time>
</trkpt>
<trkpt lat="13.6159176" lon="100.3832614">
<ele>10.409</ele>
<time>2018-04-02T12:25:57.169Z</time>
</trkpt>
<trkpt lat="13.6160338" lon="100.3833837">
<ele>10.709</ele>
<time>2018-04-02T12:26:00.344Z</time>
</trkpt>
<trkpt lat="13.6161453" lon="100.3834894">
<ele>10.712</ele>
<time>2018-04-02T12:26:03.170Z</time>
</trkpt>
<trkpt lat="13.6162692" lon="100.3836125">
<ele>10.456</ele>
<time>2018-04-02T12:26:06.408Z</time>
</trkpt>
<trkpt lat="13.6164196" lon="100.3837534">
<ele>9.797</ele>
<time>2018-04-02T12:26:11.350Z</time>
</trkpt>
<trkpt lat="13.6165188" lon="100.3838419">
<ele>8.704</ele>
<time>2018-04-02T12:26:15.052Z</time>
</trkpt>
<trkpt lat="13.6166351" lon="100.3839225">
<ele>7.855</ele>
<time>2018-04-02T12:26:19.098Z</time>
</trkpt>
<trkpt lat="13.6167287" lon="100.3840267">
<ele>7.787</ele>
<time>2018-04-02T12:26:21.989Z</time>
</trkpt>
<trkpt lat="13.6168118" lon="100.3841064">
<ele>7.760</ele>
<time>2018-04-02T12:26:24.053Z</time>
</trkpt>
<trkpt lat="13.6170052" lon="100.3842702">
<ele>7.096</ele>
<time>2018-04-02T12:26:28.789Z</time>
</trkpt>
<trkpt lat="13.6170563" lon="100.3843736">
<ele>6.591</ele>
<time>2018-04-02T12:26:31.117Z</time>
</trkpt>
<trkpt lat="13.6171851" lon="100.3844988">
<ele>7.570</ele>
<time>2018-04-02T12:26:34.859Z</time>
</trkpt>
<trkpt lat="13.6172925" lon="100.3845973">
<ele>9.779</ele>
<time>2018-04-02T12:26:37.840Z</time>
</trkpt>
<trkpt lat="13.6173981" lon="100.3846990">
<ele>11.141</ele>
<time>2018-04-02T12:26:40.436Z</time>
</trkpt>
<trkpt lat="13.6175177" lon="100.3847942">
<ele>10.450</ele>
<time>2018-04-02T12:26:42.985Z</time>
</trkpt>
<trkpt lat="13.6176446" lon="100.3849192">
<ele>8.786</ele>
<time>2018-04-02T12:26:46.106Z</time>
</trkpt>
<trkpt lat="13.6177816" lon="100.3850523">
<ele>7.354</ele>
<time>2018-04-02T12:26:49.900Z</time>
</trkpt>
<trkpt lat="13.6178929" lon="100.3851622">
<ele>6.204</ele>
<time>2018-04-02T12:26:53.227Z</time>
</trkpt>
<trkpt lat="13.6179767" lon="100.3852437">
<ele>4.937</ele>
<time>2018-04-02T12:26:55.556Z</time>
</trkpt>
<trkpt lat="13.6181039" lon="100.3853800">
<ele>3.522</ele>
<time>2018-04-02T12:26:59.001Z</time>
</trkpt>
<trkpt lat="13.6182259" lon="100.3854931">
<ele>2.435</ele>
<time>2018-04-02T12:27:01.702Z</time>
</trkpt>
<trkpt lat="13.6183668" lon="100.3856333">
<ele>1.920</ele>
<time>2018-04-02T12:27:04.499Z</time>
</trkpt>
<trkpt lat="13.6185237" lon="100.3857836">
<ele>1.575</ele>
<time>2018-04-02T12:27:07.393Z</time>
</trkpt>
<trkpt lat="13.6186904" lon="100.3859513">
<ele>1.067</ele>
<time>2018-04-02T12:27:10.679Z</time>
</trkpt>
<trkpt lat="13.6188540" lon="100.3861172">
<ele>0.827</ele>
<time>2018-04-02T12:27:15.081Z</time>
</trkpt>
<trkpt lat="13.6189976" lon="100.3862456">
<ele>1.535</ele>
<time>2018-04-02T12:27:18.503Z</time>
</trkpt>
<trkpt lat="13.6190974" lon="100.3863452">
<ele>2.888</ele>
<time>2018-04-02T12:27:20.903Z</time>
</trkpt>
<trkpt lat="13.6192249" lon="100.3865052">
<ele>3.972</ele>
<time>2018-04-02T12:27:24.590Z</time>
</trkpt>
<trkpt lat="13.6193549" lon="100.3865999">
<ele>4.475</ele>
<time>2018-04-02T12:27:27.384Z</time>
</trkpt>
<trkpt lat="13.6195168" lon="100.3867722">
<ele>4.915</ele>
<time>2018-04-02T12:27:31.129Z</time>
</trkpt>
<trkpt lat="13.6196500" lon="100.3869114">
<ele>5.647</ele>
<time>2018-04-02T12:27:33.619Z</time>
</trkpt>
<trkpt lat="13.6197461" lon="100.3870087">
<ele>6.564</ele>
<time>2018-04-02T12:27:35.272Z</time>
</trkpt>
<trkpt lat="13.6199846" lon="100.3872594">
<ele>7.550</ele>
<time>2018-04-02T12:27:39.560Z</time>
</trkpt>
<trkpt lat="13.6201901" lon="100.3874511">
<ele>8.321</ele>
<time>2018-04-02T12:27:43.278Z</time>
</trkpt>
<trkpt lat="13.6203611" lon="100.3876127">
<ele>8.636</ele>
<time>2018-04-02T12:27:46.231Z</time>
</trkpt>
<trkpt lat="13.6205221" lon="100.3877839">
<ele>8.801</ele>
<time>2018-04-02T12:27:48.823Z</time>
</trkpt>
<trkpt lat="13.6206616" lon="100.3879341">
<ele>9.699</ele>
<time>2018-04-02T12:27:50.945Z</time>
</trkpt>
<trkpt lat="13.6208579" lon="100.3881404">
<ele>11.604</ele>
<time>2018-04-02T12:27:53.802Z</time>
</trkpt>
<trkpt lat="13.6210549" lon="100.3883336">
<ele>13.447</ele>
<time>2018-04-02T12:27:56.423Z</time>
</trkpt>
<trkpt lat="13.6211982" lon="100.3884851">
<ele>13.878</ele>
<time>2018-04-02T12:27:58.293Z</time>
</trkpt>
<trkpt lat="13.6213450" lon="100.3886333">
<ele>12.923</ele>
<time>2018-04-02T12:28:00.092Z</time>
</trkpt>
<trkpt lat="13.6214923" lon="100.3887978">
<ele>11.760</ele>
<time>2018-04-02T12:28:01.874Z</time>
</trkpt>
<trkpt lat="13.6216416" lon="100.3889416">
<ele>11.443</ele>
<time>2018-04-02T12:28:03.444Z</time>
</trkpt>
<trkpt lat="13.6218186" lon="100.3891120">
<ele>12.058</ele>
<time>2018-04-02T12:28:05.306Z</time>
</trkpt>
<trkpt lat="13.6220361" lon="100.3893251">
<ele>12.997</ele>
<time>2018-04-02T12:28:07.759Z</time>
</trkpt>
<trkpt lat="13.6222355" lon="100.3895223">
<ele>13.534</ele>
<time>2018-04-02T12:28:10.248Z</time>
</trkpt>
<trkpt lat="13.6223943" lon="100.3896799">
<ele>13.411</ele>
<time>2018-04-02T12:28:12.251Z</time>
</trkpt>
<trkpt lat="13.6225471" lon="100.3898263">
<ele>12.604</ele>
<time>2018-04-02T12:28:14.037Z</time>
</trkpt>
<trkpt lat="13.6226922" lon="100.3899562">
<ele>11.330</ele>
<time>2018-04-02T12:28:15.564Z</time>
</trkpt>
<trkpt lat="13.6228562" lon="100.3901291">
<ele>10.116</ele>
<time>2018-04-02T12:28:17.362Z</time>
</trkpt>
<trkpt lat="13.6230397" lon="100.3903054">
<ele>9.181</ele>
<time>2018-04-02T12:28:19.327Z</time>
</trkpt>
<trkpt lat="13.6232334" lon="100.3904919">
<ele>8.203</ele>
<time>2018-04-02T12:28:21.525Z</time>
</trkpt>
<trkpt lat="13.6234220" lon="100.3906778">
<ele>7.063</ele>
<time>2018-04-02T12:28:23.718Z</time>
</trkpt>
<trkpt lat="13.6235815" lon="100.3908330">
<ele>6.318</ele>
<time>2018-04-02T12:28:25.557Z</time>
</trkpt>
<trkpt lat="13.6237593" lon="100.3910071">
<ele>6.336</ele>
<time>2018-04-02T12:28:27.614Z</time>
</trkpt>
<trkpt lat="13.6239258" lon="100.3911631">
<ele>6.371</ele>
<time>2018-04-02T12:28:29.502Z</time>
</trkpt>
<trkpt lat="13.6240545" lon="100.3912804">
<ele>5.784</ele>
<time>2018-04-02T12:28:30.942Z</time>
</trkpt>
<trkpt lat="13.6241698" lon="100.3913895">
<ele>5.137</ele>
<time>2018-04-02T12:28:32.746Z</time>
</trkpt>
<trkpt lat="13.6242530" lon="100.3914809">
<ele>5.198</ele>
<time>2018-04-02T12:28:34.229Z</time>
</trkpt>
<trkpt lat="13.6244426" lon="100.3916468">
<ele>5.992</ele>
<time>2018-04-02T12:28:38.025Z</time>
</trkpt>
<trkpt lat="13.6246074" lon="100.3918104">
<ele>7.046</ele>
<time>2018-04-02T12:28:40.936Z</time>
</trkpt>
<trkpt lat="13.6248039" lon="100.3920168">
<ele>7.556</ele>
<time>2018-04-02T12:28:44.155Z</time>
</trkpt>
<trkpt lat="13.6250171" lon="100.3922332">
<ele>6.961</ele>
<time>2018-04-02T12:28:47.236Z</time>
</trkpt>
<trkpt lat="13.6252735" lon="100.3924894">
<ele>5.694</ele>
<time>2018-04-02T12:28:50.516Z</time>
</trkpt>
<trkpt lat="13.6255456" lon="100.3927554">
<ele>5.317</ele>
<time>2018-04-02T12:28:53.868Z</time>
</trkpt>
<trkpt lat="13.6257513" lon="100.3929548">
<ele>7.264</ele>
<time>2018-04-02T12:28:56.751Z</time>
</trkpt>
<trkpt lat="13.6259462" lon="100.3931393">
<ele>10.967</ele>
<time>2018-04-02T12:29:00.007Z</time>
</trkpt>
<trkpt lat="13.6260790" lon="100.3932697">
<ele>14.291</ele>
<time>2018-04-02T12:29:03.043Z</time>
</trkpt>
<trkpt lat="13.6261483" lon="100.3933465">
<ele>15.884</ele>
<time>2018-04-02T12:29:04.962Z</time>
</trkpt>
<trkpt lat="13.6262660" lon="100.3934632">
<ele>15.751</ele>
<time>2018-04-02T12:29:08.040Z</time>
</trkpt>
<trkpt lat="13.6264574" lon="100.3936653">
<ele>14.212</ele>
<time>2018-04-02T12:29:13.142Z</time>
</trkpt>
<trkpt lat="13.6266512" lon="100.3938582">
<ele>12.014</ele>
<time>2018-04-02T12:29:16.651Z</time>
</trkpt>
<trkpt lat="13.6268572" lon="100.3940611">
<ele>10.356</ele>
<time>2018-04-02T12:29:19.822Z</time>
</trkpt>
<trkpt lat="13.6270941" lon="100.3942955">
<ele>9.948</ele>
<time>2018-04-02T12:29:23.111Z</time>
</trkpt>
<trkpt lat="13.6273237" lon="100.3945005">
<ele>10.667</ele>
<time>2018-04-02T12:29:25.982Z</time>
</trkpt>
<trkpt lat="13.6275246" lon="100.3946984">
<ele>11.841</ele>
<time>2018-04-02T12:29:28.711Z</time>
</trkpt>
<trkpt lat="13.6276887" lon="100.3948561">
<ele>12.687</ele>
<time>2018-04-02T12:29:31.104Z</time>
</trkpt>
<trkpt lat="13.6278586" lon="100.3950197">
<ele>12.938</ele>
<time>2018-04-02T12:29:33.812Z</time>
</trkpt>
<trkpt lat="13.6280792" lon="100.3952338">
<ele>12.784</ele>
<time>2018-04-02T12:29:37.489Z</time>
</trkpt>
<trkpt lat="13.6283020" lon="100.3954507">
<ele>12.534</ele>
<time>2018-04-02T12:29:40.842Z</time>
</trkpt>
<trkpt lat="13.6285558" lon="100.3956811">
<ele>12.340</ele>
<time>2018-04-02T12:29:44.104Z</time>
</trkpt>
<trkpt lat="13.6287586" lon="100.3958677">
<ele>12.186</ele>
<time>2018-04-02T12:29:46.707Z</time>
</trkpt>
<trkpt lat="13.6289077" lon="100.3960157">
<ele>11.605</ele>
<time>2018-04-02T12:29:48.867Z</time>
</trkpt>
<trkpt lat="13.6290432" lon="100.3961382">
<ele>10.194</ele>
<time>2018-04-02T12:29:50.985Z</time>
</trkpt>
<trkpt lat="13.6291245" lon="100.3962070">
<ele>8.572</ele>
<time>2018-04-02T12:29:52.536Z</time>
</trkpt>
<trkpt lat="13.6291921" lon="100.3962747">
<ele>7.621</ele>
<time>2018-04-02T12:29:53.927Z</time>
</trkpt>
<trkpt lat="13.6292996" lon="100.3963823">
<ele>7.366</ele>
<time>2018-04-02T12:29:56.888Z</time>
</trkpt>
<trkpt lat="13.6294566" lon="100.3965469">
<ele>7.442</ele>
<time>2018-04-02T12:30:04.084Z</time>
</trkpt>
<trkpt lat="13.6296634" lon="100.3967443">
<ele>7.314</ele>
<time>2018-04-02T12:30:08.537Z</time>
</trkpt>
<trkpt lat="13.6298251" lon="100.3969057">
<ele>6.658</ele>
<time>2018-04-02T12:30:11.393Z</time>
</trkpt>
<trkpt lat="13.6300238" lon="100.3970957">
<ele>5.830</ele>
<time>2018-04-02T12:30:14.652Z</time>
</trkpt>
<trkpt lat="13.6302261" lon="100.3973071">
<ele>5.333</ele>
<time>2018-04-02T12:30:17.893Z</time>
</trkpt>
<trkpt lat="13.6304443" lon="100.3975232">
<ele>5.184</ele>
<time>2018-04-02T12:30:21.114Z</time>
</trkpt>
<trkpt lat="13.6306869" lon="100.3977511">
<ele>4.937</ele>
<time>2018-04-02T12:30:25.236Z</time>
</trkpt>
<trkpt lat="13.6307557" lon="100.3978379">
<ele>4.145</ele>
<time>2018-04-02T12:30:26.928Z</time>
</trkpt>
<trkpt lat="13.6309661" lon="100.3980362">
<ele>3.088</ele>
<time>2018-04-02T12:30:31.227Z</time>
</trkpt>
<trkpt lat="13.6308974" lon="100.3979668">
<ele>2.401</ele>
<time>2018-04-02T12:30:33.080Z</time>
</trkpt>
<trkpt lat="13.6309745" lon="100.3980314">
<ele>2.302</ele>
<time>2018-04-02T12:30:36.417Z</time>
</trkpt>
<trkpt lat="13.6310420" lon="100.3981078">
<ele>2.917</ele>
<time>2018-04-02T12:30:42.712Z</time>
</trkpt>
<trkpt lat="13.6311115" lon="100.3982079">
<ele>4.097</ele>
<time>2018-04-02T12:30:48.268Z</time>
</trkpt>
<trkpt lat="13.6311702" lon="100.3982839">
<ele>4.978</ele>
<time>2018-04-02T12:30:51.671Z</time>
</trkpt>
<trkpt lat="13.6312673" lon="100.3983604">
<ele>4.898</ele>
<time>2018-04-02T12:30:55.175Z</time>
</trkpt>
<trkpt lat="13.6314054" lon="100.3984996">
<ele>4.102</ele>
<time>2018-04-02T12:30:58.674Z</time>
</trkpt>
<trkpt lat="13.6315511" lon="100.3986494">
<ele>2.718</ele>
<time>2018-04-02T12:31:01.735Z</time>
</trkpt>
<trkpt lat="13.6317014" lon="100.3988005">
<ele>0.745</ele>
<time>2018-04-02T12:31:04.820Z</time>
</trkpt>
<trkpt lat="13.6318487" lon="100.3989561">
<ele>0.000</ele>
<time>2018-04-02T12:31:07.930Z</time>
</trkpt>
<trkpt lat="13.6320103" lon="100.3991178">
<ele>0.000</ele>
<time>2018-04-02T12:31:11.089Z</time>
</trkpt>
<trkpt lat="13.6321883" lon="100.3992948">
<ele>0.000</ele>
<time>2018-04-02T12:31:14.374Z</time>
</trkpt>
<trkpt lat="13.6323422" lon="100.3994683">
<ele>1.618</ele>
<time>2018-04-02T12:31:17.569Z</time>
</trkpt>
<trkpt lat="13.6324697" lon="100.3995988">
<ele>4.566</ele>
<time>2018-04-02T12:31:20.377Z</time>
</trkpt>
<trkpt lat="13.6325975" lon="100.3997242">
<ele>7.978</ele>
<time>2018-04-02T12:31:23.280Z</time>
</trkpt>
<trkpt lat="13.6327189" lon="100.3998419">
<ele>10.508</ele>
<time>2018-04-02T12:31:25.915Z</time>
</trkpt>
<trkpt lat="13.6328848" lon="100.3999919">
<ele>10.846</ele>
<time>2018-04-02T12:31:28.985Z</time>
</trkpt>
<trkpt lat="13.6330718" lon="100.4001881">
<ele>9.342</ele>
<time>2018-04-02T12:31:32.241Z</time>
</trkpt>
<trkpt lat="13.6332425" lon="100.4003810">
<ele>7.983</ele>
<time>2018-04-02T12:31:35.172Z</time>
</trkpt>
<trkpt lat="13.6334259" lon="100.4005592">
<ele>8.156</ele>
<time>2018-04-02T12:31:38.036Z</time>
</trkpt>
<trkpt lat="13.6336242" lon="100.4007531">
<ele>9.083</ele>
<time>2018-04-02T12:31:41.084Z</time>
</trkpt>
<trkpt lat="13.6338335" lon="100.4009540">
<ele>9.721</ele>
<time>2018-04-02T12:31:44.188Z</time>
</trkpt>
<trkpt lat="13.6340366" lon="100.4011467">
<ele>9.971</ele>
<time>2018-04-02T12:31:47.289Z</time>
</trkpt>
<trkpt lat="13.6341942" lon="100.4013008">
<ele>10.049</ele>
<time>2018-04-02T12:31:50.030Z</time>
</trkpt>
<trkpt lat="13.6343493" lon="100.4014491">
<ele>10.076</ele>
<time>2018-04-02T12:31:52.942Z</time>
</trkpt>
<trkpt lat="13.6345307" lon="100.4016201">
<ele>10.250</ele>
<time>2018-04-02T12:31:56.111Z</time>
</trkpt>
<trkpt lat="13.6347421" lon="100.4018218">
<ele>10.698</ele>
<time>2018-04-02T12:31:59.356Z</time>
</trkpt>
<trkpt lat="13.6349392" lon="100.4020211">
<ele>10.891</ele>
<time>2018-04-02T12:32:02.247Z</time>
</trkpt>
<trkpt lat="13.6351466" lon="100.4022255">
<ele>9.876</ele>
<time>2018-04-02T12:32:05.119Z</time>
</trkpt>
<trkpt lat="13.6353863" lon="100.4024624">
<ele>7.383</ele>
<time>2018-04-02T12:32:08.251Z</time>
</trkpt>
<trkpt lat="13.6356433" lon="100.4027110">
<ele>4.250</ele>
<time>2018-04-02T12:32:11.475Z</time>
</trkpt>
<trkpt lat="13.6358630" lon="100.4029286">
<ele>1.743</ele>
<time>2018-04-02T12:32:14.423Z</time>
</trkpt>
<trkpt lat="13.6360460" lon="100.4031099">
<ele>0.591</ele>
<time>2018-04-02T12:32:17.096Z</time>
</trkpt>
<trkpt lat="13.6362664" lon="100.4033293">
<ele>0.598</ele>
<time>2018-04-02T12:32:20.382Z</time>
</trkpt>
<trkpt lat="13.6364828" lon="100.4035445">
<ele>1.031</ele>
<time>2018-04-02T12:32:23.538Z</time>
</trkpt>
<trkpt lat="13.6366778" lon="100.4037281">
<ele>1.409</ele>
<time>2018-04-02T12:32:26.414Z</time>
</trkpt>
<trkpt lat="13.6368775" lon="100.4039273">
<ele>1.655</ele>
<time>2018-04-02T12:32:29.572Z</time>
</trkpt>
<trkpt lat="13.6370683" lon="100.4041134">
<ele>1.903</ele>
<time>2018-04-02T12:32:32.570Z</time>
</trkpt>
<trkpt lat="13.6372662" lon="100.4043029">
<ele>2.366</ele>
<time>2018-04-02T12:32:35.545Z</time>
</trkpt>
<trkpt lat="13.6374832" lon="100.4045152">
<ele>3.141</ele>
<time>2018-04-02T12:32:38.661Z</time>
</trkpt>
<trkpt lat="13.6377152" lon="100.4047428">
<ele>4.090</ele>
<time>2018-04-02T12:32:41.793Z</time>
</trkpt>
<trkpt lat="13.6379625" lon="100.4049818">
<ele>5.050</ele>
<time>2018-04-02T12:32:45.007Z</time>
</trkpt>
<trkpt lat="13.6381780" lon="100.4052032">
<ele>5.889</ele>
<time>2018-04-02T12:32:47.799Z</time>
</trkpt>
<trkpt lat="13.6384645" lon="100.4055062">
<ele>6.444</ele>
<time>2018-04-02T12:32:51.263Z</time>
</trkpt>
<trkpt lat="13.6387160" lon="100.4057901">
<ele>6.649</ele>
<time>2018-04-02T12:32:54.181Z</time>
</trkpt>
<trkpt lat="13.6389706" lon="100.4060880">
<ele>6.651</ele>
<time>2018-04-02T12:32:57.007Z</time>
</trkpt>
<trkpt lat="13.6392480" lon="100.4064137">
<ele>6.721</ele>
<time>2018-04-02T12:32:59.834Z</time>
</trkpt>
<trkpt lat="13.6395743" lon="100.4067901">
<ele>7.261</ele>
<time>2018-04-02T12:33:02.872Z</time>
</trkpt>
<trkpt lat="13.6398816" lon="100.4071980">
<ele>8.741</ele>
<time>2018-04-02T12:33:05.819Z</time>
</trkpt>
<trkpt lat="13.6402360" lon="100.4076408">
<ele>10.860</ele>
<time>2018-04-02T12:33:08.944Z</time>
</trkpt>
<trkpt lat="13.6405719" lon="100.4080488">
<ele>12.185</ele>
<time>2018-04-02T12:33:11.742Z</time>
</trkpt>
<trkpt lat="13.6409460" lon="100.4085202">
<ele>11.612</ele>
<time>2018-04-02T12:33:14.867Z</time>
</trkpt>
<trkpt lat="13.6412815" lon="100.4089869">
<ele>9.744</ele>
<time>2018-04-02T12:33:17.843Z</time>
</trkpt>
<trkpt lat="13.6416269" lon="100.4094286">
<ele>8.088</ele>
<time>2018-04-02T12:33:20.735Z</time>
</trkpt>
<trkpt lat="13.6419872" lon="100.4098787">
<ele>8.171</ele>
<time>2018-04-02T12:33:23.649Z</time>
</trkpt>
<trkpt lat="13.6423447" lon="100.4104223">
<ele>10.204</ele>
<time>2018-04-02T12:33:26.835Z</time>
</trkpt>
<trkpt lat="13.6427226" lon="100.4108925">
<ele>13.013</ele>
<time>2018-04-02T12:33:29.692Z</time>
</trkpt>
<trkpt lat="13.6431375" lon="100.4114605">
<ele>15.440</ele>
<time>2018-04-02T12:33:32.870Z</time>
</trkpt>
<trkpt lat="13.6435581" lon="100.4120210">
<ele>16.864</ele>
<time>2018-04-02T12:33:35.907Z</time>
</trkpt>
<trkpt lat="13.6439749" lon="100.4125913">
<ele>16.856</ele>
<time>2018-04-02T12:33:38.887Z</time>
</trkpt>
<trkpt lat="13.6443998" lon="100.4132308">
<ele>15.712</ele>
<time>2018-04-02T12:33:42.073Z</time>
</trkpt>
<trkpt lat="13.6448239" lon="100.4137983">
<ele>14.243</ele>
<time>2018-04-02T12:33:45.032Z</time>
</trkpt>
<trkpt lat="13.6452255" lon="100.4143530">
<ele>13.208</ele>
<time>2018-04-02T12:33:47.931Z</time>
</trkpt>
<trkpt lat="13.6456447" lon="100.4148952">
<ele>12.782</ele>
<time>2018-04-02T12:33:50.860Z</time>
</trkpt>
<trkpt lat="13.6460641" lon="100.4154270">
<ele>12.757</ele>
<time>2018-04-02T12:33:53.860Z</time>
</trkpt>
<trkpt lat="13.6464162" lon="100.4158788">
<ele>12.328</ele>
<time>2018-04-02T12:33:56.525Z</time>
</trkpt>
<trkpt lat="13.6467818" lon="100.4164009">
<ele>10.977</ele>
<time>2018-04-02T12:33:59.539Z</time>
</trkpt>
<trkpt lat="13.6471580" lon="100.4169167">
<ele>9.456</ele>
<time>2018-04-02T12:34:02.623Z</time>
</trkpt>
<trkpt lat="13.6474845" lon="100.4173479">
<ele>8.473</ele>
<time>2018-04-02T12:34:05.423Z</time>
</trkpt>
<trkpt lat="13.6477815" lon="100.4177773">
<ele>7.847</ele>
<time>2018-04-02T12:34:08.357Z</time>
</trkpt>
<trkpt lat="13.6480801" lon="100.4181507">
<ele>8.015</ele>
<time>2018-04-02T12:34:11.213Z</time>
</trkpt>
<trkpt lat="13.6483821" lon="100.4185590">
<ele>9.303</ele>
<time>2018-04-02T12:34:14.332Z</time>
</trkpt>
<trkpt lat="13.6486702" lon="100.4189341">
<ele>10.698</ele>
<time>2018-04-02T12:34:17.331Z</time>
</trkpt>
<trkpt lat="13.6489320" lon="100.4192485">
<ele>10.965</ele>
<time>2018-04-02T12:34:20.016Z</time>
</trkpt>
<trkpt lat="13.6491987" lon="100.4196215">
<ele>10.137</ele>
<time>2018-04-02T12:34:23.021Z</time>
</trkpt>
<trkpt lat="13.6494730" lon="100.4199996">
<ele>9.189</ele>
<time>2018-04-02T12:34:26.018Z</time>
</trkpt>
<trkpt lat="13.6497280" lon="100.4203661">
<ele>8.902</ele>
<time>2018-04-02T12:34:28.911Z</time>
</trkpt>
<trkpt lat="13.6499937" lon="100.4207262">
<ele>9.225</ele>
<time>2018-04-02T12:34:31.865Z</time>
</trkpt>
<trkpt lat="13.6502701" lon="100.4210764">
<ele>9.830</ele>
<time>2018-04-02T12:34:34.791Z</time>
</trkpt>
<trkpt lat="13.6505748" lon="100.4214793">
<ele>10.445</ele>
<time>2018-04-02T12:34:38.000Z</time>
</trkpt>
<trkpt lat="13.6508565" lon="100.4218841">
<ele>10.878</ele>
<time>2018-04-02T12:34:41.030Z</time>
</trkpt>
<trkpt lat="13.6511666" lon="100.4223369">
<ele>11.060</ele>
<time>2018-04-02T12:34:44.281Z</time>
</trkpt>
<trkpt lat="13.6514624" lon="100.4227602">
<ele>11.254</ele>
<time>2018-04-02T12:34:47.271Z</time>
</trkpt>
<trkpt lat="13.6517816" lon="100.4231760">
<ele>11.685</ele>
<time>2018-04-02T12:34:50.252Z</time>
</trkpt>
<trkpt lat="13.6521351" lon="100.4236804">
<ele>12.135</ele>
<time>2018-04-02T12:34:53.581Z</time>
</trkpt>
<trkpt lat="13.6524381" lon="100.4241884">
<ele>12.342</ele>
<time>2018-04-02T12:34:56.622Z</time>
</trkpt>
<trkpt lat="13.6528090" lon="100.4246235">
<ele>12.194</ele>
<time>2018-04-02T12:34:59.533Z</time>
</trkpt>
<trkpt lat="13.6531121" lon="100.4250292">
<ele>11.719</ele>
<time>2018-04-02T12:35:02.135Z</time>
</trkpt>
<trkpt lat="13.6533610" lon="100.4253676">
<ele>11.884</ele>
<time>2018-04-02T12:35:04.316Z</time>
</trkpt>
<trkpt lat="13.6536022" lon="100.4256859">
<ele>13.327</ele>
<time>2018-04-02T12:35:06.408Z</time>
</trkpt>
<trkpt lat="13.6538107" lon="100.4259587">
<ele>15.140</ele>
<time>2018-04-02T12:35:08.229Z</time>
</trkpt>
<trkpt lat="13.6540410" lon="100.4262454">
<ele>16.120</ele>
<time>2018-04-02T12:35:10.155Z</time>
</trkpt>
<trkpt lat="13.6542996" lon="100.4265637">
<ele>16.317</ele>
<time>2018-04-02T12:35:12.236Z</time>
</trkpt>
<trkpt lat="13.6545477" lon="100.4268326">
<ele>16.435</ele>
<time>2018-04-02T12:35:14.050Z</time>
</trkpt>
<trkpt lat="13.6547920" lon="100.4271750">
<ele>17.401</ele>
<time>2018-04-02T12:35:16.085Z</time>
</trkpt>
<trkpt lat="13.6550604" lon="100.4275239">
<ele>19.448</ele>
<time>2018-04-02T12:35:18.157Z</time>
</trkpt>
<trkpt lat="13.6553276" lon="100.4278970">
<ele>21.584</ele>
<time>2018-04-02T12:35:20.247Z</time>
</trkpt>
<trkpt lat="13.6556114" lon="100.4282297">
<ele>22.803</ele>
<time>2018-04-02T12:35:22.198Z</time>
</trkpt>
<trkpt lat="13.6558835" lon="100.4285891">
<ele>23.223</ele>
<time>2018-04-02T12:35:24.193Z</time>
</trkpt>
<trkpt lat="13.6561422" lon="100.4289712">
<ele>23.234</ele>
<time>2018-04-02T12:35:26.219Z</time>
</trkpt>
<trkpt lat="13.6564185" lon="100.4293745">
<ele>23.205</ele>
<time>2018-04-02T12:35:28.340Z</time>
</trkpt>
<trkpt lat="13.6566796" lon="100.4297289">
<ele>23.677</ele>
<time>2018-04-02T12:35:30.252Z</time>
</trkpt>
<trkpt lat="13.6569438" lon="100.4301060">
<ele>24.767</ele>
<time>2018-04-02T12:35:32.249Z</time>
</trkpt>
<trkpt lat="13.6572061" lon="100.4305357">
<ele>25.818</ele>
<time>2018-04-02T12:35:34.429Z</time>
</trkpt>
<trkpt lat="13.6574331" lon="100.4308804">
<ele>26.211</ele>
<time>2018-04-02T12:35:36.243Z</time>
</trkpt>
<trkpt lat="13.6576814" lon="100.4312556">
<ele>26.048</ele>
<time>2018-04-02T12:35:38.248Z</time>
</trkpt>
<trkpt lat="13.6579116" lon="100.4316453">
<ele>25.767</ele>
<time>2018-04-02T12:35:40.275Z</time>
</trkpt>
<trkpt lat="13.6582611" lon="100.4323055">
<ele>25.671</ele>
<time>2018-04-02T12:35:43.612Z</time>
</trkpt>
<trkpt lat="13.6586123" lon="100.4328418">
<ele>25.119</ele>
<time>2018-04-02T12:35:46.474Z</time>
</trkpt>
<trkpt lat="13.6589405" lon="100.4334828">
<ele>23.325</ele>
<time>2018-04-02T12:35:49.696Z</time>
</trkpt>
<trkpt lat="13.6592857" lon="100.4340321">
<ele>20.955</ele>
<time>2018-04-02T12:35:52.687Z</time>
</trkpt>
<trkpt lat="13.6595956" lon="100.4345697">
<ele>18.633</ele>
<time>2018-04-02T12:35:55.671Z</time>
</trkpt>
<trkpt lat="13.6599062" lon="100.4350850">
<ele>15.987</ele>
<time>2018-04-02T12:35:58.600Z</time>
</trkpt>
<trkpt lat="13.6602466" lon="100.4357088">
<ele>13.489</ele>
<time>2018-04-02T12:36:01.926Z</time>
</trkpt>
<trkpt lat="13.6606000" lon="100.4363003">
<ele>12.282</ele>
<time>2018-04-02T12:36:05.110Z</time>
</trkpt>
<trkpt lat="13.6609209" lon="100.4368049">
<ele>12.413</ele>
<time>2018-04-02T12:36:07.948Z</time>
</trkpt>
<trkpt lat="13.6612228" lon="100.4373554">
<ele>13.120</ele>
<time>2018-04-02T12:36:10.985Z</time>
</trkpt>
<trkpt lat="13.6615763" lon="100.4378296">
<ele>13.770</ele>
<time>2018-04-02T12:36:13.904Z</time>
</trkpt>
<trkpt lat="13.6618628" lon="100.4383154">
<ele>13.674</ele>
<time>2018-04-02T12:36:16.694Z</time>
</trkpt>
<trkpt lat="13.6621722" lon="100.4388691">
<ele>12.561</ele>
<time>2018-04-02T12:36:19.796Z</time>
</trkpt>
<trkpt lat="13.6624927" lon="100.4394074">
<ele>11.402</ele>
<time>2018-04-02T12:36:22.830Z</time>
</trkpt>
<trkpt lat="13.6627842" lon="100.4399224">
<ele>11.057</ele>
<time>2018-04-02T12:36:25.644Z</time>
</trkpt>
<trkpt lat="13.6631367" lon="100.4405425">
<ele>11.253</ele>
<time>2018-04-02T12:36:28.986Z</time>
</trkpt>
<trkpt lat="13.6634624" lon="100.4410253">
<ele>11.522</ele>
<time>2018-04-02T12:36:31.718Z</time>
</trkpt>
<trkpt lat="13.6638165" lon="100.4416557">
<ele>11.377</ele>
<time>2018-04-02T12:36:35.070Z</time>
</trkpt>
<trkpt lat="13.6641401" lon="100.4422032">
<ele>10.634</ele>
<time>2018-04-02T12:36:38.034Z</time>
</trkpt>
<trkpt lat="13.6644520" lon="100.4427491">
<ele>9.861</ele>
<time>2018-04-02T12:36:40.990Z</time>
</trkpt>
<trkpt lat="13.6647814" lon="100.4432602">
<ele>9.575</ele>
<time>2018-04-02T12:36:43.876Z</time>
</trkpt>
<trkpt lat="13.6650931" lon="100.4437555">
<ele>9.244</ele>
<time>2018-04-02T12:36:46.719Z</time>
</trkpt>
<trkpt lat="13.6654263" lon="100.4442185">
<ele>8.366</ele>
<time>2018-04-02T12:36:49.543Z</time>
</trkpt>
<trkpt lat="13.6657630" lon="100.4447168">
<ele>7.418</ele>
<time>2018-04-02T12:36:52.509Z</time>
</trkpt>
<trkpt lat="13.6660792" lon="100.4453086">
<ele>6.907</ele>
<time>2018-04-02T12:36:55.775Z</time>
</trkpt>
<trkpt lat="13.6663980" lon="100.4458339">
<ele>6.705</ele>
<time>2018-04-02T12:36:58.806Z</time>
</trkpt>
<trkpt lat="13.6666943" lon="100.4463290">
<ele>6.807</ele>
<time>2018-04-02T12:37:01.713Z</time>
</trkpt>
<trkpt lat="13.6669822" lon="100.4468408">
<ele>7.232</ele>
<time>2018-04-02T12:37:04.606Z</time>
</trkpt>
<trkpt lat="13.6673006" lon="100.4474783">
<ele>7.652</ele>
<time>2018-04-02T12:37:07.949Z</time>
</trkpt>
<trkpt lat="13.6676424" lon="100.4480306">
<ele>7.644</ele>
<time>2018-04-02T12:37:10.975Z</time>
</trkpt>
<trkpt lat="13.6679280" lon="100.4485992">
<ele>7.207</ele>
<time>2018-04-02T12:37:13.900Z</time>
</trkpt>
<trkpt lat="13.6683143" lon="100.4492052">
<ele>6.726</ele>
<time>2018-04-02T12:37:17.163Z</time>
</trkpt>
<trkpt lat="13.6686534" lon="100.4497453">
<ele>6.418</ele>
<time>2018-04-02T12:37:20.117Z</time>
</trkpt>
<trkpt lat="13.6689886" lon="100.4502597">
<ele>6.023</ele>
<time>2018-04-02T12:37:23.000Z</time>
</trkpt>
<trkpt lat="13.6693342" lon="100.4507939">
<ele>5.303</ele>
<time>2018-04-02T12:37:25.983Z</time>
</trkpt>
<trkpt lat="13.6696513" lon="100.4513233">
<ele>4.468</ele>
<time>2018-04-02T12:37:28.910Z</time>
</trkpt>
<trkpt lat="13.6699834" lon="100.4517899">
<ele>3.916</ele>
<time>2018-04-02T12:37:31.662Z</time>
</trkpt>
<trkpt lat="13.6703373" lon="100.4523354">
<ele>3.380</ele>
<time>2018-04-02T12:37:34.681Z</time>
</trkpt>
<trkpt lat="13.6707035" lon="100.4530164">
<ele>2.479</ele>
<time>2018-04-02T12:37:38.106Z</time>
</trkpt>
<trkpt lat="13.6710406" lon="100.4535211">
<ele>1.989</ele>
<time>2018-04-02T12:37:40.823Z</time>
</trkpt>
<trkpt lat="13.6714146" lon="100.4540741">
<ele>2.611</ele>
<time>2018-04-02T12:37:43.882Z</time>
</trkpt>
<trkpt lat="13.6717086" lon="100.4546600">
<ele>3.621</ele>
<time>2018-04-02T12:37:46.903Z</time>
</trkpt>
<trkpt lat="13.6720595" lon="100.4551776">
<ele>4.124</ele>
<time>2018-04-02T12:37:49.746Z</time>
</trkpt>
<trkpt lat="13.6724106" lon="100.4557822">
<ele>4.009</ele>
<time>2018-04-02T12:37:52.859Z</time>
</trkpt>
<trkpt lat="13.6727464" lon="100.4563863">
<ele>3.589</ele>
<time>2018-04-02T12:37:55.953Z</time>
</trkpt>
<trkpt lat="13.6731200" lon="100.4569035">
<ele>3.439</ele>
<time>2018-04-02T12:37:58.829Z</time>
</trkpt>
<trkpt lat="13.6734921" lon="100.4575423">
<ele>3.821</ele>
<time>2018-04-02T12:38:02.114Z</time>
</trkpt>
<trkpt lat="13.6737755" lon="100.4581789">
<ele>4.353</ele>
<time>2018-04-02T12:38:05.185Z</time>
</trkpt>
<trkpt lat="13.6741385" lon="100.4587784">
<ele>4.537</ele>
<time>2018-04-02T12:38:08.373Z</time>
</trkpt>
<trkpt lat="13.6744388" lon="100.4592962">
<ele>4.324</ele>
<time>2018-04-02T12:38:11.331Z</time>
</trkpt>
<trkpt lat="13.6746900" lon="100.4597141">
<ele>3.987</ele>
<time>2018-04-02T12:38:13.950Z</time>
</trkpt>
<trkpt lat="13.6749258" lon="100.4601483">
<ele>3.581</ele>
<time>2018-04-02T12:38:16.710Z</time>
</trkpt>
<trkpt lat="13.6751928" lon="100.4606079">
<ele>2.991</ele>
<time>2018-04-02T12:38:19.689Z</time>
</trkpt>
<trkpt lat="13.6754776" lon="100.4610928">
<ele>2.432</ele>
<time>2018-04-02T12:38:22.778Z</time>
</trkpt>
<trkpt lat="13.6758128" lon="100.4615575">
<ele>1.927</ele>
<time>2018-04-02T12:38:25.847Z</time>
</trkpt>
<trkpt lat="13.6761445" lon="100.4620827">
<ele>1.731</ele>
<time>2018-04-02T12:38:29.083Z</time>
</trkpt>
<trkpt lat="13.6764331" lon="100.4625967">
<ele>1.952</ele>
<time>2018-04-02T12:38:32.120Z</time>
</trkpt>
<trkpt lat="13.6767764" lon="100.4631029">
<ele>2.263</ele>
<time>2018-04-02T12:38:35.333Z</time>
</trkpt>
<trkpt lat="13.6770427" lon="100.4635928">
<ele>2.680</ele>
<time>2018-04-02T12:38:38.453Z</time>
</trkpt>
<trkpt lat="13.6773210" lon="100.4639736">
<ele>3.424</ele>
<time>2018-04-02T12:38:41.285Z</time>
</trkpt>
<trkpt lat="13.6775858" lon="100.4644285">
<ele>4.210</ele>
<time>2018-04-02T12:38:44.423Z</time>
</trkpt>
<trkpt lat="13.6778849" lon="100.4648718">
<ele>4.466</ele>
<time>2018-04-02T12:38:47.613Z</time>
</trkpt>
<trkpt lat="13.6781203" lon="100.4652768">
<ele>3.863</ele>
<time>2018-04-02T12:38:50.381Z</time>
</trkpt>
<trkpt lat="13.6783903" lon="100.4657210">
<ele>3.458</ele>
<time>2018-04-02T12:38:53.307Z</time>
</trkpt>
<trkpt lat="13.6786204" lon="100.4662562">
<ele>4.240</ele>
<time>2018-04-02T12:38:56.421Z</time>
</trkpt>
<trkpt lat="13.6788832" lon="100.4668366">
<ele>5.589</ele>
<time>2018-04-02T12:38:59.719Z</time>
</trkpt>
<trkpt lat="13.6791129" lon="100.4673405">
<ele>6.591</ele>
<time>2018-04-02T12:39:02.652Z</time>
</trkpt>
<trkpt lat="13.6793293" lon="100.4677551">
<ele>7.193</ele>
<time>2018-04-02T12:39:05.334Z</time>
</trkpt>
<trkpt lat="13.6796370" lon="100.4685889">
<ele>7.563</ele>
<time>2018-04-02T12:39:10.531Z</time>
</trkpt>
<trkpt lat="13.6798010" lon="100.4690944">
<ele>7.574</ele>
<time>2018-04-02T12:39:13.637Z</time>
</trkpt>
<trkpt lat="13.6799536" lon="100.4696074">
<ele>7.196</ele>
<time>2018-04-02T12:39:16.663Z</time>
</trkpt>
<trkpt lat="13.6800912" lon="100.4701153">
<ele>6.466</ele>
<time>2018-04-02T12:39:19.676Z</time>
</trkpt>
<trkpt lat="13.6802181" lon="100.4705771">
<ele>5.335</ele>
<time>2018-04-02T12:39:22.581Z</time>
</trkpt>
<trkpt lat="13.6802881" lon="100.4710330">
<ele>4.116</ele>
<time>2018-04-02T12:39:25.617Z</time>
</trkpt>
<trkpt lat="13.6803935" lon="100.4714461">
<ele>3.688</ele>
<time>2018-04-02T12:39:28.618Z</time>
</trkpt>
<trkpt lat="13.6804860" lon="100.4718195">
<ele>4.368</ele>
<time>2018-04-02T12:39:31.348Z</time>
</trkpt>
<trkpt lat="13.6805830" lon="100.4722614">
<ele>5.538</ele>
<time>2018-04-02T12:39:34.403Z</time>
</trkpt>
<trkpt lat="13.6807122" lon="100.4727475">
<ele>6.684</ele>
<time>2018-04-02T12:39:37.546Z</time>
</trkpt>
<trkpt lat="13.6808477" lon="100.4732211">
<ele>7.707</ele>
<time>2018-04-02T12:39:40.429Z</time>
</trkpt>
<trkpt lat="13.6809799" lon="100.4737684">
<ele>8.018</ele>
<time>2018-04-02T12:39:43.565Z</time>
</trkpt>
<trkpt lat="13.6811167" lon="100.4742336">
<ele>7.230</ele>
<time>2018-04-02T12:39:46.208Z</time>
</trkpt>
<trkpt lat="13.6812550" lon="100.4748205">
<ele>5.748</ele>
<time>2018-04-02T12:39:49.501Z</time>
</trkpt>
<trkpt lat="13.6813733" lon="100.4752986">
<ele>4.201</ele>
<time>2018-04-02T12:39:52.343Z</time>
</trkpt>
<trkpt lat="13.6813554" lon="100.4762052">
<ele>3.144</ele>
<time>2018-04-02T12:39:57.957Z</time>
</trkpt>
<trkpt lat="13.6811512" lon="100.4765692">
<ele>2.778</ele>
<time>2018-04-02T12:40:00.812Z</time>
</trkpt>
<trkpt lat="13.6808497" lon="100.4768464">
<ele>2.765</ele>
<time>2018-04-02T12:40:03.609Z</time>
</trkpt>
<trkpt lat="13.6803939" lon="100.4771060">
<ele>2.823</ele>
<time>2018-04-02T12:40:06.878Z</time>
</trkpt>
<trkpt lat="13.6797819" lon="100.4773544">
<ele>2.712</ele>
<time>2018-04-02T12:40:10.567Z</time>
</trkpt>
<trkpt lat="13.6792488" lon="100.4775397">
<ele>2.578</ele>
<time>2018-04-02T12:40:13.627Z</time>
</trkpt>
<trkpt lat="13.6787447" lon="100.4777233">
<ele>2.906</ele>
<time>2018-04-02T12:40:16.627Z</time>
</trkpt>
<trkpt lat="13.6783018" lon="100.4779147">
<ele>3.590</ele>
<time>2018-04-02T12:40:19.439Z</time>
</trkpt>
<trkpt lat="13.6778357" lon="100.4781615">
<ele>4.045</ele>
<time>2018-04-02T12:40:22.552Z</time>
</trkpt>
<trkpt lat="13.6773866" lon="100.4784501">
<ele>4.115</ele>
<time>2018-04-02T12:40:25.687Z</time>
</trkpt>
<trkpt lat="13.6769907" lon="100.4787692">
<ele>4.083</ele>
<time>2018-04-02T12:40:28.734Z</time>
</trkpt>
<trkpt lat="13.6766426" lon="100.4791040">
<ele>4.245</ele>
<time>2018-04-02T12:40:31.781Z</time>
</trkpt>
<trkpt lat="13.6763862" lon="100.4794875">
<ele>4.544</ele>
<time>2018-04-02T12:40:34.747Z</time>
</trkpt>
<trkpt lat="13.6760915" lon="100.4798865">
<ele>4.772</ele>
<time>2018-04-02T12:40:37.941Z</time>
</trkpt>
<trkpt lat="13.6759000" lon="100.4802673">
<ele>4.831</ele>
<time>2018-04-02T12:40:40.790Z</time>
</trkpt>
<trkpt lat="13.6757087" lon="100.4806421">
<ele>4.756</ele>
<time>2018-04-02T12:40:44.047Z</time>
</trkpt>
<trkpt lat="13.6756620" lon="100.4808156">
<ele>4.725</ele>
<time>2018-04-02T12:40:45.762Z</time>
</trkpt>
<trkpt lat="13.6755799" lon="100.4809931">
<ele>4.858</ele>
<time>2018-04-02T12:40:48.064Z</time>
</trkpt>
<trkpt lat="13.6755598" lon="100.4810885">
<ele>5.026</ele>
<time>2018-04-02T12:40:49.706Z</time>
</trkpt>
<trkpt lat="13.6753304" lon="100.4817938">
<ele>5.073</ele>
<time>2018-04-02T12:41:00.127Z</time>
</trkpt>
<trkpt lat="13.6750127" lon="100.4825342">
<ele>5.040</ele>
<time>2018-04-02T12:41:07.147Z</time>
</trkpt>
<trkpt lat="13.6747674" lon="100.4832972">
<ele>4.999</ele>
<time>2018-04-02T12:41:13.022Z</time>
</trkpt>
<trkpt lat="13.6745046" lon="100.4838443">
<ele>4.652</ele>
<time>2018-04-02T12:41:16.715Z</time>
</trkpt>
<trkpt lat="13.6744572" lon="100.4843514">
<ele>3.853</ele>
<time>2018-04-02T12:41:19.566Z</time>
</trkpt>
<trkpt lat="13.6742689" lon="100.4848697">
<ele>3.349</ele>
<time>2018-04-02T12:41:22.555Z</time>
</trkpt>
<trkpt lat="13.6740339" lon="100.4854153">
<ele>3.881</ele>
<time>2018-04-02T12:41:25.672Z</time>
</trkpt>
<trkpt lat="13.6737933" lon="100.4859353">
<ele>5.005</ele>
<time>2018-04-02T12:41:28.577Z</time>
</trkpt>
<trkpt lat="13.6735737" lon="100.4865328">
<ele>5.860</ele>
<time>2018-04-02T12:41:31.644Z</time>
</trkpt>
<trkpt lat="13.6733796" lon="100.4871983">
<ele>6.795</ele>
<time>2018-04-02T12:41:34.821Z</time>
</trkpt>
<trkpt lat="13.6731428" lon="100.4878112">
<ele>8.456</ele>
<time>2018-04-02T12:41:37.742Z</time>
</trkpt>
<trkpt lat="13.6729022" lon="100.4884645">
<ele>10.414</ele>
<time>2018-04-02T12:41:40.762Z</time>
</trkpt>
<trkpt lat="13.6726801" lon="100.4891498">
<ele>12.065</ele>
<time>2018-04-02T12:41:43.833Z</time>
</trkpt>
<trkpt lat="13.6724453" lon="100.4898208">
<ele>13.392</ele>
<time>2018-04-02T12:41:46.831Z</time>
</trkpt>
<trkpt lat="13.6722048" lon="100.4904906">
<ele>14.343</ele>
<time>2018-04-02T12:41:49.807Z</time>
</trkpt>
<trkpt lat="13.6719610" lon="100.4911560">
<ele>14.993</ele>
<time>2018-04-02T12:41:52.806Z</time>
</trkpt>
<trkpt lat="13.6717078" lon="100.4917954">
<ele>15.472</ele>
<time>2018-04-02T12:41:55.793Z</time>
</trkpt>
<trkpt lat="13.6714879" lon="100.4924376">
<ele>15.692</ele>
<time>2018-04-02T12:41:58.789Z</time>
</trkpt>
<trkpt lat="13.6713051" lon="100.4930773">
<ele>15.524</ele>
<time>2018-04-02T12:42:01.702Z</time>
</trkpt>
<trkpt lat="13.6711669" lon="100.4937661">
<ele>15.174</ele>
<time>2018-04-02T12:42:04.687Z</time>
</trkpt>
<trkpt lat="13.6710490" lon="100.4944877">
<ele>14.511</ele>
<time>2018-04-02T12:42:07.702Z</time>
</trkpt>
<trkpt lat="13.6709476" lon="100.4952359">
<ele>13.329</ele>
<time>2018-04-02T12:42:10.762Z</time>
</trkpt>
<trkpt lat="13.6708987" lon="100.4959756">
<ele>11.619</ele>
<time>2018-04-02T12:42:13.759Z</time>
</trkpt>
<trkpt lat="13.6708617" lon="100.4964599">
<ele>9.633</ele>
<time>2018-04-02T12:42:15.760Z</time>
</trkpt>
<trkpt lat="13.6708474" lon="100.4969273">
<ele>8.303</ele>
<time>2018-04-02T12:42:17.710Z</time>
</trkpt>
<trkpt lat="13.6708240" lon="100.4974018">
<ele>8.271</ele>
<time>2018-04-02T12:42:19.687Z</time>
</trkpt>
<trkpt lat="13.6708018" lon="100.4978752">
<ele>8.844</ele>
<time>2018-04-02T12:42:21.664Z</time>
</trkpt>
<trkpt lat="13.6707671" lon="100.4983398">
<ele>9.318</ele>
<time>2018-04-02T12:42:23.646Z</time>
</trkpt>
<trkpt lat="13.6707652" lon="100.4987918">
<ele>9.574</ele>
<time>2018-04-02T12:42:25.622Z</time>
</trkpt>
<trkpt lat="13.6707228" lon="100.4992498">
<ele>9.574</ele>
<time>2018-04-02T12:42:27.680Z</time>
</trkpt>
<trkpt lat="13.6707016" lon="100.4996807">
<ele>9.256</ele>
<time>2018-04-02T12:42:29.652Z</time>
</trkpt>
<trkpt lat="13.6706894" lon="100.5001161">
<ele>8.786</ele>
<time>2018-04-02T12:42:31.687Z</time>
</trkpt>
<trkpt lat="13.6706603" lon="100.5005316">
<ele>8.558</ele>
<time>2018-04-02T12:42:33.692Z</time>
</trkpt>
<trkpt lat="13.6706462" lon="100.5009179">
<ele>8.722</ele>
<time>2018-04-02T12:42:35.581Z</time>
</trkpt>
<trkpt lat="13.6706086" lon="100.5013208">
<ele>8.983</ele>
<time>2018-04-02T12:42:37.524Z</time>
</trkpt>
<trkpt lat="13.6705868" lon="100.5017544">
<ele>8.902</ele>
<time>2018-04-02T12:42:39.553Z</time>
</trkpt>
<trkpt lat="13.6705613" lon="100.5021850">
<ele>8.529</ele>
<time>2018-04-02T12:42:41.527Z</time>
</trkpt>
<trkpt lat="13.6705488" lon="100.5026299">
<ele>8.295</ele>
<time>2018-04-02T12:42:43.604Z</time>
</trkpt>
<trkpt lat="13.6705268" lon="100.5030130">
<ele>8.436</ele>
<time>2018-04-02T12:42:45.495Z</time>
</trkpt>
<trkpt lat="13.6705011" lon="100.5033943">
<ele>8.815</ele>
<time>2018-04-02T12:42:47.460Z</time>
</trkpt>
<trkpt lat="13.6704752" lon="100.5037703">
<ele>9.170</ele>
<time>2018-04-02T12:42:49.440Z</time>
</trkpt>
<trkpt lat="13.6704612" lon="100.5041454">
<ele>9.725</ele>
<time>2018-04-02T12:42:51.400Z</time>
</trkpt>
<trkpt lat="13.6704498" lon="100.5045346">
<ele>10.794</ele>
<time>2018-04-02T12:42:53.390Z</time>
</trkpt>
<trkpt lat="13.6704560" lon="100.5051214">
<ele>11.871</ele>
<time>2018-04-02T12:42:56.364Z</time>
</trkpt>
<trkpt lat="13.6705000" lon="100.5057188">
<ele>11.791</ele>
<time>2018-04-02T12:42:59.461Z</time>
</trkpt>
<trkpt lat="13.6705801" lon="100.5062650">
<ele>10.187</ele>
<time>2018-04-02T12:43:02.463Z</time>
</trkpt>
<trkpt lat="13.6707069" lon="100.5067618">
<ele>8.180</ele>
<time>2018-04-02T12:43:05.311Z</time>
</trkpt>
<trkpt lat="13.6708964" lon="100.5072816">
<ele>7.011</ele>
<time>2018-04-02T12:43:08.303Z</time>
</trkpt>
<trkpt lat="13.6711186" lon="100.5078246">
<ele>7.048</ele>
<time>2018-04-02T12:43:11.382Z</time>
</trkpt>
<trkpt lat="13.6713865" lon="100.5083464">
<ele>8.049</ele>
<time>2018-04-02T12:43:14.476Z</time>
</trkpt>
<trkpt lat="13.6716707" lon="100.5088129">
<ele>9.059</ele>
<time>2018-04-02T12:43:17.418Z</time>
</trkpt>
<trkpt lat="13.6720031" lon="100.5092530">
<ele>9.380</ele>
<time>2018-04-02T12:43:20.398Z</time>
</trkpt>
<trkpt lat="13.6723779" lon="100.5096795">
<ele>9.240</ele>
<time>2018-04-02T12:43:23.393Z</time>
</trkpt>
<trkpt lat="13.6728080" lon="100.5101228">
<ele>9.040</ele>
<time>2018-04-02T12:43:26.496Z</time>
</trkpt>
<trkpt lat="13.6732919" lon="100.5105756">
<ele>9.054</ele>
<time>2018-04-02T12:43:29.679Z</time>
</trkpt>
<trkpt lat="13.6738003" lon="100.5109299">
<ele>9.342</ele>
<time>2018-04-02T12:43:32.616Z</time>
</trkpt>
<trkpt lat="13.6742991" lon="100.5113193">
<ele>9.271</ele>
<time>2018-04-02T12:43:35.603Z</time>
</trkpt>
<trkpt lat="13.6747895" lon="100.5117191">
<ele>8.391</ele>
<time>2018-04-02T12:43:38.634Z</time>
</trkpt>
<trkpt lat="13.6752285" lon="100.5120888">
<ele>7.410</ele>
<time>2018-04-02T12:43:41.427Z</time>
</trkpt>
<trkpt lat="13.6757809" lon="100.5124939">
<ele>7.042</ele>
<time>2018-04-02T12:43:44.881Z</time>
</trkpt>
<trkpt lat="13.6761661" lon="100.5127364">
<ele>6.684</ele>
<time>2018-04-02T12:43:47.362Z</time>
</trkpt>
<trkpt lat="13.6765709" lon="100.5130597">
<ele>5.732</ele>
<time>2018-04-02T12:43:50.350Z</time>
</trkpt>
<trkpt lat="13.6769731" lon="100.5133699">
<ele>5.533</ele>
<time>2018-04-02T12:43:53.445Z</time>
</trkpt>
<trkpt lat="13.6773118" lon="100.5136344">
<ele>7.849</ele>
<time>2018-04-02T12:43:56.149Z</time>
</trkpt>
<trkpt lat="13.6777776" lon="100.5139803">
<ele>11.702</ele>
<time>2018-04-02T12:43:59.678Z</time>
</trkpt>
<trkpt lat="13.6781555" lon="100.5142761">
<ele>14.635</ele>
<time>2018-04-02T12:44:02.594Z</time>
</trkpt>
<trkpt lat="13.6785168" lon="100.5145571">
<ele>16.247</ele>
<time>2018-04-02T12:44:05.506Z</time>
</trkpt>
<trkpt lat="13.6788859" lon="100.5148217">
<ele>18.206</ele>
<time>2018-04-02T12:44:08.451Z</time>
</trkpt>
<trkpt lat="13.6792719" lon="100.5150936">
<ele>21.598</ele>
<time>2018-04-02T12:44:11.462Z</time>
</trkpt>
<trkpt lat="13.6796729" lon="100.5154034">
<ele>25.406</ele>
<time>2018-04-02T12:44:14.485Z</time>
</trkpt>
<trkpt lat="13.6801626" lon="100.5158086">
<ele>27.820</ele>
<time>2018-04-02T12:44:18.017Z</time>
</trkpt>
<trkpt lat="13.6805238" lon="100.5160916">
<ele>28.400</ele>
<time>2018-04-02T12:44:20.711Z</time>
</trkpt>
<trkpt lat="13.6808204" lon="100.5163655">
<ele>28.617</ele>
<time>2018-04-02T12:44:23.258Z</time>
</trkpt>
<trkpt lat="13.6811436" lon="100.5166980">
<ele>29.980</ele>
<time>2018-04-02T12:44:26.251Z</time>
</trkpt>
<trkpt lat="13.6815227" lon="100.5169888">
<ele>32.910</ele>
<time>2018-04-02T12:44:29.258Z</time>
</trkpt>
<trkpt lat="13.6819178" lon="100.5172739">
<ele>37.630</ele>
<time>2018-04-02T12:44:32.221Z</time>
</trkpt>
<trkpt lat="13.6823530" lon="100.5175862">
<ele>43.251</ele>
<time>2018-04-02T12:44:35.376Z</time>
</trkpt>
<trkpt lat="13.6827526" lon="100.5178886">
<ele>47.297</ele>
<time>2018-04-02T12:44:38.207Z</time>
</trkpt>
<trkpt lat="13.6832536" lon="100.5182699">
<ele>48.621</ele>
<time>2018-04-02T12:44:41.513Z</time>
</trkpt>
<trkpt lat="13.6837090" lon="100.5186447">
<ele>48.227</ele>
<time>2018-04-02T12:44:44.405Z</time>
</trkpt>
<trkpt lat="13.6842101" lon="100.5190756">
<ele>47.383</ele>
<time>2018-04-02T12:44:47.481Z</time>
</trkpt>
<trkpt lat="13.6847366" lon="100.5194808">
<ele>46.808</ele>
<time>2018-04-02T12:44:50.449Z</time>
</trkpt>
<trkpt lat="13.6852721" lon="100.5199077">
<ele>45.873</ele>
<time>2018-04-02T12:44:53.433Z</time>
</trkpt>
<trkpt lat="13.6858252" lon="100.5203380">
<ele>43.488</ele>
<time>2018-04-02T12:44:56.435Z</time>
</trkpt>
<trkpt lat="13.6863942" lon="100.5207753">
<ele>39.972</ele>
<time>2018-04-02T12:44:59.466Z</time>
</trkpt>
<trkpt lat="13.6869810" lon="100.5212089">
<ele>36.784</ele>
<time>2018-04-02T12:45:02.538Z</time>
</trkpt>
<trkpt lat="13.6875531" lon="100.5216236">
<ele>34.463</ele>
<time>2018-04-02T12:45:05.506Z</time>
</trkpt>
<trkpt lat="13.6881218" lon="100.5220892">
<ele>32.644</ele>
<time>2018-04-02T12:45:08.537Z</time>
</trkpt>
<trkpt lat="13.6886991" lon="100.5225521">
<ele>31.004</ele>
<time>2018-04-02T12:45:11.540Z</time>
</trkpt>
<trkpt lat="13.6892801" lon="100.5230052">
<ele>29.435</ele>
<time>2018-04-02T12:45:14.519Z</time>
</trkpt>
<trkpt lat="13.6898800" lon="100.5234331">
<ele>27.963</ele>
<time>2018-04-02T12:45:17.516Z</time>
</trkpt>
<trkpt lat="13.6904834" lon="100.5238409">
<ele>26.930</ele>
<time>2018-04-02T12:45:20.517Z</time>
</trkpt>
<trkpt lat="13.6910456" lon="100.5242766">
<ele>26.198</ele>
<time>2018-04-02T12:45:23.508Z</time>
</trkpt>
<trkpt lat="13.6915474" lon="100.5247847">
<ele>25.243</ele>
<time>2018-04-02T12:45:26.608Z</time>
</trkpt>
<trkpt lat="13.6919709" lon="100.5252698">
<ele>23.432</ele>
<time>2018-04-02T12:45:29.491Z</time>
</trkpt>
<trkpt lat="13.6923319" lon="100.5258597">
<ele>20.463</ele>
<time>2018-04-02T12:45:32.613Z</time>
</trkpt>
<trkpt lat="13.6925826" lon="100.5264655">
<ele>16.795</ele>
<time>2018-04-02T12:45:35.563Z</time>
</trkpt>
<trkpt lat="13.6927994" lon="100.5270950">
<ele>13.502</ele>
<time>2018-04-02T12:45:38.514Z</time>
</trkpt>
<trkpt lat="13.6930426" lon="100.5277933">
<ele>10.841</ele>
<time>2018-04-02T12:45:41.725Z</time>
</trkpt>
<trkpt lat="13.6932979" lon="100.5284265">
<ele>8.559</ele>
<time>2018-04-02T12:45:44.687Z</time>
</trkpt>
<trkpt lat="13.6935055" lon="100.5290705">
<ele>6.984</ele>
<time>2018-04-02T12:45:47.584Z</time>
</trkpt>
<trkpt lat="13.6937776" lon="100.5297718">
<ele>6.344</ele>
<time>2018-04-02T12:45:50.727Z</time>
</trkpt>
<trkpt lat="13.6940423" lon="100.5304813">
<ele>6.114</ele>
<time>2018-04-02T12:45:53.880Z</time>
</trkpt>
<trkpt lat="13.6942537" lon="100.5311295">
<ele>6.016</ele>
<time>2018-04-02T12:45:56.773Z</time>
</trkpt>
<trkpt lat="13.6945468" lon="100.5317628">
<ele>6.077</ele>
<time>2018-04-02T12:45:59.753Z</time>
</trkpt>
<trkpt lat="13.6947326" lon="100.5324618">
<ele>6.537</ele>
<time>2018-04-02T12:46:02.805Z</time>
</trkpt>
<trkpt lat="13.6949737" lon="100.5330736">
<ele>7.417</ele>
<time>2018-04-02T12:46:05.575Z</time>
</trkpt>
<trkpt lat="13.6952433" lon="100.5337446">
<ele>8.208</ele>
<time>2018-04-02T12:46:08.629Z</time>
</trkpt>
<trkpt lat="13.6954973" lon="100.5343798">
<ele>8.361</ele>
<time>2018-04-02T12:46:11.570Z</time>
</trkpt>
<trkpt lat="13.6957513" lon="100.5349782">
<ele>7.809</ele>
<time>2018-04-02T12:46:14.424Z</time>
</trkpt>
<trkpt lat="13.6959609" lon="100.5356757">
<ele>6.899</ele>
<time>2018-04-02T12:46:17.603Z</time>
</trkpt>
<trkpt lat="13.6962275" lon="100.5363238">
<ele>5.790</ele>
<time>2018-04-02T12:46:20.618Z</time>
</trkpt>
<trkpt lat="13.6964763" lon="100.5369942">
<ele>4.546</ele>
<time>2018-04-02T12:46:23.685Z</time>
</trkpt>
<trkpt lat="13.6967295" lon="100.5376394">
<ele>4.052</ele>
<time>2018-04-02T12:46:26.690Z</time>
</trkpt>
<trkpt lat="13.6970429" lon="100.5382266">
<ele>5.072</ele>
<time>2018-04-02T12:46:29.579Z</time>
</trkpt>
<trkpt lat="13.6974308" lon="100.5388875">
<ele>7.491</ele>
<time>2018-04-02T12:46:32.824Z</time>
</trkpt>
<trkpt lat="13.6978725" lon="100.5394464">
<ele>10.476</ele>
<time>2018-04-02T12:46:35.777Z</time>
</trkpt>
<trkpt lat="13.6983700" lon="100.5399992">
<ele>12.861</ele>
<time>2018-04-02T12:46:38.825Z</time>
</trkpt>
<trkpt lat="13.6988696" lon="100.5405611">
<ele>14.079</ele>
<time>2018-04-02T12:46:41.944Z</time>
</trkpt>
<trkpt lat="13.6994170" lon="100.5409139">
<ele>14.547</ele>
<time>2018-04-02T12:46:44.797Z</time>
</trkpt>
<trkpt lat="13.6999724" lon="100.5412454">
<ele>14.736</ele>
<time>2018-04-02T12:46:47.784Z</time>
</trkpt>
<trkpt lat="13.7005190" lon="100.5415491">
<ele>14.722</ele>
<time>2018-04-02T12:46:50.773Z</time>
</trkpt>
<trkpt lat="13.7010563" lon="100.5418687">
<ele>14.306</ele>
<time>2018-04-02T12:46:53.747Z</time>
</trkpt>
<trkpt lat="13.7016362" lon="100.5421928">
<ele>13.449</ele>
<time>2018-04-02T12:46:56.781Z</time>
</trkpt>
<trkpt lat="13.7022779" lon="100.5425266">
<ele>12.444</ele>
<time>2018-04-02T12:46:59.972Z</time>
</trkpt>
<trkpt lat="13.7028394" lon="100.5428362">
<ele>11.825</ele>
<time>2018-04-02T12:47:02.806Z</time>
</trkpt>
<trkpt lat="13.7034132" lon="100.5431747">
<ele>11.801</ele>
<time>2018-04-02T12:47:05.800Z</time>
</trkpt>
<trkpt lat="13.7039748" lon="100.5435113">
<ele>12.042</ele>
<time>2018-04-02T12:47:08.824Z</time>
</trkpt>
<trkpt lat="13.7044273" lon="100.5439542">
<ele>12.343</ele>
<time>2018-04-02T12:47:11.884Z</time>
</trkpt>
<trkpt lat="13.7047732" lon="100.5444256">
<ele>13.128</ele>
<time>2018-04-02T12:47:14.879Z</time>
</trkpt>
<trkpt lat="13.7050000" lon="100.5449529">
<ele>14.524</ele>
<time>2018-04-02T12:47:17.899Z</time>
</trkpt>
<trkpt lat="13.7051282" lon="100.5455554">
<ele>15.425</ele>
<time>2018-04-02T12:47:21.185Z</time>
</trkpt>
<trkpt lat="13.7053092" lon="100.5460501">
<ele>14.686</ele>
<time>2018-04-02T12:47:24.101Z</time>
</trkpt>
<trkpt lat="13.7055836" lon="100.5464914">
<ele>12.586</ele>
<time>2018-04-02T12:47:27.080Z</time>
</trkpt>
<trkpt lat="13.7059224" lon="100.5468582">
<ele>10.394</ele>
<time>2018-04-02T12:47:30.016Z</time>
</trkpt>
<trkpt lat="13.7063061" lon="100.5471743">
<ele>9.251</ele>
<time>2018-04-02T12:47:32.891Z</time>
</trkpt>
<trkpt lat="13.7067729" lon="100.5474810">
<ele>9.405</ele>
<time>2018-04-02T12:47:35.920Z</time>
</trkpt>
<trkpt lat="13.7072378" lon="100.5478551">
<ele>10.502</ele>
<time>2018-04-02T12:47:38.893Z</time>
</trkpt>
<trkpt lat="13.7077139" lon="100.5483216">
<ele>12.345</ele>
<time>2018-04-02T12:47:41.995Z</time>
</trkpt>
<trkpt lat="13.7081839" lon="100.5487836">
<ele>15.200</ele>
<time>2018-04-02T12:47:44.916Z</time>
</trkpt>
<trkpt lat="13.7086923" lon="100.5492614">
<ele>19.137</ele>
<time>2018-04-02T12:47:47.911Z</time>
</trkpt>
<trkpt lat="13.7091964" lon="100.5497688">
<ele>23.029</ele>
<time>2018-04-02T12:47:50.920Z</time>
</trkpt>
<trkpt lat="13.7097060" lon="100.5502738">
<ele>25.172</ele>
<time>2018-04-02T12:47:53.894Z</time>
</trkpt>
<trkpt lat="13.7102349" lon="100.5507974">
<ele>25.028</ele>
<time>2018-04-02T12:47:56.914Z</time>
</trkpt>
<trkpt lat="13.7107589" lon="100.5513365">
<ele>23.311</ele>
<time>2018-04-02T12:47:59.906Z</time>
</trkpt>
<trkpt lat="13.7112949" lon="100.5518438">
<ele>21.248</ele>
<time>2018-04-02T12:48:02.874Z</time>
</trkpt>
<trkpt lat="13.7117991" lon="100.5523256">
<ele>19.992</ele>
<time>2018-04-02T12:48:05.765Z</time>
</trkpt>
<trkpt lat="13.7122975" lon="100.5528105">
<ele>20.012</ele>
<time>2018-04-02T12:48:08.732Z</time>
</trkpt>
<trkpt lat="13.7127827" lon="100.5532813">
<ele>21.062</ele>
<time>2018-04-02T12:48:11.775Z</time>
</trkpt>
<trkpt lat="13.7132078" lon="100.5536949">
<ele>22.452</ele>
<time>2018-04-02T12:48:14.686Z</time>
</trkpt>
<trkpt lat="13.7136291" lon="100.5540812">
<ele>22.752</ele>
<time>2018-04-02T12:48:17.666Z</time>
</trkpt>
<trkpt lat="13.7140436" lon="100.5544828">
<ele>20.907</ele>
<time>2018-04-02T12:48:20.803Z</time>
</trkpt>
<trkpt lat="13.7144144" lon="100.5548293">
<ele>17.964</ele>
<time>2018-04-02T12:48:23.774Z</time>
</trkpt>
<trkpt lat="13.7147538" lon="100.5551448">
<ele>15.948</ele>
<time>2018-04-02T12:48:26.695Z</time>
</trkpt>
<trkpt lat="13.7150719" lon="100.5554384">
<ele>15.460</ele>
<time>2018-04-02T12:48:29.657Z</time>
</trkpt>
<trkpt lat="13.7154022" lon="100.5556515">
<ele>15.812</ele>
<time>2018-04-02T12:48:32.564Z</time>
</trkpt>
<trkpt lat="13.7157877" lon="100.5557383">
<ele>16.649</ele>
<time>2018-04-02T12:48:35.523Z</time>
</trkpt>
<trkpt lat="13.7162030" lon="100.5556831">
<ele>17.919</ele>
<time>2018-04-02T12:48:38.542Z</time>
</trkpt>
<trkpt lat="13.7165760" lon="100.5554488">
<ele>19.067</ele>
<time>2018-04-02T12:48:41.596Z</time>
</trkpt>
<trkpt lat="13.7169178" lon="100.5551464">
<ele>19.497</ele>
<time>2018-04-02T12:48:44.770Z</time>
</trkpt>
<trkpt lat="13.7171883" lon="100.5548606">
<ele>19.275</ele>
<time>2018-04-02T12:48:47.591Z</time>
</trkpt>
<trkpt lat="13.7174158" lon="100.5545069">
<ele>18.865</ele>
<time>2018-04-02T12:48:50.534Z</time>
</trkpt>
<trkpt lat="13.7177063" lon="100.5540960">
<ele>18.594</ele>
<time>2018-04-02T12:48:53.743Z</time>
</trkpt>
<trkpt lat="13.7180777" lon="100.5536540">
<ele>18.625</ele>
<time>2018-04-02T12:48:57.139Z</time>
</trkpt>
<trkpt lat="13.7184576" lon="100.5532820">
<ele>18.838</ele>
<time>2018-04-02T12:49:00.292Z</time>
</trkpt>
<trkpt lat="13.7188400" lon="100.5530626">
<ele>19.013</ele>
<time>2018-04-02T12:49:03.000Z</time>
</trkpt>
<trkpt lat="13.7192925" lon="100.5528609">
<ele>19.169</ele>
<time>2018-04-02T12:49:06.090Z</time>
</trkpt>
<trkpt lat="13.7197430" lon="100.5527375">
<ele>19.353</ele>
<time>2018-04-02T12:49:09.019Z</time>
</trkpt>
<trkpt lat="13.7202249" lon="100.5527507">
<ele>19.493</ele>
<time>2018-04-02T12:49:11.972Z</time>
</trkpt>
<trkpt lat="13.7207253" lon="100.5526914">
<ele>19.716</ele>
<time>2018-04-02T12:49:14.992Z</time>
</trkpt>
<trkpt lat="13.7212209" lon="100.5526333">
<ele>20.061</ele>
<time>2018-04-02T12:49:18.075Z</time>
</trkpt>
<trkpt lat="13.7220585" lon="100.5523787">
<ele>20.278</ele>
<time>2018-04-02T12:49:24.125Z</time>
</trkpt>
<trkpt lat="13.7225158" lon="100.5522928">
<ele>19.633</ele>
<time>2018-04-02T12:49:28.120Z</time>
</trkpt>
<trkpt lat="13.7226264" lon="100.5522994">
<ele>18.313</ele>
<time>2018-04-02T12:49:29.564Z</time>
</trkpt>
<trkpt lat="13.7227502" lon="100.5523125">
<ele>17.060</ele>
<time>2018-04-02T12:49:31.407Z</time>
</trkpt>
<trkpt lat="13.7228319" lon="100.5521869">
<ele>16.153</ele>
<time>2018-04-02T12:49:33.953Z</time>
</trkpt>
<trkpt lat="13.7229133" lon="100.5520677">
<ele>15.170</ele>
<time>2018-04-02T12:49:36.432Z</time>
</trkpt>
<trkpt lat="13.7229685" lon="100.5519319">
<ele>14.286</ele>
<time>2018-04-02T12:49:38.522Z</time>
</trkpt>
<trkpt lat="13.7230801" lon="100.5517616">
<ele>13.702</ele>
<time>2018-04-02T12:49:40.993Z</time>
</trkpt>
<trkpt lat="13.7231790" lon="100.5516178">
<ele>13.224</ele>
<time>2018-04-02T12:49:42.945Z</time>
</trkpt>
<trkpt lat="13.7232603" lon="100.5514447">
<ele>13.169</ele>
<time>2018-04-02T12:49:45.044Z</time>
</trkpt>
<trkpt lat="13.7233456" lon="100.5512550">
<ele>13.799</ele>
<time>2018-04-02T12:49:47.255Z</time>
</trkpt>
<trkpt lat="13.7234255" lon="100.5510675">
<ele>14.507</ele>
<time>2018-04-02T12:49:49.317Z</time>
</trkpt>
<trkpt lat="13.7235211" lon="100.5508444">
<ele>14.608</ele>
<time>2018-04-02T12:49:51.604Z</time>
</trkpt>
<trkpt lat="13.7236124" lon="100.5506346">
<ele>14.185</ele>
<time>2018-04-02T12:49:53.787Z</time>
</trkpt>
<trkpt lat="13.7238435" lon="100.5500802">
<ele>13.801</ele>
<time>2018-04-02T12:50:00.284Z</time>
</trkpt>
<trkpt lat="13.7239542" lon="100.5498129">
<ele>13.996</ele>
<time>2018-04-02T12:50:03.882Z</time>
</trkpt>
<trkpt lat="13.7240789" lon="100.5495618">
<ele>14.297</ele>
<time>2018-04-02T12:50:07.045Z</time>
</trkpt>
<trkpt lat="13.7241966" lon="100.5493016">
<ele>14.751</ele>
<time>2018-04-02T12:50:10.105Z</time>
</trkpt>
<trkpt lat="13.7243014" lon="100.5490225">
<ele>14.931</ele>
<time>2018-04-02T12:50:13.245Z</time>
</trkpt>
<trkpt lat="13.7244259" lon="100.5487326">
<ele>14.507</ele>
<time>2018-04-02T12:50:16.468Z</time>
</trkpt>
<trkpt lat="13.7245216" lon="100.5485115">
<ele>13.896</ele>
<time>2018-04-02T12:50:18.940Z</time>
</trkpt>
<trkpt lat="13.7246318" lon="100.5482600">
<ele>13.586</ele>
<time>2018-04-02T12:50:21.866Z</time>
</trkpt>
<trkpt lat="13.7247226" lon="100.5480368">
<ele>13.592</ele>
<time>2018-04-02T12:50:24.572Z</time>
</trkpt>
<trkpt lat="13.7248227" lon="100.5477973">
<ele>13.513</ele>
<time>2018-04-02T12:50:27.683Z</time>
</trkpt>
<trkpt lat="13.7249124" lon="100.5475875">
<ele>12.913</ele>
<time>2018-04-02T12:50:30.544Z</time>
</trkpt>
<trkpt lat="13.7250137" lon="100.5473341">
<ele>11.090</ele>
<time>2018-04-02T12:50:33.981Z</time>
</trkpt>
<trkpt lat="13.7250895" lon="100.5471488">
<ele>7.899</ele>
<time>2018-04-02T12:50:36.670Z</time>
</trkpt>
<trkpt lat="13.7251864" lon="100.5469321">
<ele>4.805</ele>
<time>2018-04-02T12:50:39.958Z</time>
</trkpt>
<trkpt lat="13.7252986" lon="100.5466833">
<ele>2.722</ele>
<time>2018-04-02T12:50:43.481Z</time>
</trkpt>
<trkpt lat="13.7253871" lon="100.5463737">
<ele>1.060</ele>
<time>2018-04-02T12:50:47.125Z</time>
</trkpt>
<trkpt lat="13.7255178" lon="100.5460484">
<ele>0.000</ele>
<time>2018-04-02T12:50:50.657Z</time>
</trkpt>
<trkpt lat="13.7255739" lon="100.5458013">
<ele>0.000</ele>
<time>2018-04-02T12:50:53.250Z</time>
</trkpt>
<trkpt lat="13.7256512" lon="100.5455807">
<ele>0.000</ele>
<time>2018-04-02T12:50:55.975Z</time>
</trkpt>
<trkpt lat="13.7257288" lon="100.5454063">
<ele>0.000</ele>
<time>2018-04-02T12:50:58.816Z</time>
</trkpt>
<trkpt lat="13.7257632" lon="100.5452958">
<ele>0.000</ele>
<time>2018-04-02T12:51:01.065Z</time>
</trkpt>
<trkpt lat="13.7257942" lon="100.5451983">
<ele>0.000</ele>
<time>2018-04-02T12:51:04.045Z</time>
</trkpt>
<trkpt lat="13.7258426" lon="100.5450624">
<ele>0.000</ele>
<time>2018-04-02T12:51:08.081Z</time>
</trkpt>
<trkpt lat="13.7259219" lon="100.5448806">
<ele>0.000</ele>
<time>2018-04-02T12:51:12.180Z</time>
</trkpt>
<trkpt lat="13.7259340" lon="100.5447448">
<ele>0.000</ele>
<time>2018-04-02T12:51:14.997Z</time>
</trkpt>
<trkpt lat="13.7259340" lon="100.5447448">
<ele>0.000</ele>
<time>2018-04-02T12:51:21.997Z</time>
</trkpt>
<trkpt lat="13.7259340" lon="100.5447448">
<ele>0.000</ele>
<time>2018-04-02T12:52:35.062Z</time>
</trkpt>
<trkpt lat="13.7260208" lon="100.5445424">
<ele>0.018</ele>
<time>2018-04-02T12:52:49.222Z</time>
</trkpt>
<trkpt lat="13.7260485" lon="100.5444526">
<ele>1.630</ele>
<time>2018-04-02T12:52:53.090Z</time>
</trkpt>
<trkpt lat="13.7261430" lon="100.5444425">
<ele>5.776</ele>
<time>2018-04-02T12:52:55.435Z</time>
</trkpt>
<trkpt lat="13.7268102" lon="100.5445260">
<ele>9.557</ele>
<time>2018-04-02T12:53:01.735Z</time>
</trkpt>
<trkpt lat="13.7272692" lon="100.5446464">
<ele>8.108</ele>
<time>2018-04-02T12:53:04.788Z</time>
</trkpt>
<trkpt lat="13.7277092" lon="100.5447361">
<ele>1.185</ele>
<time>2018-04-02T12:53:07.599Z</time>
</trkpt>
<trkpt lat="13.7281553" lon="100.5448509">
<ele>0.000</ele>
<time>2018-04-02T12:53:10.470Z</time>
</trkpt>
<trkpt lat="13.7286221" lon="100.5449067">
<ele>0.000</ele>
<time>2018-04-02T12:53:13.369Z</time>
</trkpt>
<trkpt lat="13.7291060" lon="100.5449513">
<ele>0.000</ele>
<time>2018-04-02T12:53:16.334Z</time>
</trkpt>
<trkpt lat="13.7296237" lon="100.5450557">
<ele>0.000</ele>
<time>2018-04-02T12:53:19.591Z</time>
</trkpt>
<trkpt lat="13.7300971" lon="100.5451133">
<ele>0.000</ele>
<time>2018-04-02T12:53:22.571Z</time>
</trkpt>
<trkpt lat="13.7305872" lon="100.5452116">
<ele>0.000</ele>
<time>2018-04-02T12:53:25.615Z</time>
</trkpt>
<trkpt lat="13.7310990" lon="100.5453124">
<ele>0.000</ele>
<time>2018-04-02T12:53:28.685Z</time>
</trkpt>
<trkpt lat="13.7316040" lon="100.5454121">
<ele>0.000</ele>
<time>2018-04-02T12:53:31.734Z</time>
</trkpt>
<trkpt lat="13.7321112" lon="100.5454866">
<ele>2.527</ele>
<time>2018-04-02T12:53:34.919Z</time>
</trkpt>
<trkpt lat="13.7325752" lon="100.5455761">
<ele>3.809</ele>
<time>2018-04-02T12:53:38.064Z</time>
</trkpt>
<trkpt lat="13.7330335" lon="100.5456450">
<ele>3.184</ele>
<time>2018-04-02T12:53:41.571Z</time>
</trkpt>
<trkpt lat="13.7334697" lon="100.5457117">
<ele>2.019</ele>
<time>2018-04-02T12:53:47.742Z</time>
</trkpt>
<trkpt lat="13.7338215" lon="100.5457900">
<ele>0.681</ele>
<time>2018-04-02T12:53:52.647Z</time>
</trkpt>
<trkpt lat="13.7339914" lon="100.5458228">
<ele>0.000</ele>
<time>2018-04-02T12:53:54.303Z</time>
</trkpt>
<trkpt lat="13.7340676" lon="100.5457283">
<ele>0.000</ele>
<time>2018-04-02T12:53:55.286Z</time>
</trkpt>
<trkpt lat="13.7340428" lon="100.5454892">
<ele>0.000</ele>
<time>2018-04-02T12:53:57.182Z</time>
</trkpt>
<trkpt lat="13.7340451" lon="100.5451123">
<ele>0.000</ele>
<time>2018-04-02T12:53:59.834Z</time>
</trkpt>
<trkpt lat="13.7340647" lon="100.5447689">
<ele>0.000</ele>
<time>2018-04-02T12:54:02.253Z</time>
</trkpt>
<trkpt lat="13.7341016" lon="100.5438919">
<ele>0.000</ele>
<time>2018-04-02T12:54:08.424Z</time>
</trkpt>
<trkpt lat="13.7341253" lon="100.5434720">
<ele>0.000</ele>
<time>2018-04-02T12:54:12.371Z</time>
</trkpt>
<trkpt lat="13.7341490" lon="100.5430796">
<ele>0.000</ele>
<time>2018-04-02T12:54:19.934Z</time>
</trkpt>
<trkpt lat="13.7341656" lon="100.5428170">
<ele>0.000</ele>
<time>2018-04-02T12:54:26.495Z</time>
</trkpt>
<trkpt lat="13.7341579" lon="100.5426115">
<ele>0.000</ele>
<time>2018-04-02T12:54:29.808Z</time>
</trkpt>
<trkpt lat="13.7341589" lon="100.5424871">
<ele>0.000</ele>
<time>2018-04-02T12:54:31.573Z</time>
</trkpt>
<trkpt lat="13.7341662" lon="100.5423864">
<ele>1.605</ele>
<time>2018-04-02T12:54:32.851Z</time>
</trkpt>
<trkpt lat="13.7341863" lon="100.5422411">
<ele>2.536</ele>
<time>2018-04-02T12:54:34.636Z</time>
</trkpt>
<trkpt lat="13.7342168" lon="100.5420808">
<ele>1.388</ele>
<time>2018-04-02T12:54:36.493Z</time>
</trkpt>
<trkpt lat="13.7342541" lon="100.5418953">
<ele>0.604</ele>
<time>2018-04-02T12:54:38.581Z</time>
</trkpt>
<trkpt lat="13.7343138" lon="100.5416348">
<ele>3.415</ele>
<time>2018-04-02T12:54:41.559Z</time>
</trkpt>
<trkpt lat="13.7343070" lon="100.5413290">
<ele>10.653</ele>
<time>2018-04-02T12:54:45.174Z</time>
</trkpt>
<trkpt lat="13.7343057" lon="100.5410108">
<ele>19.807</ele>
<time>2018-04-02T12:54:48.981Z</time>
</trkpt>
<trkpt lat="13.7342991" lon="100.5407614">
<ele>27.202</ele>
<time>2018-04-02T12:54:51.665Z</time>
</trkpt>
<trkpt lat="13.7342848" lon="100.5404729">
<ele>32.416</ele>
<time>2018-04-02T12:54:55.472Z</time>
</trkpt>
<trkpt lat="13.7342757" lon="100.5402003">
<ele>38.474</ele>
<time>2018-04-02T12:54:59.144Z</time>
</trkpt>
<trkpt lat="13.7342755" lon="100.5398376">
<ele>47.186</ele>
<time>2018-04-02T12:55:04.028Z</time>
</trkpt>
<trkpt lat="13.7342755" lon="100.5398376">
<ele>47.186</ele>
<time>2018-04-02T12:55:04.028Z</time>
</trkpt>
<trkpt lat="13.7345666" lon="100.5386313">
<ele>16.997</ele>
<time>2018-04-02T12:55:19.590Z</time>
</trkpt>
<trkpt lat="13.7350423" lon="100.5387341">
<ele>16.989</ele>
<time>2018-04-02T12:55:24.148Z</time>
</trkpt>
<trkpt lat="13.7356075" lon="100.5388289">
<ele>15.542</ele>
<time>2018-04-02T12:55:29.276Z</time>
</trkpt>
<trkpt lat="13.7359261" lon="100.5388664">
<ele>11.600</ele>
<time>2018-04-02T12:55:32.452Z</time>
</trkpt>
<trkpt lat="13.7363079" lon="100.5389226">
<ele>7.268</ele>
<time>2018-04-02T12:55:36.563Z</time>
</trkpt>
<trkpt lat="13.7366344" lon="100.5389737">
<ele>4.660</ele>
<time>2018-04-02T12:55:40.097Z</time>
</trkpt>
<trkpt lat="13.7369376" lon="100.5390157">
<ele>3.390</ele>
<time>2018-04-02T12:55:43.098Z</time>
</trkpt>
<trkpt lat="13.7372861" lon="100.5390343">
<ele>3.172</ele>
<time>2018-04-02T12:55:46.381Z</time>
</trkpt>
<trkpt lat="13.7375371" lon="100.5390792">
<ele>18.143</ele>
<time>2018-04-02T12:55:48.811Z</time>
</trkpt>
<trkpt lat="13.7378249" lon="100.5391120">
<ele>56.133</ele>
<time>2018-04-02T12:55:51.760Z</time>
</trkpt>
<trkpt lat="13.7380897" lon="100.5391654">
<ele>94.376</ele>
<time>2018-04-02T12:55:54.806Z</time>
</trkpt>
<trkpt lat="13.7383861" lon="100.5392082">
<ele>111.752</ele>
<time>2018-04-02T12:55:58.159Z</time>
</trkpt>
<trkpt lat="13.7387117" lon="100.5392609">
<ele>113.773</ele>
<time>2018-04-02T12:56:01.768Z</time>
</trkpt>
<trkpt lat="13.7389718" lon="100.5392989">
<ele>111.011</ele>
<time>2018-04-02T12:56:04.717Z</time>
</trkpt>
<trkpt lat="13.7392388" lon="100.5393434">
<ele>109.316</ele>
<time>2018-04-02T12:56:07.754Z</time>
</trkpt>
<trkpt lat="13.7396055" lon="100.5393995">
<ele>110.247</ele>
<time>2018-04-02T12:56:11.789Z</time>
</trkpt>
<trkpt lat="13.7398662" lon="100.5394368">
<ele>113.537</ele>
<time>2018-04-02T12:56:14.408Z</time>
</trkpt>
<trkpt lat="13.7405791" lon="100.5395402">
<ele>118.854</ele>
<time>2018-04-02T12:56:24.006Z</time>
</trkpt>
<trkpt lat="13.7408962" lon="100.5395925">
<ele>102.401</ele>
<time>2018-04-02T12:56:30.936Z</time>
</trkpt>
<trkpt lat="13.7412087" lon="100.5396393">
<ele>60.915</ele>
<time>2018-04-02T12:56:37.747Z</time>
</trkpt>
<trkpt lat="13.7414172" lon="100.5396714">
<ele>18.989</ele>
<time>2018-04-02T12:56:42.296Z</time>
</trkpt>
<trkpt lat="13.7415418" lon="100.5396983">
<ele>0.000</ele>
<time>2018-04-02T12:56:45.043Z</time>
</trkpt>
<trkpt lat="13.7415690" lon="100.5402170">
<ele>0.000</ele>
<time>2018-04-02T12:56:56.128Z</time>
</trkpt>
<trkpt lat="13.7415758" lon="100.5403262">
<ele>2.502</ele>
<time>2018-04-02T12:56:58.911Z</time>
</trkpt>
<trkpt lat="13.7415553" lon="100.5404841">
<ele>3.983</ele>
<time>2018-04-02T12:57:03.060Z</time>
</trkpt>
<trkpt lat="13.7415419" lon="100.5405826">
<ele>4.717</ele>
<time>2018-04-02T12:57:06.014Z</time>
</trkpt>
<trkpt lat="13.7415290" lon="100.5406772">
<ele>5.124</ele>
<time>2018-04-02T12:57:09.999Z</time>
</trkpt>
<trkpt lat="13.7415290" lon="100.5406772">
<ele>5.229</ele>
<time>2018-04-02T12:57:12.999Z</time>
</trkpt>
<trkpt lat="13.7415290" lon="100.5406772">
<ele>5.212</ele>
<time>2018-04-02T12:57:13.099Z</time>
</trkpt>
<trkpt lat="13.7415290" lon="100.5406772">
<ele>5.212</ele>
<time>2018-04-02T12:57:13.099Z</time>
</trkpt>
<trkpt lat="13.7419145" lon="100.5412056">
<ele>96.325</ele>
<time>2018-04-02T13:02:50.586Z</time>
</trkpt>
<trkpt lat="13.7422584" lon="100.5415486">
<ele>96.281</ele>
<time>2018-04-02T13:06:00.613Z</time>
</trkpt>
<trkpt lat="13.7422584" lon="100.5415486">
<ele>96.281</ele>
<time>2018-04-02T13:06:00.613Z</time>
</trkpt>
<trkpt lat="13.7412002" lon="100.5410547">
<ele>0.741</ele>
<time>2018-04-02T13:08:59.808Z</time>
</trkpt>
<trkpt lat="13.7416222" lon="100.5408871">
<ele>0.740</ele>
<time>2018-04-02T13:10:09.571Z</time>
</trkpt>
<trkpt lat="13.7416898" lon="100.5404154">
<ele>4.657</ele>
<time>2018-04-02T13:11:35.627Z</time>
</trkpt>
<trkpt lat="13.7416898" lon="100.5404154">
<ele>4.657</ele>
<time>2018-04-02T13:11:35.627Z</time>
</trkpt>
<trkpt lat="13.7416828" lon="100.5401572">
<ele>35.519</ele>
<time>2018-04-02T13:12:23.154Z</time>
</trkpt>
<trkpt lat="13.7416394" lon="100.5400754">
<ele>35.503</ele>
<time>2018-04-02T13:12:40.313Z</time>
</trkpt>
<trkpt lat="13.7417253" lon="100.5400273">
<ele>32.742</ele>
<time>2018-04-02T13:12:58.834Z</time>
</trkpt>
<trkpt lat="13.7418142" lon="100.5399981">
<ele>25.400</ele>
<time>2018-04-02T13:13:21.630Z</time>
</trkpt>
<trkpt lat="13.7419016" lon="100.5400307">
<ele>17.498</ele>
<time>2018-04-02T13:13:39.231Z</time>
</trkpt>
<trkpt lat="13.7419931" lon="100.5400764">
<ele>13.274</ele>
<time>2018-04-02T13:13:58.501Z</time>
</trkpt>
<trkpt lat="13.7420882" lon="100.5400444">
<ele>12.232</ele>
<time>2018-04-02T13:14:19.506Z</time>
</trkpt>
<trkpt lat="13.7421719" lon="100.5400008">
<ele>12.728</ele>
<time>2018-04-02T13:14:54.549Z</time>
</trkpt>
<trkpt lat="13.7422565" lon="100.5400469">
<ele>13.563</ele>
<time>2018-04-02T13:15:35.643Z</time>
</trkpt>
<trkpt lat="13.7423514" lon="100.5400562">
<ele>14.203</ele>
<time>2018-04-02T13:16:05.993Z</time>
</trkpt>
<trkpt lat="13.7424436" lon="100.5400688">
<ele>14.585</ele>
<time>2018-04-02T13:16:10.993Z</time>
</trkpt>
<trkpt lat="13.7425407" lon="100.5400571">
<ele>14.832</ele>
<time>2018-04-02T13:16:18.992Z</time>
</trkpt>
<trkpt lat="13.7426357" lon="100.5400515">
<ele>15.078</ele>
<time>2018-04-02T13:16:29.941Z</time>
</trkpt>
<trkpt lat="13.7427338" lon="100.5400650">
<ele>15.776</ele>
<time>2018-04-02T13:16:43.069Z</time>
</trkpt>
<trkpt lat="13.7428351" lon="100.5400660">
<ele>17.732</ele>
<time>2018-04-02T13:16:56.015Z</time>
</trkpt>
<trkpt lat="13.7429158" lon="100.5400186">
<ele>20.765</ele>
<time>2018-04-02T13:17:05.837Z</time>
</trkpt>
<trkpt lat="13.7429642" lon="100.5400982">
<ele>23.453</ele>
<time>2018-04-02T13:17:15.658Z</time>
</trkpt>
<trkpt lat="13.7430355" lon="100.5401743">
<ele>24.924</ele>
<time>2018-04-02T13:17:26.591Z</time>
</trkpt>
<trkpt lat="13.7430956" lon="100.5402471">
<ele>25.458</ele>
<time>2018-04-02T13:17:33.911Z</time>
</trkpt>
<trkpt lat="13.7431672" lon="100.5403090">
<ele>25.601</ele>
<time>2018-04-02T13:17:40.491Z</time>
</trkpt>
<trkpt lat="13.7432282" lon="100.5403807">
<ele>25.611</ele>
<time>2018-04-02T13:17:47.388Z</time>
</trkpt>
<trkpt lat="13.7433224" lon="100.5403702">
<ele>25.473</ele>
<time>2018-04-02T13:17:54.990Z</time>
</trkpt>
<trkpt lat="13.7437860" lon="100.5403896">
<ele>25.018</ele>
<time>2018-04-02T13:18:32.815Z</time>
</trkpt>
<trkpt lat="13.7442409" lon="100.5403482">
<ele>24.182</ele>
<time>2018-04-02T13:19:12.665Z</time>
</trkpt>
<trkpt lat="13.7443263" lon="100.5402891">
<ele>22.621</ele>
<time>2018-04-02T13:19:23.998Z</time>
</trkpt>
<trkpt lat="13.7443263" lon="100.5402891">
<ele>21.300</ele>
<time>2018-04-02T13:19:32.998Z</time>
</trkpt>
<trkpt lat="13.7443263" lon="100.5402891">
<ele>20.909</ele>
<time>2018-04-02T13:19:34.324Z</time>
</trkpt>
<trkpt lat="13.7445338" lon="100.5401084">
<ele>21.237</ele>
<time>2018-04-02T13:20:53.332Z</time>
</trkpt>
<trkpt lat="13.7445880" lon="100.5401822">
<ele>23.402</ele>
<time>2018-04-02T13:21:02.095Z</time>
</trkpt>
<trkpt lat="13.7445948" lon="100.5402816">
<ele>28.557</ele>
<time>2018-04-02T13:21:10.380Z</time>
</trkpt>
<trkpt lat="13.7446926" lon="100.5403306">
<ele>34.625</ele>
<time>2018-04-02T13:21:18.612Z</time>
</trkpt>
<trkpt lat="13.7447550" lon="100.5404296">
<ele>38.800</ele>
<time>2018-04-02T13:21:26.493Z</time>
</trkpt>
<trkpt lat="13.7448452" lon="100.5404329">
<ele>40.866</ele>
<time>2018-04-02T13:21:32.777Z</time>
</trkpt>
<trkpt lat="13.7449072" lon="100.5403612">
<ele>41.757</ele>
<time>2018-04-02T13:21:38.955Z</time>
</trkpt>
<trkpt lat="13.7450049" lon="100.5403437">
<ele>42.387</ele>
<time>2018-04-02T13:21:44.995Z</time>
</trkpt>
<trkpt lat="13.7450049" lon="100.5403437">
<ele>43.186</ele>
<time>2018-04-02T13:21:44.995Z</time>
</trkpt>
<trkpt lat="13.7450049" lon="100.5403437">
<ele>43.727</ele>
<time>2018-04-02T13:21:45.095Z</time>
</trkpt>
<trkpt lat="13.7454404" lon="100.5402104">
<ele>43.456</ele>
<time>2018-04-02T13:22:35.871Z</time>
</trkpt>
<trkpt lat="13.7457249" lon="100.5405841">
<ele>43.561</ele>
<time>2018-04-02T13:23:05.907Z</time>
</trkpt>
<trkpt lat="13.7458182" lon="100.5405208">
<ele>44.015</ele>
<time>2018-04-02T13:23:13.205Z</time>
</trkpt>
<trkpt lat="13.7461799" lon="100.5407997">
<ele>44.480</ele>
<time>2018-04-02T13:24:11.156Z</time>
</trkpt>
<trkpt lat="13.7465900" lon="100.5405435">
<ele>45.373</ele>
<time>2018-04-02T13:25:05.823Z</time>
</trkpt>
<trkpt lat="13.7470294" lon="100.5406507">
<ele>47.871</ele>
<time>2018-04-02T13:25:45.681Z</time>
</trkpt>
<trkpt lat="13.7470894" lon="100.5407328">
<ele>49.456</ele>
<time>2018-04-02T13:25:54.998Z</time>
</trkpt>
<trkpt lat="13.7470894" lon="100.5407328">
<ele>48.018</ele>
<time>2018-04-02T13:25:54.998Z</time>
</trkpt>
<trkpt lat="13.7470894" lon="100.5407328">
<ele>46.001</ele>
<time>2018-04-02T13:25:55.098Z</time>
</trkpt>
<trkpt lat="13.7471314" lon="100.5408384">
<ele>45.919</ele>
<time>2018-04-02T13:26:01.998Z</time>
</trkpt>
<trkpt lat="13.7471314" lon="100.5408384">
<ele>46.764</ele>
<time>2018-04-02T13:26:20.998Z</time>
</trkpt>
</trkseg>
</trk>
<extensions>
<fpdata xmlns="http://www.motionx.com/GPX-Extensions/1/1" sfv="10" origin="MotionXGPSFull 24.4 Build 5112 R64">
<bin enc="base64">
RgIAAAACAAAAJ02bpGSw1kEBAAAAC1/JHIyw1kF+ajJZTn/bQK8TAACRYmMBuaLIHS9v
IECPg01b0WFHQAAAAAAVAAAAQmFuZ2tvayBPbmUgRGF5IFRyaXAAFQAAAEFwciAyLCAy
MDE4ICA5OjE2IGFtAAAAAAAxX8kcjLDWQVex7R+MsNZBXsrYAWtlpnlG2YlALAAAAAEA
AAC8GSgFtiFZQCscoBlOgitAuaLIHS9vIEAAAAAAAAAkQAAAAAAAAChAAAAAAABGp0AA
AAAAAAAAAAAAAAAK16NwPbpnQDGHw6nFx0VAAQAAAMkMzpY5rLA/AQAAAAEAAAAO5KJv
OWfNP4DVlIcFv8m/AQAAAAAAAAAGAAAAL288Y60MREAAAAAAAAAAAAAAAAAAAAAAAAAA
AAAAAAAAAAAAAAAAAAAAAAAAAAAAFx8AAIvkP9+LsNZBAAAAAAAAAAAAAAAAAAAAAP8l
RLwCAAAAAAAAAAAAAAABAAAAJwAAADI0LjIgQnVpbGQgNTA2M1I2NCwgTVhBRSA4LjEg
Yi4gNjI2UjY0AAAAAADAXgAAAQAAAAHkAAAAkpLBWnIwwloEEr6cpmSw1kESvpymZLDW
QQAAAFiHCyBAAAAAAAI4TZukZLDWQSr+G6xksNZBAAAAyMMCPkAAAAAAAyaRGq1ksNZB
JpEarWSw1kEAAADIwwI+QAAAAAAELGCdsGSw1kEsYJ2wZLDWQQAAAMjDAj5AAAAAAAJE
wJ2wZLDWQX8wXrJksNZBjpdubMWCTEAAAAAAA3goXbZksNZBeChdtmSw1kGOl25sxYJM
QAAAAAAEXOdFuGSw1kFc50W4ZLDWQY6XbmzFgkxAAAAAAALLZmHMZLDWQR8v+tZksNZB
x0s3CivaWEAAAAAAAuBN39hksNZBxhMQCWWw1kHy0g08vEJyQAAAAAACqWuICWWw1kGR
msYaZbDWQfLSDfZHknZAAAAAAALptwgeZbDWQUykRy5lsNZB8tLNDgOiekAAAAAAAuon
CDJlsNZBjbWEP2Ww1kHy0o13JgF+QAAAAAACw/FIRmWw1kGNCklSZbDWQXnpBlWWgIBA
AAAAAAIKvgpZZbDWQQ6jRWFlsNZBeemG9fKHgUAAAAAAAm5rlG1lsNZBcw8JpGaw1kG8
dBO7QyucQAAAAAADud/cumaw1kG539y6ZrDWQbx0E6Z+iJ1AAAAAAAQUJga/ZrDWQRQm
Br9msNZBvHQDDRPLnUAAAAAAAiIxCaVmsNZB0Jl/wGaw1kG8dPNFquKdQAAAAAACPIEM
V2ew1kGY/IUpaLDWQV662f0ghaVAAAAAAAKOXclDaLDWQd50xlhosNZBXrpZuAktpkAA
AAAAArAejXxosNZByFxafmiw1kFeuhmpczumQAAAAAACEtoJpGiw1kEYWsemaLDWQV66
SalfUaZAAAAAAAJ47oixaLDWQYp3F7JosNZBXrrZ8dNVpkAAAAAAAs4zCb1osNZBhevZ
vWiw1kFeupGvWVymQAAAAAACiq4I5miw1kEZckbraLDWQV66CcxHhqZAAAAAAAK2wcfu
aLDWQUZhGPlosNZBXrqJyMzYpkAAAAAAApfiB/5osNZBWOIZAWmw1kFeupHGXPGmQAAA
AAACn+ZHEGmw1kFoYBoSabDWQV662ZTw/6ZAAAAAAAJtHAkeabDWQR7hBiBpsNZBXrph
ut4Pp0AAAAAAAr9FxyNpsNZBbHYHKmmw1kFeusk/4EGnQAAAAAACkNiKL2mw1kHcS4gz
abDWQV66KdrLYadAAAAAAALwoMk/abDWQUNxBUBpsNZBXrrBXKpjp0AAAAAAAg1wB0Bp
sNZB6WPHQGmw1kFeuqH7qWmnQAAAAAAC1ZZHRWmw1kECf0dIabDWQV66CT2pgadAAAAA
AAKu78haabDWQdzVh1xpsNZBXrp5bqCPp0AAAAAAAnr9k15psNZBJjYHX2mw1kFeutkz
OpOnQAAAAAACJuUGZWmw1kG+/IZnabDWQV66mfA6p6dAAAAAAAJEhInNabDWQf+whs9p
sNZBXrpxViS3p0AAAAAAAmxFh9RpsNZByocK32mw1kFeumFpPguoQAAAAAAC4IWH72mw
1kFuhZbwabDWQV660WW2E6hAAAAAAAKSCgkUarDWQS4aRxhqsNZBXrqx4qY1qEAAAAAA
AhA9ynpqsNZB8DeHh2qw1kFeurG5jpuoQAAAAAADMPdU82qw1kEw91TzarDWQV66FWDz
z6tAAAAAAARiKgcGa7DWQWIqBwZrsNZBXrrR+YRlrEAAAAAAAoRiyIxqsNZB9MSGUGuw
1kFeujHNgbmuQAAAAAACOkGJVmuw1kFE3MZ/a7DWQS/dwFK3AbBAAAAAAALeroaJa7DW
QfrQhZNrsNZBL90w27MpsEAAAAAAAgkYB5lrsNZBjEzGnmuw1kEv3TytsECwQAAAAAAC
nrCIrGuw1kGl9oa3a7DWQS/dWMWpbLBAAAAAAAI2xwfea7DWQUfIRuRrsNZBL92cyaWF
sEAAAAAAApTeB+hrsNZBLnIY+Wuw1kEv3QQY6MmwQAAAAAACkh2I/Guw1kGSQAcDbLDW
QS/dBKTk47BAAAAAAAIwYYkobLDWQch4hjNssNZBL91kAtkPsUAAAAAAAuQWizxssNZB
BoVGQGyw1kEv3ey6xh6xQAAAAAACXAWIRmyw1kG0kwdIbLDWQS/dTPTEJLFAAAAAAAJq
9spLbLDWQSHLhkxssNZBL90oR7QnsUAAAAAAAoD0l2pssNZBRrOGa2yw1kEv3UBCbyux
QAAAAAACbLCHcGyw1kGrBQdzbLDWQS/dPJdsNbFAAAAAAAInToZ1bLDWQXU81HZssNZB
L910UKQ6sUAAAAAAAvTHyHlssNZBboXGgGyw1kEv3VxGm1axQAAAAAAC9n5IhWyw1kG+
3bCIbLDWQS/dfME8ZLFAAAAAAAJr8giMbLDWQe7mRo5ssNZBL92IkzRtsUAAAAAAAt5z
B55ssNZBaytGoGyw1kEv3bxxL3axQAAAAAACjj4Xo2yw1kH68Ye8bLDWQS/dbD/y27FA
AAAAAAL+Zca+bLDWQag2BsRssNZBL90UgvHwsUAAAAAAAjiCDNlssNZB26MG+Wyw1kEv
3aAI2nCyQAAAAAAClIuH+2yw1kGqDkUEbbDWQS/d+BTQk7JAAAAAAALCv8gJbbDWQdkk
hQxtsNZBL91UqcGeskAAAAAAA+rpUhhtsNZB6ulSGG2w1kEv3XDV7amyQAAAAAAEfNTH
G22w1kF81McbbbDWQS/dln/Bt7JAAAAAAAIJ34cVbbDWQVagyBttsNZBL92IrsS3skAA
AAAAAuDbRy1tsNZBLzLGMW2w1kEv3cQHvsmyQAAAAAAC3gdINm2w1kHIl4c3bbDWQS/d
bEe8zrJAAAAAAAKcSwl2bbDWQeSgx3dtsNZBL92MnLXVskAAAAAAA4Jy0nxtsNZBgnLS
fG2w1kEv3YyctdWyQAAAAAAEdlYGl22w1kF2VgaXbbDWQS/djJy11bJAAAAAAAK9/QWY
bbDWQXL+h5htsNZBL91gn73XskAAAAAAAoBoiZhtsNZBWKwMmW2w1kEv3cCuytmyQAAA
AAACD9NInW2w1kFUbMWgbbDWQS/d1BO957JAAAAAAAJgccevbbDWQbEXR7ptsNZBL90Y
rbsRs0AAAAAAAkDYiMFtsNZBJEFGwm2w1kEv3ahQsRSzQAAAAAAC6s5Hwm2w1kHaq4bC
bbDWQS/daMSsFbNAAAAAAAOmQ9LRbbDWQaZD0tFtsNZBL93Q/s8Xs0AAAAAABInPBuNt
sNZBic8G422w1kEv3aAuolyzQAAAAAACNnVJ0W2w1kFcqYfkbbDWQS/dAJWlYrNAAAAA
AALpKkr4bbDWQfYOB/1tsNZBL900JZl1s0AAAAAAAu4niABusNZBGJKHBG6w1kEv3dzN
loWzQAAAAAACzcpICG6w1kH/lUYJbrDWQS/dpPqNibNAAAAAAALNIcgPbrDWQdY8xhFu
sNZBL93IZoaRs0AAAAAAAoZTSxdusNZB/OPGGG6w1kEv3aCodJezQAAAAAACIJbHHm6w
1kF4eMYqbrDWQS/dADJwx7NAAAAAAAJUpsc5brDWQcKoBoBusNZBL924O2zgtEAAAAAA
AoREB49usNZBptdWkG6w1kEv3UCIquW0QAAAAAACAYnHkm6w1kFQxIaZbrDWQS/dfHWn
ALVAAAAAAAJOXVTcbrDWQfgbh+VusNZBL90kcHIltUAAAAAAAio7BudusNZBjseG6G6w
1kEv3bShdCu1QAAAAAACAKaH726w1kFAxIb0brDWQS/dtBpxP7VAAAAAAAJc/8gab7DW
QV5hRyBvsNZBL928ompVtUAAAAAAAhpriipvsNZBQj1JK2+w1kEv3VzrZVi1QAAAAAAC
tqJKK2+w1kEqxYYrb7DWQS/dLHVWWbVAAAAAAAKWCYctb7DWQcCTBjRvsNZBL93UnVRz
tUAAAAAAAvX0CjdvsNZBtOmGPG+w1kEv3dBwRIm1QAAAAAACMqhHQW+w1kEO14ZDb7DW
QS/dQCxBkrVAAAAAAAKoVAl3b7DWQY+MB35vsNZBL93cCzqutUAAAAAAAji8B6BvsNZB
qFWHom+w1kEv3ZxxOLi1QAAAAAACcCYHqG+w1kFQVIffb7DWQS/dHCk5lrZAAAAAAAIs
2dD/b7DWQc6GxRNwsNZBL92k3wvmtkAAAAAAAvWDRhZwsNZBYvhFMnCw1kEv3VixCVa3
QAAAAAACYI5NZHCw1kHUngZlcLDWQS/dKPPtWLdAAAAAAAIbn4ZqcLDWQZyhxm5wsNZB
L90s/e1pt0AAAAAAAgyUSHhwsNZBMKPHh3Cw1kEv3bw56qe3QAAAAAACIvjP0HCw1kFK
d0jUcLDWQS/dXDbMtbdAAAAAAAK9OAwFcbDWQV4vgwhxsNZBL93gEKjDt0AAAAAAA6gA
ExxxsNZBqAATHHGw1kEv3U5819+3QAAAAAAEbDwGH3Gw1kFsPAYfcbDWQS/dtmuk67dA
AAAAAALqJQcVcbDWQY4HCThxsNZBL91wl69PuEAAAAAAAsivzEVxsNZBXeCHZXGw1kEv
3cRZnM64QAAAAAADLxcPc3Gw1kEvFw9zcbDWQS/d0Mu327hAAAAAAASUTod3cbDWQZRO
h3dxsNZBL910qZjtuEAAAAAAA6JBUoBxsNZBokFSgHGw1kEv3cB1xBC5QAAAAAAEoz4I
hnGw1kGjPgiGcbDWQS/d4mmcJ7lAAAAAAANKK1CPcbDWQUorUI9xsNZBL91cHLxMuUAA
AAAABA5lS5JxsNZBDmVLknGw1kEv3U4DqVi5QAAAAAADnZ3RlHGw1kGdndGUcbDWQS/d
muXBYrlAAAAAAAQuwwmecbDWQS7DCZ5xsNZBL92ue6KHuUAAAAAAA/iKkp5xsNZB+IqS
nnGw1kEv3eSaxYm5QAAAAAAEDt0GqXGw1kEO3QapcbDWQS/dfOOWs7lAAAAAAALOOshv
cbDWQZp1B6lxsNZBL930RJmzuUAAAAAAAoIbydJxsNZB4e3H5nGw1kEv3XCOlAO6QAAA
AAACnupL73Gw1kHcnobzcbDWQS/daF9/FLpAAAAAAAK9xwb3cbDWQY1EhwJysNZBL92o
UoFCukAAAAAAAtOFyBFysNZBmq7HEnKw1kEv3cT1fUa6QAAAAAACoRCHGHKw1kEj90UZ
crDWQS/dzI95SbpAAAAAAAIcR0cZcrDWQV7AhRlysNZBL93UdHNKukAAAAAAAu6yzZty
sNZBWoHGnHKw1kEv3YSuVk66QAAAAAACb9aIxHKw1kFGJwbFcrDWQS/d4PFLULpAAAAA
AALc2QvFcrDWQQ/TRcVysNZBL92s1jNRukAAAAAAAwCNTsZysNZBAI1OxnKw1kEv3azW
M1G6QAAAAAAEZCPG03Kw1kFkI8bTcrDWQS/drNYzUbpAAAAAAAOfys3UcrDWQZ/KzdRy
sNZB46VJO69YukAAAAAABECgxthysNZBQKDG2HKw1kHjpY2Rkmi6QAAAAAACUOHG03Kw
1kHJV8fYcrDWQeOlB2+VaLpAAAAAAANStqAqc7DWQVK2oCpzsNZB46X/Ef91ukAAAAAA
BHo2SBl0sNZBejZIGXSw1kHjpRMTnTC+QAAAAAACpU1GJ3Ow1kF+VEsZdLDWQeOla4qp
ML5AAAAAAAOYNs1FdLDWQZg2zUV0sNZB46VriqkwvkAAAAAABO+PhnF0sNZB74+GcXSw
1kHjpWuKqTC+QAAAAAADsOXPdHSw1kGw5c90dLDWQch2ChGlP75AAAAAAATNr0V4dLDW
Qc2vRXh0sNZByHZ+OXxNvkAAAAAAA4v7D1V1sNZBi/sPVXWw1kFkOzy0UuDAQAAAAAAE
ZqKGi3Ww1kFmooaLdbDWQWQ76QFATcFAAAAAAAL2eodxdLDWQWcphox1sNZBZDupDz9P
wUAAAAAAA4S+DpB1sNZBhL4OkHWw1kFkO6kPP0/BQAAAAAAEFD3IlHWw1kEUPciUdbDW
QWQ7qQ8/T8FAAAAAAAJq9siUdbDWQWLcWcJ5sNZBGi+XsJmryUAAAAAAAtLiTNN5sNZB
Tp4Fznuw1kEaL48nC6HNQAAAAAACkBHM3Huw1kEzxEbhe7DWQRov1YwAqs1AAAAAAAKn
lYfne7DWQYB9Rg18sNZBGi+HXH71zUAAAAAAAxZPRg98sNZBFk9GD3yw1kEaL4dcfvXN
QAAAAAAE7iJKOHyw1kHuIko4fLDWQRovh1x+9c1AAAAAAAIQAk44fLDWQdqvZjl8sNZB
/dS2fPD3zUAAAAAAAiNpzGB8sNZBPuxHY3yw1kH91OyC5/zNQAAAAAACKm3HZnyw1kFG
CsdxfLDWQf3UJL3mEs5AAAAAAAL844dzfLDWQXjwB3d8sNZB/dQc1uYZzkAAAAAAAkWf
x4B8sNZBPgKHgXyw1kH91A6cZRvOQAAAAAAC6GWIgXyw1kFcb8aBfLDWQf3U9q7hG85A
AAAAAALqW8iFfLDWQTCcBod8sNZB/dSCL14ezkAAAAAAAgDliJB8sNZB8BuIk3yw1kH9
1GKdXCTOQAAAAAACaCbJonyw1kG85Ub5fLDWQf3UChxY0c5AAAAAAAIqNsgHfbDWQVH4
h2J9sNZB/dRYoNeGz0AAAAAAAoZ1SGd9sNZBxEJIfn2w1kH91NQ617TPQAAAAAACfCxH
gH2w1kF40kiQfbDWQf3UzIba1M9AAAAAAAIQzwaWfbDWQdJrh5l9sNZB/dRQwNvbz0AA
AAAAAjCbSad9sNZBatrHrX2w1kH91MQ+2OjPQAAAAAACFv5IsX2w1kECCseyfbDWQf3U
nFbU689AAAAAAAI43QnNfbDWQfruh9F9sNZB/dQgetD0z0AAAAAAAr7ZCfx9sNZBRL9H
CX6w1kF+apYipgfQQAAAAAACrKrJC36w1kFuwoYQfrDWQX5qWDpjDNBAAAAAAAIT8gYZ
frDWQVXAxRl+sNZBfmqaCCIN0EAAAAAAAkoPCzp+sNZBhKBHO36w1kF+atSZXg7QQAAA
AAACklnJSX6w1kFlNYdofrDWQX5qp3UcLdBAAAAAAAJUyYh1frDWQUbwBcB+sNZBfmqZ
nJl30EAAAAAAAkqyRcN+sNZBSZ4GxX6w1kF+apiIWnnQQAAAAAAC6NsI0n6w1kHGxYYN
f7DWQX5qdnLYtNBAAAAAAAJ2xEUSf7DWQR4ARil/sNZBfmoertjL0EAAAAAAAvqbii5/
sNZB61PHTn+w1kF+ag9mFezQQAAAAAACXMkKbH+w1kFeg4Zsf7DWQX5qESCR7NBAAAAA
AAIqGUdvf7DWQUwVB3J/sNZBfmozHFHv0EAAAAAAAtR/R3V/sNZBsd/Gdn+w1kF+ahB8
0PDQQAAAAAACjq1Jf3+w1kEzw4aif7DWQX5qtZENFNFAAAAAAAIEHwitf7DWQX7fBq5/
sNZBfmovUgwV0UAAAAAAAnBBSLJ/sNZBNq2Bs3+w1kF+avW9RRbRQAAAAAACNElHuH+w
1kHG9kXPf7DWQX5qh2tELdFAAAAAAALogUjRf7DWQdukQd5/sNZBfmp6jj060UAAAAAA
AluXzZOAsNZBNIQGloCw1kF+alN7djzRQAAAAAACHOgIo4Cw1kG4ykXYgLDWQX5q712z
cdFAAAAAAALW3sUGgbDWQWr2BAiBsNZBfmqDdfJy0UAAAAAAAv29S1CBsNZBQ1VFUoGw
1kF+askM7HTRQAAAAAACrWuuqIGw1kG+uxP5gbDWQX5q2lxRxdFAAAAAAAO0W4X8hLDW
QbRbhfyEsNZBfmoC/cLI1EAAAAAAA+kpzf2EsNZB6SnN/YSw1kF+6g3LCsrUQAAAAAAE
xjPFAIWw1kHGM8UAhbDWQX7q7tQCzdRAAAAAAAKta66ogbDWQbzJyDmFsNZBfmrYagYG
1UAAAAAAA5Si+ymHsNZBlKL7KYew1kF+avQ9WM/WQAAAAAADLLtWK4ew1kEsu1Yrh7DW
QX7qalaz0NZAAAAAAAQy50Uxh7DWQTLnRTGHsNZBfup0gqLW1kAAAAAAAqbPqWCFsNZB
emzFRYew1kF+aqwHIuvWQAAAAAACKsoGUYew1kEG8sTUh7DWQX5qiC/gbtdAAAAAAAJi
R4XWh7DWQSwqB/SHsNZBfmpSEmKM10AAAAAAAmSXzviHsNZBCHKHEIiw1kF+avbsGqTX
QAAAAAAC6iWIEoiw1kFI+McpiLDWQX5qVL9au9dAAAAAAAJdw0griLDWQbQfyTiIsNZB
fmqrG9vI10AAAAAAAkGdyDqIsNZB/HFFSIiw1kF+ambwV9bXQAAAAAACzEWGSYiw1kGe
1YbSibDWQX5qOIBYX9lAAAAAAAP8UFUHirDWQfxQVQeKsNZBfuo8nGN/2UAAAAAABCS2
xwqKsNZBJLbHCoqw1kF+6nAB1oLZQAAAAAACGjVK54mw1kHTTEcqirDWQX5q8ZdVotlA
AAAAAANGJdY0irDWQUYl1jSKsNZBfuow6uSq2UAAAAAABLnhxqeKsNZBueHGp4qw1kF+
6qem1R3aQAAAAAADEECV8oqw1kEQQJXyirDWQX7qBgWkaNpAAAAAAASAfYYXi7DWQYB9
hheLsNZBfmpvQpWN2kAAAAAAAzRr1SuLsNZBNGvVK4uw1kF+ag0w5KHaQAAAAAAEQgcG
L4uw1kFCBwYvi7DWQX5qOcwUpdpAAAAAAAIs00YsirDWQTT3h3mLsNZBfmr5u5bv2kAA
AAAAAvj+RoiLsNZBEsOGmouw1kF+ahOA1gHbQAAAAAACEVSInYuw1kGSWQXZi7DWQX5q
lIVTPdtAAAAAAAOqgVPfi7DWQaqBU9+LsNZBfmrBcB9C20AAAAAAAaKWh9qLsNZBQGqC
HIyw1kF+ajJZTn/bQAAAAAAAAAAA
</bin>
</fpdata>
</extensions>
</gpx>
